<?xml version="1.0" encoding="UTF-8" standalone="no" ?>
<gpx xmlns="http://www.topografix.com/GPX/1/1" xmlns:xsi="http://www.w3.org/2001/XMLSchema-instance" xsi:schemaLocation="http://www.topografix.com/GPX/1/1 http://www.topografix.com/GPX/1/1/gpx.xsd" version="1.1" creator="VisuGPX - https://www.visugpx.com">
  <metadata>
    <name>SO-E-Bouaye St Lumine Coutais Chevrolière Pont St Martin</name>
    <desc><![CDATA[SO-E-Bouaye St Lumine Coutais Chevrolière Pont St Martin]]></desc>
  </metadata>
  <trk>
    <name><![CDATA[2020-05-11 17:16]]></name>
    <desc><![CDATA[<p>Heure de départ: 05/11/2020 17:29<br/>Heure d'arrivée: 05/11/2020 19:39<br/>Distance: 50,7 km (02:09)<br/>Temps déplacement: 02:09<br/>Vitesse moyenne: 23,49 km/h<br/>Vitesse moyenne mouv.: 23,55 km/h<br/>Vitesse Max.: 38,73 km/h<br/>Altitude minimale: -5 m<br/>Altitude maximale: 35 m<br/>Vitesse de montée: 727,6 m/h<br/>Vitesse de descente: -834 m/h<br/>Gain d'altitude: 718 m<br/>Perte d'altitude: -740 m<br/>Temps de montée: 00:59<br/>Temps de descente: 00:53<br/></p><hr align="center" width="480" style="height: 2px; width: 517px"/>]]></desc>
    <trkseg>
      <trkpt lat="47.1687" lon="-1.62879">
        <ele>35.92</ele>
        <time>2020-05-11T15:29:54Z</time>
      </trkpt>
      <trkpt lat="47.16876" lon="-1.62891">
        <ele>32.19</ele>
        <time>2020-05-11T15:29:55Z</time>
      </trkpt>
      <trkpt lat="47.16882" lon="-1.62909">
        <ele>29.5</ele>
        <time>2020-05-11T15:29:57Z</time>
      </trkpt>
      <trkpt lat="47.16887" lon="-1.62923">
        <ele>29.84</ele>
        <time>2020-05-11T15:29:59Z</time>
      </trkpt>
      <trkpt lat="47.16888" lon="-1.62942">
        <ele>20.8</ele>
        <time>2020-05-11T15:30:01Z</time>
      </trkpt>
      <trkpt lat="47.16889" lon="-1.6296">
        <ele>22.35</ele>
        <time>2020-05-11T15:30:03Z</time>
      </trkpt>
      <trkpt lat="47.16888" lon="-1.6298">
        <ele>24.11</ele>
        <time>2020-05-11T15:30:05Z</time>
      </trkpt>
      <trkpt lat="47.16886" lon="-1.62997">
        <ele>26.2</ele>
        <time>2020-05-11T15:30:07Z</time>
      </trkpt>
      <trkpt lat="47.16885" lon="-1.63017">
        <ele>26.91</ele>
        <time>2020-05-11T15:30:09Z</time>
      </trkpt>
      <trkpt lat="47.16886" lon="-1.63037">
        <ele>25.39</ele>
        <time>2020-05-11T15:30:11Z</time>
      </trkpt>
      <trkpt lat="47.16886" lon="-1.63056">
        <ele>26.5</ele>
        <time>2020-05-11T15:30:13Z</time>
      </trkpt>
      <trkpt lat="47.16888" lon="-1.63076">
        <ele>26.55</ele>
        <time>2020-05-11T15:30:15Z</time>
      </trkpt>
      <trkpt lat="47.1689" lon="-1.63093">
        <ele>23.39</ele>
        <time>2020-05-11T15:30:17Z</time>
      </trkpt>
      <trkpt lat="47.16893" lon="-1.6311">
        <ele>23.2</ele>
        <time>2020-05-11T15:30:19Z</time>
      </trkpt>
      <trkpt lat="47.16899" lon="-1.63128">
        <ele>23.79</ele>
        <time>2020-05-11T15:30:21Z</time>
      </trkpt>
      <trkpt lat="47.16903" lon="-1.63145">
        <ele>23.44</ele>
        <time>2020-05-11T15:30:23Z</time>
      </trkpt>
      <trkpt lat="47.16908" lon="-1.63161">
        <ele>24.08</ele>
        <time>2020-05-11T15:30:25Z</time>
      </trkpt>
      <trkpt lat="47.16913" lon="-1.63177">
        <ele>24.84</ele>
        <time>2020-05-11T15:30:27Z</time>
      </trkpt>
      <trkpt lat="47.16921" lon="-1.63195">
        <ele>25.59</ele>
        <time>2020-05-11T15:30:29Z</time>
      </trkpt>
      <trkpt lat="47.16928" lon="-1.63208">
        <ele>24.84</ele>
        <time>2020-05-11T15:30:31Z</time>
      </trkpt>
      <trkpt lat="47.16938" lon="-1.63221">
        <ele>24.47</ele>
        <time>2020-05-11T15:30:33Z</time>
      </trkpt>
      <trkpt lat="47.16947" lon="-1.63232">
        <ele>23.59</ele>
        <time>2020-05-11T15:30:35Z</time>
      </trkpt>
      <trkpt lat="47.16955" lon="-1.63241">
        <ele>23.13</ele>
        <time>2020-05-11T15:30:37Z</time>
      </trkpt>
      <trkpt lat="47.16963" lon="-1.6325">
        <ele>24.23</ele>
        <time>2020-05-11T15:30:39Z</time>
      </trkpt>
      <trkpt lat="47.1696" lon="-1.6327">
        <ele>24.62</ele>
        <time>2020-05-11T15:30:44Z</time>
      </trkpt>
      <trkpt lat="47.16953" lon="-1.63285">
        <ele>25.27</ele>
        <time>2020-05-11T15:30:46Z</time>
      </trkpt>
      <trkpt lat="47.16942" lon="-1.63303">
        <ele>26.09</ele>
        <time>2020-05-11T15:30:48Z</time>
      </trkpt>
      <trkpt lat="47.16932" lon="-1.63317">
        <ele>26.28</ele>
        <time>2020-05-11T15:30:50Z</time>
      </trkpt>
      <trkpt lat="47.16922" lon="-1.63332">
        <ele>26.48</ele>
        <time>2020-05-11T15:30:52Z</time>
      </trkpt>
      <trkpt lat="47.16913" lon="-1.63345">
        <ele>26.73</ele>
        <time>2020-05-11T15:30:54Z</time>
      </trkpt>
      <trkpt lat="47.16905" lon="-1.63357">
        <ele>26.78</ele>
        <time>2020-05-11T15:30:56Z</time>
      </trkpt>
      <trkpt lat="47.16896" lon="-1.63368">
        <ele>26.86</ele>
        <time>2020-05-11T15:30:58Z</time>
      </trkpt>
      <trkpt lat="47.16887" lon="-1.63382">
        <ele>28.31</ele>
        <time>2020-05-11T15:31:00Z</time>
      </trkpt>
      <trkpt lat="47.16878" lon="-1.63395">
        <ele>29.38</ele>
        <time>2020-05-11T15:31:02Z</time>
      </trkpt>
      <trkpt lat="47.16867" lon="-1.6341">
        <ele>30.02</ele>
        <time>2020-05-11T15:31:04Z</time>
      </trkpt>
      <trkpt lat="47.16859" lon="-1.63424">
        <ele>31.4</ele>
        <time>2020-05-11T15:31:06Z</time>
      </trkpt>
      <trkpt lat="47.1685" lon="-1.63439">
        <ele>31.8</ele>
        <time>2020-05-11T15:31:08Z</time>
      </trkpt>
      <trkpt lat="47.16843" lon="-1.63451">
        <ele>30.45</ele>
        <time>2020-05-11T15:31:10Z</time>
      </trkpt>
      <trkpt lat="47.16835" lon="-1.63465">
        <ele>29.55</ele>
        <time>2020-05-11T15:31:12Z</time>
      </trkpt>
      <trkpt lat="47.16827" lon="-1.63479">
        <ele>29.66</ele>
        <time>2020-05-11T15:31:14Z</time>
      </trkpt>
      <trkpt lat="47.16817" lon="-1.63495">
        <ele>28.85</ele>
        <time>2020-05-11T15:31:16Z</time>
      </trkpt>
      <trkpt lat="47.16809" lon="-1.63511">
        <ele>28.03</ele>
        <time>2020-05-11T15:31:18Z</time>
      </trkpt>
      <trkpt lat="47.16801" lon="-1.63526">
        <ele>27.08</ele>
        <time>2020-05-11T15:31:20Z</time>
      </trkpt>
      <trkpt lat="47.16792" lon="-1.63541">
        <ele>25.64</ele>
        <time>2020-05-11T15:31:22Z</time>
      </trkpt>
      <trkpt lat="47.16783" lon="-1.63558">
        <ele>25.43</ele>
        <time>2020-05-11T15:31:24Z</time>
      </trkpt>
      <trkpt lat="47.16774" lon="-1.63573">
        <ele>26.43</ele>
        <time>2020-05-11T15:31:26Z</time>
      </trkpt>
      <trkpt lat="47.16765" lon="-1.63589">
        <ele>26.48</ele>
        <time>2020-05-11T15:31:28Z</time>
      </trkpt>
      <trkpt lat="47.16755" lon="-1.63606">
        <ele>26.55</ele>
        <time>2020-05-11T15:31:30Z</time>
      </trkpt>
      <trkpt lat="47.16746" lon="-1.63622">
        <ele>27.24</ele>
        <time>2020-05-11T15:31:32Z</time>
      </trkpt>
      <trkpt lat="47.16739" lon="-1.63637">
        <ele>26.35</ele>
        <time>2020-05-11T15:31:34Z</time>
      </trkpt>
      <trkpt lat="47.16731" lon="-1.63656">
        <ele>26.43</ele>
        <time>2020-05-11T15:31:36Z</time>
      </trkpt>
      <trkpt lat="47.16726" lon="-1.63668">
        <ele>26.6</ele>
        <time>2020-05-11T15:31:37Z</time>
      </trkpt>
      <trkpt lat="47.16719" lon="-1.63688">
        <ele>27.41</ele>
        <time>2020-05-11T15:31:39Z</time>
      </trkpt>
      <trkpt lat="47.16713" lon="-1.63704">
        <ele>26.36</ele>
        <time>2020-05-11T15:31:41Z</time>
      </trkpt>
      <trkpt lat="47.16708" lon="-1.63723">
        <ele>25.27</ele>
        <time>2020-05-11T15:31:43Z</time>
      </trkpt>
      <trkpt lat="47.16702" lon="-1.63741">
        <ele>24.65</ele>
        <time>2020-05-11T15:31:45Z</time>
      </trkpt>
      <trkpt lat="47.16697" lon="-1.63761">
        <ele>24.57</ele>
        <time>2020-05-11T15:31:47Z</time>
      </trkpt>
      <trkpt lat="47.16692" lon="-1.6378">
        <ele>23.9</ele>
        <time>2020-05-11T15:31:49Z</time>
      </trkpt>
      <trkpt lat="47.16688" lon="-1.63797">
        <ele>23.2</ele>
        <time>2020-05-11T15:31:51Z</time>
      </trkpt>
      <trkpt lat="47.16685" lon="-1.63816">
        <ele>23.72</ele>
        <time>2020-05-11T15:31:53Z</time>
      </trkpt>
      <trkpt lat="47.16682" lon="-1.63834">
        <ele>25.27</ele>
        <time>2020-05-11T15:31:55Z</time>
      </trkpt>
      <trkpt lat="47.16679" lon="-1.63856">
        <ele>26.71</ele>
        <time>2020-05-11T15:31:57Z</time>
      </trkpt>
      <trkpt lat="47.16676" lon="-1.63874">
        <ele>27.44</ele>
        <time>2020-05-11T15:31:59Z</time>
      </trkpt>
      <trkpt lat="47.16673" lon="-1.63894">
        <ele>27.46</ele>
        <time>2020-05-11T15:32:01Z</time>
      </trkpt>
      <trkpt lat="47.1667" lon="-1.63911">
        <ele>27</ele>
        <time>2020-05-11T15:32:03Z</time>
      </trkpt>
      <trkpt lat="47.16667" lon="-1.63929">
        <ele>26.93</ele>
        <time>2020-05-11T15:32:05Z</time>
      </trkpt>
      <trkpt lat="47.16663" lon="-1.63945">
        <ele>27.08</ele>
        <time>2020-05-11T15:32:07Z</time>
      </trkpt>
      <trkpt lat="47.16658" lon="-1.63963">
        <ele>26.76</ele>
        <time>2020-05-11T15:32:09Z</time>
      </trkpt>
      <trkpt lat="47.16653" lon="-1.6398">
        <ele>26.4</ele>
        <time>2020-05-11T15:32:11Z</time>
      </trkpt>
      <trkpt lat="47.16647" lon="-1.63996">
        <ele>27.07</ele>
        <time>2020-05-11T15:32:13Z</time>
      </trkpt>
      <trkpt lat="47.16641" lon="-1.6401">
        <ele>27.76</ele>
        <time>2020-05-11T15:32:15Z</time>
      </trkpt>
      <trkpt lat="47.16634" lon="-1.64023">
        <ele>29.25</ele>
        <time>2020-05-11T15:32:17Z</time>
      </trkpt>
      <trkpt lat="47.16626" lon="-1.64041">
        <ele>29.89</ele>
        <time>2020-05-11T15:32:19Z</time>
      </trkpt>
      <trkpt lat="47.16619" lon="-1.64054">
        <ele>30.52</ele>
        <time>2020-05-11T15:32:21Z</time>
      </trkpt>
      <trkpt lat="47.16611" lon="-1.6407">
        <ele>31.53</ele>
        <time>2020-05-11T15:32:23Z</time>
      </trkpt>
      <trkpt lat="47.16603" lon="-1.64088">
        <ele>31.61</ele>
        <time>2020-05-11T15:32:25Z</time>
      </trkpt>
      <trkpt lat="47.16595" lon="-1.64102">
        <ele>31.97</ele>
        <time>2020-05-11T15:32:27Z</time>
      </trkpt>
      <trkpt lat="47.16586" lon="-1.64119">
        <ele>31.94</ele>
        <time>2020-05-11T15:32:29Z</time>
      </trkpt>
      <trkpt lat="47.16578" lon="-1.64136">
        <ele>32.33</ele>
        <time>2020-05-11T15:32:31Z</time>
      </trkpt>
      <trkpt lat="47.16569" lon="-1.64153">
        <ele>33.01</ele>
        <time>2020-05-11T15:32:33Z</time>
      </trkpt>
      <trkpt lat="47.1656" lon="-1.64171">
        <ele>33.57</ele>
        <time>2020-05-11T15:32:36Z</time>
      </trkpt>
      <trkpt lat="47.1655" lon="-1.64189">
        <ele>33.62</ele>
        <time>2020-05-11T15:32:37Z</time>
      </trkpt>
      <trkpt lat="47.16538" lon="-1.64208">
        <ele>34.21</ele>
        <time>2020-05-11T15:32:39Z</time>
      </trkpt>
      <trkpt lat="47.16531" lon="-1.64218">
        <ele>34.02</ele>
        <time>2020-05-11T15:32:40Z</time>
      </trkpt>
      <trkpt lat="47.1652" lon="-1.64234">
        <ele>33.62</ele>
        <time>2020-05-11T15:32:42Z</time>
      </trkpt>
      <trkpt lat="47.16506" lon="-1.64251">
        <ele>33.22</ele>
        <time>2020-05-11T15:32:44Z</time>
      </trkpt>
      <trkpt lat="47.16494" lon="-1.64267">
        <ele>32.22</ele>
        <time>2020-05-11T15:32:46Z</time>
      </trkpt>
      <trkpt lat="47.16482" lon="-1.64283">
        <ele>31.97</ele>
        <time>2020-05-11T15:32:48Z</time>
      </trkpt>
      <trkpt lat="47.16469" lon="-1.64298">
        <ele>30.04</ele>
        <time>2020-05-11T15:32:50Z</time>
      </trkpt>
      <trkpt lat="47.16457" lon="-1.64314">
        <ele>28.7</ele>
        <time>2020-05-11T15:32:52Z</time>
      </trkpt>
      <trkpt lat="47.1645" lon="-1.64323">
        <ele>28.38</ele>
        <time>2020-05-11T15:32:53Z</time>
      </trkpt>
      <trkpt lat="47.16443" lon="-1.64332">
        <ele>28.15</ele>
        <time>2020-05-11T15:32:54Z</time>
      </trkpt>
      <trkpt lat="47.16431" lon="-1.64347">
        <ele>27.64</ele>
        <time>2020-05-11T15:32:56Z</time>
      </trkpt>
      <trkpt lat="47.16419" lon="-1.64363">
        <ele>28.59</ele>
        <time>2020-05-11T15:32:58Z</time>
      </trkpt>
      <trkpt lat="47.16408" lon="-1.64377">
        <ele>29.46</ele>
        <time>2020-05-11T15:33:00Z</time>
      </trkpt>
      <trkpt lat="47.16396" lon="-1.64396">
        <ele>30.67</ele>
        <time>2020-05-11T15:33:02Z</time>
      </trkpt>
      <trkpt lat="47.16391" lon="-1.64406">
        <ele>31.14</ele>
        <time>2020-05-11T15:33:03Z</time>
      </trkpt>
      <trkpt lat="47.16381" lon="-1.64428">
        <ele>30.69</ele>
        <time>2020-05-11T15:33:05Z</time>
      </trkpt>
      <trkpt lat="47.16372" lon="-1.64449">
        <ele>29.28</ele>
        <time>2020-05-11T15:33:07Z</time>
      </trkpt>
      <trkpt lat="47.16364" lon="-1.6447">
        <ele>27.38</ele>
        <time>2020-05-11T15:33:09Z</time>
      </trkpt>
      <trkpt lat="47.16358" lon="-1.64481">
        <ele>26.42</ele>
        <time>2020-05-11T15:33:10Z</time>
      </trkpt>
      <trkpt lat="47.16348" lon="-1.64502">
        <ele>24.87</ele>
        <time>2020-05-11T15:33:12Z</time>
      </trkpt>
      <trkpt lat="47.16343" lon="-1.64513">
        <ele>23.8</ele>
        <time>2020-05-11T15:33:13Z</time>
      </trkpt>
      <trkpt lat="47.16337" lon="-1.64524">
        <ele>23.49</ele>
        <time>2020-05-11T15:33:14Z</time>
      </trkpt>
      <trkpt lat="47.16331" lon="-1.64537">
        <ele>23.83</ele>
        <time>2020-05-11T15:33:15Z</time>
      </trkpt>
      <trkpt lat="47.16325" lon="-1.64548">
        <ele>23.87</ele>
        <time>2020-05-11T15:33:16Z</time>
      </trkpt>
      <trkpt lat="47.16315" lon="-1.64568">
        <ele>24.1</ele>
        <time>2020-05-11T15:33:18Z</time>
      </trkpt>
      <trkpt lat="47.16309" lon="-1.64579">
        <ele>23.96</ele>
        <time>2020-05-11T15:33:19Z</time>
      </trkpt>
      <trkpt lat="47.16299" lon="-1.64599">
        <ele>23.96</ele>
        <time>2020-05-11T15:33:21Z</time>
      </trkpt>
      <trkpt lat="47.16288" lon="-1.64619">
        <ele>24.3</ele>
        <time>2020-05-11T15:33:23Z</time>
      </trkpt>
      <trkpt lat="47.16279" lon="-1.64639">
        <ele>24.05</ele>
        <time>2020-05-11T15:33:25Z</time>
      </trkpt>
      <trkpt lat="47.16269" lon="-1.64659">
        <ele>23.37</ele>
        <time>2020-05-11T15:33:27Z</time>
      </trkpt>
      <trkpt lat="47.16258" lon="-1.64679">
        <ele>23.14</ele>
        <time>2020-05-11T15:33:29Z</time>
      </trkpt>
      <trkpt lat="47.16248" lon="-1.64699">
        <ele>22.4</ele>
        <time>2020-05-11T15:33:32Z</time>
      </trkpt>
      <trkpt lat="47.16239" lon="-1.64717">
        <ele>21.26</ele>
        <time>2020-05-11T15:33:34Z</time>
      </trkpt>
      <trkpt lat="47.16234" lon="-1.64728">
        <ele>20.98</ele>
        <time>2020-05-11T15:33:35Z</time>
      </trkpt>
      <trkpt lat="47.16225" lon="-1.64744">
        <ele>20.33</ele>
        <time>2020-05-11T15:33:37Z</time>
      </trkpt>
      <trkpt lat="47.16216" lon="-1.6476">
        <ele>20.59</ele>
        <time>2020-05-11T15:33:39Z</time>
      </trkpt>
      <trkpt lat="47.16207" lon="-1.64778">
        <ele>19.76</ele>
        <time>2020-05-11T15:33:41Z</time>
      </trkpt>
      <trkpt lat="47.16198" lon="-1.64795">
        <ele>18.72</ele>
        <time>2020-05-11T15:33:43Z</time>
      </trkpt>
      <trkpt lat="47.16188" lon="-1.64813">
        <ele>19.18</ele>
        <time>2020-05-11T15:33:45Z</time>
      </trkpt>
      <trkpt lat="47.16179" lon="-1.6483">
        <ele>20.76</ele>
        <time>2020-05-11T15:33:47Z</time>
      </trkpt>
      <trkpt lat="47.16171" lon="-1.64846">
        <ele>21.69</ele>
        <time>2020-05-11T15:33:49Z</time>
      </trkpt>
      <trkpt lat="47.16163" lon="-1.64862">
        <ele>22.51</ele>
        <time>2020-05-11T15:33:51Z</time>
      </trkpt>
      <trkpt lat="47.16155" lon="-1.6488">
        <ele>23.03</ele>
        <time>2020-05-11T15:33:53Z</time>
      </trkpt>
      <trkpt lat="47.16146" lon="-1.64897">
        <ele>23.04</ele>
        <time>2020-05-11T15:33:55Z</time>
      </trkpt>
      <trkpt lat="47.16136" lon="-1.64914">
        <ele>22.99</ele>
        <time>2020-05-11T15:33:57Z</time>
      </trkpt>
      <trkpt lat="47.16126" lon="-1.64933">
        <ele>22.85</ele>
        <time>2020-05-11T15:33:59Z</time>
      </trkpt>
      <trkpt lat="47.16117" lon="-1.64952">
        <ele>22.47</ele>
        <time>2020-05-11T15:34:01Z</time>
      </trkpt>
      <trkpt lat="47.16108" lon="-1.64969">
        <ele>22.32</ele>
        <time>2020-05-11T15:34:03Z</time>
      </trkpt>
      <trkpt lat="47.16099" lon="-1.64987">
        <ele>21.75</ele>
        <time>2020-05-11T15:34:05Z</time>
      </trkpt>
      <trkpt lat="47.1609" lon="-1.65005">
        <ele>21.81</ele>
        <time>2020-05-11T15:34:07Z</time>
      </trkpt>
      <trkpt lat="47.16082" lon="-1.65022">
        <ele>22.34</ele>
        <time>2020-05-11T15:34:09Z</time>
      </trkpt>
      <trkpt lat="47.16072" lon="-1.65041">
        <ele>23.22</ele>
        <time>2020-05-11T15:34:11Z</time>
      </trkpt>
      <trkpt lat="47.16062" lon="-1.65061">
        <ele>23.71</ele>
        <time>2020-05-11T15:34:13Z</time>
      </trkpt>
      <trkpt lat="47.16053" lon="-1.65079">
        <ele>23.81</ele>
        <time>2020-05-11T15:34:15Z</time>
      </trkpt>
      <trkpt lat="47.16044" lon="-1.65097">
        <ele>23.21</ele>
        <time>2020-05-11T15:34:17Z</time>
      </trkpt>
      <trkpt lat="47.16034" lon="-1.65115">
        <ele>22.83</ele>
        <time>2020-05-11T15:34:19Z</time>
      </trkpt>
      <trkpt lat="47.16024" lon="-1.65134">
        <ele>21.95</ele>
        <time>2020-05-11T15:34:21Z</time>
      </trkpt>
      <trkpt lat="47.16014" lon="-1.65153">
        <ele>20.65</ele>
        <time>2020-05-11T15:34:23Z</time>
      </trkpt>
      <trkpt lat="47.16006" lon="-1.65168">
        <ele>20.17</ele>
        <time>2020-05-11T15:34:25Z</time>
      </trkpt>
      <trkpt lat="47.15997" lon="-1.65185">
        <ele>19.75</ele>
        <time>2020-05-11T15:34:27Z</time>
      </trkpt>
      <trkpt lat="47.15988" lon="-1.65204">
        <ele>20.42</ele>
        <time>2020-05-11T15:34:29Z</time>
      </trkpt>
      <trkpt lat="47.15979" lon="-1.65222">
        <ele>21.64</ele>
        <time>2020-05-11T15:34:31Z</time>
      </trkpt>
      <trkpt lat="47.15972" lon="-1.65238">
        <ele>22.99</ele>
        <time>2020-05-11T15:34:33Z</time>
      </trkpt>
      <trkpt lat="47.15964" lon="-1.65255">
        <ele>23.99</ele>
        <time>2020-05-11T15:34:35Z</time>
      </trkpt>
      <trkpt lat="47.15956" lon="-1.65272">
        <ele>24.26</ele>
        <time>2020-05-11T15:34:37Z</time>
      </trkpt>
      <trkpt lat="47.15949" lon="-1.65289">
        <ele>24</ele>
        <time>2020-05-11T15:34:39Z</time>
      </trkpt>
      <trkpt lat="47.15942" lon="-1.65304">
        <ele>24.79</ele>
        <time>2020-05-11T15:34:41Z</time>
      </trkpt>
      <trkpt lat="47.15934" lon="-1.65321">
        <ele>25.21</ele>
        <time>2020-05-11T15:34:43Z</time>
      </trkpt>
      <trkpt lat="47.15927" lon="-1.65336">
        <ele>26.2</ele>
        <time>2020-05-11T15:34:45Z</time>
      </trkpt>
      <trkpt lat="47.15919" lon="-1.65353">
        <ele>26.67</ele>
        <time>2020-05-11T15:34:47Z</time>
      </trkpt>
      <trkpt lat="47.15912" lon="-1.6537">
        <ele>26.91</ele>
        <time>2020-05-11T15:34:49Z</time>
      </trkpt>
      <trkpt lat="47.15904" lon="-1.65386">
        <ele>26.92</ele>
        <time>2020-05-11T15:34:51Z</time>
      </trkpt>
      <trkpt lat="47.15897" lon="-1.65403">
        <ele>26.36</ele>
        <time>2020-05-11T15:34:53Z</time>
      </trkpt>
      <trkpt lat="47.15888" lon="-1.65424">
        <ele>26.37</ele>
        <time>2020-05-11T15:34:55Z</time>
      </trkpt>
      <trkpt lat="47.1588" lon="-1.65442">
        <ele>26.63</ele>
        <time>2020-05-11T15:34:57Z</time>
      </trkpt>
      <trkpt lat="47.15872" lon="-1.65458">
        <ele>26.74</ele>
        <time>2020-05-11T15:34:59Z</time>
      </trkpt>
      <trkpt lat="47.15865" lon="-1.65475">
        <ele>25.97</ele>
        <time>2020-05-11T15:35:01Z</time>
      </trkpt>
      <trkpt lat="47.15856" lon="-1.65493">
        <ele>25.25</ele>
        <time>2020-05-11T15:35:03Z</time>
      </trkpt>
      <trkpt lat="47.15848" lon="-1.65511">
        <ele>25.31</ele>
        <time>2020-05-11T15:35:05Z</time>
      </trkpt>
      <trkpt lat="47.15841" lon="-1.65529">
        <ele>25.71</ele>
        <time>2020-05-11T15:35:07Z</time>
      </trkpt>
      <trkpt lat="47.15832" lon="-1.65546">
        <ele>25.09</ele>
        <time>2020-05-11T15:35:09Z</time>
      </trkpt>
      <trkpt lat="47.15824" lon="-1.65564">
        <ele>25.33</ele>
        <time>2020-05-11T15:35:11Z</time>
      </trkpt>
      <trkpt lat="47.15816" lon="-1.6558">
        <ele>26.54</ele>
        <time>2020-05-11T15:35:13Z</time>
      </trkpt>
      <trkpt lat="47.15808" lon="-1.65599">
        <ele>27.51</ele>
        <time>2020-05-11T15:35:15Z</time>
      </trkpt>
      <trkpt lat="47.158" lon="-1.65616">
        <ele>27.84</ele>
        <time>2020-05-11T15:35:17Z</time>
      </trkpt>
      <trkpt lat="47.15792" lon="-1.65633">
        <ele>27.44</ele>
        <time>2020-05-11T15:35:19Z</time>
      </trkpt>
      <trkpt lat="47.15785" lon="-1.6565">
        <ele>26.8</ele>
        <time>2020-05-11T15:35:21Z</time>
      </trkpt>
      <trkpt lat="47.15777" lon="-1.65668">
        <ele>25.82</ele>
        <time>2020-05-11T15:35:23Z</time>
      </trkpt>
      <trkpt lat="47.1577" lon="-1.65682">
        <ele>26.05</ele>
        <time>2020-05-11T15:35:25Z</time>
      </trkpt>
      <trkpt lat="47.15761" lon="-1.657">
        <ele>25.75</ele>
        <time>2020-05-11T15:35:27Z</time>
      </trkpt>
      <trkpt lat="47.15748" lon="-1.65712">
        <ele>25.45</ele>
        <time>2020-05-11T15:35:29Z</time>
      </trkpt>
      <trkpt lat="47.15736" lon="-1.65724">
        <ele>25.48</ele>
        <time>2020-05-11T15:35:31Z</time>
      </trkpt>
      <trkpt lat="47.15725" lon="-1.65736">
        <ele>26.5</ele>
        <time>2020-05-11T15:35:33Z</time>
      </trkpt>
      <trkpt lat="47.15717" lon="-1.65745">
        <ele>27.01</ele>
        <time>2020-05-11T15:35:34Z</time>
      </trkpt>
      <trkpt lat="47.15705" lon="-1.6576">
        <ele>27.52</ele>
        <time>2020-05-11T15:35:36Z</time>
      </trkpt>
      <trkpt lat="47.15694" lon="-1.65775">
        <ele>27.78</ele>
        <time>2020-05-11T15:35:38Z</time>
      </trkpt>
      <trkpt lat="47.15683" lon="-1.65788">
        <ele>29</ele>
        <time>2020-05-11T15:35:40Z</time>
      </trkpt>
      <trkpt lat="47.15672" lon="-1.65799">
        <ele>29.77</ele>
        <time>2020-05-11T15:35:42Z</time>
      </trkpt>
      <trkpt lat="47.1566" lon="-1.65812">
        <ele>29.49</ele>
        <time>2020-05-11T15:35:44Z</time>
      </trkpt>
      <trkpt lat="47.15649" lon="-1.65825">
        <ele>29.06</ele>
        <time>2020-05-11T15:35:46Z</time>
      </trkpt>
      <trkpt lat="47.15638" lon="-1.65837">
        <ele>28.42</ele>
        <time>2020-05-11T15:35:48Z</time>
      </trkpt>
      <trkpt lat="47.15625" lon="-1.65851">
        <ele>27.01</ele>
        <time>2020-05-11T15:35:50Z</time>
      </trkpt>
      <trkpt lat="47.15614" lon="-1.65863">
        <ele>25.2</ele>
        <time>2020-05-11T15:35:52Z</time>
      </trkpt>
      <trkpt lat="47.15602" lon="-1.65876">
        <ele>25.56</ele>
        <time>2020-05-11T15:35:54Z</time>
      </trkpt>
      <trkpt lat="47.1559" lon="-1.65892">
        <ele>25.63</ele>
        <time>2020-05-11T15:35:56Z</time>
      </trkpt>
      <trkpt lat="47.15576" lon="-1.65908">
        <ele>24.7</ele>
        <time>2020-05-11T15:35:58Z</time>
      </trkpt>
      <trkpt lat="47.15564" lon="-1.65923">
        <ele>24.2</ele>
        <time>2020-05-11T15:36:00Z</time>
      </trkpt>
      <trkpt lat="47.15553" lon="-1.65937">
        <ele>25.99</ele>
        <time>2020-05-11T15:36:02Z</time>
      </trkpt>
      <trkpt lat="47.15543" lon="-1.65948">
        <ele>27.56</ele>
        <time>2020-05-11T15:36:04Z</time>
      </trkpt>
      <trkpt lat="47.15531" lon="-1.65962">
        <ele>28.78</ele>
        <time>2020-05-11T15:36:06Z</time>
      </trkpt>
      <trkpt lat="47.1552" lon="-1.65974">
        <ele>30.26</ele>
        <time>2020-05-11T15:36:08Z</time>
      </trkpt>
      <trkpt lat="47.15509" lon="-1.65988">
        <ele>28.5</ele>
        <time>2020-05-11T15:36:10Z</time>
      </trkpt>
      <trkpt lat="47.15497" lon="-1.66002">
        <ele>27.41</ele>
        <time>2020-05-11T15:36:12Z</time>
      </trkpt>
      <trkpt lat="47.15486" lon="-1.66014">
        <ele>27.06</ele>
        <time>2020-05-11T15:36:14Z</time>
      </trkpt>
      <trkpt lat="47.15475" lon="-1.66026">
        <ele>26.55</ele>
        <time>2020-05-11T15:36:16Z</time>
      </trkpt>
      <trkpt lat="47.15462" lon="-1.66041">
        <ele>26.54</ele>
        <time>2020-05-11T15:36:18Z</time>
      </trkpt>
      <trkpt lat="47.15449" lon="-1.66056">
        <ele>26.91</ele>
        <time>2020-05-11T15:36:20Z</time>
      </trkpt>
      <trkpt lat="47.15439" lon="-1.66067">
        <ele>27.38</ele>
        <time>2020-05-11T15:36:22Z</time>
      </trkpt>
      <trkpt lat="47.15427" lon="-1.66081">
        <ele>27.15</ele>
        <time>2020-05-11T15:36:24Z</time>
      </trkpt>
      <trkpt lat="47.15416" lon="-1.66091">
        <ele>27.88</ele>
        <time>2020-05-11T15:36:26Z</time>
      </trkpt>
      <trkpt lat="47.15404" lon="-1.66105">
        <ele>28.44</ele>
        <time>2020-05-11T15:36:28Z</time>
      </trkpt>
      <trkpt lat="47.15393" lon="-1.6612">
        <ele>27.7</ele>
        <time>2020-05-11T15:36:30Z</time>
      </trkpt>
      <trkpt lat="47.15385" lon="-1.66129">
        <ele>27.36</ele>
        <time>2020-05-11T15:36:31Z</time>
      </trkpt>
      <trkpt lat="47.15373" lon="-1.66144">
        <ele>26.32</ele>
        <time>2020-05-11T15:36:33Z</time>
      </trkpt>
      <trkpt lat="47.15363" lon="-1.66156">
        <ele>25.69</ele>
        <time>2020-05-11T15:36:35Z</time>
      </trkpt>
      <trkpt lat="47.15354" lon="-1.66168">
        <ele>25.37</ele>
        <time>2020-05-11T15:36:37Z</time>
      </trkpt>
      <trkpt lat="47.15345" lon="-1.6618">
        <ele>25.52</ele>
        <time>2020-05-11T15:36:39Z</time>
      </trkpt>
      <trkpt lat="47.15333" lon="-1.66195">
        <ele>25.57</ele>
        <time>2020-05-11T15:36:41Z</time>
      </trkpt>
      <trkpt lat="47.15324" lon="-1.66208">
        <ele>26.23</ele>
        <time>2020-05-11T15:36:43Z</time>
      </trkpt>
      <trkpt lat="47.15316" lon="-1.66219">
        <ele>27.53</ele>
        <time>2020-05-11T15:36:45Z</time>
      </trkpt>
      <trkpt lat="47.15306" lon="-1.66233">
        <ele>28.59</ele>
        <time>2020-05-11T15:36:48Z</time>
      </trkpt>
      <trkpt lat="47.15307" lon="-1.66248">
        <ele>28.53</ele>
        <time>2020-05-11T15:36:55Z</time>
      </trkpt>
      <trkpt lat="47.15298" lon="-1.66255">
        <ele>29.26</ele>
        <time>2020-05-11T15:36:57Z</time>
      </trkpt>
      <trkpt lat="47.15291" lon="-1.66273">
        <ele>29.98</ele>
        <time>2020-05-11T15:36:59Z</time>
      </trkpt>
      <trkpt lat="47.15283" lon="-1.66289">
        <ele>29.46</ele>
        <time>2020-05-11T15:37:01Z</time>
      </trkpt>
      <trkpt lat="47.15274" lon="-1.66306">
        <ele>29.02</ele>
        <time>2020-05-11T15:37:03Z</time>
      </trkpt>
      <trkpt lat="47.15266" lon="-1.66322">
        <ele>28.18</ele>
        <time>2020-05-11T15:37:05Z</time>
      </trkpt>
      <trkpt lat="47.15257" lon="-1.66339">
        <ele>27.03</ele>
        <time>2020-05-11T15:37:07Z</time>
      </trkpt>
      <trkpt lat="47.15249" lon="-1.66357">
        <ele>27.2</ele>
        <time>2020-05-11T15:37:09Z</time>
      </trkpt>
      <trkpt lat="47.15241" lon="-1.66373">
        <ele>28.1</ele>
        <time>2020-05-11T15:37:11Z</time>
      </trkpt>
      <trkpt lat="47.15234" lon="-1.66391">
        <ele>27.82</ele>
        <time>2020-05-11T15:37:13Z</time>
      </trkpt>
      <trkpt lat="47.15226" lon="-1.66408">
        <ele>26.42</ele>
        <time>2020-05-11T15:37:15Z</time>
      </trkpt>
      <trkpt lat="47.15218" lon="-1.66423">
        <ele>26.84</ele>
        <time>2020-05-11T15:37:17Z</time>
      </trkpt>
      <trkpt lat="47.15209" lon="-1.66438">
        <ele>28.08</ele>
        <time>2020-05-11T15:37:19Z</time>
      </trkpt>
      <trkpt lat="47.152" lon="-1.66454">
        <ele>28.25</ele>
        <time>2020-05-11T15:37:21Z</time>
      </trkpt>
      <trkpt lat="47.15191" lon="-1.6647">
        <ele>29.05</ele>
        <time>2020-05-11T15:37:23Z</time>
      </trkpt>
      <trkpt lat="47.15183" lon="-1.66486">
        <ele>29.13</ele>
        <time>2020-05-11T15:37:25Z</time>
      </trkpt>
      <trkpt lat="47.15175" lon="-1.66501">
        <ele>29.72</ele>
        <time>2020-05-11T15:37:27Z</time>
      </trkpt>
      <trkpt lat="47.15168" lon="-1.66517">
        <ele>30.14</ele>
        <time>2020-05-11T15:37:29Z</time>
      </trkpt>
      <trkpt lat="47.15162" lon="-1.66534">
        <ele>30.32</ele>
        <time>2020-05-11T15:37:31Z</time>
      </trkpt>
      <trkpt lat="47.15152" lon="-1.6654">
        <ele>28.3</ele>
        <time>2020-05-11T15:37:33Z</time>
      </trkpt>
      <trkpt lat="47.15138" lon="-1.6654">
        <ele>26.44</ele>
        <time>2020-05-11T15:37:35Z</time>
      </trkpt>
      <trkpt lat="47.15123" lon="-1.66542">
        <ele>24.71</ele>
        <time>2020-05-11T15:37:37Z</time>
      </trkpt>
      <trkpt lat="47.15108" lon="-1.66546">
        <ele>23.91</ele>
        <time>2020-05-11T15:37:39Z</time>
      </trkpt>
      <trkpt lat="47.15093" lon="-1.66551">
        <ele>23.69</ele>
        <time>2020-05-11T15:37:41Z</time>
      </trkpt>
      <trkpt lat="47.1508" lon="-1.66557">
        <ele>23.97</ele>
        <time>2020-05-11T15:37:43Z</time>
      </trkpt>
      <trkpt lat="47.15066" lon="-1.66563">
        <ele>24.12</ele>
        <time>2020-05-11T15:37:45Z</time>
      </trkpt>
      <trkpt lat="47.15053" lon="-1.66569">
        <ele>24.47</ele>
        <time>2020-05-11T15:37:47Z</time>
      </trkpt>
      <trkpt lat="47.1504" lon="-1.66575">
        <ele>25.6</ele>
        <time>2020-05-11T15:37:49Z</time>
      </trkpt>
      <trkpt lat="47.15026" lon="-1.66583">
        <ele>25.84</ele>
        <time>2020-05-11T15:37:51Z</time>
      </trkpt>
      <trkpt lat="47.15013" lon="-1.66591">
        <ele>25.88</ele>
        <time>2020-05-11T15:37:53Z</time>
      </trkpt>
      <trkpt lat="47.15004" lon="-1.66596">
        <ele>26.47</ele>
        <time>2020-05-11T15:37:54Z</time>
      </trkpt>
      <trkpt lat="47.1499" lon="-1.66604">
        <ele>27.33</ele>
        <time>2020-05-11T15:37:56Z</time>
      </trkpt>
      <trkpt lat="47.14977" lon="-1.66612">
        <ele>26.66</ele>
        <time>2020-05-11T15:37:58Z</time>
      </trkpt>
      <trkpt lat="47.14963" lon="-1.66623">
        <ele>26.1</ele>
        <time>2020-05-11T15:38:00Z</time>
      </trkpt>
      <trkpt lat="47.14949" lon="-1.66638">
        <ele>25.09</ele>
        <time>2020-05-11T15:38:02Z</time>
      </trkpt>
      <trkpt lat="47.14937" lon="-1.66654">
        <ele>23.91</ele>
        <time>2020-05-11T15:38:04Z</time>
      </trkpt>
      <trkpt lat="47.14926" lon="-1.66671">
        <ele>23.2</ele>
        <time>2020-05-11T15:38:06Z</time>
      </trkpt>
      <trkpt lat="47.14913" lon="-1.66687">
        <ele>22.79</ele>
        <time>2020-05-11T15:38:08Z</time>
      </trkpt>
      <trkpt lat="47.14902" lon="-1.66704">
        <ele>23.81</ele>
        <time>2020-05-11T15:38:10Z</time>
      </trkpt>
      <trkpt lat="47.14889" lon="-1.6672">
        <ele>23.95</ele>
        <time>2020-05-11T15:38:12Z</time>
      </trkpt>
      <trkpt lat="47.14878" lon="-1.66735">
        <ele>24.34</ele>
        <time>2020-05-11T15:38:14Z</time>
      </trkpt>
      <trkpt lat="47.14864" lon="-1.66751">
        <ele>23.8</ele>
        <time>2020-05-11T15:38:16Z</time>
      </trkpt>
      <trkpt lat="47.1485" lon="-1.66767">
        <ele>23.35</ele>
        <time>2020-05-11T15:38:18Z</time>
      </trkpt>
      <trkpt lat="47.14837" lon="-1.66784">
        <ele>22.75</ele>
        <time>2020-05-11T15:38:20Z</time>
      </trkpt>
      <trkpt lat="47.1483" lon="-1.66792">
        <ele>22.15</ele>
        <time>2020-05-11T15:38:21Z</time>
      </trkpt>
      <trkpt lat="47.14815" lon="-1.66807">
        <ele>21.77</ele>
        <time>2020-05-11T15:38:23Z</time>
      </trkpt>
      <trkpt lat="47.14799" lon="-1.66821">
        <ele>21.82</ele>
        <time>2020-05-11T15:38:25Z</time>
      </trkpt>
      <trkpt lat="47.14783" lon="-1.66833">
        <ele>21.28</ele>
        <time>2020-05-11T15:38:27Z</time>
      </trkpt>
      <trkpt lat="47.14775" lon="-1.66839">
        <ele>21.01</ele>
        <time>2020-05-11T15:38:28Z</time>
      </trkpt>
      <trkpt lat="47.14765" lon="-1.66845">
        <ele>21.02</ele>
        <time>2020-05-11T15:38:29Z</time>
      </trkpt>
      <trkpt lat="47.14756" lon="-1.66851">
        <ele>20.92</ele>
        <time>2020-05-11T15:38:30Z</time>
      </trkpt>
      <trkpt lat="47.14747" lon="-1.66855">
        <ele>20.76</ele>
        <time>2020-05-11T15:38:31Z</time>
      </trkpt>
      <trkpt lat="47.14731" lon="-1.66863">
        <ele>21.41</ele>
        <time>2020-05-11T15:38:33Z</time>
      </trkpt>
      <trkpt lat="47.14715" lon="-1.6687">
        <ele>21.71</ele>
        <time>2020-05-11T15:38:35Z</time>
      </trkpt>
      <trkpt lat="47.14698" lon="-1.66876">
        <ele>20.93</ele>
        <time>2020-05-11T15:38:37Z</time>
      </trkpt>
      <trkpt lat="47.14688" lon="-1.66879">
        <ele>20.98</ele>
        <time>2020-05-11T15:38:38Z</time>
      </trkpt>
      <trkpt lat="47.14671" lon="-1.66884">
        <ele>20.91</ele>
        <time>2020-05-11T15:38:40Z</time>
      </trkpt>
      <trkpt lat="47.14654" lon="-1.66888">
        <ele>21.11</ele>
        <time>2020-05-11T15:38:42Z</time>
      </trkpt>
      <trkpt lat="47.14645" lon="-1.66891">
        <ele>21.05</ele>
        <time>2020-05-11T15:38:43Z</time>
      </trkpt>
      <trkpt lat="47.14636" lon="-1.66894">
        <ele>20.95</ele>
        <time>2020-05-11T15:38:44Z</time>
      </trkpt>
      <trkpt lat="47.14619" lon="-1.66899">
        <ele>21.41</ele>
        <time>2020-05-11T15:38:46Z</time>
      </trkpt>
      <trkpt lat="47.1461" lon="-1.66903">
        <ele>21.75</ele>
        <time>2020-05-11T15:38:47Z</time>
      </trkpt>
      <trkpt lat="47.14601" lon="-1.66905">
        <ele>22.06</ele>
        <time>2020-05-11T15:38:48Z</time>
      </trkpt>
      <trkpt lat="47.14591" lon="-1.66907">
        <ele>22.53</ele>
        <time>2020-05-11T15:38:49Z</time>
      </trkpt>
      <trkpt lat="47.14582" lon="-1.66908">
        <ele>23.14</ele>
        <time>2020-05-11T15:38:50Z</time>
      </trkpt>
      <trkpt lat="47.14573" lon="-1.6691">
        <ele>24.16</ele>
        <time>2020-05-11T15:38:51Z</time>
      </trkpt>
      <trkpt lat="47.14559" lon="-1.66918">
        <ele>24.3</ele>
        <time>2020-05-11T15:38:53Z</time>
      </trkpt>
      <trkpt lat="47.14542" lon="-1.66928">
        <ele>24.22</ele>
        <time>2020-05-11T15:38:55Z</time>
      </trkpt>
      <trkpt lat="47.14527" lon="-1.66939">
        <ele>24.11</ele>
        <time>2020-05-11T15:38:57Z</time>
      </trkpt>
      <trkpt lat="47.14518" lon="-1.66947">
        <ele>24.07</ele>
        <time>2020-05-11T15:38:58Z</time>
      </trkpt>
      <trkpt lat="47.14512" lon="-1.66956">
        <ele>23.5</ele>
        <time>2020-05-11T15:38:59Z</time>
      </trkpt>
      <trkpt lat="47.14504" lon="-1.66968">
        <ele>22.82</ele>
        <time>2020-05-11T15:39:00Z</time>
      </trkpt>
      <trkpt lat="47.14498" lon="-1.66978">
        <ele>22.38</ele>
        <time>2020-05-11T15:39:01Z</time>
      </trkpt>
      <trkpt lat="47.14494" lon="-1.6699">
        <ele>21.98</ele>
        <time>2020-05-11T15:39:02Z</time>
      </trkpt>
      <trkpt lat="47.14489" lon="-1.67004">
        <ele>21.5</ele>
        <time>2020-05-11T15:39:03Z</time>
      </trkpt>
      <trkpt lat="47.14481" lon="-1.67025">
        <ele>21.14</ele>
        <time>2020-05-11T15:39:05Z</time>
      </trkpt>
      <trkpt lat="47.14469" lon="-1.67045">
        <ele>21.06</ele>
        <time>2020-05-11T15:39:07Z</time>
      </trkpt>
      <trkpt lat="47.14457" lon="-1.67059">
        <ele>21.48</ele>
        <time>2020-05-11T15:39:09Z</time>
      </trkpt>
      <trkpt lat="47.14448" lon="-1.67066">
        <ele>21.72</ele>
        <time>2020-05-11T15:39:10Z</time>
      </trkpt>
      <trkpt lat="47.14433" lon="-1.67079">
        <ele>20.92</ele>
        <time>2020-05-11T15:39:12Z</time>
      </trkpt>
      <trkpt lat="47.14418" lon="-1.6709">
        <ele>18.96</ele>
        <time>2020-05-11T15:39:14Z</time>
      </trkpt>
      <trkpt lat="47.1441" lon="-1.67096">
        <ele>17.93</ele>
        <time>2020-05-11T15:39:15Z</time>
      </trkpt>
      <trkpt lat="47.14401" lon="-1.67102">
        <ele>16.66</ele>
        <time>2020-05-11T15:39:16Z</time>
      </trkpt>
      <trkpt lat="47.14386" lon="-1.67112">
        <ele>15.32</ele>
        <time>2020-05-11T15:39:18Z</time>
      </trkpt>
      <trkpt lat="47.14377" lon="-1.67118">
        <ele>15.6</ele>
        <time>2020-05-11T15:39:19Z</time>
      </trkpt>
      <trkpt lat="47.14362" lon="-1.67129">
        <ele>15.98</ele>
        <time>2020-05-11T15:39:21Z</time>
      </trkpt>
      <trkpt lat="47.14347" lon="-1.6714">
        <ele>15.96</ele>
        <time>2020-05-11T15:39:23Z</time>
      </trkpt>
      <trkpt lat="47.14334" lon="-1.67148">
        <ele>15.6</ele>
        <time>2020-05-11T15:39:25Z</time>
      </trkpt>
      <trkpt lat="47.14319" lon="-1.67158">
        <ele>14.48</ele>
        <time>2020-05-11T15:39:27Z</time>
      </trkpt>
      <trkpt lat="47.14305" lon="-1.67168">
        <ele>13.62</ele>
        <time>2020-05-11T15:39:29Z</time>
      </trkpt>
      <trkpt lat="47.14292" lon="-1.67178">
        <ele>13.32</ele>
        <time>2020-05-11T15:39:31Z</time>
      </trkpt>
      <trkpt lat="47.14278" lon="-1.67187">
        <ele>13.86</ele>
        <time>2020-05-11T15:39:33Z</time>
      </trkpt>
      <trkpt lat="47.14265" lon="-1.67197">
        <ele>14.65</ele>
        <time>2020-05-11T15:39:35Z</time>
      </trkpt>
      <trkpt lat="47.14253" lon="-1.67204">
        <ele>14.64</ele>
        <time>2020-05-11T15:39:37Z</time>
      </trkpt>
      <trkpt lat="47.14242" lon="-1.67213">
        <ele>14.63</ele>
        <time>2020-05-11T15:39:39Z</time>
      </trkpt>
      <trkpt lat="47.1423" lon="-1.67222">
        <ele>13.68</ele>
        <time>2020-05-11T15:39:41Z</time>
      </trkpt>
      <trkpt lat="47.1422" lon="-1.67228">
        <ele>12.89</ele>
        <time>2020-05-11T15:39:43Z</time>
      </trkpt>
      <trkpt lat="47.14211" lon="-1.67234">
        <ele>12.91</ele>
        <time>2020-05-11T15:39:47Z</time>
      </trkpt>
      <trkpt lat="47.14202" lon="-1.67239">
        <ele>14.1</ele>
        <time>2020-05-11T15:39:49Z</time>
      </trkpt>
      <trkpt lat="47.14189" lon="-1.67246">
        <ele>14.22</ele>
        <time>2020-05-11T15:39:51Z</time>
      </trkpt>
      <trkpt lat="47.14177" lon="-1.67249">
        <ele>14.02</ele>
        <time>2020-05-11T15:39:53Z</time>
      </trkpt>
      <trkpt lat="47.14159" lon="-1.67253">
        <ele>14.27</ele>
        <time>2020-05-11T15:39:55Z</time>
      </trkpt>
      <trkpt lat="47.14141" lon="-1.67256">
        <ele>14</ele>
        <time>2020-05-11T15:39:57Z</time>
      </trkpt>
      <trkpt lat="47.14131" lon="-1.67257">
        <ele>14.09</ele>
        <time>2020-05-11T15:39:58Z</time>
      </trkpt>
      <trkpt lat="47.14121" lon="-1.67259">
        <ele>13.84</ele>
        <time>2020-05-11T15:39:59Z</time>
      </trkpt>
      <trkpt lat="47.14112" lon="-1.6726">
        <ele>14.12</ele>
        <time>2020-05-11T15:40:00Z</time>
      </trkpt>
      <trkpt lat="47.14102" lon="-1.6726">
        <ele>14.02</ele>
        <time>2020-05-11T15:40:01Z</time>
      </trkpt>
      <trkpt lat="47.14093" lon="-1.67261">
        <ele>14.1</ele>
        <time>2020-05-11T15:40:02Z</time>
      </trkpt>
      <trkpt lat="47.14076" lon="-1.67263">
        <ele>14.04</ele>
        <time>2020-05-11T15:40:04Z</time>
      </trkpt>
      <trkpt lat="47.14067" lon="-1.67265">
        <ele>13.94</ele>
        <time>2020-05-11T15:40:05Z</time>
      </trkpt>
      <trkpt lat="47.14051" lon="-1.67266">
        <ele>13.56</ele>
        <time>2020-05-11T15:40:07Z</time>
      </trkpt>
      <trkpt lat="47.14034" lon="-1.67268">
        <ele>12.66</ele>
        <time>2020-05-11T15:40:09Z</time>
      </trkpt>
      <trkpt lat="47.14023" lon="-1.6727">
        <ele>12.03</ele>
        <time>2020-05-11T15:40:10Z</time>
      </trkpt>
      <trkpt lat="47.14004" lon="-1.67273">
        <ele>10.86</ele>
        <time>2020-05-11T15:40:12Z</time>
      </trkpt>
      <trkpt lat="47.13995" lon="-1.67274">
        <ele>10.54</ele>
        <time>2020-05-11T15:40:13Z</time>
      </trkpt>
      <trkpt lat="47.13984" lon="-1.67275">
        <ele>10.02</ele>
        <time>2020-05-11T15:40:14Z</time>
      </trkpt>
      <trkpt lat="47.13974" lon="-1.67277">
        <ele>9.94</ele>
        <time>2020-05-11T15:40:15Z</time>
      </trkpt>
      <trkpt lat="47.13965" lon="-1.67279">
        <ele>9.66</ele>
        <time>2020-05-11T15:40:16Z</time>
      </trkpt>
      <trkpt lat="47.13956" lon="-1.6728">
        <ele>9.17</ele>
        <time>2020-05-11T15:40:17Z</time>
      </trkpt>
      <trkpt lat="47.13946" lon="-1.67281">
        <ele>8.22</ele>
        <time>2020-05-11T15:40:18Z</time>
      </trkpt>
      <trkpt lat="47.13928" lon="-1.67284">
        <ele>7.46</ele>
        <time>2020-05-11T15:40:20Z</time>
      </trkpt>
      <trkpt lat="47.13918" lon="-1.67286">
        <ele>7.24</ele>
        <time>2020-05-11T15:40:21Z</time>
      </trkpt>
      <trkpt lat="47.13909" lon="-1.67288">
        <ele>7.29</ele>
        <time>2020-05-11T15:40:22Z</time>
      </trkpt>
      <trkpt lat="47.13898" lon="-1.6729">
        <ele>7.64</ele>
        <time>2020-05-11T15:40:23Z</time>
      </trkpt>
      <trkpt lat="47.13889" lon="-1.67293">
        <ele>8.46</ele>
        <time>2020-05-11T15:40:24Z</time>
      </trkpt>
      <trkpt lat="47.13872" lon="-1.67299">
        <ele>8.82</ele>
        <time>2020-05-11T15:40:26Z</time>
      </trkpt>
      <trkpt lat="47.13854" lon="-1.67303">
        <ele>8.1</ele>
        <time>2020-05-11T15:40:28Z</time>
      </trkpt>
      <trkpt lat="47.13837" lon="-1.67308">
        <ele>6.88</ele>
        <time>2020-05-11T15:40:30Z</time>
      </trkpt>
      <trkpt lat="47.13822" lon="-1.67313">
        <ele>5.99</ele>
        <time>2020-05-11T15:40:32Z</time>
      </trkpt>
      <trkpt lat="47.13808" lon="-1.67316">
        <ele>5.67</ele>
        <time>2020-05-11T15:40:34Z</time>
      </trkpt>
      <trkpt lat="47.13794" lon="-1.67327">
        <ele>5.34</ele>
        <time>2020-05-11T15:40:36Z</time>
      </trkpt>
      <trkpt lat="47.13785" lon="-1.67346">
        <ele>5.82</ele>
        <time>2020-05-11T15:40:38Z</time>
      </trkpt>
      <trkpt lat="47.13784" lon="-1.6736">
        <ele>5.74</ele>
        <time>2020-05-11T15:40:39Z</time>
      </trkpt>
      <trkpt lat="47.13782" lon="-1.67383">
        <ele>5.55</ele>
        <time>2020-05-11T15:40:41Z</time>
      </trkpt>
      <trkpt lat="47.13778" lon="-1.67406">
        <ele>6.16</ele>
        <time>2020-05-11T15:40:43Z</time>
      </trkpt>
      <trkpt lat="47.13776" lon="-1.67427">
        <ele>7.06</ele>
        <time>2020-05-11T15:40:45Z</time>
      </trkpt>
      <trkpt lat="47.13775" lon="-1.67451">
        <ele>8.55</ele>
        <time>2020-05-11T15:40:47Z</time>
      </trkpt>
      <trkpt lat="47.13774" lon="-1.67477">
        <ele>7.76</ele>
        <time>2020-05-11T15:40:49Z</time>
      </trkpt>
      <trkpt lat="47.13775" lon="-1.67501">
        <ele>7.17</ele>
        <time>2020-05-11T15:40:51Z</time>
      </trkpt>
      <trkpt lat="47.13776" lon="-1.67524">
        <ele>6.14</ele>
        <time>2020-05-11T15:40:53Z</time>
      </trkpt>
      <trkpt lat="47.13778" lon="-1.67546">
        <ele>5.61</ele>
        <time>2020-05-11T15:40:55Z</time>
      </trkpt>
      <trkpt lat="47.13779" lon="-1.67567">
        <ele>5.95</ele>
        <time>2020-05-11T15:40:57Z</time>
      </trkpt>
      <trkpt lat="47.13781" lon="-1.67591">
        <ele>5.93</ele>
        <time>2020-05-11T15:40:59Z</time>
      </trkpt>
      <trkpt lat="47.13782" lon="-1.6761">
        <ele>6.56</ele>
        <time>2020-05-11T15:41:01Z</time>
      </trkpt>
      <trkpt lat="47.13784" lon="-1.67631">
        <ele>6.78</ele>
        <time>2020-05-11T15:41:03Z</time>
      </trkpt>
      <trkpt lat="47.13786" lon="-1.67653">
        <ele>6.47</ele>
        <time>2020-05-11T15:41:05Z</time>
      </trkpt>
      <trkpt lat="47.13787" lon="-1.67674">
        <ele>5.96</ele>
        <time>2020-05-11T15:41:07Z</time>
      </trkpt>
      <trkpt lat="47.1379" lon="-1.67697">
        <ele>5.77</ele>
        <time>2020-05-11T15:41:09Z</time>
      </trkpt>
      <trkpt lat="47.13792" lon="-1.67718">
        <ele>5.76</ele>
        <time>2020-05-11T15:41:11Z</time>
      </trkpt>
      <trkpt lat="47.13794" lon="-1.6774">
        <ele>5.78</ele>
        <time>2020-05-11T15:41:13Z</time>
      </trkpt>
      <trkpt lat="47.13795" lon="-1.67761">
        <ele>6.15</ele>
        <time>2020-05-11T15:41:15Z</time>
      </trkpt>
      <trkpt lat="47.13797" lon="-1.67782">
        <ele>6.45</ele>
        <time>2020-05-11T15:41:17Z</time>
      </trkpt>
      <trkpt lat="47.13799" lon="-1.67807">
        <ele>6.62</ele>
        <time>2020-05-11T15:41:19Z</time>
      </trkpt>
      <trkpt lat="47.138" lon="-1.6783">
        <ele>8.25</ele>
        <time>2020-05-11T15:41:21Z</time>
      </trkpt>
      <trkpt lat="47.13801" lon="-1.67844">
        <ele>8.16</ele>
        <time>2020-05-11T15:41:22Z</time>
      </trkpt>
      <trkpt lat="47.13803" lon="-1.67868">
        <ele>6.8</ele>
        <time>2020-05-11T15:41:24Z</time>
      </trkpt>
      <trkpt lat="47.13804" lon="-1.67889">
        <ele>5.73</ele>
        <time>2020-05-11T15:41:26Z</time>
      </trkpt>
      <trkpt lat="47.13805" lon="-1.67911">
        <ele>4.77</ele>
        <time>2020-05-11T15:41:28Z</time>
      </trkpt>
      <trkpt lat="47.13806" lon="-1.67935">
        <ele>4.43</ele>
        <time>2020-05-11T15:41:30Z</time>
      </trkpt>
      <trkpt lat="47.13808" lon="-1.67948">
        <ele>4.32</ele>
        <time>2020-05-11T15:41:31Z</time>
      </trkpt>
      <trkpt lat="47.1381" lon="-1.67972">
        <ele>4.16</ele>
        <time>2020-05-11T15:41:33Z</time>
      </trkpt>
      <trkpt lat="47.13811" lon="-1.67985">
        <ele>3.89</ele>
        <time>2020-05-11T15:41:34Z</time>
      </trkpt>
      <trkpt lat="47.13815" lon="-1.68009">
        <ele>4.42</ele>
        <time>2020-05-11T15:41:36Z</time>
      </trkpt>
      <trkpt lat="47.13819" lon="-1.68031">
        <ele>4.17</ele>
        <time>2020-05-11T15:41:38Z</time>
      </trkpt>
      <trkpt lat="47.13826" lon="-1.68053">
        <ele>3.99</ele>
        <time>2020-05-11T15:41:40Z</time>
      </trkpt>
      <trkpt lat="47.13833" lon="-1.68072">
        <ele>4.04</ele>
        <time>2020-05-11T15:41:42Z</time>
      </trkpt>
      <trkpt lat="47.13841" lon="-1.68089">
        <ele>3.46</ele>
        <time>2020-05-11T15:41:43Z</time>
      </trkpt>
      <trkpt lat="47.13849" lon="-1.68106">
        <ele>3.63</ele>
        <time>2020-05-11T15:41:45Z</time>
      </trkpt>
      <trkpt lat="47.13856" lon="-1.68123">
        <ele>4.43</ele>
        <time>2020-05-11T15:41:47Z</time>
      </trkpt>
      <trkpt lat="47.13864" lon="-1.68142">
        <ele>5.04</ele>
        <time>2020-05-11T15:41:49Z</time>
      </trkpt>
      <trkpt lat="47.13872" lon="-1.68158">
        <ele>4.82</ele>
        <time>2020-05-11T15:41:51Z</time>
      </trkpt>
      <trkpt lat="47.1388" lon="-1.68174">
        <ele>3.75</ele>
        <time>2020-05-11T15:41:53Z</time>
      </trkpt>
      <trkpt lat="47.13887" lon="-1.6819">
        <ele>3.1</ele>
        <time>2020-05-11T15:41:55Z</time>
      </trkpt>
      <trkpt lat="47.13896" lon="-1.68208">
        <ele>4.13</ele>
        <time>2020-05-11T15:41:57Z</time>
      </trkpt>
      <trkpt lat="47.13902" lon="-1.68224">
        <ele>4.87</ele>
        <time>2020-05-11T15:41:59Z</time>
      </trkpt>
      <trkpt lat="47.13909" lon="-1.68241">
        <ele>4.39</ele>
        <time>2020-05-11T15:42:01Z</time>
      </trkpt>
      <trkpt lat="47.13916" lon="-1.68259">
        <ele>4.08</ele>
        <time>2020-05-11T15:42:03Z</time>
      </trkpt>
      <trkpt lat="47.13923" lon="-1.68274">
        <ele>4.43</ele>
        <time>2020-05-11T15:42:05Z</time>
      </trkpt>
      <trkpt lat="47.13931" lon="-1.6829">
        <ele>4.9</ele>
        <time>2020-05-11T15:42:07Z</time>
      </trkpt>
      <trkpt lat="47.13939" lon="-1.68307">
        <ele>6.27</ele>
        <time>2020-05-11T15:42:09Z</time>
      </trkpt>
      <trkpt lat="47.13947" lon="-1.68326">
        <ele>6.43</ele>
        <time>2020-05-11T15:42:11Z</time>
      </trkpt>
      <trkpt lat="47.13956" lon="-1.68342">
        <ele>5.03</ele>
        <time>2020-05-11T15:42:13Z</time>
      </trkpt>
      <trkpt lat="47.13964" lon="-1.68363">
        <ele>4.42</ele>
        <time>2020-05-11T15:42:15Z</time>
      </trkpt>
      <trkpt lat="47.13972" lon="-1.68382">
        <ele>3.74</ele>
        <time>2020-05-11T15:42:17Z</time>
      </trkpt>
      <trkpt lat="47.1398" lon="-1.68402">
        <ele>2.73</ele>
        <time>2020-05-11T15:42:19Z</time>
      </trkpt>
      <trkpt lat="47.13988" lon="-1.68419">
        <ele>2.59</ele>
        <time>2020-05-11T15:42:21Z</time>
      </trkpt>
      <trkpt lat="47.13995" lon="-1.68434">
        <ele>3.23</ele>
        <time>2020-05-11T15:42:23Z</time>
      </trkpt>
      <trkpt lat="47.14003" lon="-1.68447">
        <ele>2.95</ele>
        <time>2020-05-11T15:42:25Z</time>
      </trkpt>
      <trkpt lat="47.14011" lon="-1.68459">
        <ele>2.34</ele>
        <time>2020-05-11T15:42:27Z</time>
      </trkpt>
      <trkpt lat="47.14019" lon="-1.6847">
        <ele>2.36</ele>
        <time>2020-05-11T15:42:29Z</time>
      </trkpt>
      <trkpt lat="47.14028" lon="-1.68482">
        <ele>2.91</ele>
        <time>2020-05-11T15:42:31Z</time>
      </trkpt>
      <trkpt lat="47.14037" lon="-1.68496">
        <ele>2.99</ele>
        <time>2020-05-11T15:42:33Z</time>
      </trkpt>
      <trkpt lat="47.14046" lon="-1.6851">
        <ele>1.84</ele>
        <time>2020-05-11T15:42:35Z</time>
      </trkpt>
      <trkpt lat="47.14055" lon="-1.68523">
        <ele>3.38</ele>
        <time>2020-05-11T15:42:37Z</time>
      </trkpt>
      <trkpt lat="47.14063" lon="-1.68537">
        <ele>5.28</ele>
        <time>2020-05-11T15:42:39Z</time>
      </trkpt>
      <trkpt lat="47.14073" lon="-1.68552">
        <ele>5.18</ele>
        <time>2020-05-11T15:42:41Z</time>
      </trkpt>
      <trkpt lat="47.14083" lon="-1.68566">
        <ele>4.8</ele>
        <time>2020-05-11T15:42:43Z</time>
      </trkpt>
      <trkpt lat="47.14092" lon="-1.6858">
        <ele>5.4</ele>
        <time>2020-05-11T15:42:45Z</time>
      </trkpt>
      <trkpt lat="47.141" lon="-1.68593">
        <ele>6.04</ele>
        <time>2020-05-11T15:42:47Z</time>
      </trkpt>
      <trkpt lat="47.1411" lon="-1.68607">
        <ele>5.8</ele>
        <time>2020-05-11T15:42:49Z</time>
      </trkpt>
      <trkpt lat="47.14119" lon="-1.68621">
        <ele>5.73</ele>
        <time>2020-05-11T15:42:51Z</time>
      </trkpt>
      <trkpt lat="47.14127" lon="-1.68634">
        <ele>7.13</ele>
        <time>2020-05-11T15:42:53Z</time>
      </trkpt>
      <trkpt lat="47.14139" lon="-1.6865">
        <ele>7.72</ele>
        <time>2020-05-11T15:42:55Z</time>
      </trkpt>
      <trkpt lat="47.14148" lon="-1.68664">
        <ele>7.23</ele>
        <time>2020-05-11T15:42:57Z</time>
      </trkpt>
      <trkpt lat="47.14156" lon="-1.68679">
        <ele>5.74</ele>
        <time>2020-05-11T15:42:59Z</time>
      </trkpt>
      <trkpt lat="47.14164" lon="-1.68694">
        <ele>5.66</ele>
        <time>2020-05-11T15:43:01Z</time>
      </trkpt>
      <trkpt lat="47.14171" lon="-1.68709">
        <ele>6.67</ele>
        <time>2020-05-11T15:43:03Z</time>
      </trkpt>
      <trkpt lat="47.1418" lon="-1.68727">
        <ele>7.93</ele>
        <time>2020-05-11T15:43:05Z</time>
      </trkpt>
      <trkpt lat="47.14186" lon="-1.68743">
        <ele>8.81</ele>
        <time>2020-05-11T15:43:07Z</time>
      </trkpt>
      <trkpt lat="47.14192" lon="-1.68761">
        <ele>8.19</ele>
        <time>2020-05-11T15:43:09Z</time>
      </trkpt>
      <trkpt lat="47.14198" lon="-1.6878">
        <ele>7.98</ele>
        <time>2020-05-11T15:43:11Z</time>
      </trkpt>
      <trkpt lat="47.14202" lon="-1.68795">
        <ele>7.93</ele>
        <time>2020-05-11T15:43:13Z</time>
      </trkpt>
      <trkpt lat="47.14207" lon="-1.68812">
        <ele>7.83</ele>
        <time>2020-05-11T15:43:15Z</time>
      </trkpt>
      <trkpt lat="47.14211" lon="-1.68831">
        <ele>7.64</ele>
        <time>2020-05-11T15:43:17Z</time>
      </trkpt>
      <trkpt lat="47.14215" lon="-1.68854">
        <ele>7.93</ele>
        <time>2020-05-11T15:43:19Z</time>
      </trkpt>
      <trkpt lat="47.14218" lon="-1.68873">
        <ele>8.28</ele>
        <time>2020-05-11T15:43:21Z</time>
      </trkpt>
      <trkpt lat="47.14222" lon="-1.68893">
        <ele>8.59</ele>
        <time>2020-05-11T15:43:23Z</time>
      </trkpt>
      <trkpt lat="47.14225" lon="-1.68911">
        <ele>8.84</ele>
        <time>2020-05-11T15:43:25Z</time>
      </trkpt>
      <trkpt lat="47.14228" lon="-1.68929">
        <ele>8.8</ele>
        <time>2020-05-11T15:43:27Z</time>
      </trkpt>
      <trkpt lat="47.14225" lon="-1.68946">
        <ele>9.37</ele>
        <time>2020-05-11T15:43:29Z</time>
      </trkpt>
      <trkpt lat="47.14214" lon="-1.68946">
        <ele>9.04</ele>
        <time>2020-05-11T15:43:31Z</time>
      </trkpt>
      <trkpt lat="47.14201" lon="-1.6895">
        <ele>9.85</ele>
        <time>2020-05-11T15:43:33Z</time>
      </trkpt>
      <trkpt lat="47.14192" lon="-1.68965">
        <ele>10.4</ele>
        <time>2020-05-11T15:43:35Z</time>
      </trkpt>
      <trkpt lat="47.14183" lon="-1.68983">
        <ele>12.09</ele>
        <time>2020-05-11T15:43:37Z</time>
      </trkpt>
      <trkpt lat="47.14175" lon="-1.68999">
        <ele>13.04</ele>
        <time>2020-05-11T15:43:39Z</time>
      </trkpt>
      <trkpt lat="47.14168" lon="-1.69017">
        <ele>12.1</ele>
        <time>2020-05-11T15:43:41Z</time>
      </trkpt>
      <trkpt lat="47.14162" lon="-1.69035">
        <ele>11.3</ele>
        <time>2020-05-11T15:43:43Z</time>
      </trkpt>
      <trkpt lat="47.14159" lon="-1.69056">
        <ele>10.62</ele>
        <time>2020-05-11T15:43:45Z</time>
      </trkpt>
      <trkpt lat="47.14156" lon="-1.69077">
        <ele>9.81</ele>
        <time>2020-05-11T15:43:47Z</time>
      </trkpt>
      <trkpt lat="47.14154" lon="-1.69097">
        <ele>9.64</ele>
        <time>2020-05-11T15:43:49Z</time>
      </trkpt>
      <trkpt lat="47.14151" lon="-1.69117">
        <ele>9.66</ele>
        <time>2020-05-11T15:43:51Z</time>
      </trkpt>
      <trkpt lat="47.14149" lon="-1.69135">
        <ele>10.16</ele>
        <time>2020-05-11T15:43:53Z</time>
      </trkpt>
      <trkpt lat="47.14146" lon="-1.69154">
        <ele>10.77</ele>
        <time>2020-05-11T15:43:55Z</time>
      </trkpt>
      <trkpt lat="47.14143" lon="-1.69173">
        <ele>11.21</ele>
        <time>2020-05-11T15:43:57Z</time>
      </trkpt>
      <trkpt lat="47.1414" lon="-1.69194">
        <ele>13.24</ele>
        <time>2020-05-11T15:43:59Z</time>
      </trkpt>
      <trkpt lat="47.14137" lon="-1.69214">
        <ele>14.77</ele>
        <time>2020-05-11T15:44:01Z</time>
      </trkpt>
      <trkpt lat="47.14133" lon="-1.69235">
        <ele>14.74</ele>
        <time>2020-05-11T15:44:03Z</time>
      </trkpt>
      <trkpt lat="47.14131" lon="-1.69253">
        <ele>14.5</ele>
        <time>2020-05-11T15:44:05Z</time>
      </trkpt>
      <trkpt lat="47.14127" lon="-1.69275">
        <ele>14.53</ele>
        <time>2020-05-11T15:44:07Z</time>
      </trkpt>
      <trkpt lat="47.14123" lon="-1.69293">
        <ele>13.98</ele>
        <time>2020-05-11T15:44:09Z</time>
      </trkpt>
      <trkpt lat="47.1412" lon="-1.69315">
        <ele>13.44</ele>
        <time>2020-05-11T15:44:11Z</time>
      </trkpt>
      <trkpt lat="47.14117" lon="-1.69333">
        <ele>13.02</ele>
        <time>2020-05-11T15:44:13Z</time>
      </trkpt>
      <trkpt lat="47.14115" lon="-1.69353">
        <ele>12.25</ele>
        <time>2020-05-11T15:44:15Z</time>
      </trkpt>
      <trkpt lat="47.14112" lon="-1.69371">
        <ele>12.51</ele>
        <time>2020-05-11T15:44:17Z</time>
      </trkpt>
      <trkpt lat="47.1411" lon="-1.69392">
        <ele>13.32</ele>
        <time>2020-05-11T15:44:19Z</time>
      </trkpt>
      <trkpt lat="47.14108" lon="-1.69415">
        <ele>14.45</ele>
        <time>2020-05-11T15:44:21Z</time>
      </trkpt>
      <trkpt lat="47.14105" lon="-1.69438">
        <ele>13.94</ele>
        <time>2020-05-11T15:44:23Z</time>
      </trkpt>
      <trkpt lat="47.14103" lon="-1.6946">
        <ele>13.51</ele>
        <time>2020-05-11T15:44:25Z</time>
      </trkpt>
      <trkpt lat="47.14101" lon="-1.69482">
        <ele>13.05</ele>
        <time>2020-05-11T15:44:27Z</time>
      </trkpt>
      <trkpt lat="47.14099" lon="-1.69503">
        <ele>12.74</ele>
        <time>2020-05-11T15:44:29Z</time>
      </trkpt>
      <trkpt lat="47.14096" lon="-1.69525">
        <ele>12.65</ele>
        <time>2020-05-11T15:44:31Z</time>
      </trkpt>
      <trkpt lat="47.14094" lon="-1.69548">
        <ele>12.63</ele>
        <time>2020-05-11T15:44:33Z</time>
      </trkpt>
      <trkpt lat="47.14092" lon="-1.69572">
        <ele>12.24</ele>
        <time>2020-05-11T15:44:35Z</time>
      </trkpt>
      <trkpt lat="47.1409" lon="-1.69594">
        <ele>11.3</ele>
        <time>2020-05-11T15:44:37Z</time>
      </trkpt>
      <trkpt lat="47.1409" lon="-1.69614">
        <ele>10.47</ele>
        <time>2020-05-11T15:44:39Z</time>
      </trkpt>
      <trkpt lat="47.14091" lon="-1.69638">
        <ele>9.57</ele>
        <time>2020-05-11T15:44:41Z</time>
      </trkpt>
      <trkpt lat="47.14093" lon="-1.69658">
        <ele>9.88</ele>
        <time>2020-05-11T15:44:43Z</time>
      </trkpt>
      <trkpt lat="47.14096" lon="-1.69677">
        <ele>10.28</ele>
        <time>2020-05-11T15:44:45Z</time>
      </trkpt>
      <trkpt lat="47.14099" lon="-1.69699">
        <ele>10.56</ele>
        <time>2020-05-11T15:44:47Z</time>
      </trkpt>
      <trkpt lat="47.14101" lon="-1.69716">
        <ele>9.68</ele>
        <time>2020-05-11T15:44:49Z</time>
      </trkpt>
      <trkpt lat="47.14095" lon="-1.6973">
        <ele>9.94</ele>
        <time>2020-05-11T15:44:55Z</time>
      </trkpt>
      <trkpt lat="47.14083" lon="-1.69733">
        <ele>10.28</ele>
        <time>2020-05-11T15:44:57Z</time>
      </trkpt>
      <trkpt lat="47.14073" lon="-1.69735">
        <ele>10.3</ele>
        <time>2020-05-11T15:44:58Z</time>
      </trkpt>
      <trkpt lat="47.14062" lon="-1.69734">
        <ele>10.08</ele>
        <time>2020-05-11T15:45:00Z</time>
      </trkpt>
      <trkpt lat="47.14048" lon="-1.69732">
        <ele>9.25</ele>
        <time>2020-05-11T15:45:02Z</time>
      </trkpt>
      <trkpt lat="47.14034" lon="-1.69731">
        <ele>9.02</ele>
        <time>2020-05-11T15:45:04Z</time>
      </trkpt>
      <trkpt lat="47.14023" lon="-1.6973">
        <ele>9.77</ele>
        <time>2020-05-11T15:45:06Z</time>
      </trkpt>
      <trkpt lat="47.14009" lon="-1.69729">
        <ele>11.13</ele>
        <time>2020-05-11T15:45:08Z</time>
      </trkpt>
      <trkpt lat="47.13998" lon="-1.69728">
        <ele>12.12</ele>
        <time>2020-05-11T15:45:10Z</time>
      </trkpt>
      <trkpt lat="47.13983" lon="-1.69727">
        <ele>12.12</ele>
        <time>2020-05-11T15:45:12Z</time>
      </trkpt>
      <trkpt lat="47.13969" lon="-1.69726">
        <ele>12.5</ele>
        <time>2020-05-11T15:45:14Z</time>
      </trkpt>
      <trkpt lat="47.13956" lon="-1.69724">
        <ele>12.83</ele>
        <time>2020-05-11T15:45:16Z</time>
      </trkpt>
      <trkpt lat="47.1394" lon="-1.69722">
        <ele>12.63</ele>
        <time>2020-05-11T15:45:18Z</time>
      </trkpt>
      <trkpt lat="47.13924" lon="-1.69719">
        <ele>12.62</ele>
        <time>2020-05-11T15:45:20Z</time>
      </trkpt>
      <trkpt lat="47.13909" lon="-1.69717">
        <ele>12.35</ele>
        <time>2020-05-11T15:45:22Z</time>
      </trkpt>
      <trkpt lat="47.13892" lon="-1.69717">
        <ele>11.43</ele>
        <time>2020-05-11T15:45:24Z</time>
      </trkpt>
      <trkpt lat="47.13876" lon="-1.69719">
        <ele>11.24</ele>
        <time>2020-05-11T15:45:26Z</time>
      </trkpt>
      <trkpt lat="47.13861" lon="-1.69722">
        <ele>10.91</ele>
        <time>2020-05-11T15:45:28Z</time>
      </trkpt>
      <trkpt lat="47.13848" lon="-1.69726">
        <ele>9.6</ele>
        <time>2020-05-11T15:45:30Z</time>
      </trkpt>
      <trkpt lat="47.13833" lon="-1.69728">
        <ele>8.8</ele>
        <time>2020-05-11T15:45:32Z</time>
      </trkpt>
      <trkpt lat="47.13824" lon="-1.69729">
        <ele>8.02</ele>
        <time>2020-05-11T15:45:33Z</time>
      </trkpt>
      <trkpt lat="47.13808" lon="-1.69729">
        <ele>7.34</ele>
        <time>2020-05-11T15:45:35Z</time>
      </trkpt>
      <trkpt lat="47.13793" lon="-1.69728">
        <ele>7.11</ele>
        <time>2020-05-11T15:45:37Z</time>
      </trkpt>
      <trkpt lat="47.13779" lon="-1.69727">
        <ele>7.59</ele>
        <time>2020-05-11T15:45:39Z</time>
      </trkpt>
      <trkpt lat="47.13762" lon="-1.69725">
        <ele>8.32</ele>
        <time>2020-05-11T15:45:41Z</time>
      </trkpt>
      <trkpt lat="47.13744" lon="-1.69727">
        <ele>8.9</ele>
        <time>2020-05-11T15:45:43Z</time>
      </trkpt>
      <trkpt lat="47.1373" lon="-1.69729">
        <ele>8.46</ele>
        <time>2020-05-11T15:45:45Z</time>
      </trkpt>
      <trkpt lat="47.13715" lon="-1.69734">
        <ele>7.63</ele>
        <time>2020-05-11T15:45:47Z</time>
      </trkpt>
      <trkpt lat="47.13701" lon="-1.69738">
        <ele>6.36</ele>
        <time>2020-05-11T15:45:49Z</time>
      </trkpt>
      <trkpt lat="47.13688" lon="-1.6974">
        <ele>6.1</ele>
        <time>2020-05-11T15:45:51Z</time>
      </trkpt>
      <trkpt lat="47.13671" lon="-1.69741">
        <ele>6.29</ele>
        <time>2020-05-11T15:45:53Z</time>
      </trkpt>
      <trkpt lat="47.13662" lon="-1.69741">
        <ele>6.16</ele>
        <time>2020-05-11T15:45:54Z</time>
      </trkpt>
      <trkpt lat="47.13645" lon="-1.69741">
        <ele>5.03</ele>
        <time>2020-05-11T15:45:56Z</time>
      </trkpt>
      <trkpt lat="47.1363" lon="-1.6974">
        <ele>5.02</ele>
        <time>2020-05-11T15:45:58Z</time>
      </trkpt>
      <trkpt lat="47.13615" lon="-1.6974">
        <ele>5.66</ele>
        <time>2020-05-11T15:46:00Z</time>
      </trkpt>
      <trkpt lat="47.13599" lon="-1.69739">
        <ele>6.04</ele>
        <time>2020-05-11T15:46:02Z</time>
      </trkpt>
      <trkpt lat="47.13582" lon="-1.69739">
        <ele>5.9</ele>
        <time>2020-05-11T15:46:04Z</time>
      </trkpt>
      <trkpt lat="47.13567" lon="-1.6974">
        <ele>5.82</ele>
        <time>2020-05-11T15:46:06Z</time>
      </trkpt>
      <trkpt lat="47.1355" lon="-1.6974">
        <ele>6.08</ele>
        <time>2020-05-11T15:46:08Z</time>
      </trkpt>
      <trkpt lat="47.13535" lon="-1.69739">
        <ele>5.45</ele>
        <time>2020-05-11T15:46:10Z</time>
      </trkpt>
      <trkpt lat="47.13518" lon="-1.6974">
        <ele>5.57</ele>
        <time>2020-05-11T15:46:12Z</time>
      </trkpt>
      <trkpt lat="47.13509" lon="-1.6974">
        <ele>5.3</ele>
        <time>2020-05-11T15:46:13Z</time>
      </trkpt>
      <trkpt lat="47.13493" lon="-1.69741">
        <ele>4.56</ele>
        <time>2020-05-11T15:46:15Z</time>
      </trkpt>
      <trkpt lat="47.13478" lon="-1.69743">
        <ele>4.22</ele>
        <time>2020-05-11T15:46:17Z</time>
      </trkpt>
      <trkpt lat="47.13463" lon="-1.69745">
        <ele>3.83</ele>
        <time>2020-05-11T15:46:19Z</time>
      </trkpt>
      <trkpt lat="47.1345" lon="-1.69749">
        <ele>3.96</ele>
        <time>2020-05-11T15:46:21Z</time>
      </trkpt>
      <trkpt lat="47.13437" lon="-1.69756">
        <ele>4.54</ele>
        <time>2020-05-11T15:46:23Z</time>
      </trkpt>
      <trkpt lat="47.13424" lon="-1.69761">
        <ele>5.95</ele>
        <time>2020-05-11T15:46:25Z</time>
      </trkpt>
      <trkpt lat="47.13408" lon="-1.69767">
        <ele>6.67</ele>
        <time>2020-05-11T15:46:27Z</time>
      </trkpt>
      <trkpt lat="47.13394" lon="-1.69775">
        <ele>7.16</ele>
        <time>2020-05-11T15:46:29Z</time>
      </trkpt>
      <trkpt lat="47.1338" lon="-1.69783">
        <ele>5.82</ele>
        <time>2020-05-11T15:46:31Z</time>
      </trkpt>
      <trkpt lat="47.13364" lon="-1.69791">
        <ele>5.49</ele>
        <time>2020-05-11T15:46:33Z</time>
      </trkpt>
      <trkpt lat="47.13351" lon="-1.69797">
        <ele>6.43</ele>
        <time>2020-05-11T15:46:35Z</time>
      </trkpt>
      <trkpt lat="47.13337" lon="-1.69805">
        <ele>7.16</ele>
        <time>2020-05-11T15:46:37Z</time>
      </trkpt>
      <trkpt lat="47.13324" lon="-1.69814">
        <ele>7.63</ele>
        <time>2020-05-11T15:46:39Z</time>
      </trkpt>
      <trkpt lat="47.13313" lon="-1.69821">
        <ele>7.88</ele>
        <time>2020-05-11T15:46:41Z</time>
      </trkpt>
      <trkpt lat="47.13302" lon="-1.69827">
        <ele>7.64</ele>
        <time>2020-05-11T15:46:43Z</time>
      </trkpt>
      <trkpt lat="47.1329" lon="-1.69834">
        <ele>6.35</ele>
        <time>2020-05-11T15:46:45Z</time>
      </trkpt>
      <trkpt lat="47.13277" lon="-1.69841">
        <ele>5.19</ele>
        <time>2020-05-11T15:46:47Z</time>
      </trkpt>
      <trkpt lat="47.13264" lon="-1.69848">
        <ele>5.18</ele>
        <time>2020-05-11T15:46:49Z</time>
      </trkpt>
      <trkpt lat="47.13252" lon="-1.69853">
        <ele>5.03</ele>
        <time>2020-05-11T15:46:51Z</time>
      </trkpt>
      <trkpt lat="47.13238" lon="-1.69859">
        <ele>5.06</ele>
        <time>2020-05-11T15:46:53Z</time>
      </trkpt>
      <trkpt lat="47.13228" lon="-1.69865">
        <ele>5.64</ele>
        <time>2020-05-11T15:46:55Z</time>
      </trkpt>
      <trkpt lat="47.13214" lon="-1.69872">
        <ele>6.78</ele>
        <time>2020-05-11T15:46:57Z</time>
      </trkpt>
      <trkpt lat="47.132" lon="-1.6988">
        <ele>7.51</ele>
        <time>2020-05-11T15:46:59Z</time>
      </trkpt>
      <trkpt lat="47.13186" lon="-1.69889">
        <ele>8.59</ele>
        <time>2020-05-11T15:47:01Z</time>
      </trkpt>
      <trkpt lat="47.1317" lon="-1.69896">
        <ele>8.08</ele>
        <time>2020-05-11T15:47:03Z</time>
      </trkpt>
      <trkpt lat="47.13155" lon="-1.69904">
        <ele>6.59</ele>
        <time>2020-05-11T15:47:05Z</time>
      </trkpt>
      <trkpt lat="47.13142" lon="-1.6991">
        <ele>6.01</ele>
        <time>2020-05-11T15:47:07Z</time>
      </trkpt>
      <trkpt lat="47.13127" lon="-1.69919">
        <ele>5.61</ele>
        <time>2020-05-11T15:47:09Z</time>
      </trkpt>
      <trkpt lat="47.13111" lon="-1.69928">
        <ele>5.69</ele>
        <time>2020-05-11T15:47:11Z</time>
      </trkpt>
      <trkpt lat="47.13096" lon="-1.69935">
        <ele>6.3</ele>
        <time>2020-05-11T15:47:13Z</time>
      </trkpt>
      <trkpt lat="47.13083" lon="-1.69941">
        <ele>5.86</ele>
        <time>2020-05-11T15:47:15Z</time>
      </trkpt>
      <trkpt lat="47.1307" lon="-1.69949">
        <ele>4.58</ele>
        <time>2020-05-11T15:47:17Z</time>
      </trkpt>
      <trkpt lat="47.13056" lon="-1.69957">
        <ele>3.91</ele>
        <time>2020-05-11T15:47:19Z</time>
      </trkpt>
      <trkpt lat="47.1304" lon="-1.69965">
        <ele>3.12</ele>
        <time>2020-05-11T15:47:21Z</time>
      </trkpt>
      <trkpt lat="47.13025" lon="-1.69972">
        <ele>3.8</ele>
        <time>2020-05-11T15:47:23Z</time>
      </trkpt>
      <trkpt lat="47.13012" lon="-1.69979">
        <ele>4.5</ele>
        <time>2020-05-11T15:47:25Z</time>
      </trkpt>
      <trkpt lat="47.12997" lon="-1.69988">
        <ele>3.58</ele>
        <time>2020-05-11T15:47:27Z</time>
      </trkpt>
      <trkpt lat="47.12983" lon="-1.69996">
        <ele>1.93</ele>
        <time>2020-05-11T15:47:29Z</time>
      </trkpt>
      <trkpt lat="47.12968" lon="-1.70004">
        <ele>0.46</ele>
        <time>2020-05-11T15:47:31Z</time>
      </trkpt>
      <trkpt lat="47.12956" lon="-1.7001">
        <ele>-0.74</ele>
        <time>2020-05-11T15:47:33Z</time>
      </trkpt>
      <trkpt lat="47.12941" lon="-1.70017">
        <ele>-0.62</ele>
        <time>2020-05-11T15:47:35Z</time>
      </trkpt>
      <trkpt lat="47.12928" lon="-1.70024">
        <ele>0.31</ele>
        <time>2020-05-11T15:47:37Z</time>
      </trkpt>
      <trkpt lat="47.12915" lon="-1.70031">
        <ele>1.08</ele>
        <time>2020-05-11T15:47:39Z</time>
      </trkpt>
      <trkpt lat="47.12901" lon="-1.70039">
        <ele>1.38</ele>
        <time>2020-05-11T15:47:41Z</time>
      </trkpt>
      <trkpt lat="47.12888" lon="-1.70045">
        <ele>1.65</ele>
        <time>2020-05-11T15:47:43Z</time>
      </trkpt>
      <trkpt lat="47.12875" lon="-1.70049">
        <ele>2.35</ele>
        <time>2020-05-11T15:47:45Z</time>
      </trkpt>
      <trkpt lat="47.12861" lon="-1.70057">
        <ele>2.19</ele>
        <time>2020-05-11T15:47:47Z</time>
      </trkpt>
      <trkpt lat="47.1285" lon="-1.70063">
        <ele>2.23</ele>
        <time>2020-05-11T15:47:49Z</time>
      </trkpt>
      <trkpt lat="47.12837" lon="-1.7007">
        <ele>1.79</ele>
        <time>2020-05-11T15:47:51Z</time>
      </trkpt>
      <trkpt lat="47.12821" lon="-1.70078">
        <ele>1.65</ele>
        <time>2020-05-11T15:47:53Z</time>
      </trkpt>
      <trkpt lat="47.12808" lon="-1.70085">
        <ele>1.37</ele>
        <time>2020-05-11T15:47:55Z</time>
      </trkpt>
      <trkpt lat="47.12796" lon="-1.70091">
        <ele>1.63</ele>
        <time>2020-05-11T15:47:57Z</time>
      </trkpt>
      <trkpt lat="47.12784" lon="-1.70098">
        <ele>2.21</ele>
        <time>2020-05-11T15:47:59Z</time>
      </trkpt>
      <trkpt lat="47.1277" lon="-1.70106">
        <ele>3.12</ele>
        <time>2020-05-11T15:48:01Z</time>
      </trkpt>
      <trkpt lat="47.12756" lon="-1.70113">
        <ele>4.5</ele>
        <time>2020-05-11T15:48:03Z</time>
      </trkpt>
      <trkpt lat="47.12744" lon="-1.7012">
        <ele>4.97</ele>
        <time>2020-05-11T15:48:05Z</time>
      </trkpt>
      <trkpt lat="47.1273" lon="-1.70128">
        <ele>5.09</ele>
        <time>2020-05-11T15:48:07Z</time>
      </trkpt>
      <trkpt lat="47.12718" lon="-1.70133">
        <ele>4.42</ele>
        <time>2020-05-11T15:48:09Z</time>
      </trkpt>
      <trkpt lat="47.12706" lon="-1.7014">
        <ele>3.34</ele>
        <time>2020-05-11T15:48:11Z</time>
      </trkpt>
      <trkpt lat="47.12691" lon="-1.70147">
        <ele>1.84</ele>
        <time>2020-05-11T15:48:13Z</time>
      </trkpt>
      <trkpt lat="47.12677" lon="-1.70154">
        <ele>1.35</ele>
        <time>2020-05-11T15:48:15Z</time>
      </trkpt>
      <trkpt lat="47.12665" lon="-1.70161">
        <ele>1.6</ele>
        <time>2020-05-11T15:48:17Z</time>
      </trkpt>
      <trkpt lat="47.12652" lon="-1.70168">
        <ele>1.58</ele>
        <time>2020-05-11T15:48:19Z</time>
      </trkpt>
      <trkpt lat="47.12638" lon="-1.70176">
        <ele>1.59</ele>
        <time>2020-05-11T15:48:21Z</time>
      </trkpt>
      <trkpt lat="47.12624" lon="-1.70185">
        <ele>1.1</ele>
        <time>2020-05-11T15:48:23Z</time>
      </trkpt>
      <trkpt lat="47.12612" lon="-1.70191">
        <ele>1.23</ele>
        <time>2020-05-11T15:48:25Z</time>
      </trkpt>
      <trkpt lat="47.12598" lon="-1.70198">
        <ele>1.94</ele>
        <time>2020-05-11T15:48:27Z</time>
      </trkpt>
      <trkpt lat="47.12585" lon="-1.70204">
        <ele>2.13</ele>
        <time>2020-05-11T15:48:29Z</time>
      </trkpt>
      <trkpt lat="47.12572" lon="-1.70211">
        <ele>2.32</ele>
        <time>2020-05-11T15:48:31Z</time>
      </trkpt>
      <trkpt lat="47.12557" lon="-1.70218">
        <ele>2.45</ele>
        <time>2020-05-11T15:48:33Z</time>
      </trkpt>
      <trkpt lat="47.12543" lon="-1.70225">
        <ele>2.44</ele>
        <time>2020-05-11T15:48:35Z</time>
      </trkpt>
      <trkpt lat="47.12529" lon="-1.70232">
        <ele>2.67</ele>
        <time>2020-05-11T15:48:37Z</time>
      </trkpt>
      <trkpt lat="47.12516" lon="-1.70239">
        <ele>3.03</ele>
        <time>2020-05-11T15:48:39Z</time>
      </trkpt>
      <trkpt lat="47.12503" lon="-1.70244">
        <ele>4.26</ele>
        <time>2020-05-11T15:48:41Z</time>
      </trkpt>
      <trkpt lat="47.12489" lon="-1.70251">
        <ele>4.38</ele>
        <time>2020-05-11T15:48:43Z</time>
      </trkpt>
      <trkpt lat="47.12475" lon="-1.70258">
        <ele>4.4</ele>
        <time>2020-05-11T15:48:45Z</time>
      </trkpt>
      <trkpt lat="47.12461" lon="-1.70266">
        <ele>4.5</ele>
        <time>2020-05-11T15:48:47Z</time>
      </trkpt>
      <trkpt lat="47.12448" lon="-1.70276">
        <ele>5.54</ele>
        <time>2020-05-11T15:48:49Z</time>
      </trkpt>
      <trkpt lat="47.12438" lon="-1.70287">
        <ele>6.1</ele>
        <time>2020-05-11T15:48:51Z</time>
      </trkpt>
      <trkpt lat="47.12428" lon="-1.70301">
        <ele>6.59</ele>
        <time>2020-05-11T15:48:53Z</time>
      </trkpt>
      <trkpt lat="47.12422" lon="-1.70317">
        <ele>7.45</ele>
        <time>2020-05-11T15:48:55Z</time>
      </trkpt>
      <trkpt lat="47.12414" lon="-1.70336">
        <ele>7.98</ele>
        <time>2020-05-11T15:48:57Z</time>
      </trkpt>
      <trkpt lat="47.12408" lon="-1.70357">
        <ele>7.27</ele>
        <time>2020-05-11T15:48:59Z</time>
      </trkpt>
      <trkpt lat="47.12403" lon="-1.70377">
        <ele>5.98</ele>
        <time>2020-05-11T15:49:01Z</time>
      </trkpt>
      <trkpt lat="47.12398" lon="-1.70398">
        <ele>3.87</ele>
        <time>2020-05-11T15:49:03Z</time>
      </trkpt>
      <trkpt lat="47.12395" lon="-1.70419">
        <ele>3.2</ele>
        <time>2020-05-11T15:49:05Z</time>
      </trkpt>
      <trkpt lat="47.12391" lon="-1.70441">
        <ele>2.33</ele>
        <time>2020-05-11T15:49:07Z</time>
      </trkpt>
      <trkpt lat="47.12388" lon="-1.70458">
        <ele>1.37</ele>
        <time>2020-05-11T15:49:09Z</time>
      </trkpt>
      <trkpt lat="47.12384" lon="-1.7048">
        <ele>0.48</ele>
        <time>2020-05-11T15:49:11Z</time>
      </trkpt>
      <trkpt lat="47.12381" lon="-1.70498">
        <ele>-0.27</ele>
        <time>2020-05-11T15:49:13Z</time>
      </trkpt>
      <trkpt lat="47.12374" lon="-1.70521">
        <ele>-0.62</ele>
        <time>2020-05-11T15:49:15Z</time>
      </trkpt>
      <trkpt lat="47.12366" lon="-1.70541">
        <ele>-0.06</ele>
        <time>2020-05-11T15:49:17Z</time>
      </trkpt>
      <trkpt lat="47.12356" lon="-1.7056">
        <ele>-0.26</ele>
        <time>2020-05-11T15:49:19Z</time>
      </trkpt>
      <trkpt lat="47.12347" lon="-1.70576">
        <ele>0.28</ele>
        <time>2020-05-11T15:49:21Z</time>
      </trkpt>
      <trkpt lat="47.12336" lon="-1.70591">
        <ele>1.13</ele>
        <time>2020-05-11T15:49:23Z</time>
      </trkpt>
      <trkpt lat="47.12326" lon="-1.70605">
        <ele>1.15</ele>
        <time>2020-05-11T15:49:25Z</time>
      </trkpt>
      <trkpt lat="47.12316" lon="-1.7062">
        <ele>0.65</ele>
        <time>2020-05-11T15:49:27Z</time>
      </trkpt>
      <trkpt lat="47.12304" lon="-1.70636">
        <ele>-0.04</ele>
        <time>2020-05-11T15:49:29Z</time>
      </trkpt>
      <trkpt lat="47.12293" lon="-1.70651">
        <ele>0.55</ele>
        <time>2020-05-11T15:49:31Z</time>
      </trkpt>
      <trkpt lat="47.12283" lon="-1.70666">
        <ele>1.52</ele>
        <time>2020-05-11T15:49:33Z</time>
      </trkpt>
      <trkpt lat="47.12273" lon="-1.7068">
        <ele>2.01</ele>
        <time>2020-05-11T15:49:35Z</time>
      </trkpt>
      <trkpt lat="47.12262" lon="-1.70698">
        <ele>2.99</ele>
        <time>2020-05-11T15:49:37Z</time>
      </trkpt>
      <trkpt lat="47.12251" lon="-1.70713">
        <ele>2.06</ele>
        <time>2020-05-11T15:49:39Z</time>
      </trkpt>
      <trkpt lat="47.1224" lon="-1.70726">
        <ele>2.2</ele>
        <time>2020-05-11T15:49:41Z</time>
      </trkpt>
      <trkpt lat="47.12227" lon="-1.70738">
        <ele>2.98</ele>
        <time>2020-05-11T15:49:43Z</time>
      </trkpt>
      <trkpt lat="47.12215" lon="-1.70748">
        <ele>3.95</ele>
        <time>2020-05-11T15:49:45Z</time>
      </trkpt>
      <trkpt lat="47.12201" lon="-1.70759">
        <ele>3.99</ele>
        <time>2020-05-11T15:49:47Z</time>
      </trkpt>
      <trkpt lat="47.12189" lon="-1.70769">
        <ele>3.52</ele>
        <time>2020-05-11T15:49:49Z</time>
      </trkpt>
      <trkpt lat="47.12177" lon="-1.70778">
        <ele>3.37</ele>
        <time>2020-05-11T15:49:51Z</time>
      </trkpt>
      <trkpt lat="47.12164" lon="-1.70788">
        <ele>3.72</ele>
        <time>2020-05-11T15:49:53Z</time>
      </trkpt>
      <trkpt lat="47.1215" lon="-1.70797">
        <ele>4.51</ele>
        <time>2020-05-11T15:49:55Z</time>
      </trkpt>
      <trkpt lat="47.12137" lon="-1.70806">
        <ele>4.08</ele>
        <time>2020-05-11T15:49:57Z</time>
      </trkpt>
      <trkpt lat="47.12122" lon="-1.70815">
        <ele>3.1</ele>
        <time>2020-05-11T15:49:59Z</time>
      </trkpt>
      <trkpt lat="47.1211" lon="-1.70822">
        <ele>3.06</ele>
        <time>2020-05-11T15:50:01Z</time>
      </trkpt>
      <trkpt lat="47.12099" lon="-1.7083">
        <ele>3.23</ele>
        <time>2020-05-11T15:50:03Z</time>
      </trkpt>
      <trkpt lat="47.12086" lon="-1.7084">
        <ele>3.41</ele>
        <time>2020-05-11T15:50:05Z</time>
      </trkpt>
      <trkpt lat="47.12071" lon="-1.70849">
        <ele>3.54</ele>
        <time>2020-05-11T15:50:07Z</time>
      </trkpt>
      <trkpt lat="47.12058" lon="-1.70858">
        <ele>3.74</ele>
        <time>2020-05-11T15:50:09Z</time>
      </trkpt>
      <trkpt lat="47.12045" lon="-1.70866">
        <ele>3.88</ele>
        <time>2020-05-11T15:50:11Z</time>
      </trkpt>
      <trkpt lat="47.12033" lon="-1.70874">
        <ele>4.33</ele>
        <time>2020-05-11T15:50:13Z</time>
      </trkpt>
      <trkpt lat="47.1202" lon="-1.70882">
        <ele>3.83</ele>
        <time>2020-05-11T15:50:15Z</time>
      </trkpt>
      <trkpt lat="47.12005" lon="-1.70891">
        <ele>3.05</ele>
        <time>2020-05-11T15:50:17Z</time>
      </trkpt>
      <trkpt lat="47.11991" lon="-1.709">
        <ele>2.28</ele>
        <time>2020-05-11T15:50:19Z</time>
      </trkpt>
      <trkpt lat="47.11976" lon="-1.70909">
        <ele>1.64</ele>
        <time>2020-05-11T15:50:21Z</time>
      </trkpt>
      <trkpt lat="47.11968" lon="-1.70914">
        <ele>1.42</ele>
        <time>2020-05-11T15:50:22Z</time>
      </trkpt>
      <trkpt lat="47.11954" lon="-1.70923">
        <ele>1.33</ele>
        <time>2020-05-11T15:50:24Z</time>
      </trkpt>
      <trkpt lat="47.11938" lon="-1.70935">
        <ele>2.33</ele>
        <time>2020-05-11T15:50:26Z</time>
      </trkpt>
      <trkpt lat="47.11929" lon="-1.7094">
        <ele>2.79</ele>
        <time>2020-05-11T15:50:27Z</time>
      </trkpt>
      <trkpt lat="47.11919" lon="-1.70946">
        <ele>3.1</ele>
        <time>2020-05-11T15:50:28Z</time>
      </trkpt>
      <trkpt lat="47.11904" lon="-1.70956">
        <ele>4.21</ele>
        <time>2020-05-11T15:50:30Z</time>
      </trkpt>
      <trkpt lat="47.11895" lon="-1.70962">
        <ele>4.23</ele>
        <time>2020-05-11T15:50:31Z</time>
      </trkpt>
      <trkpt lat="47.1188" lon="-1.7097">
        <ele>4.25</ele>
        <time>2020-05-11T15:50:33Z</time>
      </trkpt>
      <trkpt lat="47.11865" lon="-1.7098">
        <ele>3.07</ele>
        <time>2020-05-11T15:50:35Z</time>
      </trkpt>
      <trkpt lat="47.11857" lon="-1.70985">
        <ele>2.6</ele>
        <time>2020-05-11T15:50:36Z</time>
      </trkpt>
      <trkpt lat="47.11842" lon="-1.70996">
        <ele>2.14</ele>
        <time>2020-05-11T15:50:38Z</time>
      </trkpt>
      <trkpt lat="47.11827" lon="-1.71005">
        <ele>2.59</ele>
        <time>2020-05-11T15:50:40Z</time>
      </trkpt>
      <trkpt lat="47.11813" lon="-1.71013">
        <ele>2.29</ele>
        <time>2020-05-11T15:50:42Z</time>
      </trkpt>
      <trkpt lat="47.11804" lon="-1.71018">
        <ele>2.55</ele>
        <time>2020-05-11T15:50:43Z</time>
      </trkpt>
      <trkpt lat="47.1179" lon="-1.71028">
        <ele>3.34</ele>
        <time>2020-05-11T15:50:45Z</time>
      </trkpt>
      <trkpt lat="47.11779" lon="-1.71037">
        <ele>3.73</ele>
        <time>2020-05-11T15:50:47Z</time>
      </trkpt>
      <trkpt lat="47.11764" lon="-1.71046">
        <ele>3.42</ele>
        <time>2020-05-11T15:50:49Z</time>
      </trkpt>
      <trkpt lat="47.1175" lon="-1.71054">
        <ele>3.51</ele>
        <time>2020-05-11T15:50:51Z</time>
      </trkpt>
      <trkpt lat="47.11738" lon="-1.71062">
        <ele>3.97</ele>
        <time>2020-05-11T15:50:53Z</time>
      </trkpt>
      <trkpt lat="47.11725" lon="-1.7107">
        <ele>4.18</ele>
        <time>2020-05-11T15:50:55Z</time>
      </trkpt>
      <trkpt lat="47.11713" lon="-1.71078">
        <ele>4.33</ele>
        <time>2020-05-11T15:50:57Z</time>
      </trkpt>
      <trkpt lat="47.11702" lon="-1.71086">
        <ele>4.8</ele>
        <time>2020-05-11T15:50:59Z</time>
      </trkpt>
      <trkpt lat="47.11691" lon="-1.71094">
        <ele>5.41</ele>
        <time>2020-05-11T15:51:01Z</time>
      </trkpt>
      <trkpt lat="47.11677" lon="-1.71102">
        <ele>6.6</ele>
        <time>2020-05-11T15:51:03Z</time>
      </trkpt>
      <trkpt lat="47.11664" lon="-1.7111">
        <ele>6.6</ele>
        <time>2020-05-11T15:51:05Z</time>
      </trkpt>
      <trkpt lat="47.11651" lon="-1.7112">
        <ele>6.7</ele>
        <time>2020-05-11T15:51:07Z</time>
      </trkpt>
      <trkpt lat="47.11637" lon="-1.71131">
        <ele>7.02</ele>
        <time>2020-05-11T15:51:09Z</time>
      </trkpt>
      <trkpt lat="47.11625" lon="-1.71143">
        <ele>7.46</ele>
        <time>2020-05-11T15:51:11Z</time>
      </trkpt>
      <trkpt lat="47.11614" lon="-1.71154">
        <ele>7.83</ele>
        <time>2020-05-11T15:51:14Z</time>
      </trkpt>
      <trkpt lat="47.11602" lon="-1.71168">
        <ele>7.46</ele>
        <time>2020-05-11T15:51:16Z</time>
      </trkpt>
      <trkpt lat="47.11589" lon="-1.71181">
        <ele>7.39</ele>
        <time>2020-05-11T15:51:18Z</time>
      </trkpt>
      <trkpt lat="47.11578" lon="-1.71195">
        <ele>8.57</ele>
        <time>2020-05-11T15:51:20Z</time>
      </trkpt>
      <trkpt lat="47.11567" lon="-1.71211">
        <ele>7.2</ele>
        <time>2020-05-11T15:51:22Z</time>
      </trkpt>
      <trkpt lat="47.11556" lon="-1.71227">
        <ele>6.26</ele>
        <time>2020-05-11T15:51:24Z</time>
      </trkpt>
      <trkpt lat="47.11545" lon="-1.71243">
        <ele>6.2</ele>
        <time>2020-05-11T15:51:26Z</time>
      </trkpt>
      <trkpt lat="47.11535" lon="-1.71262">
        <ele>6.51</ele>
        <time>2020-05-11T15:51:28Z</time>
      </trkpt>
      <trkpt lat="47.11526" lon="-1.71279">
        <ele>6.26</ele>
        <time>2020-05-11T15:51:30Z</time>
      </trkpt>
      <trkpt lat="47.11517" lon="-1.71297">
        <ele>5.54</ele>
        <time>2020-05-11T15:51:32Z</time>
      </trkpt>
      <trkpt lat="47.11508" lon="-1.71316">
        <ele>6.12</ele>
        <time>2020-05-11T15:51:34Z</time>
      </trkpt>
      <trkpt lat="47.11499" lon="-1.71335">
        <ele>6.61</ele>
        <time>2020-05-11T15:51:36Z</time>
      </trkpt>
      <trkpt lat="47.1149" lon="-1.71353">
        <ele>6.4</ele>
        <time>2020-05-11T15:51:38Z</time>
      </trkpt>
      <trkpt lat="47.11481" lon="-1.71371">
        <ele>5.56</ele>
        <time>2020-05-11T15:51:40Z</time>
      </trkpt>
      <trkpt lat="47.11472" lon="-1.71389">
        <ele>3.41</ele>
        <time>2020-05-11T15:51:42Z</time>
      </trkpt>
      <trkpt lat="47.11463" lon="-1.71406">
        <ele>2.3</ele>
        <time>2020-05-11T15:51:44Z</time>
      </trkpt>
      <trkpt lat="47.11453" lon="-1.71426">
        <ele>2.3</ele>
        <time>2020-05-11T15:51:46Z</time>
      </trkpt>
      <trkpt lat="47.11442" lon="-1.71447">
        <ele>2.3</ele>
        <time>2020-05-11T15:51:48Z</time>
      </trkpt>
      <trkpt lat="47.11433" lon="-1.71464">
        <ele>2.02</ele>
        <time>2020-05-11T15:51:50Z</time>
      </trkpt>
      <trkpt lat="47.11424" lon="-1.71482">
        <ele>2.03</ele>
        <time>2020-05-11T15:51:52Z</time>
      </trkpt>
      <trkpt lat="47.11414" lon="-1.71502">
        <ele>2.21</ele>
        <time>2020-05-11T15:51:54Z</time>
      </trkpt>
      <trkpt lat="47.11404" lon="-1.71522">
        <ele>2.63</ele>
        <time>2020-05-11T15:51:56Z</time>
      </trkpt>
      <trkpt lat="47.11394" lon="-1.71539">
        <ele>2.58</ele>
        <time>2020-05-11T15:51:58Z</time>
      </trkpt>
      <trkpt lat="47.11384" lon="-1.71558">
        <ele>3.05</ele>
        <time>2020-05-11T15:52:00Z</time>
      </trkpt>
      <trkpt lat="47.11375" lon="-1.71575">
        <ele>3.77</ele>
        <time>2020-05-11T15:52:02Z</time>
      </trkpt>
      <trkpt lat="47.11366" lon="-1.71592">
        <ele>4.23</ele>
        <time>2020-05-11T15:52:04Z</time>
      </trkpt>
      <trkpt lat="47.11356" lon="-1.71608">
        <ele>4.15</ele>
        <time>2020-05-11T15:52:06Z</time>
      </trkpt>
      <trkpt lat="47.11347" lon="-1.71623">
        <ele>4.81</ele>
        <time>2020-05-11T15:52:08Z</time>
      </trkpt>
      <trkpt lat="47.11337" lon="-1.71639">
        <ele>4.8</ele>
        <time>2020-05-11T15:52:10Z</time>
      </trkpt>
      <trkpt lat="47.11324" lon="-1.7165">
        <ele>3.88</ele>
        <time>2020-05-11T15:52:12Z</time>
      </trkpt>
      <trkpt lat="47.11312" lon="-1.7166">
        <ele>4.55</ele>
        <time>2020-05-11T15:52:14Z</time>
      </trkpt>
      <trkpt lat="47.11299" lon="-1.71668">
        <ele>5</ele>
        <time>2020-05-11T15:52:16Z</time>
      </trkpt>
      <trkpt lat="47.11283" lon="-1.71676">
        <ele>4.97</ele>
        <time>2020-05-11T15:52:18Z</time>
      </trkpt>
      <trkpt lat="47.11269" lon="-1.71679">
        <ele>4.87</ele>
        <time>2020-05-11T15:52:20Z</time>
      </trkpt>
      <trkpt lat="47.11254" lon="-1.71676">
        <ele>4.81</ele>
        <time>2020-05-11T15:52:22Z</time>
      </trkpt>
      <trkpt lat="47.11241" lon="-1.71679">
        <ele>4.98</ele>
        <time>2020-05-11T15:52:24Z</time>
      </trkpt>
      <trkpt lat="47.1123" lon="-1.71688">
        <ele>4.97</ele>
        <time>2020-05-11T15:52:26Z</time>
      </trkpt>
      <trkpt lat="47.11219" lon="-1.71697">
        <ele>4.65</ele>
        <time>2020-05-11T15:52:28Z</time>
      </trkpt>
      <trkpt lat="47.11205" lon="-1.71709">
        <ele>3.86</ele>
        <time>2020-05-11T15:52:30Z</time>
      </trkpt>
      <trkpt lat="47.11194" lon="-1.7172">
        <ele>3.21</ele>
        <time>2020-05-11T15:52:32Z</time>
      </trkpt>
      <trkpt lat="47.11182" lon="-1.7173">
        <ele>3.22</ele>
        <time>2020-05-11T15:52:34Z</time>
      </trkpt>
      <trkpt lat="47.1117" lon="-1.71741">
        <ele>2.8</ele>
        <time>2020-05-11T15:52:36Z</time>
      </trkpt>
      <trkpt lat="47.11157" lon="-1.71753">
        <ele>2.56</ele>
        <time>2020-05-11T15:52:38Z</time>
      </trkpt>
      <trkpt lat="47.11145" lon="-1.71764">
        <ele>2.73</ele>
        <time>2020-05-11T15:52:40Z</time>
      </trkpt>
      <trkpt lat="47.11134" lon="-1.71774">
        <ele>2.78</ele>
        <time>2020-05-11T15:52:42Z</time>
      </trkpt>
      <trkpt lat="47.11122" lon="-1.71784">
        <ele>3.17</ele>
        <time>2020-05-11T15:52:44Z</time>
      </trkpt>
      <trkpt lat="47.1111" lon="-1.71795">
        <ele>3.86</ele>
        <time>2020-05-11T15:52:46Z</time>
      </trkpt>
      <trkpt lat="47.11098" lon="-1.71805">
        <ele>4.2</ele>
        <time>2020-05-11T15:52:48Z</time>
      </trkpt>
      <trkpt lat="47.11086" lon="-1.71816">
        <ele>5.11</ele>
        <time>2020-05-11T15:52:50Z</time>
      </trkpt>
      <trkpt lat="47.11075" lon="-1.71828">
        <ele>4.24</ele>
        <time>2020-05-11T15:52:52Z</time>
      </trkpt>
      <trkpt lat="47.11063" lon="-1.71842">
        <ele>3.53</ele>
        <time>2020-05-11T15:52:54Z</time>
      </trkpt>
      <trkpt lat="47.11053" lon="-1.71854">
        <ele>2.94</ele>
        <time>2020-05-11T15:52:56Z</time>
      </trkpt>
      <trkpt lat="47.11041" lon="-1.7187">
        <ele>2.87</ele>
        <time>2020-05-11T15:52:58Z</time>
      </trkpt>
      <trkpt lat="47.11032" lon="-1.71884">
        <ele>2.94</ele>
        <time>2020-05-11T15:53:00Z</time>
      </trkpt>
      <trkpt lat="47.11022" lon="-1.71898">
        <ele>3.21</ele>
        <time>2020-05-11T15:53:02Z</time>
      </trkpt>
      <trkpt lat="47.11012" lon="-1.71912">
        <ele>3.76</ele>
        <time>2020-05-11T15:53:04Z</time>
      </trkpt>
      <trkpt lat="47.11001" lon="-1.71927">
        <ele>3.88</ele>
        <time>2020-05-11T15:53:06Z</time>
      </trkpt>
      <trkpt lat="47.10992" lon="-1.71941">
        <ele>4.11</ele>
        <time>2020-05-11T15:53:08Z</time>
      </trkpt>
      <trkpt lat="47.1098" lon="-1.71956">
        <ele>2.15</ele>
        <time>2020-05-11T15:53:10Z</time>
      </trkpt>
      <trkpt lat="47.1097" lon="-1.71972">
        <ele>2.18</ele>
        <time>2020-05-11T15:53:12Z</time>
      </trkpt>
      <trkpt lat="47.10959" lon="-1.71988">
        <ele>2.43</ele>
        <time>2020-05-11T15:53:14Z</time>
      </trkpt>
      <trkpt lat="47.10947" lon="-1.72004">
        <ele>3.15</ele>
        <time>2020-05-11T15:53:16Z</time>
      </trkpt>
      <trkpt lat="47.10935" lon="-1.7202">
        <ele>4.11</ele>
        <time>2020-05-11T15:53:18Z</time>
      </trkpt>
      <trkpt lat="47.10924" lon="-1.72037">
        <ele>4.32</ele>
        <time>2020-05-11T15:53:20Z</time>
      </trkpt>
      <trkpt lat="47.10914" lon="-1.72051">
        <ele>3.89</ele>
        <time>2020-05-11T15:53:22Z</time>
      </trkpt>
      <trkpt lat="47.10901" lon="-1.72069">
        <ele>3.96</ele>
        <time>2020-05-11T15:53:24Z</time>
      </trkpt>
      <trkpt lat="47.10895" lon="-1.72078">
        <ele>3.97</ele>
        <time>2020-05-11T15:53:25Z</time>
      </trkpt>
      <trkpt lat="47.10888" lon="-1.72087">
        <ele>4.05</ele>
        <time>2020-05-11T15:53:26Z</time>
      </trkpt>
      <trkpt lat="47.10882" lon="-1.72098">
        <ele>4.03</ele>
        <time>2020-05-11T15:53:27Z</time>
      </trkpt>
      <trkpt lat="47.1087" lon="-1.72114">
        <ele>4.12</ele>
        <time>2020-05-11T15:53:29Z</time>
      </trkpt>
      <trkpt lat="47.10858" lon="-1.7213">
        <ele>4.51</ele>
        <time>2020-05-11T15:53:31Z</time>
      </trkpt>
      <trkpt lat="47.10845" lon="-1.72138">
        <ele>5.03</ele>
        <time>2020-05-11T15:53:33Z</time>
      </trkpt>
      <trkpt lat="47.10833" lon="-1.72143">
        <ele>4.39</ele>
        <time>2020-05-11T15:53:35Z</time>
      </trkpt>
      <trkpt lat="47.1082" lon="-1.72139">
        <ele>2.43</ele>
        <time>2020-05-11T15:53:37Z</time>
      </trkpt>
      <trkpt lat="47.10808" lon="-1.72129">
        <ele>1.7</ele>
        <time>2020-05-11T15:53:39Z</time>
      </trkpt>
      <trkpt lat="47.10795" lon="-1.72116">
        <ele>2</ele>
        <time>2020-05-11T15:53:41Z</time>
      </trkpt>
      <trkpt lat="47.10787" lon="-1.72109">
        <ele>2.37</ele>
        <time>2020-05-11T15:53:42Z</time>
      </trkpt>
      <trkpt lat="47.10771" lon="-1.72101">
        <ele>4.01</ele>
        <time>2020-05-11T15:53:44Z</time>
      </trkpt>
      <trkpt lat="47.10757" lon="-1.72097">
        <ele>5.3</ele>
        <time>2020-05-11T15:53:46Z</time>
      </trkpt>
      <trkpt lat="47.10741" lon="-1.72095">
        <ele>6.21</ele>
        <time>2020-05-11T15:53:48Z</time>
      </trkpt>
      <trkpt lat="47.10728" lon="-1.721">
        <ele>6.08</ele>
        <time>2020-05-11T15:53:50Z</time>
      </trkpt>
      <trkpt lat="47.10715" lon="-1.72103">
        <ele>6.06</ele>
        <time>2020-05-11T15:53:52Z</time>
      </trkpt>
      <trkpt lat="47.10702" lon="-1.72107">
        <ele>5.52</ele>
        <time>2020-05-11T15:53:54Z</time>
      </trkpt>
      <trkpt lat="47.10688" lon="-1.72113">
        <ele>5.55</ele>
        <time>2020-05-11T15:53:56Z</time>
      </trkpt>
      <trkpt lat="47.10674" lon="-1.72117">
        <ele>5.58</ele>
        <time>2020-05-11T15:53:58Z</time>
      </trkpt>
      <trkpt lat="47.1066" lon="-1.72123">
        <ele>5.07</ele>
        <time>2020-05-11T15:54:00Z</time>
      </trkpt>
      <trkpt lat="47.10645" lon="-1.72128">
        <ele>4.62</ele>
        <time>2020-05-11T15:54:02Z</time>
      </trkpt>
      <trkpt lat="47.10629" lon="-1.72133">
        <ele>5.12</ele>
        <time>2020-05-11T15:54:04Z</time>
      </trkpt>
      <trkpt lat="47.10615" lon="-1.72139">
        <ele>6.27</ele>
        <time>2020-05-11T15:54:06Z</time>
      </trkpt>
      <trkpt lat="47.10601" lon="-1.72146">
        <ele>7.16</ele>
        <time>2020-05-11T15:54:08Z</time>
      </trkpt>
      <trkpt lat="47.10587" lon="-1.72157">
        <ele>9.26</ele>
        <time>2020-05-11T15:54:10Z</time>
      </trkpt>
      <trkpt lat="47.10575" lon="-1.72176">
        <ele>10.68</ele>
        <time>2020-05-11T15:54:12Z</time>
      </trkpt>
      <trkpt lat="47.10564" lon="-1.72193">
        <ele>11.68</ele>
        <time>2020-05-11T15:54:14Z</time>
      </trkpt>
      <trkpt lat="47.10554" lon="-1.7221">
        <ele>11.1</ele>
        <time>2020-05-11T15:54:16Z</time>
      </trkpt>
      <trkpt lat="47.10544" lon="-1.72227">
        <ele>11.38</ele>
        <time>2020-05-11T15:54:18Z</time>
      </trkpt>
      <trkpt lat="47.10534" lon="-1.72243">
        <ele>10.06</ele>
        <time>2020-05-11T15:54:20Z</time>
      </trkpt>
      <trkpt lat="47.10526" lon="-1.72257">
        <ele>8.94</ele>
        <time>2020-05-11T15:54:22Z</time>
      </trkpt>
      <trkpt lat="47.10516" lon="-1.72271">
        <ele>7.59</ele>
        <time>2020-05-11T15:54:24Z</time>
      </trkpt>
      <trkpt lat="47.10504" lon="-1.72284">
        <ele>6.99</ele>
        <time>2020-05-11T15:54:26Z</time>
      </trkpt>
      <trkpt lat="47.10493" lon="-1.72294">
        <ele>7.14</ele>
        <time>2020-05-11T15:54:28Z</time>
      </trkpt>
      <trkpt lat="47.10481" lon="-1.72301">
        <ele>6.87</ele>
        <time>2020-05-11T15:54:30Z</time>
      </trkpt>
      <trkpt lat="47.10469" lon="-1.72308">
        <ele>6.44</ele>
        <time>2020-05-11T15:54:32Z</time>
      </trkpt>
      <trkpt lat="47.10457" lon="-1.72314">
        <ele>5.71</ele>
        <time>2020-05-11T15:54:34Z</time>
      </trkpt>
      <trkpt lat="47.10443" lon="-1.7232">
        <ele>5.2</ele>
        <time>2020-05-11T15:54:36Z</time>
      </trkpt>
      <trkpt lat="47.10429" lon="-1.72326">
        <ele>5.19</ele>
        <time>2020-05-11T15:54:38Z</time>
      </trkpt>
      <trkpt lat="47.10417" lon="-1.72332">
        <ele>6.3</ele>
        <time>2020-05-11T15:54:40Z</time>
      </trkpt>
      <trkpt lat="47.10404" lon="-1.72338">
        <ele>7.72</ele>
        <time>2020-05-11T15:54:42Z</time>
      </trkpt>
      <trkpt lat="47.10391" lon="-1.72344">
        <ele>9.37</ele>
        <time>2020-05-11T15:54:44Z</time>
      </trkpt>
      <trkpt lat="47.1038" lon="-1.7235">
        <ele>10.13</ele>
        <time>2020-05-11T15:54:46Z</time>
      </trkpt>
      <trkpt lat="47.10368" lon="-1.72356">
        <ele>10.31</ele>
        <time>2020-05-11T15:54:48Z</time>
      </trkpt>
      <trkpt lat="47.10356" lon="-1.72362">
        <ele>9.71</ele>
        <time>2020-05-11T15:54:50Z</time>
      </trkpt>
      <trkpt lat="47.10344" lon="-1.72369">
        <ele>9.54</ele>
        <time>2020-05-11T15:54:52Z</time>
      </trkpt>
      <trkpt lat="47.10332" lon="-1.72375">
        <ele>10.68</ele>
        <time>2020-05-11T15:54:54Z</time>
      </trkpt>
      <trkpt lat="47.10321" lon="-1.7238">
        <ele>11.9</ele>
        <time>2020-05-11T15:54:56Z</time>
      </trkpt>
      <trkpt lat="47.10307" lon="-1.72385">
        <ele>12.14</ele>
        <time>2020-05-11T15:54:58Z</time>
      </trkpt>
      <trkpt lat="47.10295" lon="-1.72391">
        <ele>11.04</ele>
        <time>2020-05-11T15:55:00Z</time>
      </trkpt>
      <trkpt lat="47.10283" lon="-1.72399">
        <ele>10.79</ele>
        <time>2020-05-11T15:55:02Z</time>
      </trkpt>
      <trkpt lat="47.10272" lon="-1.72407">
        <ele>10.76</ele>
        <time>2020-05-11T15:55:04Z</time>
      </trkpt>
      <trkpt lat="47.1026" lon="-1.72416">
        <ele>10.36</ele>
        <time>2020-05-11T15:55:06Z</time>
      </trkpt>
      <trkpt lat="47.10248" lon="-1.72427">
        <ele>10.23</ele>
        <time>2020-05-11T15:55:08Z</time>
      </trkpt>
      <trkpt lat="47.10239" lon="-1.72438">
        <ele>10.06</ele>
        <time>2020-05-11T15:55:10Z</time>
      </trkpt>
      <trkpt lat="47.10231" lon="-1.72453">
        <ele>10.68</ele>
        <time>2020-05-11T15:55:12Z</time>
      </trkpt>
      <trkpt lat="47.10222" lon="-1.72468">
        <ele>11.28</ele>
        <time>2020-05-11T15:55:14Z</time>
      </trkpt>
      <trkpt lat="47.10215" lon="-1.72481">
        <ele>11.22</ele>
        <time>2020-05-11T15:55:16Z</time>
      </trkpt>
      <trkpt lat="47.10208" lon="-1.72498">
        <ele>10.11</ele>
        <time>2020-05-11T15:55:18Z</time>
      </trkpt>
      <trkpt lat="47.102" lon="-1.72515">
        <ele>9.67</ele>
        <time>2020-05-11T15:55:20Z</time>
      </trkpt>
      <trkpt lat="47.10192" lon="-1.7253">
        <ele>9.15</ele>
        <time>2020-05-11T15:55:22Z</time>
      </trkpt>
      <trkpt lat="47.10183" lon="-1.72544">
        <ele>7.78</ele>
        <time>2020-05-11T15:55:24Z</time>
      </trkpt>
      <trkpt lat="47.10175" lon="-1.72558">
        <ele>7.85</ele>
        <time>2020-05-11T15:55:26Z</time>
      </trkpt>
      <trkpt lat="47.10166" lon="-1.72568">
        <ele>9.07</ele>
        <time>2020-05-11T15:55:28Z</time>
      </trkpt>
      <trkpt lat="47.10156" lon="-1.72581">
        <ele>10.24</ele>
        <time>2020-05-11T15:55:30Z</time>
      </trkpt>
      <trkpt lat="47.10145" lon="-1.72594">
        <ele>10.86</ele>
        <time>2020-05-11T15:55:32Z</time>
      </trkpt>
      <trkpt lat="47.10135" lon="-1.72605">
        <ele>11.1</ele>
        <time>2020-05-11T15:55:34Z</time>
      </trkpt>
      <trkpt lat="47.10124" lon="-1.72616">
        <ele>11.47</ele>
        <time>2020-05-11T15:55:36Z</time>
      </trkpt>
      <trkpt lat="47.10114" lon="-1.72627">
        <ele>10.07</ele>
        <time>2020-05-11T15:55:38Z</time>
      </trkpt>
      <trkpt lat="47.10103" lon="-1.72637">
        <ele>10.25</ele>
        <time>2020-05-11T15:55:40Z</time>
      </trkpt>
      <trkpt lat="47.10091" lon="-1.72649">
        <ele>11.27</ele>
        <time>2020-05-11T15:55:42Z</time>
      </trkpt>
      <trkpt lat="47.10078" lon="-1.72661">
        <ele>12.39</ele>
        <time>2020-05-11T15:55:44Z</time>
      </trkpt>
      <trkpt lat="47.10064" lon="-1.72673">
        <ele>12.19</ele>
        <time>2020-05-11T15:55:46Z</time>
      </trkpt>
      <trkpt lat="47.10052" lon="-1.72685">
        <ele>11.59</ele>
        <time>2020-05-11T15:55:48Z</time>
      </trkpt>
      <trkpt lat="47.10041" lon="-1.72697">
        <ele>10.29</ele>
        <time>2020-05-11T15:55:50Z</time>
      </trkpt>
      <trkpt lat="47.10029" lon="-1.72708">
        <ele>8.5</ele>
        <time>2020-05-11T15:55:52Z</time>
      </trkpt>
      <trkpt lat="47.10016" lon="-1.72721">
        <ele>7.81</ele>
        <time>2020-05-11T15:55:54Z</time>
      </trkpt>
      <trkpt lat="47.10004" lon="-1.72731">
        <ele>6.75</ele>
        <time>2020-05-11T15:55:56Z</time>
      </trkpt>
      <trkpt lat="47.09992" lon="-1.7274">
        <ele>5.8</ele>
        <time>2020-05-11T15:55:58Z</time>
      </trkpt>
      <trkpt lat="47.09978" lon="-1.7275">
        <ele>5.91</ele>
        <time>2020-05-11T15:56:00Z</time>
      </trkpt>
      <trkpt lat="47.09969" lon="-1.72755">
        <ele>6.05</ele>
        <time>2020-05-11T15:56:01Z</time>
      </trkpt>
      <trkpt lat="47.09957" lon="-1.72762">
        <ele>6.55</ele>
        <time>2020-05-11T15:56:03Z</time>
      </trkpt>
      <trkpt lat="47.09944" lon="-1.72769">
        <ele>6.79</ele>
        <time>2020-05-11T15:56:05Z</time>
      </trkpt>
      <trkpt lat="47.0993" lon="-1.72775">
        <ele>7.03</ele>
        <time>2020-05-11T15:56:07Z</time>
      </trkpt>
      <trkpt lat="47.09917" lon="-1.72782">
        <ele>7.57</ele>
        <time>2020-05-11T15:56:09Z</time>
      </trkpt>
      <trkpt lat="47.09904" lon="-1.72788">
        <ele>7.8</ele>
        <time>2020-05-11T15:56:11Z</time>
      </trkpt>
      <trkpt lat="47.0989" lon="-1.72795">
        <ele>7.17</ele>
        <time>2020-05-11T15:56:13Z</time>
      </trkpt>
      <trkpt lat="47.09876" lon="-1.72803">
        <ele>7.07</ele>
        <time>2020-05-11T15:56:15Z</time>
      </trkpt>
      <trkpt lat="47.09861" lon="-1.7281">
        <ele>6.68</ele>
        <time>2020-05-11T15:56:17Z</time>
      </trkpt>
      <trkpt lat="47.09848" lon="-1.72817">
        <ele>7.55</ele>
        <time>2020-05-11T15:56:19Z</time>
      </trkpt>
      <trkpt lat="47.09833" lon="-1.72825">
        <ele>7.35</ele>
        <time>2020-05-11T15:56:21Z</time>
      </trkpt>
      <trkpt lat="47.09817" lon="-1.72833">
        <ele>6.71</ele>
        <time>2020-05-11T15:56:23Z</time>
      </trkpt>
      <trkpt lat="47.09803" lon="-1.72841">
        <ele>5.8</ele>
        <time>2020-05-11T15:56:25Z</time>
      </trkpt>
      <trkpt lat="47.0979" lon="-1.72853">
        <ele>5.23</ele>
        <time>2020-05-11T15:56:27Z</time>
      </trkpt>
      <trkpt lat="47.09778" lon="-1.72867">
        <ele>5.21</ele>
        <time>2020-05-11T15:56:29Z</time>
      </trkpt>
      <trkpt lat="47.09764" lon="-1.72872">
        <ele>6.27</ele>
        <time>2020-05-11T15:56:31Z</time>
      </trkpt>
      <trkpt lat="47.09756" lon="-1.72852">
        <ele>6.68</ele>
        <time>2020-05-11T15:56:34Z</time>
      </trkpt>
      <trkpt lat="47.09747" lon="-1.7283">
        <ele>6.52</ele>
        <time>2020-05-11T15:56:36Z</time>
      </trkpt>
      <trkpt lat="47.09738" lon="-1.72811">
        <ele>6.65</ele>
        <time>2020-05-11T15:56:38Z</time>
      </trkpt>
      <trkpt lat="47.09729" lon="-1.72792">
        <ele>6.35</ele>
        <time>2020-05-11T15:56:40Z</time>
      </trkpt>
      <trkpt lat="47.09721" lon="-1.72773">
        <ele>5.87</ele>
        <time>2020-05-11T15:56:42Z</time>
      </trkpt>
      <trkpt lat="47.09712" lon="-1.72756">
        <ele>5.83</ele>
        <time>2020-05-11T15:56:44Z</time>
      </trkpt>
      <trkpt lat="47.097" lon="-1.72742">
        <ele>6.18</ele>
        <time>2020-05-11T15:56:46Z</time>
      </trkpt>
      <trkpt lat="47.09687" lon="-1.72731">
        <ele>6.46</ele>
        <time>2020-05-11T15:56:48Z</time>
      </trkpt>
      <trkpt lat="47.09678" lon="-1.72729">
        <ele>6.59</ele>
        <time>2020-05-11T15:56:49Z</time>
      </trkpt>
      <trkpt lat="47.09669" lon="-1.72727">
        <ele>6.52</ele>
        <time>2020-05-11T15:56:50Z</time>
      </trkpt>
      <trkpt lat="47.0966" lon="-1.72725">
        <ele>6.5</ele>
        <time>2020-05-11T15:56:51Z</time>
      </trkpt>
      <trkpt lat="47.09644" lon="-1.72721">
        <ele>6.75</ele>
        <time>2020-05-11T15:56:53Z</time>
      </trkpt>
      <trkpt lat="47.09629" lon="-1.72718">
        <ele>6.8</ele>
        <time>2020-05-11T15:56:55Z</time>
      </trkpt>
      <trkpt lat="47.09615" lon="-1.72712">
        <ele>6.48</ele>
        <time>2020-05-11T15:56:57Z</time>
      </trkpt>
      <trkpt lat="47.09601" lon="-1.72706">
        <ele>5.48</ele>
        <time>2020-05-11T15:56:59Z</time>
      </trkpt>
      <trkpt lat="47.09587" lon="-1.72699">
        <ele>4.11</ele>
        <time>2020-05-11T15:57:01Z</time>
      </trkpt>
      <trkpt lat="47.09578" lon="-1.72694">
        <ele>3.45</ele>
        <time>2020-05-11T15:57:02Z</time>
      </trkpt>
      <trkpt lat="47.09562" lon="-1.72687">
        <ele>3.25</ele>
        <time>2020-05-11T15:57:04Z</time>
      </trkpt>
      <trkpt lat="47.09546" lon="-1.72683">
        <ele>3.32</ele>
        <time>2020-05-11T15:57:06Z</time>
      </trkpt>
      <trkpt lat="47.09528" lon="-1.72688">
        <ele>2.97</ele>
        <time>2020-05-11T15:57:08Z</time>
      </trkpt>
      <trkpt lat="47.09516" lon="-1.72705">
        <ele>3.04</ele>
        <time>2020-05-11T15:57:10Z</time>
      </trkpt>
      <trkpt lat="47.09507" lon="-1.72723">
        <ele>3.65</ele>
        <time>2020-05-11T15:57:12Z</time>
      </trkpt>
      <trkpt lat="47.09498" lon="-1.72742">
        <ele>5.24</ele>
        <time>2020-05-11T15:57:14Z</time>
      </trkpt>
      <trkpt lat="47.09488" lon="-1.7276">
        <ele>6.34</ele>
        <time>2020-05-11T15:57:16Z</time>
      </trkpt>
      <trkpt lat="47.09479" lon="-1.72779">
        <ele>6.8</ele>
        <time>2020-05-11T15:57:18Z</time>
      </trkpt>
      <trkpt lat="47.0947" lon="-1.72797">
        <ele>7.96</ele>
        <time>2020-05-11T15:57:20Z</time>
      </trkpt>
      <trkpt lat="47.09461" lon="-1.72816">
        <ele>8.75</ele>
        <time>2020-05-11T15:57:22Z</time>
      </trkpt>
      <trkpt lat="47.09453" lon="-1.72835">
        <ele>8.41</ele>
        <time>2020-05-11T15:57:24Z</time>
      </trkpt>
      <trkpt lat="47.09445" lon="-1.72853">
        <ele>7.19</ele>
        <time>2020-05-11T15:57:26Z</time>
      </trkpt>
      <trkpt lat="47.09437" lon="-1.7287">
        <ele>6.23</ele>
        <time>2020-05-11T15:57:28Z</time>
      </trkpt>
      <trkpt lat="47.09429" lon="-1.72889">
        <ele>6.51</ele>
        <time>2020-05-11T15:57:30Z</time>
      </trkpt>
      <trkpt lat="47.09421" lon="-1.72906">
        <ele>7.92</ele>
        <time>2020-05-11T15:57:32Z</time>
      </trkpt>
      <trkpt lat="47.09412" lon="-1.72921">
        <ele>7.96</ele>
        <time>2020-05-11T15:57:34Z</time>
      </trkpt>
      <trkpt lat="47.09403" lon="-1.72939">
        <ele>8.45</ele>
        <time>2020-05-11T15:57:36Z</time>
      </trkpt>
      <trkpt lat="47.09395" lon="-1.72956">
        <ele>8.06</ele>
        <time>2020-05-11T15:57:38Z</time>
      </trkpt>
      <trkpt lat="47.09389" lon="-1.72976">
        <ele>6.05</ele>
        <time>2020-05-11T15:57:40Z</time>
      </trkpt>
      <trkpt lat="47.09385" lon="-1.72997">
        <ele>4.13</ele>
        <time>2020-05-11T15:57:42Z</time>
      </trkpt>
      <trkpt lat="47.09384" lon="-1.73018">
        <ele>4.24</ele>
        <time>2020-05-11T15:57:44Z</time>
      </trkpt>
      <trkpt lat="47.09383" lon="-1.73042">
        <ele>4.06</ele>
        <time>2020-05-11T15:57:46Z</time>
      </trkpt>
      <trkpt lat="47.09382" lon="-1.73061">
        <ele>2.59</ele>
        <time>2020-05-11T15:57:48Z</time>
      </trkpt>
      <trkpt lat="47.09379" lon="-1.73079">
        <ele>1.32</ele>
        <time>2020-05-11T15:57:50Z</time>
      </trkpt>
      <trkpt lat="47.09371" lon="-1.73097">
        <ele>0.04</ele>
        <time>2020-05-11T15:57:52Z</time>
      </trkpt>
      <trkpt lat="47.09358" lon="-1.73112">
        <ele>-0.04</ele>
        <time>2020-05-11T15:57:54Z</time>
      </trkpt>
      <trkpt lat="47.09344" lon="-1.73124">
        <ele>1.16</ele>
        <time>2020-05-11T15:57:56Z</time>
      </trkpt>
      <trkpt lat="47.0933" lon="-1.73135">
        <ele>1.91</ele>
        <time>2020-05-11T15:57:58Z</time>
      </trkpt>
      <trkpt lat="47.09317" lon="-1.73145">
        <ele>1.73</ele>
        <time>2020-05-11T15:58:00Z</time>
      </trkpt>
      <trkpt lat="47.09305" lon="-1.73153">
        <ele>0.89</ele>
        <time>2020-05-11T15:58:02Z</time>
      </trkpt>
      <trkpt lat="47.09293" lon="-1.73163">
        <ele>-0.33</ele>
        <time>2020-05-11T15:58:04Z</time>
      </trkpt>
      <trkpt lat="47.09281" lon="-1.73172">
        <ele>-0.47</ele>
        <time>2020-05-11T15:58:06Z</time>
      </trkpt>
      <trkpt lat="47.09271" lon="-1.73178">
        <ele>-1.8</ele>
        <time>2020-05-11T15:58:08Z</time>
      </trkpt>
      <trkpt lat="47.09259" lon="-1.73187">
        <ele>-1.72</ele>
        <time>2020-05-11T15:58:10Z</time>
      </trkpt>
      <trkpt lat="47.09245" lon="-1.73198">
        <ele>-1</ele>
        <time>2020-05-11T15:58:12Z</time>
      </trkpt>
      <trkpt lat="47.09232" lon="-1.73208">
        <ele>-0.68</ele>
        <time>2020-05-11T15:58:14Z</time>
      </trkpt>
      <trkpt lat="47.0922" lon="-1.73219">
        <ele>-0.4</ele>
        <time>2020-05-11T15:58:16Z</time>
      </trkpt>
      <trkpt lat="47.09205" lon="-1.7323">
        <ele>-0.23</ele>
        <time>2020-05-11T15:58:18Z</time>
      </trkpt>
      <trkpt lat="47.09192" lon="-1.73239">
        <ele>-0.97</ele>
        <time>2020-05-11T15:58:20Z</time>
      </trkpt>
      <trkpt lat="47.09179" lon="-1.73249">
        <ele>-1.4</ele>
        <time>2020-05-11T15:58:22Z</time>
      </trkpt>
      <trkpt lat="47.09167" lon="-1.73259">
        <ele>-0.97</ele>
        <time>2020-05-11T15:58:24Z</time>
      </trkpt>
      <trkpt lat="47.09154" lon="-1.73269">
        <ele>0.08</ele>
        <time>2020-05-11T15:58:26Z</time>
      </trkpt>
      <trkpt lat="47.09142" lon="-1.73279">
        <ele>1.17</ele>
        <time>2020-05-11T15:58:28Z</time>
      </trkpt>
      <trkpt lat="47.09131" lon="-1.73288">
        <ele>0.38</ele>
        <time>2020-05-11T15:58:30Z</time>
      </trkpt>
      <trkpt lat="47.0912" lon="-1.73297">
        <ele>-0.38</ele>
        <time>2020-05-11T15:58:32Z</time>
      </trkpt>
      <trkpt lat="47.09108" lon="-1.73307">
        <ele>-0.14</ele>
        <time>2020-05-11T15:58:34Z</time>
      </trkpt>
      <trkpt lat="47.09096" lon="-1.73316">
        <ele>1.29</ele>
        <time>2020-05-11T15:58:36Z</time>
      </trkpt>
      <trkpt lat="47.09084" lon="-1.73326">
        <ele>2.94</ele>
        <time>2020-05-11T15:58:38Z</time>
      </trkpt>
      <trkpt lat="47.09076" lon="-1.73335">
        <ele>2.83</ele>
        <time>2020-05-11T15:58:40Z</time>
      </trkpt>
      <trkpt lat="47.09065" lon="-1.73346">
        <ele>3.21</ele>
        <time>2020-05-11T15:58:42Z</time>
      </trkpt>
      <trkpt lat="47.09053" lon="-1.73355">
        <ele>3.07</ele>
        <time>2020-05-11T15:58:44Z</time>
      </trkpt>
      <trkpt lat="47.09042" lon="-1.73365">
        <ele>2.99</ele>
        <time>2020-05-11T15:58:46Z</time>
      </trkpt>
      <trkpt lat="47.09031" lon="-1.73375">
        <ele>2.84</ele>
        <time>2020-05-11T15:58:48Z</time>
      </trkpt>
      <trkpt lat="47.0902" lon="-1.73386">
        <ele>2.43</ele>
        <time>2020-05-11T15:58:50Z</time>
      </trkpt>
      <trkpt lat="47.09008" lon="-1.73398">
        <ele>1.72</ele>
        <time>2020-05-11T15:58:52Z</time>
      </trkpt>
      <trkpt lat="47.08999" lon="-1.73408">
        <ele>1.27</ele>
        <time>2020-05-11T15:58:54Z</time>
      </trkpt>
      <trkpt lat="47.08988" lon="-1.7342">
        <ele>-0.39</ele>
        <time>2020-05-11T15:58:56Z</time>
      </trkpt>
      <trkpt lat="47.08976" lon="-1.73432">
        <ele>0.03</ele>
        <time>2020-05-11T15:58:58Z</time>
      </trkpt>
      <trkpt lat="47.08966" lon="-1.73446">
        <ele>1.76</ele>
        <time>2020-05-11T15:59:00Z</time>
      </trkpt>
      <trkpt lat="47.08955" lon="-1.73462">
        <ele>2.41</ele>
        <time>2020-05-11T15:59:02Z</time>
      </trkpt>
      <trkpt lat="47.08949" lon="-1.73482">
        <ele>2.91</ele>
        <time>2020-05-11T15:59:04Z</time>
      </trkpt>
      <trkpt lat="47.08944" lon="-1.73503">
        <ele>2.51</ele>
        <time>2020-05-11T15:59:06Z</time>
      </trkpt>
      <trkpt lat="47.08941" lon="-1.73521">
        <ele>2.35</ele>
        <time>2020-05-11T15:59:08Z</time>
      </trkpt>
      <trkpt lat="47.08937" lon="-1.7354">
        <ele>1.95</ele>
        <time>2020-05-11T15:59:10Z</time>
      </trkpt>
      <trkpt lat="47.08933" lon="-1.7356">
        <ele>1.95</ele>
        <time>2020-05-11T15:59:12Z</time>
      </trkpt>
      <trkpt lat="47.08928" lon="-1.7358">
        <ele>2.86</ele>
        <time>2020-05-11T15:59:14Z</time>
      </trkpt>
      <trkpt lat="47.08925" lon="-1.73599">
        <ele>3.16</ele>
        <time>2020-05-11T15:59:16Z</time>
      </trkpt>
      <trkpt lat="47.08921" lon="-1.73619">
        <ele>2.94</ele>
        <time>2020-05-11T15:59:18Z</time>
      </trkpt>
      <trkpt lat="47.08917" lon="-1.73639">
        <ele>2.57</ele>
        <time>2020-05-11T15:59:20Z</time>
      </trkpt>
      <trkpt lat="47.08914" lon="-1.73658">
        <ele>1.58</ele>
        <time>2020-05-11T15:59:22Z</time>
      </trkpt>
      <trkpt lat="47.08906" lon="-1.73673">
        <ele>1.24</ele>
        <time>2020-05-11T15:59:24Z</time>
      </trkpt>
      <trkpt lat="47.08898" lon="-1.73689">
        <ele>1.48</ele>
        <time>2020-05-11T15:59:26Z</time>
      </trkpt>
      <trkpt lat="47.0889" lon="-1.73707">
        <ele>1.84</ele>
        <time>2020-05-11T15:59:28Z</time>
      </trkpt>
      <trkpt lat="47.0888" lon="-1.73724">
        <ele>1.27</ele>
        <time>2020-05-11T15:59:30Z</time>
      </trkpt>
      <trkpt lat="47.08872" lon="-1.73741">
        <ele>0.64</ele>
        <time>2020-05-11T15:59:32Z</time>
      </trkpt>
      <trkpt lat="47.08862" lon="-1.73761">
        <ele>0.15</ele>
        <time>2020-05-11T15:59:34Z</time>
      </trkpt>
      <trkpt lat="47.08857" lon="-1.73772">
        <ele>-0.13</ele>
        <time>2020-05-11T15:59:35Z</time>
      </trkpt>
      <trkpt lat="47.08846" lon="-1.7379">
        <ele>1.31</ele>
        <time>2020-05-11T15:59:37Z</time>
      </trkpt>
      <trkpt lat="47.08839" lon="-1.73799">
        <ele>1.75</ele>
        <time>2020-05-11T15:59:38Z</time>
      </trkpt>
      <trkpt lat="47.08829" lon="-1.73814">
        <ele>1.37</ele>
        <time>2020-05-11T15:59:40Z</time>
      </trkpt>
      <trkpt lat="47.08818" lon="-1.73826">
        <ele>-0.08</ele>
        <time>2020-05-11T15:59:42Z</time>
      </trkpt>
      <trkpt lat="47.08806" lon="-1.7384">
        <ele>-0.52</ele>
        <time>2020-05-11T15:59:44Z</time>
      </trkpt>
      <trkpt lat="47.08795" lon="-1.73854">
        <ele>-0.19</ele>
        <time>2020-05-11T15:59:46Z</time>
      </trkpt>
      <trkpt lat="47.08784" lon="-1.73869">
        <ele>0.78</ele>
        <time>2020-05-11T15:59:48Z</time>
      </trkpt>
      <trkpt lat="47.08774" lon="-1.73887">
        <ele>2.43</ele>
        <time>2020-05-11T15:59:50Z</time>
      </trkpt>
      <trkpt lat="47.08764" lon="-1.73907">
        <ele>3.13</ele>
        <time>2020-05-11T15:59:52Z</time>
      </trkpt>
      <trkpt lat="47.08756" lon="-1.73924">
        <ele>3.24</ele>
        <time>2020-05-11T15:59:54Z</time>
      </trkpt>
      <trkpt lat="47.08748" lon="-1.73941">
        <ele>2.95</ele>
        <time>2020-05-11T15:59:56Z</time>
      </trkpt>
      <trkpt lat="47.08739" lon="-1.73958">
        <ele>2.49</ele>
        <time>2020-05-11T15:59:58Z</time>
      </trkpt>
      <trkpt lat="47.08731" lon="-1.73973">
        <ele>1.23</ele>
        <time>2020-05-11T16:00:00Z</time>
      </trkpt>
      <trkpt lat="47.08724" lon="-1.7399">
        <ele>0.57</ele>
        <time>2020-05-11T16:00:01Z</time>
      </trkpt>
      <trkpt lat="47.08716" lon="-1.74011">
        <ele>-0.75</ele>
        <time>2020-05-11T16:00:03Z</time>
      </trkpt>
      <trkpt lat="47.08706" lon="-1.74032">
        <ele>0.3</ele>
        <time>2020-05-11T16:00:05Z</time>
      </trkpt>
      <trkpt lat="47.08698" lon="-1.74052">
        <ele>1.25</ele>
        <time>2020-05-11T16:00:07Z</time>
      </trkpt>
      <trkpt lat="47.08689" lon="-1.74073">
        <ele>0.79</ele>
        <time>2020-05-11T16:00:09Z</time>
      </trkpt>
      <trkpt lat="47.08681" lon="-1.74091">
        <ele>0.65</ele>
        <time>2020-05-11T16:00:11Z</time>
      </trkpt>
      <trkpt lat="47.08674" lon="-1.74109">
        <ele>1.43</ele>
        <time>2020-05-11T16:00:13Z</time>
      </trkpt>
      <trkpt lat="47.08666" lon="-1.74126">
        <ele>2.38</ele>
        <time>2020-05-11T16:00:15Z</time>
      </trkpt>
      <trkpt lat="47.08657" lon="-1.74143">
        <ele>3.27</ele>
        <time>2020-05-11T16:00:17Z</time>
      </trkpt>
      <trkpt lat="47.08646" lon="-1.7416">
        <ele>4.19</ele>
        <time>2020-05-11T16:00:19Z</time>
      </trkpt>
      <trkpt lat="47.08635" lon="-1.74176">
        <ele>3.34</ele>
        <time>2020-05-11T16:00:21Z</time>
      </trkpt>
      <trkpt lat="47.08624" lon="-1.7419">
        <ele>2.09</ele>
        <time>2020-05-11T16:00:23Z</time>
      </trkpt>
      <trkpt lat="47.08612" lon="-1.74204">
        <ele>0.7</ele>
        <time>2020-05-11T16:00:25Z</time>
      </trkpt>
      <trkpt lat="47.08601" lon="-1.74218">
        <ele>-0.15</ele>
        <time>2020-05-11T16:00:27Z</time>
      </trkpt>
      <trkpt lat="47.08589" lon="-1.74231">
        <ele>0.08</ele>
        <time>2020-05-11T16:00:29Z</time>
      </trkpt>
      <trkpt lat="47.08579" lon="-1.74242">
        <ele>-0.27</ele>
        <time>2020-05-11T16:00:31Z</time>
      </trkpt>
      <trkpt lat="47.08569" lon="-1.74255">
        <ele>0.47</ele>
        <time>2020-05-11T16:00:33Z</time>
      </trkpt>
      <trkpt lat="47.08558" lon="-1.74269">
        <ele>1.76</ele>
        <time>2020-05-11T16:00:35Z</time>
      </trkpt>
      <trkpt lat="47.08551" lon="-1.74281">
        <ele>2.24</ele>
        <time>2020-05-11T16:00:37Z</time>
      </trkpt>
      <trkpt lat="47.08543" lon="-1.74302">
        <ele>2.17</ele>
        <time>2020-05-11T16:00:39Z</time>
      </trkpt>
      <trkpt lat="47.08537" lon="-1.74321">
        <ele>1.41</ele>
        <time>2020-05-11T16:00:41Z</time>
      </trkpt>
      <trkpt lat="47.08535" lon="-1.74338">
        <ele>1.06</ele>
        <time>2020-05-11T16:00:43Z</time>
      </trkpt>
      <trkpt lat="47.08532" lon="-1.74356">
        <ele>2.97</ele>
        <time>2020-05-11T16:00:45Z</time>
      </trkpt>
      <trkpt lat="47.08524" lon="-1.74377">
        <ele>3.64</ele>
        <time>2020-05-11T16:00:47Z</time>
      </trkpt>
      <trkpt lat="47.08519" lon="-1.74388">
        <ele>3.08</ele>
        <time>2020-05-11T16:00:48Z</time>
      </trkpt>
      <trkpt lat="47.08506" lon="-1.74403">
        <ele>2.84</ele>
        <time>2020-05-11T16:00:50Z</time>
      </trkpt>
      <trkpt lat="47.08495" lon="-1.74413">
        <ele>2.16</ele>
        <time>2020-05-11T16:00:52Z</time>
      </trkpt>
      <trkpt lat="47.08484" lon="-1.74424">
        <ele>1.28</ele>
        <time>2020-05-11T16:00:54Z</time>
      </trkpt>
      <trkpt lat="47.08473" lon="-1.74437">
        <ele>0.41</ele>
        <time>2020-05-11T16:00:56Z</time>
      </trkpt>
      <trkpt lat="47.0846" lon="-1.74453">
        <ele>-1.15</ele>
        <time>2020-05-11T16:00:58Z</time>
      </trkpt>
      <trkpt lat="47.08447" lon="-1.74468">
        <ele>-0.73</ele>
        <time>2020-05-11T16:01:00Z</time>
      </trkpt>
      <trkpt lat="47.08435" lon="-1.74481">
        <ele>-0.8</ele>
        <time>2020-05-11T16:01:02Z</time>
      </trkpt>
      <trkpt lat="47.08423" lon="-1.74494">
        <ele>0.76</ele>
        <time>2020-05-11T16:01:04Z</time>
      </trkpt>
      <trkpt lat="47.08412" lon="-1.74505">
        <ele>2.38</ele>
        <time>2020-05-11T16:01:06Z</time>
      </trkpt>
      <trkpt lat="47.08402" lon="-1.74517">
        <ele>2.93</ele>
        <time>2020-05-11T16:01:08Z</time>
      </trkpt>
      <trkpt lat="47.08391" lon="-1.74529">
        <ele>2.3</ele>
        <time>2020-05-11T16:01:10Z</time>
      </trkpt>
      <trkpt lat="47.08383" lon="-1.7454">
        <ele>0.77</ele>
        <time>2020-05-11T16:01:12Z</time>
      </trkpt>
      <trkpt lat="47.08371" lon="-1.74555">
        <ele>-0.14</ele>
        <time>2020-05-11T16:01:14Z</time>
      </trkpt>
      <trkpt lat="47.08358" lon="-1.74565">
        <ele>-1.26</ele>
        <time>2020-05-11T16:01:16Z</time>
      </trkpt>
      <trkpt lat="47.08347" lon="-1.7457">
        <ele>-2.35</ele>
        <time>2020-05-11T16:01:18Z</time>
      </trkpt>
      <trkpt lat="47.08335" lon="-1.74574">
        <ele>-2.11</ele>
        <time>2020-05-11T16:01:20Z</time>
      </trkpt>
      <trkpt lat="47.08319" lon="-1.74581">
        <ele>-1.09</ele>
        <time>2020-05-11T16:01:22Z</time>
      </trkpt>
      <trkpt lat="47.08308" lon="-1.74588">
        <ele>-0.4</ele>
        <time>2020-05-11T16:01:24Z</time>
      </trkpt>
      <trkpt lat="47.08297" lon="-1.74598">
        <ele>0.41</ele>
        <time>2020-05-11T16:01:26Z</time>
      </trkpt>
      <trkpt lat="47.08286" lon="-1.74615">
        <ele>-2.17</ele>
        <time>2020-05-11T16:01:28Z</time>
      </trkpt>
      <trkpt lat="47.08278" lon="-1.74627">
        <ele>-3.29</ele>
        <time>2020-05-11T16:01:30Z</time>
      </trkpt>
      <trkpt lat="47.08268" lon="-1.74642">
        <ele>-4.23</ele>
        <time>2020-05-11T16:01:32Z</time>
      </trkpt>
      <trkpt lat="47.08257" lon="-1.74658">
        <ele>-4.96</ele>
        <time>2020-05-11T16:01:34Z</time>
      </trkpt>
      <trkpt lat="47.08251" lon="-1.74667">
        <ele>-5</ele>
        <time>2020-05-11T16:01:35Z</time>
      </trkpt>
      <trkpt lat="47.0824" lon="-1.74683">
        <ele>-4.48</ele>
        <time>2020-05-11T16:01:37Z</time>
      </trkpt>
      <trkpt lat="47.08232" lon="-1.74698">
        <ele>-2.59</ele>
        <time>2020-05-11T16:01:39Z</time>
      </trkpt>
      <trkpt lat="47.08223" lon="-1.74714">
        <ele>-1.54</ele>
        <time>2020-05-11T16:01:41Z</time>
      </trkpt>
      <trkpt lat="47.08215" lon="-1.74731">
        <ele>-0.75</ele>
        <time>2020-05-11T16:01:43Z</time>
      </trkpt>
      <trkpt lat="47.08208" lon="-1.74748">
        <ele>-0.09</ele>
        <time>2020-05-11T16:01:45Z</time>
      </trkpt>
      <trkpt lat="47.08203" lon="-1.74764">
        <ele>-0.04</ele>
        <time>2020-05-11T16:01:47Z</time>
      </trkpt>
      <trkpt lat="47.08199" lon="-1.74783">
        <ele>-0.68</ele>
        <time>2020-05-11T16:01:49Z</time>
      </trkpt>
      <trkpt lat="47.08194" lon="-1.74805">
        <ele>-0.81</ele>
        <time>2020-05-11T16:01:51Z</time>
      </trkpt>
      <trkpt lat="47.08189" lon="-1.74826">
        <ele>0.81</ele>
        <time>2020-05-11T16:01:53Z</time>
      </trkpt>
      <trkpt lat="47.08178" lon="-1.74841">
        <ele>2.47</ele>
        <time>2020-05-11T16:01:55Z</time>
      </trkpt>
      <trkpt lat="47.08166" lon="-1.74855">
        <ele>4.37</ele>
        <time>2020-05-11T16:01:57Z</time>
      </trkpt>
      <trkpt lat="47.08154" lon="-1.74865">
        <ele>5.13</ele>
        <time>2020-05-11T16:01:59Z</time>
      </trkpt>
      <trkpt lat="47.08143" lon="-1.74872">
        <ele>4.17</ele>
        <time>2020-05-11T16:02:01Z</time>
      </trkpt>
      <trkpt lat="47.08132" lon="-1.74876">
        <ele>3.4</ele>
        <time>2020-05-11T16:02:03Z</time>
      </trkpt>
      <trkpt lat="47.08121" lon="-1.74881">
        <ele>1.64</ele>
        <time>2020-05-11T16:02:05Z</time>
      </trkpt>
      <trkpt lat="47.08106" lon="-1.74885">
        <ele>1.36</ele>
        <time>2020-05-11T16:02:07Z</time>
      </trkpt>
      <trkpt lat="47.08089" lon="-1.74888">
        <ele>1.15</ele>
        <time>2020-05-11T16:02:09Z</time>
      </trkpt>
      <trkpt lat="47.08074" lon="-1.74896">
        <ele>2.05</ele>
        <time>2020-05-11T16:02:11Z</time>
      </trkpt>
      <trkpt lat="47.08062" lon="-1.74906">
        <ele>2.07</ele>
        <time>2020-05-11T16:02:13Z</time>
      </trkpt>
      <trkpt lat="47.08051" lon="-1.74918">
        <ele>2.6</ele>
        <time>2020-05-11T16:02:15Z</time>
      </trkpt>
      <trkpt lat="47.0804" lon="-1.74929">
        <ele>3.5</ele>
        <time>2020-05-11T16:02:17Z</time>
      </trkpt>
      <trkpt lat="47.08027" lon="-1.74942">
        <ele>2.91</ele>
        <time>2020-05-11T16:02:19Z</time>
      </trkpt>
      <trkpt lat="47.08016" lon="-1.74949">
        <ele>2.01</ele>
        <time>2020-05-11T16:02:21Z</time>
      </trkpt>
      <trkpt lat="47.08005" lon="-1.74957">
        <ele>1.52</ele>
        <time>2020-05-11T16:02:23Z</time>
      </trkpt>
      <trkpt lat="47.07991" lon="-1.74965">
        <ele>1.79</ele>
        <time>2020-05-11T16:02:25Z</time>
      </trkpt>
      <trkpt lat="47.07976" lon="-1.74973">
        <ele>1.81</ele>
        <time>2020-05-11T16:02:27Z</time>
      </trkpt>
      <trkpt lat="47.07962" lon="-1.7498">
        <ele>1.31</ele>
        <time>2020-05-11T16:02:29Z</time>
      </trkpt>
      <trkpt lat="47.07951" lon="-1.74986">
        <ele>1.8</ele>
        <time>2020-05-11T16:02:31Z</time>
      </trkpt>
      <trkpt lat="47.07938" lon="-1.74994">
        <ele>3.34</ele>
        <time>2020-05-11T16:02:33Z</time>
      </trkpt>
      <trkpt lat="47.07925" lon="-1.75001">
        <ele>3.64</ele>
        <time>2020-05-11T16:02:35Z</time>
      </trkpt>
      <trkpt lat="47.07914" lon="-1.75007">
        <ele>4.82</ele>
        <time>2020-05-11T16:02:37Z</time>
      </trkpt>
      <trkpt lat="47.07902" lon="-1.75015">
        <ele>6.88</ele>
        <time>2020-05-11T16:02:39Z</time>
      </trkpt>
      <trkpt lat="47.07888" lon="-1.75025">
        <ele>8.39</ele>
        <time>2020-05-11T16:02:41Z</time>
      </trkpt>
      <trkpt lat="47.07878" lon="-1.75031">
        <ele>9.14</ele>
        <time>2020-05-11T16:02:43Z</time>
      </trkpt>
      <trkpt lat="47.07868" lon="-1.75038">
        <ele>8.71</ele>
        <time>2020-05-11T16:02:45Z</time>
      </trkpt>
      <trkpt lat="47.07851" lon="-1.75047">
        <ele>5.47</ele>
        <time>2020-05-11T16:02:47Z</time>
      </trkpt>
      <trkpt lat="47.07839" lon="-1.75053">
        <ele>3.51</ele>
        <time>2020-05-11T16:02:49Z</time>
      </trkpt>
      <trkpt lat="47.07825" lon="-1.75058">
        <ele>3.07</ele>
        <time>2020-05-11T16:02:51Z</time>
      </trkpt>
      <trkpt lat="47.07813" lon="-1.75058">
        <ele>2.34</ele>
        <time>2020-05-11T16:02:53Z</time>
      </trkpt>
      <trkpt lat="47.07801" lon="-1.75058">
        <ele>1.72</ele>
        <time>2020-05-11T16:02:55Z</time>
      </trkpt>
      <trkpt lat="47.07791" lon="-1.75058">
        <ele>1.08</ele>
        <time>2020-05-11T16:02:57Z</time>
      </trkpt>
      <trkpt lat="47.07778" lon="-1.75059">
        <ele>1.59</ele>
        <time>2020-05-11T16:02:59Z</time>
      </trkpt>
      <trkpt lat="47.07764" lon="-1.75059">
        <ele>3.5</ele>
        <time>2020-05-11T16:03:01Z</time>
      </trkpt>
      <trkpt lat="47.07752" lon="-1.7506">
        <ele>4.34</ele>
        <time>2020-05-11T16:03:03Z</time>
      </trkpt>
      <trkpt lat="47.07741" lon="-1.75059">
        <ele>4.9</ele>
        <time>2020-05-11T16:03:05Z</time>
      </trkpt>
      <trkpt lat="47.0773" lon="-1.7506">
        <ele>4.62</ele>
        <time>2020-05-11T16:03:07Z</time>
      </trkpt>
      <trkpt lat="47.07719" lon="-1.75061">
        <ele>4.57</ele>
        <time>2020-05-11T16:03:09Z</time>
      </trkpt>
      <trkpt lat="47.07714" lon="-1.75046">
        <ele>4.31</ele>
        <time>2020-05-11T16:03:14Z</time>
      </trkpt>
      <trkpt lat="47.07718" lon="-1.75026">
        <ele>2.69</ele>
        <time>2020-05-11T16:03:16Z</time>
      </trkpt>
      <trkpt lat="47.07721" lon="-1.75007">
        <ele>2.54</ele>
        <time>2020-05-11T16:03:18Z</time>
      </trkpt>
      <trkpt lat="47.07723" lon="-1.74989">
        <ele>2.52</ele>
        <time>2020-05-11T16:03:20Z</time>
      </trkpt>
      <trkpt lat="47.07724" lon="-1.74972">
        <ele>1.35</ele>
        <time>2020-05-11T16:03:22Z</time>
      </trkpt>
      <trkpt lat="47.07727" lon="-1.74954">
        <ele>1.39</ele>
        <time>2020-05-11T16:03:24Z</time>
      </trkpt>
      <trkpt lat="47.07729" lon="-1.74936">
        <ele>1.71</ele>
        <time>2020-05-11T16:03:26Z</time>
      </trkpt>
      <trkpt lat="47.0773" lon="-1.74919">
        <ele>0.76</ele>
        <time>2020-05-11T16:03:28Z</time>
      </trkpt>
      <trkpt lat="47.07731" lon="-1.74901">
        <ele>-0.12</ele>
        <time>2020-05-11T16:03:30Z</time>
      </trkpt>
      <trkpt lat="47.07732" lon="-1.74882">
        <ele>0.51</ele>
        <time>2020-05-11T16:03:32Z</time>
      </trkpt>
      <trkpt lat="47.07735" lon="-1.74868">
        <ele>1.58</ele>
        <time>2020-05-11T16:03:34Z</time>
      </trkpt>
      <trkpt lat="47.07738" lon="-1.74853">
        <ele>2.71</ele>
        <time>2020-05-11T16:03:36Z</time>
      </trkpt>
      <trkpt lat="47.07738" lon="-1.74838">
        <ele>2.87</ele>
        <time>2020-05-11T16:03:38Z</time>
      </trkpt>
      <trkpt lat="47.07734" lon="-1.74825">
        <ele>3.9</ele>
        <time>2020-05-11T16:03:40Z</time>
      </trkpt>
      <trkpt lat="47.0772" lon="-1.74821">
        <ele>4.33</ele>
        <time>2020-05-11T16:03:42Z</time>
      </trkpt>
      <trkpt lat="47.0771" lon="-1.74825">
        <ele>4.96</ele>
        <time>2020-05-11T16:03:44Z</time>
      </trkpt>
      <trkpt lat="47.07701" lon="-1.7483">
        <ele>5.64</ele>
        <time>2020-05-11T16:03:46Z</time>
      </trkpt>
      <trkpt lat="47.0769" lon="-1.74835">
        <ele>5.87</ele>
        <time>2020-05-11T16:03:48Z</time>
      </trkpt>
      <trkpt lat="47.07678" lon="-1.7484">
        <ele>6.86</ele>
        <time>2020-05-11T16:03:50Z</time>
      </trkpt>
      <trkpt lat="47.07665" lon="-1.74843">
        <ele>6.53</ele>
        <time>2020-05-11T16:03:52Z</time>
      </trkpt>
      <trkpt lat="47.07652" lon="-1.74845">
        <ele>7.37</ele>
        <time>2020-05-11T16:03:54Z</time>
      </trkpt>
      <trkpt lat="47.07637" lon="-1.74848">
        <ele>7.28</ele>
        <time>2020-05-11T16:03:56Z</time>
      </trkpt>
      <trkpt lat="47.07625" lon="-1.7485">
        <ele>6.33</ele>
        <time>2020-05-11T16:03:58Z</time>
      </trkpt>
      <trkpt lat="47.07613" lon="-1.74851">
        <ele>5.08</ele>
        <time>2020-05-11T16:04:00Z</time>
      </trkpt>
      <trkpt lat="47.07601" lon="-1.7485">
        <ele>4.77</ele>
        <time>2020-05-11T16:04:02Z</time>
      </trkpt>
      <trkpt lat="47.07589" lon="-1.74848">
        <ele>3.8</ele>
        <time>2020-05-11T16:04:04Z</time>
      </trkpt>
      <trkpt lat="47.07574" lon="-1.74845">
        <ele>3.96</ele>
        <time>2020-05-11T16:04:06Z</time>
      </trkpt>
      <trkpt lat="47.0756" lon="-1.74842">
        <ele>4.21</ele>
        <time>2020-05-11T16:04:08Z</time>
      </trkpt>
      <trkpt lat="47.07545" lon="-1.7484">
        <ele>3.74</ele>
        <time>2020-05-11T16:04:10Z</time>
      </trkpt>
      <trkpt lat="47.07533" lon="-1.74838">
        <ele>2.85</ele>
        <time>2020-05-11T16:04:12Z</time>
      </trkpt>
      <trkpt lat="47.07523" lon="-1.74839">
        <ele>2.88</ele>
        <time>2020-05-11T16:04:14Z</time>
      </trkpt>
      <trkpt lat="47.0751" lon="-1.74842">
        <ele>3.34</ele>
        <time>2020-05-11T16:04:16Z</time>
      </trkpt>
      <trkpt lat="47.07494" lon="-1.74846">
        <ele>4.23</ele>
        <time>2020-05-11T16:04:18Z</time>
      </trkpt>
      <trkpt lat="47.07483" lon="-1.74849">
        <ele>3.4</ele>
        <time>2020-05-11T16:04:20Z</time>
      </trkpt>
      <trkpt lat="47.07472" lon="-1.74852">
        <ele>3.03</ele>
        <time>2020-05-11T16:04:22Z</time>
      </trkpt>
      <trkpt lat="47.07459" lon="-1.74853">
        <ele>3.31</ele>
        <time>2020-05-11T16:04:24Z</time>
      </trkpt>
      <trkpt lat="47.07446" lon="-1.74856">
        <ele>4.13</ele>
        <time>2020-05-11T16:04:26Z</time>
      </trkpt>
      <trkpt lat="47.07433" lon="-1.74858">
        <ele>5.49</ele>
        <time>2020-05-11T16:04:28Z</time>
      </trkpt>
      <trkpt lat="47.07421" lon="-1.74861">
        <ele>6.14</ele>
        <time>2020-05-11T16:04:30Z</time>
      </trkpt>
      <trkpt lat="47.07409" lon="-1.7486">
        <ele>6.03</ele>
        <time>2020-05-11T16:04:32Z</time>
      </trkpt>
      <trkpt lat="47.07393" lon="-1.74859">
        <ele>5.97</ele>
        <time>2020-05-11T16:04:34Z</time>
      </trkpt>
      <trkpt lat="47.07378" lon="-1.74858">
        <ele>5.33</ele>
        <time>2020-05-11T16:04:36Z</time>
      </trkpt>
      <trkpt lat="47.07367" lon="-1.74856">
        <ele>5.03</ele>
        <time>2020-05-11T16:04:38Z</time>
      </trkpt>
      <trkpt lat="47.07354" lon="-1.74855">
        <ele>4.78</ele>
        <time>2020-05-11T16:04:40Z</time>
      </trkpt>
      <trkpt lat="47.0734" lon="-1.74855">
        <ele>4.85</ele>
        <time>2020-05-11T16:04:42Z</time>
      </trkpt>
      <trkpt lat="47.07328" lon="-1.74854">
        <ele>4.24</ele>
        <time>2020-05-11T16:04:44Z</time>
      </trkpt>
      <trkpt lat="47.07315" lon="-1.74854">
        <ele>3.64</ele>
        <time>2020-05-11T16:04:46Z</time>
      </trkpt>
      <trkpt lat="47.07304" lon="-1.74853">
        <ele>2.71</ele>
        <time>2020-05-11T16:04:48Z</time>
      </trkpt>
      <trkpt lat="47.07293" lon="-1.74853">
        <ele>2.06</ele>
        <time>2020-05-11T16:04:50Z</time>
      </trkpt>
      <trkpt lat="47.0728" lon="-1.74852">
        <ele>2.13</ele>
        <time>2020-05-11T16:04:52Z</time>
      </trkpt>
      <trkpt lat="47.07266" lon="-1.74851">
        <ele>2.68</ele>
        <time>2020-05-11T16:04:54Z</time>
      </trkpt>
      <trkpt lat="47.07253" lon="-1.74852">
        <ele>2.67</ele>
        <time>2020-05-11T16:04:56Z</time>
      </trkpt>
      <trkpt lat="47.0724" lon="-1.74853">
        <ele>2.95</ele>
        <time>2020-05-11T16:04:58Z</time>
      </trkpt>
      <trkpt lat="47.07228" lon="-1.74855">
        <ele>3.02</ele>
        <time>2020-05-11T16:05:00Z</time>
      </trkpt>
      <trkpt lat="47.07217" lon="-1.74858">
        <ele>2.42</ele>
        <time>2020-05-11T16:05:02Z</time>
      </trkpt>
      <trkpt lat="47.07205" lon="-1.74861">
        <ele>3.13</ele>
        <time>2020-05-11T16:05:04Z</time>
      </trkpt>
      <trkpt lat="47.07195" lon="-1.7486">
        <ele>3.49</ele>
        <time>2020-05-11T16:05:06Z</time>
      </trkpt>
      <trkpt lat="47.07182" lon="-1.74856">
        <ele>3.69</ele>
        <time>2020-05-11T16:05:08Z</time>
      </trkpt>
      <trkpt lat="47.07171" lon="-1.74853">
        <ele>3.73</ele>
        <time>2020-05-11T16:05:10Z</time>
      </trkpt>
      <trkpt lat="47.07157" lon="-1.74852">
        <ele>3.43</ele>
        <time>2020-05-11T16:05:12Z</time>
      </trkpt>
      <trkpt lat="47.07144" lon="-1.74851">
        <ele>3.01</ele>
        <time>2020-05-11T16:05:14Z</time>
      </trkpt>
      <trkpt lat="47.07132" lon="-1.74848">
        <ele>2.49</ele>
        <time>2020-05-11T16:05:16Z</time>
      </trkpt>
      <trkpt lat="47.07118" lon="-1.74843">
        <ele>2.39</ele>
        <time>2020-05-11T16:05:18Z</time>
      </trkpt>
      <trkpt lat="47.07104" lon="-1.74838">
        <ele>2.88</ele>
        <time>2020-05-11T16:05:20Z</time>
      </trkpt>
      <trkpt lat="47.07092" lon="-1.74835">
        <ele>3.07</ele>
        <time>2020-05-11T16:05:22Z</time>
      </trkpt>
      <trkpt lat="47.0708" lon="-1.74833">
        <ele>3.11</ele>
        <time>2020-05-11T16:05:24Z</time>
      </trkpt>
      <trkpt lat="47.07068" lon="-1.74833">
        <ele>2.58</ele>
        <time>2020-05-11T16:05:26Z</time>
      </trkpt>
      <trkpt lat="47.07054" lon="-1.74832">
        <ele>2.1</ele>
        <time>2020-05-11T16:05:28Z</time>
      </trkpt>
      <trkpt lat="47.07042" lon="-1.74832">
        <ele>3.3</ele>
        <time>2020-05-11T16:05:30Z</time>
      </trkpt>
      <trkpt lat="47.07026" lon="-1.74831">
        <ele>3.83</ele>
        <time>2020-05-11T16:05:32Z</time>
      </trkpt>
      <trkpt lat="47.07014" lon="-1.74835">
        <ele>2.91</ele>
        <time>2020-05-11T16:05:34Z</time>
      </trkpt>
      <trkpt lat="47.07003" lon="-1.74842">
        <ele>1.32</ele>
        <time>2020-05-11T16:05:36Z</time>
      </trkpt>
      <trkpt lat="47.06992" lon="-1.74849">
        <ele>0.36</ele>
        <time>2020-05-11T16:05:38Z</time>
      </trkpt>
      <trkpt lat="47.06981" lon="-1.74855">
        <ele>0.07</ele>
        <time>2020-05-11T16:05:40Z</time>
      </trkpt>
      <trkpt lat="47.0697" lon="-1.74856">
        <ele>-0.9</ele>
        <time>2020-05-11T16:05:42Z</time>
      </trkpt>
      <trkpt lat="47.06955" lon="-1.74857">
        <ele>-0.06</ele>
        <time>2020-05-11T16:05:44Z</time>
      </trkpt>
      <trkpt lat="47.0694" lon="-1.74856">
        <ele>1.4</ele>
        <time>2020-05-11T16:05:46Z</time>
      </trkpt>
      <trkpt lat="47.06925" lon="-1.74855">
        <ele>2.85</ele>
        <time>2020-05-11T16:05:48Z</time>
      </trkpt>
      <trkpt lat="47.06913" lon="-1.74854">
        <ele>3.57</ele>
        <time>2020-05-11T16:05:50Z</time>
      </trkpt>
      <trkpt lat="47.069" lon="-1.74855">
        <ele>3.12</ele>
        <time>2020-05-11T16:05:52Z</time>
      </trkpt>
      <trkpt lat="47.06885" lon="-1.74854">
        <ele>3.07</ele>
        <time>2020-05-11T16:05:54Z</time>
      </trkpt>
      <trkpt lat="47.06872" lon="-1.74853">
        <ele>2.89</ele>
        <time>2020-05-11T16:05:56Z</time>
      </trkpt>
      <trkpt lat="47.06858" lon="-1.74852">
        <ele>4.01</ele>
        <time>2020-05-11T16:05:58Z</time>
      </trkpt>
      <trkpt lat="47.06846" lon="-1.74851">
        <ele>4.16</ele>
        <time>2020-05-11T16:06:00Z</time>
      </trkpt>
      <trkpt lat="47.06831" lon="-1.74849">
        <ele>3.41</ele>
        <time>2020-05-11T16:06:02Z</time>
      </trkpt>
      <trkpt lat="47.06818" lon="-1.74848">
        <ele>3.39</ele>
        <time>2020-05-11T16:06:04Z</time>
      </trkpt>
      <trkpt lat="47.06805" lon="-1.74847">
        <ele>4.67</ele>
        <time>2020-05-11T16:06:06Z</time>
      </trkpt>
      <trkpt lat="47.06793" lon="-1.74841">
        <ele>5.71</ele>
        <time>2020-05-11T16:06:08Z</time>
      </trkpt>
      <trkpt lat="47.06783" lon="-1.74833">
        <ele>6.1</ele>
        <time>2020-05-11T16:06:10Z</time>
      </trkpt>
      <trkpt lat="47.06774" lon="-1.74824">
        <ele>6.11</ele>
        <time>2020-05-11T16:06:12Z</time>
      </trkpt>
      <trkpt lat="47.06764" lon="-1.74812">
        <ele>5.92</ele>
        <time>2020-05-11T16:06:14Z</time>
      </trkpt>
      <trkpt lat="47.06755" lon="-1.748">
        <ele>6.04</ele>
        <time>2020-05-11T16:06:16Z</time>
      </trkpt>
      <trkpt lat="47.06745" lon="-1.7479">
        <ele>4.73</ele>
        <time>2020-05-11T16:06:18Z</time>
      </trkpt>
      <trkpt lat="47.06735" lon="-1.74783">
        <ele>3.12</ele>
        <time>2020-05-11T16:06:20Z</time>
      </trkpt>
      <trkpt lat="47.06722" lon="-1.74772">
        <ele>2.77</ele>
        <time>2020-05-11T16:06:22Z</time>
      </trkpt>
      <trkpt lat="47.06707" lon="-1.74768">
        <ele>3.55</ele>
        <time>2020-05-11T16:06:24Z</time>
      </trkpt>
      <trkpt lat="47.06693" lon="-1.74773">
        <ele>5.09</ele>
        <time>2020-05-11T16:06:26Z</time>
      </trkpt>
      <trkpt lat="47.06681" lon="-1.74779">
        <ele>5.58</ele>
        <time>2020-05-11T16:06:28Z</time>
      </trkpt>
      <trkpt lat="47.06669" lon="-1.74785">
        <ele>5.01</ele>
        <time>2020-05-11T16:06:30Z</time>
      </trkpt>
      <trkpt lat="47.06653" lon="-1.74792">
        <ele>5.14</ele>
        <time>2020-05-11T16:06:32Z</time>
      </trkpt>
      <trkpt lat="47.06641" lon="-1.74798">
        <ele>5.25</ele>
        <time>2020-05-11T16:06:34Z</time>
      </trkpt>
      <trkpt lat="47.0663" lon="-1.74803">
        <ele>4.34</ele>
        <time>2020-05-11T16:06:36Z</time>
      </trkpt>
      <trkpt lat="47.06619" lon="-1.74809">
        <ele>3.84</ele>
        <time>2020-05-11T16:06:38Z</time>
      </trkpt>
      <trkpt lat="47.06609" lon="-1.74813">
        <ele>3.71</ele>
        <time>2020-05-11T16:06:40Z</time>
      </trkpt>
      <trkpt lat="47.06599" lon="-1.74816">
        <ele>1.81</ele>
        <time>2020-05-11T16:06:42Z</time>
      </trkpt>
      <trkpt lat="47.06587" lon="-1.74818">
        <ele>0.1</ele>
        <time>2020-05-11T16:06:44Z</time>
      </trkpt>
      <trkpt lat="47.06575" lon="-1.74819">
        <ele>-1.17</ele>
        <time>2020-05-11T16:06:46Z</time>
      </trkpt>
      <trkpt lat="47.06565" lon="-1.74814">
        <ele>-1.03</ele>
        <time>2020-05-11T16:06:48Z</time>
      </trkpt>
      <trkpt lat="47.06554" lon="-1.74809">
        <ele>0.15</ele>
        <time>2020-05-11T16:06:50Z</time>
      </trkpt>
      <trkpt lat="47.06539" lon="-1.74804">
        <ele>0.58</ele>
        <time>2020-05-11T16:06:52Z</time>
      </trkpt>
      <trkpt lat="47.06525" lon="-1.74797">
        <ele>1.52</ele>
        <time>2020-05-11T16:06:54Z</time>
      </trkpt>
      <trkpt lat="47.06513" lon="-1.7479">
        <ele>3.26</ele>
        <time>2020-05-11T16:06:56Z</time>
      </trkpt>
      <trkpt lat="47.065" lon="-1.74786">
        <ele>3.97</ele>
        <time>2020-05-11T16:06:58Z</time>
      </trkpt>
      <trkpt lat="47.06485" lon="-1.74786">
        <ele>4.73</ele>
        <time>2020-05-11T16:07:00Z</time>
      </trkpt>
      <trkpt lat="47.06471" lon="-1.7479">
        <ele>4.81</ele>
        <time>2020-05-11T16:07:02Z</time>
      </trkpt>
      <trkpt lat="47.06459" lon="-1.74795">
        <ele>5.21</ele>
        <time>2020-05-11T16:07:04Z</time>
      </trkpt>
      <trkpt lat="47.06447" lon="-1.74798">
        <ele>5.3</ele>
        <time>2020-05-11T16:07:06Z</time>
      </trkpt>
      <trkpt lat="47.06437" lon="-1.74797">
        <ele>4.74</ele>
        <time>2020-05-11T16:07:08Z</time>
      </trkpt>
      <trkpt lat="47.06425" lon="-1.74794">
        <ele>4.02</ele>
        <time>2020-05-11T16:07:10Z</time>
      </trkpt>
      <trkpt lat="47.06411" lon="-1.74789">
        <ele>4.09</ele>
        <time>2020-05-11T16:07:12Z</time>
      </trkpt>
      <trkpt lat="47.06398" lon="-1.74785">
        <ele>5.32</ele>
        <time>2020-05-11T16:07:14Z</time>
      </trkpt>
      <trkpt lat="47.06387" lon="-1.74782">
        <ele>5.21</ele>
        <time>2020-05-11T16:07:16Z</time>
      </trkpt>
      <trkpt lat="47.06373" lon="-1.74779">
        <ele>6.24</ele>
        <time>2020-05-11T16:07:18Z</time>
      </trkpt>
      <trkpt lat="47.06359" lon="-1.74778">
        <ele>7.09</ele>
        <time>2020-05-11T16:07:20Z</time>
      </trkpt>
      <trkpt lat="47.06346" lon="-1.74782">
        <ele>7.28</ele>
        <time>2020-05-11T16:07:22Z</time>
      </trkpt>
      <trkpt lat="47.06334" lon="-1.74784">
        <ele>6.83</ele>
        <time>2020-05-11T16:07:24Z</time>
      </trkpt>
      <trkpt lat="47.06323" lon="-1.74786">
        <ele>6.03</ele>
        <time>2020-05-11T16:07:26Z</time>
      </trkpt>
      <trkpt lat="47.06314" lon="-1.74786">
        <ele>4.88</ele>
        <time>2020-05-11T16:07:28Z</time>
      </trkpt>
      <trkpt lat="47.06307" lon="-1.74775">
        <ele>2.58</ele>
        <time>2020-05-11T16:07:30Z</time>
      </trkpt>
      <trkpt lat="47.06302" lon="-1.74758">
        <ele>1.22</ele>
        <time>2020-05-11T16:07:32Z</time>
      </trkpt>
      <trkpt lat="47.06297" lon="-1.74743">
        <ele>1.09</ele>
        <time>2020-05-11T16:07:34Z</time>
      </trkpt>
      <trkpt lat="47.0629" lon="-1.74725">
        <ele>1.19</ele>
        <time>2020-05-11T16:07:36Z</time>
      </trkpt>
      <trkpt lat="47.06283" lon="-1.74711">
        <ele>1.35</ele>
        <time>2020-05-11T16:07:38Z</time>
      </trkpt>
      <trkpt lat="47.06275" lon="-1.74698">
        <ele>0.83</ele>
        <time>2020-05-11T16:07:40Z</time>
      </trkpt>
      <trkpt lat="47.06266" lon="-1.74681">
        <ele>-0.31</ele>
        <time>2020-05-11T16:07:42Z</time>
      </trkpt>
      <trkpt lat="47.06258" lon="-1.74668">
        <ele>-0.66</ele>
        <time>2020-05-11T16:07:44Z</time>
      </trkpt>
      <trkpt lat="47.0625" lon="-1.74656">
        <ele>-0.36</ele>
        <time>2020-05-11T16:07:46Z</time>
      </trkpt>
      <trkpt lat="47.06243" lon="-1.74643">
        <ele>0.11</ele>
        <time>2020-05-11T16:07:48Z</time>
      </trkpt>
      <trkpt lat="47.06234" lon="-1.74628">
        <ele>0.57</ele>
        <time>2020-05-11T16:07:50Z</time>
      </trkpt>
      <trkpt lat="47.06226" lon="-1.74611">
        <ele>1.11</ele>
        <time>2020-05-11T16:07:52Z</time>
      </trkpt>
      <trkpt lat="47.0622" lon="-1.74597">
        <ele>-0.06</ele>
        <time>2020-05-11T16:07:54Z</time>
      </trkpt>
      <trkpt lat="47.06213" lon="-1.74584">
        <ele>-1.16</ele>
        <time>2020-05-11T16:07:56Z</time>
      </trkpt>
      <trkpt lat="47.06205" lon="-1.74564">
        <ele>-0.13</ele>
        <time>2020-05-11T16:07:58Z</time>
      </trkpt>
      <trkpt lat="47.06199" lon="-1.74547">
        <ele>0.42</ele>
        <time>2020-05-11T16:08:00Z</time>
      </trkpt>
      <trkpt lat="47.06193" lon="-1.74532">
        <ele>0.01</ele>
        <time>2020-05-11T16:08:02Z</time>
      </trkpt>
      <trkpt lat="47.06185" lon="-1.74518">
        <ele>-0.11</ele>
        <time>2020-05-11T16:08:04Z</time>
      </trkpt>
      <trkpt lat="47.06177" lon="-1.74503">
        <ele>1.04</ele>
        <time>2020-05-11T16:08:06Z</time>
      </trkpt>
      <trkpt lat="47.06169" lon="-1.74487">
        <ele>1.91</ele>
        <time>2020-05-11T16:08:08Z</time>
      </trkpt>
      <trkpt lat="47.06161" lon="-1.74472">
        <ele>1.1</ele>
        <time>2020-05-11T16:08:10Z</time>
      </trkpt>
      <trkpt lat="47.06153" lon="-1.74454">
        <ele>-0.63</ele>
        <time>2020-05-11T16:08:12Z</time>
      </trkpt>
      <trkpt lat="47.06144" lon="-1.74437">
        <ele>-1.44</ele>
        <time>2020-05-11T16:08:15Z</time>
      </trkpt>
      <trkpt lat="47.06136" lon="-1.74422">
        <ele>-0.01</ele>
        <time>2020-05-11T16:08:17Z</time>
      </trkpt>
      <trkpt lat="47.06128" lon="-1.74408">
        <ele>0.27</ele>
        <time>2020-05-11T16:08:19Z</time>
      </trkpt>
      <trkpt lat="47.0612" lon="-1.74395">
        <ele>-0.12</ele>
        <time>2020-05-11T16:08:21Z</time>
      </trkpt>
      <trkpt lat="47.06112" lon="-1.74381">
        <ele>-0.27</ele>
        <time>2020-05-11T16:08:23Z</time>
      </trkpt>
      <trkpt lat="47.06105" lon="-1.74368">
        <ele>-0.16</ele>
        <time>2020-05-11T16:08:25Z</time>
      </trkpt>
      <trkpt lat="47.06097" lon="-1.74355">
        <ele>-0.73</ele>
        <time>2020-05-11T16:08:27Z</time>
      </trkpt>
      <trkpt lat="47.06089" lon="-1.74342">
        <ele>-0.93</ele>
        <time>2020-05-11T16:08:29Z</time>
      </trkpt>
      <trkpt lat="47.0608" lon="-1.74327">
        <ele>-1.84</ele>
        <time>2020-05-11T16:08:32Z</time>
      </trkpt>
      <trkpt lat="47.06073" lon="-1.74314">
        <ele>-2.23</ele>
        <time>2020-05-11T16:08:34Z</time>
      </trkpt>
      <trkpt lat="47.06064" lon="-1.74298">
        <ele>-1.41</ele>
        <time>2020-05-11T16:08:36Z</time>
      </trkpt>
      <trkpt lat="47.06056" lon="-1.74284">
        <ele>-0.09</ele>
        <time>2020-05-11T16:08:38Z</time>
      </trkpt>
      <trkpt lat="47.06048" lon="-1.74268">
        <ele>0.55</ele>
        <time>2020-05-11T16:08:40Z</time>
      </trkpt>
      <trkpt lat="47.06042" lon="-1.74254">
        <ele>1.61</ele>
        <time>2020-05-11T16:08:42Z</time>
      </trkpt>
      <trkpt lat="47.06036" lon="-1.74241">
        <ele>1.89</ele>
        <time>2020-05-11T16:08:44Z</time>
      </trkpt>
      <trkpt lat="47.06028" lon="-1.74227">
        <ele>1.62</ele>
        <time>2020-05-11T16:08:46Z</time>
      </trkpt>
      <trkpt lat="47.0602" lon="-1.74215">
        <ele>3.09</ele>
        <time>2020-05-11T16:08:48Z</time>
      </trkpt>
      <trkpt lat="47.06011" lon="-1.742">
        <ele>4.23</ele>
        <time>2020-05-11T16:08:50Z</time>
      </trkpt>
      <trkpt lat="47.06003" lon="-1.74185">
        <ele>4.58</ele>
        <time>2020-05-11T16:08:52Z</time>
      </trkpt>
      <trkpt lat="47.05996" lon="-1.74169">
        <ele>3.61</ele>
        <time>2020-05-11T16:08:54Z</time>
      </trkpt>
      <trkpt lat="47.05989" lon="-1.74155">
        <ele>2.33</ele>
        <time>2020-05-11T16:08:56Z</time>
      </trkpt>
      <trkpt lat="47.05982" lon="-1.74139">
        <ele>2.41</ele>
        <time>2020-05-11T16:08:58Z</time>
      </trkpt>
      <trkpt lat="47.05975" lon="-1.74126">
        <ele>2.45</ele>
        <time>2020-05-11T16:09:00Z</time>
      </trkpt>
      <trkpt lat="47.05968" lon="-1.74114">
        <ele>1.51</ele>
        <time>2020-05-11T16:09:02Z</time>
      </trkpt>
      <trkpt lat="47.05961" lon="-1.74102">
        <ele>0.82</ele>
        <time>2020-05-11T16:09:04Z</time>
      </trkpt>
      <trkpt lat="47.05955" lon="-1.7409">
        <ele>1.85</ele>
        <time>2020-05-11T16:09:07Z</time>
      </trkpt>
      <trkpt lat="47.05947" lon="-1.74078">
        <ele>3.03</ele>
        <time>2020-05-11T16:09:09Z</time>
      </trkpt>
      <trkpt lat="47.05941" lon="-1.74064">
        <ele>4</ele>
        <time>2020-05-11T16:09:11Z</time>
      </trkpt>
      <trkpt lat="47.05934" lon="-1.74047">
        <ele>3.92</ele>
        <time>2020-05-11T16:09:13Z</time>
      </trkpt>
      <trkpt lat="47.05926" lon="-1.74033">
        <ele>2.72</ele>
        <time>2020-05-11T16:09:15Z</time>
      </trkpt>
      <trkpt lat="47.0592" lon="-1.7402">
        <ele>2.34</ele>
        <time>2020-05-11T16:09:17Z</time>
      </trkpt>
      <trkpt lat="47.05912" lon="-1.74006">
        <ele>2.91</ele>
        <time>2020-05-11T16:09:19Z</time>
      </trkpt>
      <trkpt lat="47.05906" lon="-1.73992">
        <ele>2.72</ele>
        <time>2020-05-11T16:09:21Z</time>
      </trkpt>
      <trkpt lat="47.05898" lon="-1.73978">
        <ele>2.03</ele>
        <time>2020-05-11T16:09:23Z</time>
      </trkpt>
      <trkpt lat="47.0589" lon="-1.73965">
        <ele>2.25</ele>
        <time>2020-05-11T16:09:25Z</time>
      </trkpt>
      <trkpt lat="47.05882" lon="-1.73951">
        <ele>2.95</ele>
        <time>2020-05-11T16:09:27Z</time>
      </trkpt>
      <trkpt lat="47.05874" lon="-1.73938">
        <ele>4.15</ele>
        <time>2020-05-11T16:09:29Z</time>
      </trkpt>
      <trkpt lat="47.05865" lon="-1.73923">
        <ele>4.86</ele>
        <time>2020-05-11T16:09:31Z</time>
      </trkpt>
      <trkpt lat="47.05856" lon="-1.73909">
        <ele>4.88</ele>
        <time>2020-05-11T16:09:33Z</time>
      </trkpt>
      <trkpt lat="47.05847" lon="-1.73895">
        <ele>4.36</ele>
        <time>2020-05-11T16:09:35Z</time>
      </trkpt>
      <trkpt lat="47.0584" lon="-1.73881">
        <ele>3.86</ele>
        <time>2020-05-11T16:09:37Z</time>
      </trkpt>
      <trkpt lat="47.05834" lon="-1.73864">
        <ele>2.63</ele>
        <time>2020-05-11T16:09:39Z</time>
      </trkpt>
      <trkpt lat="47.0583" lon="-1.73849">
        <ele>0.3</ele>
        <time>2020-05-11T16:09:41Z</time>
      </trkpt>
      <trkpt lat="47.05825" lon="-1.73833">
        <ele>-0.45</ele>
        <time>2020-05-11T16:09:43Z</time>
      </trkpt>
      <trkpt lat="47.05822" lon="-1.73816">
        <ele>-0.43</ele>
        <time>2020-05-11T16:09:45Z</time>
      </trkpt>
      <trkpt lat="47.05819" lon="-1.73796">
        <ele>0.19</ele>
        <time>2020-05-11T16:09:47Z</time>
      </trkpt>
      <trkpt lat="47.05817" lon="-1.73776">
        <ele>0.52</ele>
        <time>2020-05-11T16:09:49Z</time>
      </trkpt>
      <trkpt lat="47.05816" lon="-1.7376">
        <ele>0.67</ele>
        <time>2020-05-11T16:09:51Z</time>
      </trkpt>
      <trkpt lat="47.05817" lon="-1.73741">
        <ele>1.97</ele>
        <time>2020-05-11T16:09:53Z</time>
      </trkpt>
      <trkpt lat="47.05819" lon="-1.73722">
        <ele>2.67</ele>
        <time>2020-05-11T16:09:55Z</time>
      </trkpt>
      <trkpt lat="47.05821" lon="-1.73703">
        <ele>3.54</ele>
        <time>2020-05-11T16:09:57Z</time>
      </trkpt>
      <trkpt lat="47.05822" lon="-1.73686">
        <ele>4.25</ele>
        <time>2020-05-11T16:09:59Z</time>
      </trkpt>
      <trkpt lat="47.05824" lon="-1.7367">
        <ele>4.5</ele>
        <time>2020-05-11T16:10:01Z</time>
      </trkpt>
      <trkpt lat="47.05826" lon="-1.7365">
        <ele>3.42</ele>
        <time>2020-05-11T16:10:03Z</time>
      </trkpt>
      <trkpt lat="47.05828" lon="-1.73628">
        <ele>2.1</ele>
        <time>2020-05-11T16:10:05Z</time>
      </trkpt>
      <trkpt lat="47.05829" lon="-1.73609">
        <ele>0.96</ele>
        <time>2020-05-11T16:10:07Z</time>
      </trkpt>
      <trkpt lat="47.05831" lon="-1.7359">
        <ele>0.76</ele>
        <time>2020-05-11T16:10:09Z</time>
      </trkpt>
      <trkpt lat="47.05834" lon="-1.73573">
        <ele>0.4</ele>
        <time>2020-05-11T16:10:11Z</time>
      </trkpt>
      <trkpt lat="47.05835" lon="-1.73555">
        <ele>-0.42</ele>
        <time>2020-05-11T16:10:13Z</time>
      </trkpt>
      <trkpt lat="47.05837" lon="-1.73533">
        <ele>-0.44</ele>
        <time>2020-05-11T16:10:15Z</time>
      </trkpt>
      <trkpt lat="47.05839" lon="-1.73517">
        <ele>-0.08</ele>
        <time>2020-05-11T16:10:17Z</time>
      </trkpt>
      <trkpt lat="47.05841" lon="-1.73496">
        <ele>1.83</ele>
        <time>2020-05-11T16:10:19Z</time>
      </trkpt>
      <trkpt lat="47.05843" lon="-1.73476">
        <ele>0.8</ele>
        <time>2020-05-11T16:10:21Z</time>
      </trkpt>
      <trkpt lat="47.05844" lon="-1.7346">
        <ele>-0.14</ele>
        <time>2020-05-11T16:10:23Z</time>
      </trkpt>
      <trkpt lat="47.05846" lon="-1.73441">
        <ele>0.44</ele>
        <time>2020-05-11T16:10:25Z</time>
      </trkpt>
      <trkpt lat="47.05848" lon="-1.73424">
        <ele>1.13</ele>
        <time>2020-05-11T16:10:27Z</time>
      </trkpt>
      <trkpt lat="47.05849" lon="-1.73407">
        <ele>1.66</ele>
        <time>2020-05-11T16:10:29Z</time>
      </trkpt>
      <trkpt lat="47.05851" lon="-1.73392">
        <ele>0.83</ele>
        <time>2020-05-11T16:10:31Z</time>
      </trkpt>
      <trkpt lat="47.05854" lon="-1.73372">
        <ele>0.5</ele>
        <time>2020-05-11T16:10:33Z</time>
      </trkpt>
      <trkpt lat="47.05857" lon="-1.73352">
        <ele>-0.24</ele>
        <time>2020-05-11T16:10:35Z</time>
      </trkpt>
      <trkpt lat="47.0586" lon="-1.73336">
        <ele>-0.87</ele>
        <time>2020-05-11T16:10:37Z</time>
      </trkpt>
      <trkpt lat="47.05861" lon="-1.73314">
        <ele>-0.71</ele>
        <time>2020-05-11T16:10:39Z</time>
      </trkpt>
      <trkpt lat="47.05862" lon="-1.73296">
        <ele>-0.38</ele>
        <time>2020-05-11T16:10:41Z</time>
      </trkpt>
      <trkpt lat="47.05863" lon="-1.73278">
        <ele>-0.15</ele>
        <time>2020-05-11T16:10:43Z</time>
      </trkpt>
      <trkpt lat="47.05864" lon="-1.73259">
        <ele>0.41</ele>
        <time>2020-05-11T16:10:45Z</time>
      </trkpt>
      <trkpt lat="47.05864" lon="-1.73242">
        <ele>0.73</ele>
        <time>2020-05-11T16:10:47Z</time>
      </trkpt>
      <trkpt lat="47.05861" lon="-1.73224">
        <ele>1.43</ele>
        <time>2020-05-11T16:10:49Z</time>
      </trkpt>
      <trkpt lat="47.05855" lon="-1.73206">
        <ele>1.94</ele>
        <time>2020-05-11T16:10:51Z</time>
      </trkpt>
      <trkpt lat="47.05846" lon="-1.73192">
        <ele>2.3</ele>
        <time>2020-05-11T16:10:53Z</time>
      </trkpt>
      <trkpt lat="47.05837" lon="-1.73179">
        <ele>2.48</ele>
        <time>2020-05-11T16:10:55Z</time>
      </trkpt>
      <trkpt lat="47.05829" lon="-1.73167">
        <ele>3.36</ele>
        <time>2020-05-11T16:10:57Z</time>
      </trkpt>
      <trkpt lat="47.05822" lon="-1.73156">
        <ele>4.26</ele>
        <time>2020-05-11T16:10:59Z</time>
      </trkpt>
      <trkpt lat="47.05814" lon="-1.73142">
        <ele>5.59</ele>
        <time>2020-05-11T16:11:01Z</time>
      </trkpt>
      <trkpt lat="47.05807" lon="-1.73128">
        <ele>7.07</ele>
        <time>2020-05-11T16:11:03Z</time>
      </trkpt>
      <trkpt lat="47.05799" lon="-1.73115">
        <ele>8.12</ele>
        <time>2020-05-11T16:11:05Z</time>
      </trkpt>
      <trkpt lat="47.05791" lon="-1.73102">
        <ele>8.09</ele>
        <time>2020-05-11T16:11:07Z</time>
      </trkpt>
      <trkpt lat="47.05783" lon="-1.73089">
        <ele>8.2</ele>
        <time>2020-05-11T16:11:09Z</time>
      </trkpt>
      <trkpt lat="47.05775" lon="-1.73077">
        <ele>9.18</ele>
        <time>2020-05-11T16:11:11Z</time>
      </trkpt>
      <trkpt lat="47.05768" lon="-1.73064">
        <ele>9.27</ele>
        <time>2020-05-11T16:11:13Z</time>
      </trkpt>
      <trkpt lat="47.0576" lon="-1.73053">
        <ele>8.55</ele>
        <time>2020-05-11T16:11:15Z</time>
      </trkpt>
      <trkpt lat="47.05754" lon="-1.73045">
        <ele>8.51</ele>
        <time>2020-05-11T16:11:17Z</time>
      </trkpt>
      <trkpt lat="47.05744" lon="-1.73032">
        <ele>8.78</ele>
        <time>2020-05-11T16:11:20Z</time>
      </trkpt>
      <trkpt lat="47.05738" lon="-1.73022">
        <ele>9.24</ele>
        <time>2020-05-11T16:11:22Z</time>
      </trkpt>
      <trkpt lat="47.05731" lon="-1.73011">
        <ele>9.48</ele>
        <time>2020-05-11T16:11:24Z</time>
      </trkpt>
      <trkpt lat="47.05724" lon="-1.72998">
        <ele>8.99</ele>
        <time>2020-05-11T16:11:27Z</time>
      </trkpt>
      <trkpt lat="47.05717" lon="-1.72986">
        <ele>8.66</ele>
        <time>2020-05-11T16:11:29Z</time>
      </trkpt>
      <trkpt lat="47.0571" lon="-1.72972">
        <ele>8.32</ele>
        <time>2020-05-11T16:11:32Z</time>
      </trkpt>
      <trkpt lat="47.05702" lon="-1.7296">
        <ele>8.2</ele>
        <time>2020-05-11T16:11:35Z</time>
      </trkpt>
      <trkpt lat="47.05694" lon="-1.72946">
        <ele>9.8</ele>
        <time>2020-05-11T16:11:38Z</time>
      </trkpt>
      <trkpt lat="47.05689" lon="-1.72935">
        <ele>11.53</ele>
        <time>2020-05-11T16:11:40Z</time>
      </trkpt>
      <trkpt lat="47.05683" lon="-1.72919">
        <ele>13.39</ele>
        <time>2020-05-11T16:11:43Z</time>
      </trkpt>
      <trkpt lat="47.05678" lon="-1.72906">
        <ele>13.24</ele>
        <time>2020-05-11T16:11:46Z</time>
      </trkpt>
      <trkpt lat="47.05674" lon="-1.72888">
        <ele>13.12</ele>
        <time>2020-05-11T16:11:49Z</time>
      </trkpt>
      <trkpt lat="47.0567" lon="-1.72872">
        <ele>13.15</ele>
        <time>2020-05-11T16:11:52Z</time>
      </trkpt>
      <trkpt lat="47.05666" lon="-1.72857">
        <ele>14.04</ele>
        <time>2020-05-11T16:11:55Z</time>
      </trkpt>
      <trkpt lat="47.05662" lon="-1.72837">
        <ele>15.67</ele>
        <time>2020-05-11T16:11:58Z</time>
      </trkpt>
      <trkpt lat="47.05658" lon="-1.72825">
        <ele>16.11</ele>
        <time>2020-05-11T16:12:00Z</time>
      </trkpt>
      <trkpt lat="47.05654" lon="-1.72809">
        <ele>15.8</ele>
        <time>2020-05-11T16:12:03Z</time>
      </trkpt>
      <trkpt lat="47.0565" lon="-1.72792">
        <ele>16.52</ele>
        <time>2020-05-11T16:12:06Z</time>
      </trkpt>
      <trkpt lat="47.05646" lon="-1.7278">
        <ele>17.06</ele>
        <time>2020-05-11T16:12:08Z</time>
      </trkpt>
      <trkpt lat="47.05643" lon="-1.72767">
        <ele>17.55</ele>
        <time>2020-05-11T16:12:10Z</time>
      </trkpt>
      <trkpt lat="47.05639" lon="-1.72752">
        <ele>18.49</ele>
        <time>2020-05-11T16:12:13Z</time>
      </trkpt>
      <trkpt lat="47.05633" lon="-1.72735">
        <ele>19.81</ele>
        <time>2020-05-11T16:12:16Z</time>
      </trkpt>
      <trkpt lat="47.05627" lon="-1.72721">
        <ele>20.21</ele>
        <time>2020-05-11T16:12:18Z</time>
      </trkpt>
      <trkpt lat="47.0562" lon="-1.72704">
        <ele>20.02</ele>
        <time>2020-05-11T16:12:21Z</time>
      </trkpt>
      <trkpt lat="47.05615" lon="-1.72688">
        <ele>20.25</ele>
        <time>2020-05-11T16:12:24Z</time>
      </trkpt>
      <trkpt lat="47.05611" lon="-1.72674">
        <ele>20.04</ele>
        <time>2020-05-11T16:12:27Z</time>
      </trkpt>
      <trkpt lat="47.05604" lon="-1.72658">
        <ele>21.96</ele>
        <time>2020-05-11T16:12:30Z</time>
      </trkpt>
      <trkpt lat="47.056" lon="-1.72643">
        <ele>22.33</ele>
        <time>2020-05-11T16:12:33Z</time>
      </trkpt>
      <trkpt lat="47.0559" lon="-1.72643">
        <ele>22.76</ele>
        <time>2020-05-11T16:12:36Z</time>
      </trkpt>
      <trkpt lat="47.0558" lon="-1.72641">
        <ele>24.05</ele>
        <time>2020-05-11T16:12:38Z</time>
      </trkpt>
      <trkpt lat="47.05575" lon="-1.72627">
        <ele>23.86</ele>
        <time>2020-05-11T16:12:41Z</time>
      </trkpt>
      <trkpt lat="47.05573" lon="-1.72609">
        <ele>22.92</ele>
        <time>2020-05-11T16:12:44Z</time>
      </trkpt>
      <trkpt lat="47.05569" lon="-1.72589">
        <ele>22.79</ele>
        <time>2020-05-11T16:12:47Z</time>
      </trkpt>
      <trkpt lat="47.05566" lon="-1.72574">
        <ele>23.13</ele>
        <time>2020-05-11T16:12:49Z</time>
      </trkpt>
      <trkpt lat="47.05564" lon="-1.72557">
        <ele>23.51</ele>
        <time>2020-05-11T16:12:51Z</time>
      </trkpt>
      <trkpt lat="47.0556" lon="-1.72543">
        <ele>23.68</ele>
        <time>2020-05-11T16:12:53Z</time>
      </trkpt>
      <trkpt lat="47.05557" lon="-1.72527">
        <ele>23.67</ele>
        <time>2020-05-11T16:12:55Z</time>
      </trkpt>
      <trkpt lat="47.05554" lon="-1.72507">
        <ele>23.82</ele>
        <time>2020-05-11T16:12:58Z</time>
      </trkpt>
      <trkpt lat="47.05551" lon="-1.72491">
        <ele>23.9</ele>
        <time>2020-05-11T16:13:00Z</time>
      </trkpt>
      <trkpt lat="47.05548" lon="-1.72475">
        <ele>23.61</ele>
        <time>2020-05-11T16:13:02Z</time>
      </trkpt>
      <trkpt lat="47.05544" lon="-1.72463">
        <ele>24.02</ele>
        <time>2020-05-11T16:13:04Z</time>
      </trkpt>
      <trkpt lat="47.05539" lon="-1.7245">
        <ele>24.16</ele>
        <time>2020-05-11T16:13:06Z</time>
      </trkpt>
      <trkpt lat="47.05535" lon="-1.72435">
        <ele>24.91</ele>
        <time>2020-05-11T16:13:08Z</time>
      </trkpt>
      <trkpt lat="47.05531" lon="-1.72421">
        <ele>25.56</ele>
        <time>2020-05-11T16:13:10Z</time>
      </trkpt>
      <trkpt lat="47.05527" lon="-1.72407">
        <ele>25.51</ele>
        <time>2020-05-11T16:13:12Z</time>
      </trkpt>
      <trkpt lat="47.05523" lon="-1.72391">
        <ele>24.97</ele>
        <time>2020-05-11T16:13:14Z</time>
      </trkpt>
      <trkpt lat="47.05519" lon="-1.72378">
        <ele>24.24</ele>
        <time>2020-05-11T16:13:16Z</time>
      </trkpt>
      <trkpt lat="47.05514" lon="-1.72363">
        <ele>23.13</ele>
        <time>2020-05-11T16:13:18Z</time>
      </trkpt>
      <trkpt lat="47.05511" lon="-1.72349">
        <ele>22.73</ele>
        <time>2020-05-11T16:13:20Z</time>
      </trkpt>
      <trkpt lat="47.05506" lon="-1.72335">
        <ele>23.2</ele>
        <time>2020-05-11T16:13:22Z</time>
      </trkpt>
      <trkpt lat="47.05501" lon="-1.72318">
        <ele>23.26</ele>
        <time>2020-05-11T16:13:24Z</time>
      </trkpt>
      <trkpt lat="47.05495" lon="-1.72302">
        <ele>22.5</ele>
        <time>2020-05-11T16:13:26Z</time>
      </trkpt>
      <trkpt lat="47.05492" lon="-1.72289">
        <ele>22.38</ele>
        <time>2020-05-11T16:13:28Z</time>
      </trkpt>
      <trkpt lat="47.05489" lon="-1.72273">
        <ele>22.97</ele>
        <time>2020-05-11T16:13:30Z</time>
      </trkpt>
      <trkpt lat="47.05486" lon="-1.72258">
        <ele>23.06</ele>
        <time>2020-05-11T16:13:32Z</time>
      </trkpt>
      <trkpt lat="47.05482" lon="-1.7224">
        <ele>21.81</ele>
        <time>2020-05-11T16:13:34Z</time>
      </trkpt>
      <trkpt lat="47.05478" lon="-1.72224">
        <ele>20.59</ele>
        <time>2020-05-11T16:13:36Z</time>
      </trkpt>
      <trkpt lat="47.05474" lon="-1.72206">
        <ele>19.88</ele>
        <time>2020-05-11T16:13:38Z</time>
      </trkpt>
      <trkpt lat="47.05468" lon="-1.72186">
        <ele>19</ele>
        <time>2020-05-11T16:13:40Z</time>
      </trkpt>
      <trkpt lat="47.05464" lon="-1.72166">
        <ele>18.59</ele>
        <time>2020-05-11T16:13:42Z</time>
      </trkpt>
      <trkpt lat="47.0546" lon="-1.72146">
        <ele>17.73</ele>
        <time>2020-05-11T16:13:44Z</time>
      </trkpt>
      <trkpt lat="47.05457" lon="-1.72127">
        <ele>18.27</ele>
        <time>2020-05-11T16:13:46Z</time>
      </trkpt>
      <trkpt lat="47.05453" lon="-1.72109">
        <ele>18.04</ele>
        <time>2020-05-11T16:13:48Z</time>
      </trkpt>
      <trkpt lat="47.05449" lon="-1.72089">
        <ele>17.42</ele>
        <time>2020-05-11T16:13:50Z</time>
      </trkpt>
      <trkpt lat="47.05445" lon="-1.7207">
        <ele>16.4</ele>
        <time>2020-05-11T16:13:52Z</time>
      </trkpt>
      <trkpt lat="47.0544" lon="-1.72049">
        <ele>15.84</ele>
        <time>2020-05-11T16:13:54Z</time>
      </trkpt>
      <trkpt lat="47.05435" lon="-1.72028">
        <ele>15</ele>
        <time>2020-05-11T16:13:56Z</time>
      </trkpt>
      <trkpt lat="47.05429" lon="-1.72005">
        <ele>13.92</ele>
        <time>2020-05-11T16:13:58Z</time>
      </trkpt>
      <trkpt lat="47.05425" lon="-1.71985">
        <ele>12.38</ele>
        <time>2020-05-11T16:14:00Z</time>
      </trkpt>
      <trkpt lat="47.05421" lon="-1.71965">
        <ele>11.56</ele>
        <time>2020-05-11T16:14:02Z</time>
      </trkpt>
      <trkpt lat="47.05416" lon="-1.71946">
        <ele>11.19</ele>
        <time>2020-05-11T16:14:04Z</time>
      </trkpt>
      <trkpt lat="47.05412" lon="-1.71929">
        <ele>10.8</ele>
        <time>2020-05-11T16:14:06Z</time>
      </trkpt>
      <trkpt lat="47.05409" lon="-1.71916">
        <ele>11.17</ele>
        <time>2020-05-11T16:14:08Z</time>
      </trkpt>
      <trkpt lat="47.05405" lon="-1.71897">
        <ele>11.68</ele>
        <time>2020-05-11T16:14:10Z</time>
      </trkpt>
      <trkpt lat="47.05403" lon="-1.7188">
        <ele>12.61</ele>
        <time>2020-05-11T16:14:12Z</time>
      </trkpt>
      <trkpt lat="47.05401" lon="-1.7186">
        <ele>12.82</ele>
        <time>2020-05-11T16:14:14Z</time>
      </trkpt>
      <trkpt lat="47.05396" lon="-1.7184">
        <ele>13.04</ele>
        <time>2020-05-11T16:14:16Z</time>
      </trkpt>
      <trkpt lat="47.05392" lon="-1.71825">
        <ele>13.15</ele>
        <time>2020-05-11T16:14:18Z</time>
      </trkpt>
      <trkpt lat="47.05388" lon="-1.71805">
        <ele>12.56</ele>
        <time>2020-05-11T16:14:20Z</time>
      </trkpt>
      <trkpt lat="47.05385" lon="-1.71786">
        <ele>11.3</ele>
        <time>2020-05-11T16:14:22Z</time>
      </trkpt>
      <trkpt lat="47.05384" lon="-1.7177">
        <ele>10.31</ele>
        <time>2020-05-11T16:14:24Z</time>
      </trkpt>
      <trkpt lat="47.05386" lon="-1.71751">
        <ele>10.78</ele>
        <time>2020-05-11T16:14:26Z</time>
      </trkpt>
      <trkpt lat="47.05387" lon="-1.71733">
        <ele>11.58</ele>
        <time>2020-05-11T16:14:28Z</time>
      </trkpt>
      <trkpt lat="47.05387" lon="-1.71716">
        <ele>11.12</ele>
        <time>2020-05-11T16:14:30Z</time>
      </trkpt>
      <trkpt lat="47.05389" lon="-1.71695">
        <ele>10.42</ele>
        <time>2020-05-11T16:14:32Z</time>
      </trkpt>
      <trkpt lat="47.05391" lon="-1.71675">
        <ele>10</ele>
        <time>2020-05-11T16:14:34Z</time>
      </trkpt>
      <trkpt lat="47.05393" lon="-1.71657">
        <ele>10.53</ele>
        <time>2020-05-11T16:14:36Z</time>
      </trkpt>
      <trkpt lat="47.05395" lon="-1.71637">
        <ele>10.99</ele>
        <time>2020-05-11T16:14:38Z</time>
      </trkpt>
      <trkpt lat="47.05396" lon="-1.71619">
        <ele>10.22</ele>
        <time>2020-05-11T16:14:40Z</time>
      </trkpt>
      <trkpt lat="47.05398" lon="-1.71599">
        <ele>9.95</ele>
        <time>2020-05-11T16:14:42Z</time>
      </trkpt>
      <trkpt lat="47.054" lon="-1.71578">
        <ele>10.05</ele>
        <time>2020-05-11T16:14:44Z</time>
      </trkpt>
      <trkpt lat="47.05401" lon="-1.71561">
        <ele>10.06</ele>
        <time>2020-05-11T16:14:46Z</time>
      </trkpt>
      <trkpt lat="47.05403" lon="-1.71543">
        <ele>10.79</ele>
        <time>2020-05-11T16:14:48Z</time>
      </trkpt>
      <trkpt lat="47.05404" lon="-1.71524">
        <ele>10.98</ele>
        <time>2020-05-11T16:14:50Z</time>
      </trkpt>
      <trkpt lat="47.05405" lon="-1.71507">
        <ele>10.77</ele>
        <time>2020-05-11T16:14:52Z</time>
      </trkpt>
      <trkpt lat="47.05407" lon="-1.7149">
        <ele>10.46</ele>
        <time>2020-05-11T16:14:54Z</time>
      </trkpt>
      <trkpt lat="47.05409" lon="-1.71474">
        <ele>10.35</ele>
        <time>2020-05-11T16:14:56Z</time>
      </trkpt>
      <trkpt lat="47.0541" lon="-1.71457">
        <ele>10.5</ele>
        <time>2020-05-11T16:14:58Z</time>
      </trkpt>
      <trkpt lat="47.05411" lon="-1.7144">
        <ele>10.58</ele>
        <time>2020-05-11T16:15:00Z</time>
      </trkpt>
      <trkpt lat="47.0541" lon="-1.71423">
        <ele>10.57</ele>
        <time>2020-05-11T16:15:02Z</time>
      </trkpt>
      <trkpt lat="47.05409" lon="-1.71407">
        <ele>10.52</ele>
        <time>2020-05-11T16:15:04Z</time>
      </trkpt>
      <trkpt lat="47.05406" lon="-1.7139">
        <ele>10.77</ele>
        <time>2020-05-11T16:15:06Z</time>
      </trkpt>
      <trkpt lat="47.05405" lon="-1.71375">
        <ele>11.91</ele>
        <time>2020-05-11T16:15:08Z</time>
      </trkpt>
      <trkpt lat="47.05404" lon="-1.71356">
        <ele>12.65</ele>
        <time>2020-05-11T16:15:10Z</time>
      </trkpt>
      <trkpt lat="47.05402" lon="-1.71336">
        <ele>12.93</ele>
        <time>2020-05-11T16:15:12Z</time>
      </trkpt>
      <trkpt lat="47.054" lon="-1.71319">
        <ele>12.39</ele>
        <time>2020-05-11T16:15:14Z</time>
      </trkpt>
      <trkpt lat="47.05397" lon="-1.71302">
        <ele>12.32</ele>
        <time>2020-05-11T16:15:16Z</time>
      </trkpt>
      <trkpt lat="47.05395" lon="-1.71284">
        <ele>11.51</ele>
        <time>2020-05-11T16:15:18Z</time>
      </trkpt>
      <trkpt lat="47.05392" lon="-1.71264">
        <ele>10.98</ele>
        <time>2020-05-11T16:15:20Z</time>
      </trkpt>
      <trkpt lat="47.05391" lon="-1.71249">
        <ele>10.42</ele>
        <time>2020-05-11T16:15:22Z</time>
      </trkpt>
      <trkpt lat="47.05391" lon="-1.71232">
        <ele>10.17</ele>
        <time>2020-05-11T16:15:24Z</time>
      </trkpt>
      <trkpt lat="47.0539" lon="-1.71215">
        <ele>10.12</ele>
        <time>2020-05-11T16:15:26Z</time>
      </trkpt>
      <trkpt lat="47.0539" lon="-1.71199">
        <ele>9.91</ele>
        <time>2020-05-11T16:15:28Z</time>
      </trkpt>
      <trkpt lat="47.05391" lon="-1.71182">
        <ele>11.32</ele>
        <time>2020-05-11T16:15:30Z</time>
      </trkpt>
      <trkpt lat="47.05393" lon="-1.71165">
        <ele>12</ele>
        <time>2020-05-11T16:15:32Z</time>
      </trkpt>
      <trkpt lat="47.05395" lon="-1.71147">
        <ele>11.4</ele>
        <time>2020-05-11T16:15:34Z</time>
      </trkpt>
      <trkpt lat="47.05397" lon="-1.71129">
        <ele>11.01</ele>
        <time>2020-05-11T16:15:36Z</time>
      </trkpt>
      <trkpt lat="47.05398" lon="-1.71113">
        <ele>11.42</ele>
        <time>2020-05-11T16:15:38Z</time>
      </trkpt>
      <trkpt lat="47.054" lon="-1.71097">
        <ele>11.52</ele>
        <time>2020-05-11T16:15:40Z</time>
      </trkpt>
      <trkpt lat="47.05401" lon="-1.71078">
        <ele>11.14</ele>
        <time>2020-05-11T16:15:42Z</time>
      </trkpt>
      <trkpt lat="47.05402" lon="-1.71062">
        <ele>11.79</ele>
        <time>2020-05-11T16:15:44Z</time>
      </trkpt>
      <trkpt lat="47.05403" lon="-1.71044">
        <ele>12.64</ele>
        <time>2020-05-11T16:15:46Z</time>
      </trkpt>
      <trkpt lat="47.05405" lon="-1.71026">
        <ele>13.28</ele>
        <time>2020-05-11T16:15:48Z</time>
      </trkpt>
      <trkpt lat="47.05408" lon="-1.71009">
        <ele>12.01</ele>
        <time>2020-05-11T16:15:50Z</time>
      </trkpt>
      <trkpt lat="47.0541" lon="-1.70991">
        <ele>10.55</ele>
        <time>2020-05-11T16:15:52Z</time>
      </trkpt>
      <trkpt lat="47.05412" lon="-1.70973">
        <ele>10.4</ele>
        <time>2020-05-11T16:15:54Z</time>
      </trkpt>
      <trkpt lat="47.05415" lon="-1.70949">
        <ele>9.74</ele>
        <time>2020-05-11T16:15:56Z</time>
      </trkpt>
      <trkpt lat="47.05417" lon="-1.7093">
        <ele>8.67</ele>
        <time>2020-05-11T16:15:58Z</time>
      </trkpt>
      <trkpt lat="47.05419" lon="-1.70909">
        <ele>8.35</ele>
        <time>2020-05-11T16:16:00Z</time>
      </trkpt>
      <trkpt lat="47.05417" lon="-1.70887">
        <ele>8</ele>
        <time>2020-05-11T16:16:02Z</time>
      </trkpt>
      <trkpt lat="47.05416" lon="-1.70868">
        <ele>7.77</ele>
        <time>2020-05-11T16:16:04Z</time>
      </trkpt>
      <trkpt lat="47.05414" lon="-1.70851">
        <ele>8.74</ele>
        <time>2020-05-11T16:16:06Z</time>
      </trkpt>
      <trkpt lat="47.05411" lon="-1.70829">
        <ele>10.19</ele>
        <time>2020-05-11T16:16:08Z</time>
      </trkpt>
      <trkpt lat="47.05408" lon="-1.70811">
        <ele>10.03</ele>
        <time>2020-05-11T16:16:10Z</time>
      </trkpt>
      <trkpt lat="47.05405" lon="-1.70791">
        <ele>9.32</ele>
        <time>2020-05-11T16:16:12Z</time>
      </trkpt>
      <trkpt lat="47.05401" lon="-1.70772">
        <ele>9.28</ele>
        <time>2020-05-11T16:16:14Z</time>
      </trkpt>
      <trkpt lat="47.05398" lon="-1.70756">
        <ele>8.78</ele>
        <time>2020-05-11T16:16:16Z</time>
      </trkpt>
      <trkpt lat="47.05394" lon="-1.70737">
        <ele>8.02</ele>
        <time>2020-05-11T16:16:18Z</time>
      </trkpt>
      <trkpt lat="47.05391" lon="-1.7072">
        <ele>7.61</ele>
        <time>2020-05-11T16:16:20Z</time>
      </trkpt>
      <trkpt lat="47.05389" lon="-1.70705">
        <ele>8.32</ele>
        <time>2020-05-11T16:16:22Z</time>
      </trkpt>
      <trkpt lat="47.05386" lon="-1.70686">
        <ele>8.95</ele>
        <time>2020-05-11T16:16:24Z</time>
      </trkpt>
      <trkpt lat="47.05384" lon="-1.70668">
        <ele>10.51</ele>
        <time>2020-05-11T16:16:26Z</time>
      </trkpt>
      <trkpt lat="47.05381" lon="-1.70651">
        <ele>10.25</ele>
        <time>2020-05-11T16:16:28Z</time>
      </trkpt>
      <trkpt lat="47.05378" lon="-1.70633">
        <ele>10.07</ele>
        <time>2020-05-11T16:16:30Z</time>
      </trkpt>
      <trkpt lat="47.05375" lon="-1.70614">
        <ele>10.1</ele>
        <time>2020-05-11T16:16:32Z</time>
      </trkpt>
      <trkpt lat="47.05372" lon="-1.70597">
        <ele>10.11</ele>
        <time>2020-05-11T16:16:34Z</time>
      </trkpt>
      <trkpt lat="47.0537" lon="-1.70579">
        <ele>10.51</ele>
        <time>2020-05-11T16:16:36Z</time>
      </trkpt>
      <trkpt lat="47.05367" lon="-1.70558">
        <ele>9.98</ele>
        <time>2020-05-11T16:16:38Z</time>
      </trkpt>
      <trkpt lat="47.05365" lon="-1.70542">
        <ele>9.44</ele>
        <time>2020-05-11T16:16:40Z</time>
      </trkpt>
      <trkpt lat="47.05362" lon="-1.70525">
        <ele>10.02</ele>
        <time>2020-05-11T16:16:42Z</time>
      </trkpt>
      <trkpt lat="47.05359" lon="-1.70506">
        <ele>9.71</ele>
        <time>2020-05-11T16:16:44Z</time>
      </trkpt>
      <trkpt lat="47.05356" lon="-1.70489">
        <ele>10.33</ele>
        <time>2020-05-11T16:16:46Z</time>
      </trkpt>
      <trkpt lat="47.05352" lon="-1.70471">
        <ele>10.46</ele>
        <time>2020-05-11T16:16:48Z</time>
      </trkpt>
      <trkpt lat="47.05349" lon="-1.70453">
        <ele>10.05</ele>
        <time>2020-05-11T16:16:50Z</time>
      </trkpt>
      <trkpt lat="47.05346" lon="-1.70438">
        <ele>9.88</ele>
        <time>2020-05-11T16:16:52Z</time>
      </trkpt>
      <trkpt lat="47.05343" lon="-1.7042">
        <ele>9.45</ele>
        <time>2020-05-11T16:16:54Z</time>
      </trkpt>
      <trkpt lat="47.05338" lon="-1.70402">
        <ele>9.64</ele>
        <time>2020-05-11T16:16:56Z</time>
      </trkpt>
      <trkpt lat="47.05333" lon="-1.70384">
        <ele>8.83</ele>
        <time>2020-05-11T16:16:58Z</time>
      </trkpt>
      <trkpt lat="47.05327" lon="-1.70367">
        <ele>7.43</ele>
        <time>2020-05-11T16:17:00Z</time>
      </trkpt>
      <trkpt lat="47.05323" lon="-1.70353">
        <ele>7.76</ele>
        <time>2020-05-11T16:17:02Z</time>
      </trkpt>
      <trkpt lat="47.05316" lon="-1.70337">
        <ele>8.62</ele>
        <time>2020-05-11T16:17:04Z</time>
      </trkpt>
      <trkpt lat="47.0531" lon="-1.70321">
        <ele>8.3</ele>
        <time>2020-05-11T16:17:06Z</time>
      </trkpt>
      <trkpt lat="47.05304" lon="-1.70304">
        <ele>8.65</ele>
        <time>2020-05-11T16:17:08Z</time>
      </trkpt>
      <trkpt lat="47.05297" lon="-1.70288">
        <ele>8.72</ele>
        <time>2020-05-11T16:17:10Z</time>
      </trkpt>
      <trkpt lat="47.05291" lon="-1.70272">
        <ele>8.18</ele>
        <time>2020-05-11T16:17:12Z</time>
      </trkpt>
      <trkpt lat="47.05285" lon="-1.70256">
        <ele>7.45</ele>
        <time>2020-05-11T16:17:14Z</time>
      </trkpt>
      <trkpt lat="47.05278" lon="-1.70237">
        <ele>6.61</ele>
        <time>2020-05-11T16:17:16Z</time>
      </trkpt>
      <trkpt lat="47.05272" lon="-1.70221">
        <ele>6.35</ele>
        <time>2020-05-11T16:17:18Z</time>
      </trkpt>
      <trkpt lat="47.05265" lon="-1.70205">
        <ele>6.19</ele>
        <time>2020-05-11T16:17:20Z</time>
      </trkpt>
      <trkpt lat="47.05257" lon="-1.70185">
        <ele>6.08</ele>
        <time>2020-05-11T16:17:22Z</time>
      </trkpt>
      <trkpt lat="47.05251" lon="-1.70169">
        <ele>5.4</ele>
        <time>2020-05-11T16:17:24Z</time>
      </trkpt>
      <trkpt lat="47.05245" lon="-1.70153">
        <ele>5.1</ele>
        <time>2020-05-11T16:17:26Z</time>
      </trkpt>
      <trkpt lat="47.05238" lon="-1.70134">
        <ele>4.62</ele>
        <time>2020-05-11T16:17:28Z</time>
      </trkpt>
      <trkpt lat="47.05232" lon="-1.70116">
        <ele>3.72</ele>
        <time>2020-05-11T16:17:30Z</time>
      </trkpt>
      <trkpt lat="47.05225" lon="-1.70098">
        <ele>3.34</ele>
        <time>2020-05-11T16:17:32Z</time>
      </trkpt>
      <trkpt lat="47.05219" lon="-1.70081">
        <ele>3.95</ele>
        <time>2020-05-11T16:17:34Z</time>
      </trkpt>
      <trkpt lat="47.05213" lon="-1.70062">
        <ele>3.88</ele>
        <time>2020-05-11T16:17:36Z</time>
      </trkpt>
      <trkpt lat="47.05208" lon="-1.70047">
        <ele>4.06</ele>
        <time>2020-05-11T16:17:38Z</time>
      </trkpt>
      <trkpt lat="47.05201" lon="-1.70029">
        <ele>4.49</ele>
        <time>2020-05-11T16:17:40Z</time>
      </trkpt>
      <trkpt lat="47.05194" lon="-1.70011">
        <ele>3.91</ele>
        <time>2020-05-11T16:17:42Z</time>
      </trkpt>
      <trkpt lat="47.05188" lon="-1.69996">
        <ele>3.13</ele>
        <time>2020-05-11T16:17:44Z</time>
      </trkpt>
      <trkpt lat="47.05182" lon="-1.6998">
        <ele>3</ele>
        <time>2020-05-11T16:17:46Z</time>
      </trkpt>
      <trkpt lat="47.05175" lon="-1.69963">
        <ele>3.4</ele>
        <time>2020-05-11T16:17:48Z</time>
      </trkpt>
      <trkpt lat="47.05168" lon="-1.69946">
        <ele>3.64</ele>
        <time>2020-05-11T16:17:50Z</time>
      </trkpt>
      <trkpt lat="47.05163" lon="-1.69932">
        <ele>3.28</ele>
        <time>2020-05-11T16:17:52Z</time>
      </trkpt>
      <trkpt lat="47.05159" lon="-1.69919">
        <ele>2.05</ele>
        <time>2020-05-11T16:17:54Z</time>
      </trkpt>
      <trkpt lat="47.05157" lon="-1.69902">
        <ele>1.78</ele>
        <time>2020-05-11T16:17:56Z</time>
      </trkpt>
      <trkpt lat="47.05156" lon="-1.69884">
        <ele>1.92</ele>
        <time>2020-05-11T16:17:58Z</time>
      </trkpt>
      <trkpt lat="47.05154" lon="-1.69864">
        <ele>0.98</ele>
        <time>2020-05-11T16:18:00Z</time>
      </trkpt>
      <trkpt lat="47.05151" lon="-1.69849">
        <ele>-0.17</ele>
        <time>2020-05-11T16:18:02Z</time>
      </trkpt>
      <trkpt lat="47.05145" lon="-1.69832">
        <ele>-0.01</ele>
        <time>2020-05-11T16:18:04Z</time>
      </trkpt>
      <trkpt lat="47.05138" lon="-1.69815">
        <ele>0.4</ele>
        <time>2020-05-11T16:18:06Z</time>
      </trkpt>
      <trkpt lat="47.0513" lon="-1.698">
        <ele>1.01</ele>
        <time>2020-05-11T16:18:08Z</time>
      </trkpt>
      <trkpt lat="47.05122" lon="-1.69789">
        <ele>1.77</ele>
        <time>2020-05-11T16:18:10Z</time>
      </trkpt>
      <trkpt lat="47.05114" lon="-1.69777">
        <ele>3.19</ele>
        <time>2020-05-11T16:18:12Z</time>
      </trkpt>
      <trkpt lat="47.05104" lon="-1.69766">
        <ele>2.8</ele>
        <time>2020-05-11T16:18:14Z</time>
      </trkpt>
      <trkpt lat="47.05096" lon="-1.69757">
        <ele>2.75</ele>
        <time>2020-05-11T16:18:15Z</time>
      </trkpt>
      <trkpt lat="47.05085" lon="-1.69745">
        <ele>3.67</ele>
        <time>2020-05-11T16:18:17Z</time>
      </trkpt>
      <trkpt lat="47.05073" lon="-1.69731">
        <ele>4.7</ele>
        <time>2020-05-11T16:18:19Z</time>
      </trkpt>
      <trkpt lat="47.05065" lon="-1.69722">
        <ele>5.27</ele>
        <time>2020-05-11T16:18:21Z</time>
      </trkpt>
      <trkpt lat="47.05055" lon="-1.69712">
        <ele>5.76</ele>
        <time>2020-05-11T16:18:23Z</time>
      </trkpt>
      <trkpt lat="47.05046" lon="-1.697">
        <ele>7.09</ele>
        <time>2020-05-11T16:18:25Z</time>
      </trkpt>
      <trkpt lat="47.05039" lon="-1.69688">
        <ele>8.95</ele>
        <time>2020-05-11T16:18:27Z</time>
      </trkpt>
      <trkpt lat="47.05032" lon="-1.69676">
        <ele>10.82</ele>
        <time>2020-05-11T16:18:29Z</time>
      </trkpt>
      <trkpt lat="47.05024" lon="-1.69662">
        <ele>13.14</ele>
        <time>2020-05-11T16:18:31Z</time>
      </trkpt>
      <trkpt lat="47.05014" lon="-1.69652">
        <ele>15.46</ele>
        <time>2020-05-11T16:18:33Z</time>
      </trkpt>
      <trkpt lat="47.05004" lon="-1.6964">
        <ele>16.24</ele>
        <time>2020-05-11T16:18:35Z</time>
      </trkpt>
      <trkpt lat="47.04997" lon="-1.69626">
        <ele>15.21</ele>
        <time>2020-05-11T16:18:37Z</time>
      </trkpt>
      <trkpt lat="47.04991" lon="-1.6961">
        <ele>14.38</ele>
        <time>2020-05-11T16:18:39Z</time>
      </trkpt>
      <trkpt lat="47.04987" lon="-1.69597">
        <ele>13.88</ele>
        <time>2020-05-11T16:18:41Z</time>
      </trkpt>
      <trkpt lat="47.04984" lon="-1.69584">
        <ele>13.43</ele>
        <time>2020-05-11T16:18:43Z</time>
      </trkpt>
      <trkpt lat="47.0498" lon="-1.69568">
        <ele>12.72</ele>
        <time>2020-05-11T16:18:45Z</time>
      </trkpt>
      <trkpt lat="47.04975" lon="-1.6955">
        <ele>10.04</ele>
        <time>2020-05-11T16:18:47Z</time>
      </trkpt>
      <trkpt lat="47.04971" lon="-1.69534">
        <ele>7.84</ele>
        <time>2020-05-11T16:18:49Z</time>
      </trkpt>
      <trkpt lat="47.04967" lon="-1.69519">
        <ele>6.19</ele>
        <time>2020-05-11T16:18:51Z</time>
      </trkpt>
      <trkpt lat="47.04963" lon="-1.69505">
        <ele>4.24</ele>
        <time>2020-05-11T16:18:53Z</time>
      </trkpt>
      <trkpt lat="47.04957" lon="-1.69488">
        <ele>2.26</ele>
        <time>2020-05-11T16:18:55Z</time>
      </trkpt>
      <trkpt lat="47.04952" lon="-1.69471">
        <ele>1.88</ele>
        <time>2020-05-11T16:18:57Z</time>
      </trkpt>
      <trkpt lat="47.04949" lon="-1.69457">
        <ele>2.28</ele>
        <time>2020-05-11T16:18:59Z</time>
      </trkpt>
      <trkpt lat="47.04944" lon="-1.69441">
        <ele>2.98</ele>
        <time>2020-05-11T16:19:01Z</time>
      </trkpt>
      <trkpt lat="47.0494" lon="-1.69426">
        <ele>2.95</ele>
        <time>2020-05-11T16:19:03Z</time>
      </trkpt>
      <trkpt lat="47.04935" lon="-1.69408">
        <ele>3.15</ele>
        <time>2020-05-11T16:19:05Z</time>
      </trkpt>
      <trkpt lat="47.0493" lon="-1.69391">
        <ele>3.39</ele>
        <time>2020-05-11T16:19:07Z</time>
      </trkpt>
      <trkpt lat="47.04925" lon="-1.69375">
        <ele>3.46</ele>
        <time>2020-05-11T16:19:09Z</time>
      </trkpt>
      <trkpt lat="47.04921" lon="-1.69358">
        <ele>2.66</ele>
        <time>2020-05-11T16:19:11Z</time>
      </trkpt>
      <trkpt lat="47.04917" lon="-1.69341">
        <ele>1.93</ele>
        <time>2020-05-11T16:19:13Z</time>
      </trkpt>
      <trkpt lat="47.04912" lon="-1.69322">
        <ele>1.5</ele>
        <time>2020-05-11T16:19:15Z</time>
      </trkpt>
      <trkpt lat="47.04908" lon="-1.69309">
        <ele>1.95</ele>
        <time>2020-05-11T16:19:17Z</time>
      </trkpt>
      <trkpt lat="47.04905" lon="-1.69293">
        <ele>1.89</ele>
        <time>2020-05-11T16:19:19Z</time>
      </trkpt>
      <trkpt lat="47.04901" lon="-1.69275">
        <ele>1.75</ele>
        <time>2020-05-11T16:19:21Z</time>
      </trkpt>
      <trkpt lat="47.04898" lon="-1.69261">
        <ele>1.61</ele>
        <time>2020-05-11T16:19:23Z</time>
      </trkpt>
      <trkpt lat="47.04894" lon="-1.69245">
        <ele>2.58</ele>
        <time>2020-05-11T16:19:25Z</time>
      </trkpt>
      <trkpt lat="47.0489" lon="-1.6923">
        <ele>2.92</ele>
        <time>2020-05-11T16:19:27Z</time>
      </trkpt>
      <trkpt lat="47.04886" lon="-1.69217">
        <ele>3.47</ele>
        <time>2020-05-11T16:19:29Z</time>
      </trkpt>
      <trkpt lat="47.04883" lon="-1.69204">
        <ele>3.58</ele>
        <time>2020-05-11T16:19:31Z</time>
      </trkpt>
      <trkpt lat="47.04878" lon="-1.69187">
        <ele>3.47</ele>
        <time>2020-05-11T16:19:33Z</time>
      </trkpt>
      <trkpt lat="47.04875" lon="-1.69171">
        <ele>2.34</ele>
        <time>2020-05-11T16:19:35Z</time>
      </trkpt>
      <trkpt lat="47.04871" lon="-1.69156">
        <ele>2.34</ele>
        <time>2020-05-11T16:19:37Z</time>
      </trkpt>
      <trkpt lat="47.04867" lon="-1.69142">
        <ele>2.09</ele>
        <time>2020-05-11T16:19:39Z</time>
      </trkpt>
      <trkpt lat="47.04863" lon="-1.69124">
        <ele>2.92</ele>
        <time>2020-05-11T16:19:42Z</time>
      </trkpt>
      <trkpt lat="47.04858" lon="-1.69108">
        <ele>2.99</ele>
        <time>2020-05-11T16:19:44Z</time>
      </trkpt>
      <trkpt lat="47.04854" lon="-1.69094">
        <ele>2.33</ele>
        <time>2020-05-11T16:19:46Z</time>
      </trkpt>
      <trkpt lat="47.04851" lon="-1.6908">
        <ele>2.18</ele>
        <time>2020-05-11T16:19:48Z</time>
      </trkpt>
      <trkpt lat="47.04847" lon="-1.69065">
        <ele>2.74</ele>
        <time>2020-05-11T16:19:50Z</time>
      </trkpt>
      <trkpt lat="47.04841" lon="-1.69046">
        <ele>3.11</ele>
        <time>2020-05-11T16:19:53Z</time>
      </trkpt>
      <trkpt lat="47.04837" lon="-1.69029">
        <ele>3.81</ele>
        <time>2020-05-11T16:19:55Z</time>
      </trkpt>
      <trkpt lat="47.04834" lon="-1.69015">
        <ele>4.55</ele>
        <time>2020-05-11T16:19:57Z</time>
      </trkpt>
      <trkpt lat="47.04829" lon="-1.68997">
        <ele>4.18</ele>
        <time>2020-05-11T16:19:59Z</time>
      </trkpt>
      <trkpt lat="47.04825" lon="-1.68982">
        <ele>3.31</ele>
        <time>2020-05-11T16:20:01Z</time>
      </trkpt>
      <trkpt lat="47.0482" lon="-1.68963">
        <ele>2.82</ele>
        <time>2020-05-11T16:20:03Z</time>
      </trkpt>
      <trkpt lat="47.04816" lon="-1.68948">
        <ele>2.87</ele>
        <time>2020-05-11T16:20:05Z</time>
      </trkpt>
      <trkpt lat="47.04812" lon="-1.68934">
        <ele>3.19</ele>
        <time>2020-05-11T16:20:07Z</time>
      </trkpt>
      <trkpt lat="47.04807" lon="-1.68916">
        <ele>4.2</ele>
        <time>2020-05-11T16:20:09Z</time>
      </trkpt>
      <trkpt lat="47.04803" lon="-1.68899">
        <ele>5.03</ele>
        <time>2020-05-11T16:20:11Z</time>
      </trkpt>
      <trkpt lat="47.04798" lon="-1.68882">
        <ele>5.79</ele>
        <time>2020-05-11T16:20:13Z</time>
      </trkpt>
      <trkpt lat="47.04793" lon="-1.68866">
        <ele>5.31</ele>
        <time>2020-05-11T16:20:15Z</time>
      </trkpt>
      <trkpt lat="47.04789" lon="-1.68849">
        <ele>4.85</ele>
        <time>2020-05-11T16:20:17Z</time>
      </trkpt>
      <trkpt lat="47.04785" lon="-1.68833">
        <ele>5.34</ele>
        <time>2020-05-11T16:20:19Z</time>
      </trkpt>
      <trkpt lat="47.04781" lon="-1.68814">
        <ele>5.45</ele>
        <time>2020-05-11T16:20:21Z</time>
      </trkpt>
      <trkpt lat="47.04776" lon="-1.68799">
        <ele>5.48</ele>
        <time>2020-05-11T16:20:23Z</time>
      </trkpt>
      <trkpt lat="47.04773" lon="-1.68785">
        <ele>5.69</ele>
        <time>2020-05-11T16:20:25Z</time>
      </trkpt>
      <trkpt lat="47.04769" lon="-1.68769">
        <ele>5.93</ele>
        <time>2020-05-11T16:20:27Z</time>
      </trkpt>
      <trkpt lat="47.04764" lon="-1.68751">
        <ele>5.38</ele>
        <time>2020-05-11T16:20:29Z</time>
      </trkpt>
      <trkpt lat="47.04761" lon="-1.68737">
        <ele>5.73</ele>
        <time>2020-05-11T16:20:31Z</time>
      </trkpt>
      <trkpt lat="47.04757" lon="-1.68722">
        <ele>5.66</ele>
        <time>2020-05-11T16:20:33Z</time>
      </trkpt>
      <trkpt lat="47.04753" lon="-1.68707">
        <ele>6.45</ele>
        <time>2020-05-11T16:20:35Z</time>
      </trkpt>
      <trkpt lat="47.04749" lon="-1.68691">
        <ele>6.69</ele>
        <time>2020-05-11T16:20:37Z</time>
      </trkpt>
      <trkpt lat="47.04744" lon="-1.68674">
        <ele>7.74</ele>
        <time>2020-05-11T16:20:39Z</time>
      </trkpt>
      <trkpt lat="47.0474" lon="-1.68659">
        <ele>8.02</ele>
        <time>2020-05-11T16:20:41Z</time>
      </trkpt>
      <trkpt lat="47.04736" lon="-1.68643">
        <ele>7.99</ele>
        <time>2020-05-11T16:20:43Z</time>
      </trkpt>
      <trkpt lat="47.04731" lon="-1.68623">
        <ele>7.14</ele>
        <time>2020-05-11T16:20:45Z</time>
      </trkpt>
      <trkpt lat="47.04728" lon="-1.68609">
        <ele>6.33</ele>
        <time>2020-05-11T16:20:47Z</time>
      </trkpt>
      <trkpt lat="47.04724" lon="-1.68593">
        <ele>6.07</ele>
        <time>2020-05-11T16:20:49Z</time>
      </trkpt>
      <trkpt lat="47.04719" lon="-1.68576">
        <ele>5.52</ele>
        <time>2020-05-11T16:20:51Z</time>
      </trkpt>
      <trkpt lat="47.04715" lon="-1.6856">
        <ele>4.75</ele>
        <time>2020-05-11T16:20:53Z</time>
      </trkpt>
      <trkpt lat="47.04711" lon="-1.68544">
        <ele>4.59</ele>
        <time>2020-05-11T16:20:55Z</time>
      </trkpt>
      <trkpt lat="47.04708" lon="-1.68529">
        <ele>4.32</ele>
        <time>2020-05-11T16:20:57Z</time>
      </trkpt>
      <trkpt lat="47.04703" lon="-1.68513">
        <ele>4.2</ele>
        <time>2020-05-11T16:20:59Z</time>
      </trkpt>
      <trkpt lat="47.047" lon="-1.68497">
        <ele>5.51</ele>
        <time>2020-05-11T16:21:01Z</time>
      </trkpt>
      <trkpt lat="47.04695" lon="-1.68478">
        <ele>5.53</ele>
        <time>2020-05-11T16:21:03Z</time>
      </trkpt>
      <trkpt lat="47.04691" lon="-1.68463">
        <ele>5.08</ele>
        <time>2020-05-11T16:21:05Z</time>
      </trkpt>
      <trkpt lat="47.04687" lon="-1.68448">
        <ele>4.77</ele>
        <time>2020-05-11T16:21:07Z</time>
      </trkpt>
      <trkpt lat="47.04683" lon="-1.68433">
        <ele>5.42</ele>
        <time>2020-05-11T16:21:09Z</time>
      </trkpt>
      <trkpt lat="47.04678" lon="-1.68415">
        <ele>5.29</ele>
        <time>2020-05-11T16:21:11Z</time>
      </trkpt>
      <trkpt lat="47.04674" lon="-1.684">
        <ele>5.5</ele>
        <time>2020-05-11T16:21:13Z</time>
      </trkpt>
      <trkpt lat="47.04668" lon="-1.68382">
        <ele>5.71</ele>
        <time>2020-05-11T16:21:15Z</time>
      </trkpt>
      <trkpt lat="47.04663" lon="-1.68365">
        <ele>6.7</ele>
        <time>2020-05-11T16:21:17Z</time>
      </trkpt>
      <trkpt lat="47.0466" lon="-1.68348">
        <ele>7.38</ele>
        <time>2020-05-11T16:21:19Z</time>
      </trkpt>
      <trkpt lat="47.04655" lon="-1.6833">
        <ele>7.64</ele>
        <time>2020-05-11T16:21:21Z</time>
      </trkpt>
      <trkpt lat="47.04651" lon="-1.68313">
        <ele>7.87</ele>
        <time>2020-05-11T16:21:23Z</time>
      </trkpt>
      <trkpt lat="47.04646" lon="-1.68296">
        <ele>7.78</ele>
        <time>2020-05-11T16:21:25Z</time>
      </trkpt>
      <trkpt lat="47.04642" lon="-1.68279">
        <ele>7.81</ele>
        <time>2020-05-11T16:21:27Z</time>
      </trkpt>
      <trkpt lat="47.04637" lon="-1.6826">
        <ele>7.98</ele>
        <time>2020-05-11T16:21:29Z</time>
      </trkpt>
      <trkpt lat="47.04633" lon="-1.68244">
        <ele>7.89</ele>
        <time>2020-05-11T16:21:31Z</time>
      </trkpt>
      <trkpt lat="47.04628" lon="-1.68227">
        <ele>8.22</ele>
        <time>2020-05-11T16:21:33Z</time>
      </trkpt>
      <trkpt lat="47.04623" lon="-1.68207">
        <ele>8.01</ele>
        <time>2020-05-11T16:21:35Z</time>
      </trkpt>
      <trkpt lat="47.04619" lon="-1.6819">
        <ele>7.43</ele>
        <time>2020-05-11T16:21:37Z</time>
      </trkpt>
      <trkpt lat="47.04615" lon="-1.68172">
        <ele>7.42</ele>
        <time>2020-05-11T16:21:39Z</time>
      </trkpt>
      <trkpt lat="47.0461" lon="-1.68152">
        <ele>6.92</ele>
        <time>2020-05-11T16:21:41Z</time>
      </trkpt>
      <trkpt lat="47.04605" lon="-1.68133">
        <ele>6.34</ele>
        <time>2020-05-11T16:21:43Z</time>
      </trkpt>
      <trkpt lat="47.046" lon="-1.68115">
        <ele>5.92</ele>
        <time>2020-05-11T16:21:45Z</time>
      </trkpt>
      <trkpt lat="47.04596" lon="-1.68096">
        <ele>5.36</ele>
        <time>2020-05-11T16:21:47Z</time>
      </trkpt>
      <trkpt lat="47.04592" lon="-1.68079">
        <ele>4.48</ele>
        <time>2020-05-11T16:21:49Z</time>
      </trkpt>
      <trkpt lat="47.04587" lon="-1.68061">
        <ele>4.89</ele>
        <time>2020-05-11T16:21:51Z</time>
      </trkpt>
      <trkpt lat="47.04583" lon="-1.68045">
        <ele>5.65</ele>
        <time>2020-05-11T16:21:53Z</time>
      </trkpt>
      <trkpt lat="47.04578" lon="-1.68026">
        <ele>5.74</ele>
        <time>2020-05-11T16:21:55Z</time>
      </trkpt>
      <trkpt lat="47.04574" lon="-1.68009">
        <ele>5.92</ele>
        <time>2020-05-11T16:21:57Z</time>
      </trkpt>
      <trkpt lat="47.0457" lon="-1.67993">
        <ele>6.46</ele>
        <time>2020-05-11T16:21:59Z</time>
      </trkpt>
      <trkpt lat="47.04565" lon="-1.67976">
        <ele>6.24</ele>
        <time>2020-05-11T16:22:01Z</time>
      </trkpt>
      <trkpt lat="47.0456" lon="-1.6796">
        <ele>6.65</ele>
        <time>2020-05-11T16:22:03Z</time>
      </trkpt>
      <trkpt lat="47.04556" lon="-1.67944">
        <ele>8.06</ele>
        <time>2020-05-11T16:22:05Z</time>
      </trkpt>
      <trkpt lat="47.04551" lon="-1.67927">
        <ele>8.46</ele>
        <time>2020-05-11T16:22:07Z</time>
      </trkpt>
      <trkpt lat="47.04547" lon="-1.67912">
        <ele>8.43</ele>
        <time>2020-05-11T16:22:09Z</time>
      </trkpt>
      <trkpt lat="47.04544" lon="-1.67895">
        <ele>7.77</ele>
        <time>2020-05-11T16:22:11Z</time>
      </trkpt>
      <trkpt lat="47.04539" lon="-1.6788">
        <ele>8.37</ele>
        <time>2020-05-11T16:22:13Z</time>
      </trkpt>
      <trkpt lat="47.04535" lon="-1.67863">
        <ele>9.43</ele>
        <time>2020-05-11T16:22:15Z</time>
      </trkpt>
      <trkpt lat="47.04531" lon="-1.67846">
        <ele>10.15</ele>
        <time>2020-05-11T16:22:17Z</time>
      </trkpt>
      <trkpt lat="47.04525" lon="-1.67827">
        <ele>10.13</ele>
        <time>2020-05-11T16:22:19Z</time>
      </trkpt>
      <trkpt lat="47.04521" lon="-1.67812">
        <ele>9.37</ele>
        <time>2020-05-11T16:22:21Z</time>
      </trkpt>
      <trkpt lat="47.04517" lon="-1.67796">
        <ele>8.62</ele>
        <time>2020-05-11T16:22:23Z</time>
      </trkpt>
      <trkpt lat="47.04513" lon="-1.67778">
        <ele>7.95</ele>
        <time>2020-05-11T16:22:25Z</time>
      </trkpt>
      <trkpt lat="47.04509" lon="-1.67765">
        <ele>8.54</ele>
        <time>2020-05-11T16:22:27Z</time>
      </trkpt>
      <trkpt lat="47.04504" lon="-1.67748">
        <ele>8.97</ele>
        <time>2020-05-11T16:22:29Z</time>
      </trkpt>
      <trkpt lat="47.04499" lon="-1.67731">
        <ele>8.85</ele>
        <time>2020-05-11T16:22:31Z</time>
      </trkpt>
      <trkpt lat="47.04495" lon="-1.67712">
        <ele>8.06</ele>
        <time>2020-05-11T16:22:33Z</time>
      </trkpt>
      <trkpt lat="47.04491" lon="-1.67694">
        <ele>7.18</ele>
        <time>2020-05-11T16:22:35Z</time>
      </trkpt>
      <trkpt lat="47.04487" lon="-1.67679">
        <ele>5.85</ele>
        <time>2020-05-11T16:22:37Z</time>
      </trkpt>
      <trkpt lat="47.04482" lon="-1.6766">
        <ele>5.41</ele>
        <time>2020-05-11T16:22:39Z</time>
      </trkpt>
      <trkpt lat="47.04478" lon="-1.67643">
        <ele>5.96</ele>
        <time>2020-05-11T16:22:41Z</time>
      </trkpt>
      <trkpt lat="47.04473" lon="-1.67626">
        <ele>6.38</ele>
        <time>2020-05-11T16:22:43Z</time>
      </trkpt>
      <trkpt lat="47.04468" lon="-1.67608">
        <ele>6.89</ele>
        <time>2020-05-11T16:22:45Z</time>
      </trkpt>
      <trkpt lat="47.04463" lon="-1.6759">
        <ele>6.95</ele>
        <time>2020-05-11T16:22:47Z</time>
      </trkpt>
      <trkpt lat="47.04459" lon="-1.6757">
        <ele>6.54</ele>
        <time>2020-05-11T16:22:49Z</time>
      </trkpt>
      <trkpt lat="47.04454" lon="-1.67553">
        <ele>6.74</ele>
        <time>2020-05-11T16:22:51Z</time>
      </trkpt>
      <trkpt lat="47.04449" lon="-1.67532">
        <ele>7.1</ele>
        <time>2020-05-11T16:22:53Z</time>
      </trkpt>
      <trkpt lat="47.04444" lon="-1.67514">
        <ele>6.43</ele>
        <time>2020-05-11T16:22:55Z</time>
      </trkpt>
      <trkpt lat="47.04439" lon="-1.67495">
        <ele>5.8</ele>
        <time>2020-05-11T16:22:57Z</time>
      </trkpt>
      <trkpt lat="47.04435" lon="-1.67474">
        <ele>4.88</ele>
        <time>2020-05-11T16:22:59Z</time>
      </trkpt>
      <trkpt lat="47.0443" lon="-1.67456">
        <ele>3.28</ele>
        <time>2020-05-11T16:23:01Z</time>
      </trkpt>
      <trkpt lat="47.04426" lon="-1.6744">
        <ele>3.33</ele>
        <time>2020-05-11T16:23:03Z</time>
      </trkpt>
      <trkpt lat="47.0442" lon="-1.67419">
        <ele>3.68</ele>
        <time>2020-05-11T16:23:05Z</time>
      </trkpt>
      <trkpt lat="47.04414" lon="-1.674">
        <ele>5.19</ele>
        <time>2020-05-11T16:23:07Z</time>
      </trkpt>
      <trkpt lat="47.04409" lon="-1.67383">
        <ele>6.54</ele>
        <time>2020-05-11T16:23:09Z</time>
      </trkpt>
      <trkpt lat="47.04404" lon="-1.67366">
        <ele>6.32</ele>
        <time>2020-05-11T16:23:11Z</time>
      </trkpt>
      <trkpt lat="47.04398" lon="-1.67347">
        <ele>5.67</ele>
        <time>2020-05-11T16:23:13Z</time>
      </trkpt>
      <trkpt lat="47.04393" lon="-1.67326">
        <ele>5.49</ele>
        <time>2020-05-11T16:23:15Z</time>
      </trkpt>
      <trkpt lat="47.04389" lon="-1.67308">
        <ele>5.87</ele>
        <time>2020-05-11T16:23:17Z</time>
      </trkpt>
      <trkpt lat="47.04384" lon="-1.67288">
        <ele>6.29</ele>
        <time>2020-05-11T16:23:19Z</time>
      </trkpt>
      <trkpt lat="47.0438" lon="-1.67269">
        <ele>6.09</ele>
        <time>2020-05-11T16:23:21Z</time>
      </trkpt>
      <trkpt lat="47.04376" lon="-1.67251">
        <ele>5.94</ele>
        <time>2020-05-11T16:23:23Z</time>
      </trkpt>
      <trkpt lat="47.04372" lon="-1.67236">
        <ele>5.61</ele>
        <time>2020-05-11T16:23:25Z</time>
      </trkpt>
      <trkpt lat="47.04367" lon="-1.67216">
        <ele>4.55</ele>
        <time>2020-05-11T16:23:27Z</time>
      </trkpt>
      <trkpt lat="47.04363" lon="-1.67199">
        <ele>3.83</ele>
        <time>2020-05-11T16:23:29Z</time>
      </trkpt>
      <trkpt lat="47.04358" lon="-1.67181">
        <ele>4.32</ele>
        <time>2020-05-11T16:23:31Z</time>
      </trkpt>
      <trkpt lat="47.04354" lon="-1.67166">
        <ele>4.8</ele>
        <time>2020-05-11T16:23:33Z</time>
      </trkpt>
      <trkpt lat="47.0435" lon="-1.67148">
        <ele>5.14</ele>
        <time>2020-05-11T16:23:35Z</time>
      </trkpt>
      <trkpt lat="47.04346" lon="-1.6713">
        <ele>5.32</ele>
        <time>2020-05-11T16:23:37Z</time>
      </trkpt>
      <trkpt lat="47.04342" lon="-1.67113">
        <ele>5.01</ele>
        <time>2020-05-11T16:23:39Z</time>
      </trkpt>
      <trkpt lat="47.04337" lon="-1.67096">
        <ele>4.92</ele>
        <time>2020-05-11T16:23:41Z</time>
      </trkpt>
      <trkpt lat="47.04333" lon="-1.67078">
        <ele>4.57</ele>
        <time>2020-05-11T16:23:43Z</time>
      </trkpt>
      <trkpt lat="47.04328" lon="-1.67062">
        <ele>4.48</ele>
        <time>2020-05-11T16:23:45Z</time>
      </trkpt>
      <trkpt lat="47.04324" lon="-1.67044">
        <ele>4.74</ele>
        <time>2020-05-11T16:23:47Z</time>
      </trkpt>
      <trkpt lat="47.04319" lon="-1.67026">
        <ele>4.94</ele>
        <time>2020-05-11T16:23:49Z</time>
      </trkpt>
      <trkpt lat="47.04314" lon="-1.67006">
        <ele>4.52</ele>
        <time>2020-05-11T16:23:51Z</time>
      </trkpt>
      <trkpt lat="47.0431" lon="-1.66989">
        <ele>3.02</ele>
        <time>2020-05-11T16:23:53Z</time>
      </trkpt>
      <trkpt lat="47.04305" lon="-1.66971">
        <ele>2.82</ele>
        <time>2020-05-11T16:23:55Z</time>
      </trkpt>
      <trkpt lat="47.04301" lon="-1.66954">
        <ele>2.63</ele>
        <time>2020-05-11T16:23:57Z</time>
      </trkpt>
      <trkpt lat="47.04296" lon="-1.66936">
        <ele>1.59</ele>
        <time>2020-05-11T16:23:59Z</time>
      </trkpt>
      <trkpt lat="47.04292" lon="-1.66921">
        <ele>1.25</ele>
        <time>2020-05-11T16:24:01Z</time>
      </trkpt>
      <trkpt lat="47.04288" lon="-1.66904">
        <ele>1.19</ele>
        <time>2020-05-11T16:24:03Z</time>
      </trkpt>
      <trkpt lat="47.04284" lon="-1.66887">
        <ele>0.94</ele>
        <time>2020-05-11T16:24:05Z</time>
      </trkpt>
      <trkpt lat="47.04279" lon="-1.66869">
        <ele>0.43</ele>
        <time>2020-05-11T16:24:07Z</time>
      </trkpt>
      <trkpt lat="47.04274" lon="-1.66852">
        <ele>0.5</ele>
        <time>2020-05-11T16:24:09Z</time>
      </trkpt>
      <trkpt lat="47.0427" lon="-1.66836">
        <ele>4.6</ele>
        <time>2020-05-11T16:24:11Z</time>
      </trkpt>
      <trkpt lat="47.04266" lon="-1.66818">
        <ele>0.43</ele>
        <time>2020-05-11T16:24:13Z</time>
      </trkpt>
      <trkpt lat="47.04262" lon="-1.66803">
        <ele>0.39</ele>
        <time>2020-05-11T16:24:15Z</time>
      </trkpt>
      <trkpt lat="47.04258" lon="-1.66787">
        <ele>0.52</ele>
        <time>2020-05-11T16:24:17Z</time>
      </trkpt>
      <trkpt lat="47.04253" lon="-1.66768">
        <ele>1.01</ele>
        <time>2020-05-11T16:24:19Z</time>
      </trkpt>
      <trkpt lat="47.04248" lon="-1.66749">
        <ele>2.61</ele>
        <time>2020-05-11T16:24:21Z</time>
      </trkpt>
      <trkpt lat="47.04244" lon="-1.66731">
        <ele>4.32</ele>
        <time>2020-05-11T16:24:23Z</time>
      </trkpt>
      <trkpt lat="47.0424" lon="-1.66713">
        <ele>3.88</ele>
        <time>2020-05-11T16:24:25Z</time>
      </trkpt>
      <trkpt lat="47.04236" lon="-1.66699">
        <ele>3.76</ele>
        <time>2020-05-11T16:24:27Z</time>
      </trkpt>
      <trkpt lat="47.04233" lon="-1.66684">
        <ele>3.41</ele>
        <time>2020-05-11T16:24:29Z</time>
      </trkpt>
      <trkpt lat="47.04228" lon="-1.66665">
        <ele>2.37</ele>
        <time>2020-05-11T16:24:31Z</time>
      </trkpt>
      <trkpt lat="47.04223" lon="-1.66647">
        <ele>2.11</ele>
        <time>2020-05-11T16:24:33Z</time>
      </trkpt>
      <trkpt lat="47.04217" lon="-1.66631">
        <ele>1.9</ele>
        <time>2020-05-11T16:24:35Z</time>
      </trkpt>
      <trkpt lat="47.04214" lon="-1.66617">
        <ele>1.79</ele>
        <time>2020-05-11T16:24:37Z</time>
      </trkpt>
      <trkpt lat="47.04209" lon="-1.66601">
        <ele>1.26</ele>
        <time>2020-05-11T16:24:39Z</time>
      </trkpt>
      <trkpt lat="47.04205" lon="-1.66584">
        <ele>1.82</ele>
        <time>2020-05-11T16:24:41Z</time>
      </trkpt>
      <trkpt lat="47.04201" lon="-1.66565">
        <ele>1.66</ele>
        <time>2020-05-11T16:24:43Z</time>
      </trkpt>
      <trkpt lat="47.04197" lon="-1.6655">
        <ele>1.68</ele>
        <time>2020-05-11T16:24:45Z</time>
      </trkpt>
      <trkpt lat="47.04193" lon="-1.66533">
        <ele>2.8</ele>
        <time>2020-05-11T16:24:47Z</time>
      </trkpt>
      <trkpt lat="47.04189" lon="-1.66515">
        <ele>3.16</ele>
        <time>2020-05-11T16:24:49Z</time>
      </trkpt>
      <trkpt lat="47.04185" lon="-1.66503">
        <ele>3.82</ele>
        <time>2020-05-11T16:24:51Z</time>
      </trkpt>
      <trkpt lat="47.04181" lon="-1.66484">
        <ele>3.24</ele>
        <time>2020-05-11T16:24:53Z</time>
      </trkpt>
      <trkpt lat="47.04177" lon="-1.66468">
        <ele>2.81</ele>
        <time>2020-05-11T16:24:55Z</time>
      </trkpt>
      <trkpt lat="47.04173" lon="-1.66451">
        <ele>2.93</ele>
        <time>2020-05-11T16:24:57Z</time>
      </trkpt>
      <trkpt lat="47.04169" lon="-1.66438">
        <ele>3.71</ele>
        <time>2020-05-11T16:24:59Z</time>
      </trkpt>
      <trkpt lat="47.04164" lon="-1.66421">
        <ele>4.19</ele>
        <time>2020-05-11T16:25:01Z</time>
      </trkpt>
      <trkpt lat="47.04159" lon="-1.66404">
        <ele>4.26</ele>
        <time>2020-05-11T16:25:03Z</time>
      </trkpt>
      <trkpt lat="47.04154" lon="-1.66388">
        <ele>4.55</ele>
        <time>2020-05-11T16:25:05Z</time>
      </trkpt>
      <trkpt lat="47.04149" lon="-1.66367">
        <ele>4.79</ele>
        <time>2020-05-11T16:25:07Z</time>
      </trkpt>
      <trkpt lat="47.04145" lon="-1.66352">
        <ele>5.43</ele>
        <time>2020-05-11T16:25:09Z</time>
      </trkpt>
      <trkpt lat="47.0414" lon="-1.66336">
        <ele>5.67</ele>
        <time>2020-05-11T16:25:11Z</time>
      </trkpt>
      <trkpt lat="47.04136" lon="-1.66319">
        <ele>5.28</ele>
        <time>2020-05-11T16:25:13Z</time>
      </trkpt>
      <trkpt lat="47.04131" lon="-1.66301">
        <ele>4.53</ele>
        <time>2020-05-11T16:25:15Z</time>
      </trkpt>
      <trkpt lat="47.04128" lon="-1.66285">
        <ele>4.68</ele>
        <time>2020-05-11T16:25:17Z</time>
      </trkpt>
      <trkpt lat="47.04124" lon="-1.66267">
        <ele>4.61</ele>
        <time>2020-05-11T16:25:19Z</time>
      </trkpt>
      <trkpt lat="47.0412" lon="-1.6625">
        <ele>4.23</ele>
        <time>2020-05-11T16:25:21Z</time>
      </trkpt>
      <trkpt lat="47.04116" lon="-1.66234">
        <ele>4.01</ele>
        <time>2020-05-11T16:25:23Z</time>
      </trkpt>
      <trkpt lat="47.04113" lon="-1.66216">
        <ele>2.86</ele>
        <time>2020-05-11T16:25:25Z</time>
      </trkpt>
      <trkpt lat="47.04108" lon="-1.66201">
        <ele>2.82</ele>
        <time>2020-05-11T16:25:27Z</time>
      </trkpt>
      <trkpt lat="47.04103" lon="-1.66184">
        <ele>2.53</ele>
        <time>2020-05-11T16:25:29Z</time>
      </trkpt>
      <trkpt lat="47.04098" lon="-1.66167">
        <ele>2.31</ele>
        <time>2020-05-11T16:25:31Z</time>
      </trkpt>
      <trkpt lat="47.04095" lon="-1.66154">
        <ele>2.75</ele>
        <time>2020-05-11T16:25:33Z</time>
      </trkpt>
      <trkpt lat="47.04091" lon="-1.66136">
        <ele>3.31</ele>
        <time>2020-05-11T16:25:35Z</time>
      </trkpt>
      <trkpt lat="47.04086" lon="-1.66118">
        <ele>3.81</ele>
        <time>2020-05-11T16:25:37Z</time>
      </trkpt>
      <trkpt lat="47.04082" lon="-1.66104">
        <ele>4.97</ele>
        <time>2020-05-11T16:25:39Z</time>
      </trkpt>
      <trkpt lat="47.04077" lon="-1.66086">
        <ele>5.07</ele>
        <time>2020-05-11T16:25:41Z</time>
      </trkpt>
      <trkpt lat="47.04073" lon="-1.66072">
        <ele>5.69</ele>
        <time>2020-05-11T16:25:43Z</time>
      </trkpt>
      <trkpt lat="47.04069" lon="-1.66053">
        <ele>5.52</ele>
        <time>2020-05-11T16:25:45Z</time>
      </trkpt>
      <trkpt lat="47.04066" lon="-1.66039">
        <ele>6.55</ele>
        <time>2020-05-11T16:25:47Z</time>
      </trkpt>
      <trkpt lat="47.04061" lon="-1.66023">
        <ele>6.59</ele>
        <time>2020-05-11T16:25:49Z</time>
      </trkpt>
      <trkpt lat="47.04056" lon="-1.66007">
        <ele>6.27</ele>
        <time>2020-05-11T16:25:51Z</time>
      </trkpt>
      <trkpt lat="47.04051" lon="-1.65992">
        <ele>6.37</ele>
        <time>2020-05-11T16:25:53Z</time>
      </trkpt>
      <trkpt lat="47.04047" lon="-1.65976">
        <ele>6.4</ele>
        <time>2020-05-11T16:25:55Z</time>
      </trkpt>
      <trkpt lat="47.04043" lon="-1.65962">
        <ele>7.79</ele>
        <time>2020-05-11T16:25:57Z</time>
      </trkpt>
      <trkpt lat="47.04038" lon="-1.65943">
        <ele>7.7</ele>
        <time>2020-05-11T16:25:59Z</time>
      </trkpt>
      <trkpt lat="47.04033" lon="-1.65924">
        <ele>7.21</ele>
        <time>2020-05-11T16:26:01Z</time>
      </trkpt>
      <trkpt lat="47.04028" lon="-1.65908">
        <ele>6.21</ele>
        <time>2020-05-11T16:26:03Z</time>
      </trkpt>
      <trkpt lat="47.04024" lon="-1.65891">
        <ele>4.59</ele>
        <time>2020-05-11T16:26:05Z</time>
      </trkpt>
      <trkpt lat="47.04019" lon="-1.65875">
        <ele>4.89</ele>
        <time>2020-05-11T16:26:07Z</time>
      </trkpt>
      <trkpt lat="47.04014" lon="-1.65858">
        <ele>5.35</ele>
        <time>2020-05-11T16:26:09Z</time>
      </trkpt>
      <trkpt lat="47.04009" lon="-1.65841">
        <ele>5.55</ele>
        <time>2020-05-11T16:26:11Z</time>
      </trkpt>
      <trkpt lat="47.04003" lon="-1.65821">
        <ele>5.1</ele>
        <time>2020-05-11T16:26:13Z</time>
      </trkpt>
      <trkpt lat="47.03997" lon="-1.65807">
        <ele>4.3</ele>
        <time>2020-05-11T16:26:15Z</time>
      </trkpt>
      <trkpt lat="47.03993" lon="-1.65788">
        <ele>4.72</ele>
        <time>2020-05-11T16:26:17Z</time>
      </trkpt>
      <trkpt lat="47.03989" lon="-1.65772">
        <ele>5.12</ele>
        <time>2020-05-11T16:26:19Z</time>
      </trkpt>
      <trkpt lat="47.03984" lon="-1.65755">
        <ele>5.04</ele>
        <time>2020-05-11T16:26:21Z</time>
      </trkpt>
      <trkpt lat="47.03979" lon="-1.65738">
        <ele>4.71</ele>
        <time>2020-05-11T16:26:23Z</time>
      </trkpt>
      <trkpt lat="47.03974" lon="-1.65722">
        <ele>4.65</ele>
        <time>2020-05-11T16:26:25Z</time>
      </trkpt>
      <trkpt lat="47.03969" lon="-1.65705">
        <ele>4.55</ele>
        <time>2020-05-11T16:26:27Z</time>
      </trkpt>
      <trkpt lat="47.03964" lon="-1.65687">
        <ele>4.41</ele>
        <time>2020-05-11T16:26:29Z</time>
      </trkpt>
      <trkpt lat="47.0396" lon="-1.65668">
        <ele>4.45</ele>
        <time>2020-05-11T16:26:31Z</time>
      </trkpt>
      <trkpt lat="47.03955" lon="-1.65651">
        <ele>4.78</ele>
        <time>2020-05-11T16:26:33Z</time>
      </trkpt>
      <trkpt lat="47.03951" lon="-1.65635">
        <ele>5.7</ele>
        <time>2020-05-11T16:26:35Z</time>
      </trkpt>
      <trkpt lat="47.03947" lon="-1.65618">
        <ele>5.98</ele>
        <time>2020-05-11T16:26:37Z</time>
      </trkpt>
      <trkpt lat="47.03942" lon="-1.65598">
        <ele>5.88</ele>
        <time>2020-05-11T16:26:39Z</time>
      </trkpt>
      <trkpt lat="47.03938" lon="-1.65584">
        <ele>6.44</ele>
        <time>2020-05-11T16:26:41Z</time>
      </trkpt>
      <trkpt lat="47.03933" lon="-1.65567">
        <ele>6.71</ele>
        <time>2020-05-11T16:26:43Z</time>
      </trkpt>
      <trkpt lat="47.03929" lon="-1.6555">
        <ele>5.96</ele>
        <time>2020-05-11T16:26:45Z</time>
      </trkpt>
      <trkpt lat="47.03924" lon="-1.65533">
        <ele>5.67</ele>
        <time>2020-05-11T16:26:47Z</time>
      </trkpt>
      <trkpt lat="47.03918" lon="-1.65516">
        <ele>5.56</ele>
        <time>2020-05-11T16:26:49Z</time>
      </trkpt>
      <trkpt lat="47.03914" lon="-1.65498">
        <ele>4.47</ele>
        <time>2020-05-11T16:26:51Z</time>
      </trkpt>
      <trkpt lat="47.03909" lon="-1.6548">
        <ele>3.42</ele>
        <time>2020-05-11T16:26:53Z</time>
      </trkpt>
      <trkpt lat="47.03906" lon="-1.65467">
        <ele>3.84</ele>
        <time>2020-05-11T16:26:55Z</time>
      </trkpt>
      <trkpt lat="47.03901" lon="-1.65451">
        <ele>4.49</ele>
        <time>2020-05-11T16:26:57Z</time>
      </trkpt>
      <trkpt lat="47.03895" lon="-1.65434">
        <ele>5.07</ele>
        <time>2020-05-11T16:26:59Z</time>
      </trkpt>
      <trkpt lat="47.0389" lon="-1.6542">
        <ele>5.7</ele>
        <time>2020-05-11T16:27:01Z</time>
      </trkpt>
      <trkpt lat="47.03886" lon="-1.65403">
        <ele>5.74</ele>
        <time>2020-05-11T16:27:03Z</time>
      </trkpt>
      <trkpt lat="47.03882" lon="-1.65385">
        <ele>5.08</ele>
        <time>2020-05-11T16:27:05Z</time>
      </trkpt>
      <trkpt lat="47.03876" lon="-1.65367">
        <ele>4.86</ele>
        <time>2020-05-11T16:27:07Z</time>
      </trkpt>
      <trkpt lat="47.03871" lon="-1.65351">
        <ele>3.7</ele>
        <time>2020-05-11T16:27:09Z</time>
      </trkpt>
      <trkpt lat="47.03862" lon="-1.65335">
        <ele>2.29</ele>
        <time>2020-05-11T16:27:11Z</time>
      </trkpt>
      <trkpt lat="47.03852" lon="-1.65325">
        <ele>2.19</ele>
        <time>2020-05-11T16:27:13Z</time>
      </trkpt>
      <trkpt lat="47.03854" lon="-1.65308">
        <ele>2.58</ele>
        <time>2020-05-11T16:27:16Z</time>
      </trkpt>
      <trkpt lat="47.03862" lon="-1.65294">
        <ele>3.39</ele>
        <time>2020-05-11T16:27:19Z</time>
      </trkpt>
      <trkpt lat="47.0387" lon="-1.65285">
        <ele>3.63</ele>
        <time>2020-05-11T16:27:21Z</time>
      </trkpt>
      <trkpt lat="47.03878" lon="-1.65279">
        <ele>4.82</ele>
        <time>2020-05-11T16:27:24Z</time>
      </trkpt>
      <trkpt lat="47.03893" lon="-1.6527">
        <ele>5.11</ele>
        <time>2020-05-11T16:27:25Z</time>
      </trkpt>
      <trkpt lat="47.03905" lon="-1.65263">
        <ele>4.61</ele>
        <time>2020-05-11T16:27:28Z</time>
      </trkpt>
      <trkpt lat="47.03914" lon="-1.65258">
        <ele>5.21</ele>
        <time>2020-05-11T16:27:30Z</time>
      </trkpt>
      <trkpt lat="47.03923" lon="-1.65252">
        <ele>6.15</ele>
        <time>2020-05-11T16:27:32Z</time>
      </trkpt>
      <trkpt lat="47.03932" lon="-1.65246">
        <ele>6.96</ele>
        <time>2020-05-11T16:27:34Z</time>
      </trkpt>
      <trkpt lat="47.03943" lon="-1.65239">
        <ele>8.22</ele>
        <time>2020-05-11T16:27:36Z</time>
      </trkpt>
      <trkpt lat="47.03954" lon="-1.65234">
        <ele>8.15</ele>
        <time>2020-05-11T16:27:38Z</time>
      </trkpt>
      <trkpt lat="47.03963" lon="-1.65228">
        <ele>8.29</ele>
        <time>2020-05-11T16:27:40Z</time>
      </trkpt>
      <trkpt lat="47.03975" lon="-1.6522">
        <ele>7.88</ele>
        <time>2020-05-11T16:27:42Z</time>
      </trkpt>
      <trkpt lat="47.03987" lon="-1.65211">
        <ele>6.85</ele>
        <time>2020-05-11T16:27:44Z</time>
      </trkpt>
      <trkpt lat="47.03997" lon="-1.65204">
        <ele>5.2</ele>
        <time>2020-05-11T16:27:46Z</time>
      </trkpt>
      <trkpt lat="47.04008" lon="-1.65196">
        <ele>4.55</ele>
        <time>2020-05-11T16:27:48Z</time>
      </trkpt>
      <trkpt lat="47.04019" lon="-1.65188">
        <ele>3.07</ele>
        <time>2020-05-11T16:27:50Z</time>
      </trkpt>
      <trkpt lat="47.04027" lon="-1.65182">
        <ele>2.4</ele>
        <time>2020-05-11T16:27:52Z</time>
      </trkpt>
      <trkpt lat="47.04035" lon="-1.65176">
        <ele>1.62</ele>
        <time>2020-05-11T16:27:54Z</time>
      </trkpt>
      <trkpt lat="47.04046" lon="-1.65169">
        <ele>1.42</ele>
        <time>2020-05-11T16:27:56Z</time>
      </trkpt>
      <trkpt lat="47.04058" lon="-1.65162">
        <ele>1.9</ele>
        <time>2020-05-11T16:27:59Z</time>
      </trkpt>
      <trkpt lat="47.04068" lon="-1.65157">
        <ele>2.6</ele>
        <time>2020-05-11T16:28:01Z</time>
      </trkpt>
      <trkpt lat="47.04077" lon="-1.65151">
        <ele>3.02</ele>
        <time>2020-05-11T16:28:03Z</time>
      </trkpt>
      <trkpt lat="47.04087" lon="-1.65145">
        <ele>4.17</ele>
        <time>2020-05-11T16:28:05Z</time>
      </trkpt>
      <trkpt lat="47.04096" lon="-1.65138">
        <ele>4.92</ele>
        <time>2020-05-11T16:28:07Z</time>
      </trkpt>
      <trkpt lat="47.04106" lon="-1.65132">
        <ele>4.37</ele>
        <time>2020-05-11T16:28:09Z</time>
      </trkpt>
      <trkpt lat="47.04117" lon="-1.65123">
        <ele>4.46</ele>
        <time>2020-05-11T16:28:11Z</time>
      </trkpt>
      <trkpt lat="47.04127" lon="-1.65116">
        <ele>3.89</ele>
        <time>2020-05-11T16:28:13Z</time>
      </trkpt>
      <trkpt lat="47.04136" lon="-1.65109">
        <ele>3.79</ele>
        <time>2020-05-11T16:28:15Z</time>
      </trkpt>
      <trkpt lat="47.04146" lon="-1.65102">
        <ele>3.49</ele>
        <time>2020-05-11T16:28:17Z</time>
      </trkpt>
      <trkpt lat="47.04158" lon="-1.65095">
        <ele>3.82</ele>
        <time>2020-05-11T16:28:19Z</time>
      </trkpt>
      <trkpt lat="47.04169" lon="-1.65087">
        <ele>4.47</ele>
        <time>2020-05-11T16:28:21Z</time>
      </trkpt>
      <trkpt lat="47.0418" lon="-1.6508">
        <ele>3.93</ele>
        <time>2020-05-11T16:28:23Z</time>
      </trkpt>
      <trkpt lat="47.04189" lon="-1.65073">
        <ele>3.75</ele>
        <time>2020-05-11T16:28:25Z</time>
      </trkpt>
      <trkpt lat="47.04198" lon="-1.65069">
        <ele>4.73</ele>
        <time>2020-05-11T16:28:27Z</time>
      </trkpt>
      <trkpt lat="47.04207" lon="-1.65063">
        <ele>5.54</ele>
        <time>2020-05-11T16:28:29Z</time>
      </trkpt>
      <trkpt lat="47.04218" lon="-1.65056">
        <ele>5.04</ele>
        <time>2020-05-11T16:28:31Z</time>
      </trkpt>
      <trkpt lat="47.04227" lon="-1.65049">
        <ele>5.03</ele>
        <time>2020-05-11T16:28:33Z</time>
      </trkpt>
      <trkpt lat="47.04238" lon="-1.65042">
        <ele>5.17</ele>
        <time>2020-05-11T16:28:35Z</time>
      </trkpt>
      <trkpt lat="47.04248" lon="-1.65035">
        <ele>6.05</ele>
        <time>2020-05-11T16:28:37Z</time>
      </trkpt>
      <trkpt lat="47.04258" lon="-1.65027">
        <ele>8.04</ele>
        <time>2020-05-11T16:28:39Z</time>
      </trkpt>
      <trkpt lat="47.04267" lon="-1.65021">
        <ele>9.44</ele>
        <time>2020-05-11T16:28:41Z</time>
      </trkpt>
      <trkpt lat="47.04278" lon="-1.65013">
        <ele>11.05</ele>
        <time>2020-05-11T16:28:43Z</time>
      </trkpt>
      <trkpt lat="47.04289" lon="-1.65005">
        <ele>10.53</ele>
        <time>2020-05-11T16:28:45Z</time>
      </trkpt>
      <trkpt lat="47.043" lon="-1.64996">
        <ele>9.7</ele>
        <time>2020-05-11T16:28:47Z</time>
      </trkpt>
      <trkpt lat="47.04309" lon="-1.64987">
        <ele>9.33</ele>
        <time>2020-05-11T16:28:49Z</time>
      </trkpt>
      <trkpt lat="47.04318" lon="-1.64979">
        <ele>7.83</ele>
        <time>2020-05-11T16:28:51Z</time>
      </trkpt>
      <trkpt lat="47.04328" lon="-1.64969">
        <ele>5.57</ele>
        <time>2020-05-11T16:28:53Z</time>
      </trkpt>
      <trkpt lat="47.04336" lon="-1.64961">
        <ele>4.47</ele>
        <time>2020-05-11T16:28:55Z</time>
      </trkpt>
      <trkpt lat="47.04346" lon="-1.64953">
        <ele>3.41</ele>
        <time>2020-05-11T16:28:57Z</time>
      </trkpt>
      <trkpt lat="47.04354" lon="-1.64945">
        <ele>3.1</ele>
        <time>2020-05-11T16:28:59Z</time>
      </trkpt>
      <trkpt lat="47.04364" lon="-1.64935">
        <ele>2.79</ele>
        <time>2020-05-11T16:29:02Z</time>
      </trkpt>
      <trkpt lat="47.04373" lon="-1.64927">
        <ele>2.8</ele>
        <time>2020-05-11T16:29:04Z</time>
      </trkpt>
      <trkpt lat="47.04381" lon="-1.6492">
        <ele>3.54</ele>
        <time>2020-05-11T16:29:06Z</time>
      </trkpt>
      <trkpt lat="47.0439" lon="-1.64911">
        <ele>3.7</ele>
        <time>2020-05-11T16:29:08Z</time>
      </trkpt>
      <trkpt lat="47.04401" lon="-1.64902">
        <ele>3.47</ele>
        <time>2020-05-11T16:29:10Z</time>
      </trkpt>
      <trkpt lat="47.04412" lon="-1.64895">
        <ele>3.49</ele>
        <time>2020-05-11T16:29:12Z</time>
      </trkpt>
      <trkpt lat="47.04423" lon="-1.64893">
        <ele>4.62</ele>
        <time>2020-05-11T16:29:14Z</time>
      </trkpt>
      <trkpt lat="47.04437" lon="-1.64896">
        <ele>5.16</ele>
        <time>2020-05-11T16:29:17Z</time>
      </trkpt>
      <trkpt lat="47.04446" lon="-1.64901">
        <ele>4.63</ele>
        <time>2020-05-11T16:29:19Z</time>
      </trkpt>
      <trkpt lat="47.04455" lon="-1.64908">
        <ele>4.36</ele>
        <time>2020-05-11T16:29:21Z</time>
      </trkpt>
      <trkpt lat="47.04466" lon="-1.64912">
        <ele>4.83</ele>
        <time>2020-05-11T16:29:24Z</time>
      </trkpt>
      <trkpt lat="47.04471" lon="-1.64894">
        <ele>5.56</ele>
        <time>2020-05-11T16:29:27Z</time>
      </trkpt>
      <trkpt lat="47.04465" lon="-1.64881">
        <ele>5.77</ele>
        <time>2020-05-11T16:29:31Z</time>
      </trkpt>
      <trkpt lat="47.04456" lon="-1.64868">
        <ele>5.9</ele>
        <time>2020-05-11T16:29:34Z</time>
      </trkpt>
      <trkpt lat="47.04461" lon="-1.64857">
        <ele>5.45</ele>
        <time>2020-05-11T16:29:37Z</time>
      </trkpt>
      <trkpt lat="47.04468" lon="-1.64845">
        <ele>5.69</ele>
        <time>2020-05-11T16:29:40Z</time>
      </trkpt>
      <trkpt lat="47.04475" lon="-1.64836">
        <ele>6.4</ele>
        <time>2020-05-11T16:29:42Z</time>
      </trkpt>
      <trkpt lat="47.04483" lon="-1.64825">
        <ele>6.74</ele>
        <time>2020-05-11T16:29:44Z</time>
      </trkpt>
      <trkpt lat="47.04491" lon="-1.64815">
        <ele>6.62</ele>
        <time>2020-05-11T16:29:46Z</time>
      </trkpt>
      <trkpt lat="47.045" lon="-1.64801">
        <ele>5.92</ele>
        <time>2020-05-11T16:29:49Z</time>
      </trkpt>
      <trkpt lat="47.04507" lon="-1.64788">
        <ele>5.71</ele>
        <time>2020-05-11T16:29:51Z</time>
      </trkpt>
      <trkpt lat="47.04514" lon="-1.64772">
        <ele>6.86</ele>
        <time>2020-05-11T16:29:54Z</time>
      </trkpt>
      <trkpt lat="47.04518" lon="-1.6476">
        <ele>6.87</ele>
        <time>2020-05-11T16:29:56Z</time>
      </trkpt>
      <trkpt lat="47.04527" lon="-1.64747">
        <ele>7.57</ele>
        <time>2020-05-11T16:29:59Z</time>
      </trkpt>
      <trkpt lat="47.04536" lon="-1.64732">
        <ele>9.39</ele>
        <time>2020-05-11T16:30:02Z</time>
      </trkpt>
      <trkpt lat="47.04543" lon="-1.64723">
        <ele>10.32</ele>
        <time>2020-05-11T16:30:04Z</time>
      </trkpt>
      <trkpt lat="47.04551" lon="-1.6471">
        <ele>9.88</ele>
        <time>2020-05-11T16:30:06Z</time>
      </trkpt>
      <trkpt lat="47.0456" lon="-1.64702">
        <ele>9.65</ele>
        <time>2020-05-11T16:30:08Z</time>
      </trkpt>
      <trkpt lat="47.04569" lon="-1.64693">
        <ele>9.04</ele>
        <time>2020-05-11T16:30:10Z</time>
      </trkpt>
      <trkpt lat="47.04578" lon="-1.64681">
        <ele>8.95</ele>
        <time>2020-05-11T16:30:12Z</time>
      </trkpt>
      <trkpt lat="47.04587" lon="-1.64667">
        <ele>8.3</ele>
        <time>2020-05-11T16:30:14Z</time>
      </trkpt>
      <trkpt lat="47.04597" lon="-1.64652">
        <ele>8.19</ele>
        <time>2020-05-11T16:30:16Z</time>
      </trkpt>
      <trkpt lat="47.04607" lon="-1.6464">
        <ele>7.04</ele>
        <time>2020-05-11T16:30:18Z</time>
      </trkpt>
      <trkpt lat="47.04612" lon="-1.64627">
        <ele>6.74</ele>
        <time>2020-05-11T16:30:20Z</time>
      </trkpt>
      <trkpt lat="47.0462" lon="-1.64615">
        <ele>5.86</ele>
        <time>2020-05-11T16:30:22Z</time>
      </trkpt>
      <trkpt lat="47.04627" lon="-1.646">
        <ele>5.59</ele>
        <time>2020-05-11T16:30:24Z</time>
      </trkpt>
      <trkpt lat="47.04634" lon="-1.64583">
        <ele>4.84</ele>
        <time>2020-05-11T16:30:26Z</time>
      </trkpt>
      <trkpt lat="47.0464" lon="-1.64565">
        <ele>5.34</ele>
        <time>2020-05-11T16:30:29Z</time>
      </trkpt>
      <trkpt lat="47.04647" lon="-1.64549">
        <ele>6.24</ele>
        <time>2020-05-11T16:30:31Z</time>
      </trkpt>
      <trkpt lat="47.04652" lon="-1.64535">
        <ele>6.26</ele>
        <time>2020-05-11T16:30:33Z</time>
      </trkpt>
      <trkpt lat="47.04656" lon="-1.64519">
        <ele>6.49</ele>
        <time>2020-05-11T16:30:35Z</time>
      </trkpt>
      <trkpt lat="47.04662" lon="-1.645">
        <ele>5.55</ele>
        <time>2020-05-11T16:30:37Z</time>
      </trkpt>
      <trkpt lat="47.04669" lon="-1.64484">
        <ele>4.92</ele>
        <time>2020-05-11T16:30:39Z</time>
      </trkpt>
      <trkpt lat="47.04675" lon="-1.6447">
        <ele>4.45</ele>
        <time>2020-05-11T16:30:41Z</time>
      </trkpt>
      <trkpt lat="47.04683" lon="-1.64457">
        <ele>5.02</ele>
        <time>2020-05-11T16:30:43Z</time>
      </trkpt>
      <trkpt lat="47.0469" lon="-1.64445">
        <ele>5.09</ele>
        <time>2020-05-11T16:30:45Z</time>
      </trkpt>
      <trkpt lat="47.04697" lon="-1.64434">
        <ele>4.53</ele>
        <time>2020-05-11T16:30:47Z</time>
      </trkpt>
      <trkpt lat="47.04704" lon="-1.64423">
        <ele>4.97</ele>
        <time>2020-05-11T16:30:49Z</time>
      </trkpt>
      <trkpt lat="47.04711" lon="-1.6441">
        <ele>3.86</ele>
        <time>2020-05-11T16:30:51Z</time>
      </trkpt>
      <trkpt lat="47.04718" lon="-1.64397">
        <ele>3.4</ele>
        <time>2020-05-11T16:30:53Z</time>
      </trkpt>
      <trkpt lat="47.04724" lon="-1.64383">
        <ele>3.93</ele>
        <time>2020-05-11T16:30:55Z</time>
      </trkpt>
      <trkpt lat="47.04729" lon="-1.6437">
        <ele>4.29</ele>
        <time>2020-05-11T16:30:57Z</time>
      </trkpt>
      <trkpt lat="47.04731" lon="-1.64355">
        <ele>4.89</ele>
        <time>2020-05-11T16:30:59Z</time>
      </trkpt>
      <trkpt lat="47.04728" lon="-1.64338">
        <ele>5.53</ele>
        <time>2020-05-11T16:31:02Z</time>
      </trkpt>
      <trkpt lat="47.04729" lon="-1.64324">
        <ele>5.65</ele>
        <time>2020-05-11T16:31:05Z</time>
      </trkpt>
      <trkpt lat="47.04732" lon="-1.64309">
        <ele>5.92</ele>
        <time>2020-05-11T16:31:08Z</time>
      </trkpt>
      <trkpt lat="47.04735" lon="-1.6429">
        <ele>6.07</ele>
        <time>2020-05-11T16:31:11Z</time>
      </trkpt>
      <trkpt lat="47.04738" lon="-1.64276">
        <ele>5.61</ele>
        <time>2020-05-11T16:31:13Z</time>
      </trkpt>
      <trkpt lat="47.04742" lon="-1.64259">
        <ele>4.27</ele>
        <time>2020-05-11T16:31:15Z</time>
      </trkpt>
      <trkpt lat="47.04745" lon="-1.64244">
        <ele>3.72</ele>
        <time>2020-05-11T16:31:17Z</time>
      </trkpt>
      <trkpt lat="47.0475" lon="-1.64224">
        <ele>3.49</ele>
        <time>2020-05-11T16:31:19Z</time>
      </trkpt>
      <trkpt lat="47.04755" lon="-1.64205">
        <ele>3</ele>
        <time>2020-05-11T16:31:21Z</time>
      </trkpt>
      <trkpt lat="47.0476" lon="-1.64184">
        <ele>1.74</ele>
        <time>2020-05-11T16:31:23Z</time>
      </trkpt>
      <trkpt lat="47.04764" lon="-1.64166">
        <ele>1.19</ele>
        <time>2020-05-11T16:31:25Z</time>
      </trkpt>
      <trkpt lat="47.04769" lon="-1.64148">
        <ele>0.6</ele>
        <time>2020-05-11T16:31:27Z</time>
      </trkpt>
      <trkpt lat="47.04773" lon="-1.6413">
        <ele>0.22</ele>
        <time>2020-05-11T16:31:29Z</time>
      </trkpt>
      <trkpt lat="47.04778" lon="-1.6411">
        <ele>-0.06</ele>
        <time>2020-05-11T16:31:31Z</time>
      </trkpt>
      <trkpt lat="47.04782" lon="-1.64092">
        <ele>-0.49</ele>
        <time>2020-05-11T16:31:33Z</time>
      </trkpt>
      <trkpt lat="47.04787" lon="-1.64076">
        <ele>-1</ele>
        <time>2020-05-11T16:31:35Z</time>
      </trkpt>
      <trkpt lat="47.04791" lon="-1.6406">
        <ele>-0.78</ele>
        <time>2020-05-11T16:31:37Z</time>
      </trkpt>
      <trkpt lat="47.04796" lon="-1.64043">
        <ele>-0.7</ele>
        <time>2020-05-11T16:31:39Z</time>
      </trkpt>
      <trkpt lat="47.048" lon="-1.64026">
        <ele>0.22</ele>
        <time>2020-05-11T16:31:41Z</time>
      </trkpt>
      <trkpt lat="47.04804" lon="-1.6401">
        <ele>0.24</ele>
        <time>2020-05-11T16:31:43Z</time>
      </trkpt>
      <trkpt lat="47.0481" lon="-1.63992">
        <ele>-0.05</ele>
        <time>2020-05-11T16:31:45Z</time>
      </trkpt>
      <trkpt lat="47.04816" lon="-1.63979">
        <ele>-0.53</ele>
        <time>2020-05-11T16:31:47Z</time>
      </trkpt>
      <trkpt lat="47.04826" lon="-1.63967">
        <ele>-0.86</ele>
        <time>2020-05-11T16:31:49Z</time>
      </trkpt>
      <trkpt lat="47.04836" lon="-1.63957">
        <ele>-0.99</ele>
        <time>2020-05-11T16:31:51Z</time>
      </trkpt>
      <trkpt lat="47.04847" lon="-1.63948">
        <ele>-1.19</ele>
        <time>2020-05-11T16:31:53Z</time>
      </trkpt>
      <trkpt lat="47.04858" lon="-1.63939">
        <ele>-2.28</ele>
        <time>2020-05-11T16:31:55Z</time>
      </trkpt>
      <trkpt lat="47.04867" lon="-1.63932">
        <ele>-1.7</ele>
        <time>2020-05-11T16:31:57Z</time>
      </trkpt>
      <trkpt lat="47.04878" lon="-1.63924">
        <ele>-0.96</ele>
        <time>2020-05-11T16:31:59Z</time>
      </trkpt>
      <trkpt lat="47.04888" lon="-1.63916">
        <ele>0.54</ele>
        <time>2020-05-11T16:32:01Z</time>
      </trkpt>
      <trkpt lat="47.04899" lon="-1.63907">
        <ele>2.01</ele>
        <time>2020-05-11T16:32:03Z</time>
      </trkpt>
      <trkpt lat="47.04908" lon="-1.63899">
        <ele>1.84</ele>
        <time>2020-05-11T16:32:05Z</time>
      </trkpt>
      <trkpt lat="47.04916" lon="-1.63891">
        <ele>0.32</ele>
        <time>2020-05-11T16:32:07Z</time>
      </trkpt>
      <trkpt lat="47.04925" lon="-1.63883">
        <ele>-0.24</ele>
        <time>2020-05-11T16:32:09Z</time>
      </trkpt>
      <trkpt lat="47.04934" lon="-1.63875">
        <ele>0.26</ele>
        <time>2020-05-11T16:32:11Z</time>
      </trkpt>
      <trkpt lat="47.04943" lon="-1.63867">
        <ele>0.15</ele>
        <time>2020-05-11T16:32:13Z</time>
      </trkpt>
      <trkpt lat="47.04952" lon="-1.63858">
        <ele>0.7</ele>
        <time>2020-05-11T16:32:15Z</time>
      </trkpt>
      <trkpt lat="47.0496" lon="-1.63851">
        <ele>2.28</ele>
        <time>2020-05-11T16:32:17Z</time>
      </trkpt>
      <trkpt lat="47.0497" lon="-1.63842">
        <ele>2.9</ele>
        <time>2020-05-11T16:32:19Z</time>
      </trkpt>
      <trkpt lat="47.04977" lon="-1.63833">
        <ele>3.91</ele>
        <time>2020-05-11T16:32:21Z</time>
      </trkpt>
      <trkpt lat="47.04987" lon="-1.63825">
        <ele>4.36</ele>
        <time>2020-05-11T16:32:23Z</time>
      </trkpt>
      <trkpt lat="47.04995" lon="-1.63817">
        <ele>4.32</ele>
        <time>2020-05-11T16:32:25Z</time>
      </trkpt>
      <trkpt lat="47.05004" lon="-1.63801">
        <ele>6.25</ele>
        <time>2020-05-11T16:32:28Z</time>
      </trkpt>
      <trkpt lat="47.05006" lon="-1.63783">
        <ele>6.88</ele>
        <time>2020-05-11T16:32:30Z</time>
      </trkpt>
      <trkpt lat="47.05003" lon="-1.63766">
        <ele>6.06</ele>
        <time>2020-05-11T16:32:32Z</time>
      </trkpt>
      <trkpt lat="47.05007" lon="-1.63754">
        <ele>4.98</ele>
        <time>2020-05-11T16:32:35Z</time>
      </trkpt>
      <trkpt lat="47.0501" lon="-1.63741">
        <ele>3.85</ele>
        <time>2020-05-11T16:32:37Z</time>
      </trkpt>
      <trkpt lat="47.05006" lon="-1.63721">
        <ele>2.31</ele>
        <time>2020-05-11T16:32:39Z</time>
      </trkpt>
      <trkpt lat="47.05001" lon="-1.63701">
        <ele>1.4</ele>
        <time>2020-05-11T16:32:41Z</time>
      </trkpt>
      <trkpt lat="47.04996" lon="-1.63686">
        <ele>0.56</ele>
        <time>2020-05-11T16:32:43Z</time>
      </trkpt>
      <trkpt lat="47.04992" lon="-1.63667">
        <ele>-0.02</ele>
        <time>2020-05-11T16:32:45Z</time>
      </trkpt>
      <trkpt lat="47.04989" lon="-1.63652">
        <ele>0.39</ele>
        <time>2020-05-11T16:32:47Z</time>
      </trkpt>
      <trkpt lat="47.04985" lon="-1.63636">
        <ele>2.14</ele>
        <time>2020-05-11T16:32:49Z</time>
      </trkpt>
      <trkpt lat="47.04982" lon="-1.6362">
        <ele>3.11</ele>
        <time>2020-05-11T16:32:51Z</time>
      </trkpt>
      <trkpt lat="47.04979" lon="-1.63605">
        <ele>3.86</ele>
        <time>2020-05-11T16:32:53Z</time>
      </trkpt>
      <trkpt lat="47.04984" lon="-1.63592">
        <ele>4.22</ele>
        <time>2020-05-11T16:32:56Z</time>
      </trkpt>
      <trkpt lat="47.04992" lon="-1.63583">
        <ele>4.5</ele>
        <time>2020-05-11T16:32:58Z</time>
      </trkpt>
      <trkpt lat="47.05001" lon="-1.63574">
        <ele>4.76</ele>
        <time>2020-05-11T16:33:00Z</time>
      </trkpt>
      <trkpt lat="47.05008" lon="-1.63566">
        <ele>3.61</ele>
        <time>2020-05-11T16:33:02Z</time>
      </trkpt>
      <trkpt lat="47.05017" lon="-1.6356">
        <ele>4.1</ele>
        <time>2020-05-11T16:33:04Z</time>
      </trkpt>
      <trkpt lat="47.05028" lon="-1.63555">
        <ele>2.54</ele>
        <time>2020-05-11T16:33:06Z</time>
      </trkpt>
      <trkpt lat="47.05038" lon="-1.63549">
        <ele>1.55</ele>
        <time>2020-05-11T16:33:08Z</time>
      </trkpt>
      <trkpt lat="47.05048" lon="-1.63545">
        <ele>1.48</ele>
        <time>2020-05-11T16:33:10Z</time>
      </trkpt>
      <trkpt lat="47.05057" lon="-1.63543">
        <ele>1.68</ele>
        <time>2020-05-11T16:33:12Z</time>
      </trkpt>
      <trkpt lat="47.05067" lon="-1.63543">
        <ele>2.44</ele>
        <time>2020-05-11T16:33:16Z</time>
      </trkpt>
      <trkpt lat="47.05078" lon="-1.63538">
        <ele>2.63</ele>
        <time>2020-05-11T16:33:19Z</time>
      </trkpt>
      <trkpt lat="47.0509" lon="-1.63535">
        <ele>3.08</ele>
        <time>2020-05-11T16:33:22Z</time>
      </trkpt>
      <trkpt lat="47.051" lon="-1.63531">
        <ele>3.82</ele>
        <time>2020-05-11T16:33:24Z</time>
      </trkpt>
      <trkpt lat="47.05111" lon="-1.63528">
        <ele>4.42</ele>
        <time>2020-05-11T16:33:26Z</time>
      </trkpt>
      <trkpt lat="47.05122" lon="-1.63522">
        <ele>4.18</ele>
        <time>2020-05-11T16:33:28Z</time>
      </trkpt>
      <trkpt lat="47.05133" lon="-1.63517">
        <ele>3.03</ele>
        <time>2020-05-11T16:33:30Z</time>
      </trkpt>
      <trkpt lat="47.05144" lon="-1.63513">
        <ele>2.74</ele>
        <time>2020-05-11T16:33:32Z</time>
      </trkpt>
      <trkpt lat="47.05154" lon="-1.6351">
        <ele>2.18</ele>
        <time>2020-05-11T16:33:34Z</time>
      </trkpt>
      <trkpt lat="47.05163" lon="-1.63507">
        <ele>2.23</ele>
        <time>2020-05-11T16:33:36Z</time>
      </trkpt>
      <trkpt lat="47.05172" lon="-1.63503">
        <ele>3.04</ele>
        <time>2020-05-11T16:33:38Z</time>
      </trkpt>
      <trkpt lat="47.05186" lon="-1.63498">
        <ele>3.49</ele>
        <time>2020-05-11T16:33:41Z</time>
      </trkpt>
      <trkpt lat="47.05197" lon="-1.63494">
        <ele>2.65</ele>
        <time>2020-05-11T16:33:43Z</time>
      </trkpt>
      <trkpt lat="47.05207" lon="-1.6349">
        <ele>1.99</ele>
        <time>2020-05-11T16:33:45Z</time>
      </trkpt>
      <trkpt lat="47.05217" lon="-1.63486">
        <ele>1.16</ele>
        <time>2020-05-11T16:33:47Z</time>
      </trkpt>
      <trkpt lat="47.05227" lon="-1.63483">
        <ele>1.19</ele>
        <time>2020-05-11T16:33:49Z</time>
      </trkpt>
      <trkpt lat="47.05238" lon="-1.6348">
        <ele>1.95</ele>
        <time>2020-05-11T16:33:51Z</time>
      </trkpt>
      <trkpt lat="47.05249" lon="-1.63476">
        <ele>2.13</ele>
        <time>2020-05-11T16:33:53Z</time>
      </trkpt>
      <trkpt lat="47.0526" lon="-1.63473">
        <ele>1.98</ele>
        <time>2020-05-11T16:33:55Z</time>
      </trkpt>
      <trkpt lat="47.0527" lon="-1.6347">
        <ele>1.63</ele>
        <time>2020-05-11T16:33:57Z</time>
      </trkpt>
      <trkpt lat="47.0528" lon="-1.63469">
        <ele>0.9</ele>
        <time>2020-05-11T16:33:59Z</time>
      </trkpt>
      <trkpt lat="47.05291" lon="-1.63466">
        <ele>-0.01</ele>
        <time>2020-05-11T16:34:02Z</time>
      </trkpt>
      <trkpt lat="47.05302" lon="-1.63462">
        <ele>-0.33</ele>
        <time>2020-05-11T16:34:05Z</time>
      </trkpt>
      <trkpt lat="47.0531" lon="-1.63453">
        <ele>1.75</ele>
        <time>2020-05-11T16:34:07Z</time>
      </trkpt>
      <trkpt lat="47.0532" lon="-1.63449">
        <ele>3.68</ele>
        <time>2020-05-11T16:34:09Z</time>
      </trkpt>
      <trkpt lat="47.05332" lon="-1.63449">
        <ele>4.82</ele>
        <time>2020-05-11T16:34:11Z</time>
      </trkpt>
      <trkpt lat="47.05344" lon="-1.63447">
        <ele>6.22</ele>
        <time>2020-05-11T16:34:13Z</time>
      </trkpt>
      <trkpt lat="47.05356" lon="-1.63444">
        <ele>7.71</ele>
        <time>2020-05-11T16:34:15Z</time>
      </trkpt>
      <trkpt lat="47.05364" lon="-1.63438">
        <ele>9.08</ele>
        <time>2020-05-11T16:34:17Z</time>
      </trkpt>
      <trkpt lat="47.05377" lon="-1.63433">
        <ele>8.76</ele>
        <time>2020-05-11T16:34:19Z</time>
      </trkpt>
      <trkpt lat="47.05388" lon="-1.63434">
        <ele>8.06</ele>
        <time>2020-05-11T16:34:21Z</time>
      </trkpt>
      <trkpt lat="47.054" lon="-1.63435">
        <ele>7.92</ele>
        <time>2020-05-11T16:34:23Z</time>
      </trkpt>
      <trkpt lat="47.05412" lon="-1.63433">
        <ele>7.17</ele>
        <time>2020-05-11T16:34:25Z</time>
      </trkpt>
      <trkpt lat="47.05425" lon="-1.6343">
        <ele>6.17</ele>
        <time>2020-05-11T16:34:27Z</time>
      </trkpt>
      <trkpt lat="47.05437" lon="-1.63427">
        <ele>5.64</ele>
        <time>2020-05-11T16:34:29Z</time>
      </trkpt>
      <trkpt lat="47.05448" lon="-1.63425">
        <ele>5.33</ele>
        <time>2020-05-11T16:34:31Z</time>
      </trkpt>
      <trkpt lat="47.05461" lon="-1.63423">
        <ele>6.34</ele>
        <time>2020-05-11T16:34:33Z</time>
      </trkpt>
      <trkpt lat="47.05472" lon="-1.63422">
        <ele>6.45</ele>
        <time>2020-05-11T16:34:35Z</time>
      </trkpt>
      <trkpt lat="47.05484" lon="-1.6342">
        <ele>6.53</ele>
        <time>2020-05-11T16:34:37Z</time>
      </trkpt>
      <trkpt lat="47.05494" lon="-1.63418">
        <ele>7.01</ele>
        <time>2020-05-11T16:34:39Z</time>
      </trkpt>
      <trkpt lat="47.05508" lon="-1.63416">
        <ele>6.5</ele>
        <time>2020-05-11T16:34:41Z</time>
      </trkpt>
      <trkpt lat="47.05519" lon="-1.63414">
        <ele>6.49</ele>
        <time>2020-05-11T16:34:43Z</time>
      </trkpt>
      <trkpt lat="47.05532" lon="-1.63411">
        <ele>6.69</ele>
        <time>2020-05-11T16:34:45Z</time>
      </trkpt>
      <trkpt lat="47.05542" lon="-1.63408">
        <ele>5.62</ele>
        <time>2020-05-11T16:34:47Z</time>
      </trkpt>
      <trkpt lat="47.05557" lon="-1.63403">
        <ele>4.14</ele>
        <time>2020-05-11T16:34:50Z</time>
      </trkpt>
      <trkpt lat="47.05571" lon="-1.63397">
        <ele>2.98</ele>
        <time>2020-05-11T16:34:52Z</time>
      </trkpt>
      <trkpt lat="47.05584" lon="-1.63392">
        <ele>3.11</ele>
        <time>2020-05-11T16:34:54Z</time>
      </trkpt>
      <trkpt lat="47.05595" lon="-1.63387">
        <ele>2.91</ele>
        <time>2020-05-11T16:34:56Z</time>
      </trkpt>
      <trkpt lat="47.05605" lon="-1.63382">
        <ele>1.79</ele>
        <time>2020-05-11T16:34:58Z</time>
      </trkpt>
      <trkpt lat="47.05615" lon="-1.63377">
        <ele>2.25</ele>
        <time>2020-05-11T16:35:00Z</time>
      </trkpt>
      <trkpt lat="47.05628" lon="-1.63371">
        <ele>3.42</ele>
        <time>2020-05-11T16:35:02Z</time>
      </trkpt>
      <trkpt lat="47.05639" lon="-1.63366">
        <ele>4.32</ele>
        <time>2020-05-11T16:35:04Z</time>
      </trkpt>
      <trkpt lat="47.05649" lon="-1.63362">
        <ele>3.75</ele>
        <time>2020-05-11T16:35:06Z</time>
      </trkpt>
      <trkpt lat="47.05658" lon="-1.63357">
        <ele>4.47</ele>
        <time>2020-05-11T16:35:08Z</time>
      </trkpt>
      <trkpt lat="47.05669" lon="-1.63351">
        <ele>5.34</ele>
        <time>2020-05-11T16:35:10Z</time>
      </trkpt>
      <trkpt lat="47.05681" lon="-1.63345">
        <ele>5.44</ele>
        <time>2020-05-11T16:35:12Z</time>
      </trkpt>
      <trkpt lat="47.0569" lon="-1.63341">
        <ele>5.24</ele>
        <time>2020-05-11T16:35:14Z</time>
      </trkpt>
      <trkpt lat="47.057" lon="-1.63336">
        <ele>5.06</ele>
        <time>2020-05-11T16:35:16Z</time>
      </trkpt>
      <trkpt lat="47.05711" lon="-1.63331">
        <ele>4.97</ele>
        <time>2020-05-11T16:35:18Z</time>
      </trkpt>
      <trkpt lat="47.05723" lon="-1.63326">
        <ele>4.79</ele>
        <time>2020-05-11T16:35:20Z</time>
      </trkpt>
      <trkpt lat="47.05733" lon="-1.63323">
        <ele>4.46</ele>
        <time>2020-05-11T16:35:22Z</time>
      </trkpt>
      <trkpt lat="47.05744" lon="-1.63317">
        <ele>5.42</ele>
        <time>2020-05-11T16:35:25Z</time>
      </trkpt>
      <trkpt lat="47.05757" lon="-1.63311">
        <ele>6.44</ele>
        <time>2020-05-11T16:35:28Z</time>
      </trkpt>
      <trkpt lat="47.0577" lon="-1.63305">
        <ele>7.57</ele>
        <time>2020-05-11T16:35:30Z</time>
      </trkpt>
      <trkpt lat="47.05783" lon="-1.633">
        <ele>8.13</ele>
        <time>2020-05-11T16:35:32Z</time>
      </trkpt>
      <trkpt lat="47.05794" lon="-1.63295">
        <ele>8.64</ele>
        <time>2020-05-11T16:35:34Z</time>
      </trkpt>
      <trkpt lat="47.05809" lon="-1.63289">
        <ele>8.56</ele>
        <time>2020-05-11T16:35:36Z</time>
      </trkpt>
      <trkpt lat="47.05823" lon="-1.63282">
        <ele>8.89</ele>
        <time>2020-05-11T16:35:38Z</time>
      </trkpt>
      <trkpt lat="47.05836" lon="-1.63276">
        <ele>9.41</ele>
        <time>2020-05-11T16:35:40Z</time>
      </trkpt>
      <trkpt lat="47.05849" lon="-1.6327">
        <ele>8.9</ele>
        <time>2020-05-11T16:35:42Z</time>
      </trkpt>
      <trkpt lat="47.05859" lon="-1.63265">
        <ele>8.07</ele>
        <time>2020-05-11T16:35:44Z</time>
      </trkpt>
      <trkpt lat="47.05872" lon="-1.63258">
        <ele>6.13</ele>
        <time>2020-05-11T16:35:47Z</time>
      </trkpt>
      <trkpt lat="47.05883" lon="-1.63253">
        <ele>5.11</ele>
        <time>2020-05-11T16:35:49Z</time>
      </trkpt>
      <trkpt lat="47.05894" lon="-1.63247">
        <ele>3.09</ele>
        <time>2020-05-11T16:35:51Z</time>
      </trkpt>
      <trkpt lat="47.05905" lon="-1.63241">
        <ele>1.69</ele>
        <time>2020-05-11T16:35:53Z</time>
      </trkpt>
      <trkpt lat="47.05917" lon="-1.63236">
        <ele>1.95</ele>
        <time>2020-05-11T16:35:55Z</time>
      </trkpt>
      <trkpt lat="47.05928" lon="-1.63231">
        <ele>3.08</ele>
        <time>2020-05-11T16:35:57Z</time>
      </trkpt>
      <trkpt lat="47.05938" lon="-1.63226">
        <ele>3.87</ele>
        <time>2020-05-11T16:35:59Z</time>
      </trkpt>
      <trkpt lat="47.05949" lon="-1.63221">
        <ele>5.18</ele>
        <time>2020-05-11T16:36:02Z</time>
      </trkpt>
      <trkpt lat="47.0596" lon="-1.63216">
        <ele>5.21</ele>
        <time>2020-05-11T16:36:05Z</time>
      </trkpt>
      <trkpt lat="47.05973" lon="-1.63211">
        <ele>5.67</ele>
        <time>2020-05-11T16:36:08Z</time>
      </trkpt>
      <trkpt lat="47.05986" lon="-1.63204">
        <ele>5.98</ele>
        <time>2020-05-11T16:36:10Z</time>
      </trkpt>
      <trkpt lat="47.06001" lon="-1.63198">
        <ele>6.46</ele>
        <time>2020-05-11T16:36:12Z</time>
      </trkpt>
      <trkpt lat="47.06014" lon="-1.63192">
        <ele>7.97</ele>
        <time>2020-05-11T16:36:14Z</time>
      </trkpt>
      <trkpt lat="47.06027" lon="-1.63187">
        <ele>8.78</ele>
        <time>2020-05-11T16:36:16Z</time>
      </trkpt>
      <trkpt lat="47.06036" lon="-1.63182">
        <ele>9.22</ele>
        <time>2020-05-11T16:36:18Z</time>
      </trkpt>
      <trkpt lat="47.06047" lon="-1.63177">
        <ele>9.27</ele>
        <time>2020-05-11T16:36:20Z</time>
      </trkpt>
      <trkpt lat="47.06052" lon="-1.63194">
        <ele>8.75</ele>
        <time>2020-05-11T16:36:24Z</time>
      </trkpt>
      <trkpt lat="47.0605" lon="-1.63213">
        <ele>8.52</ele>
        <time>2020-05-11T16:36:26Z</time>
      </trkpt>
      <trkpt lat="47.06049" lon="-1.63235">
        <ele>7.27</ele>
        <time>2020-05-11T16:36:28Z</time>
      </trkpt>
      <trkpt lat="47.06047" lon="-1.63256">
        <ele>6.42</ele>
        <time>2020-05-11T16:36:30Z</time>
      </trkpt>
      <trkpt lat="47.06043" lon="-1.63277">
        <ele>5.77</ele>
        <time>2020-05-11T16:36:32Z</time>
      </trkpt>
      <trkpt lat="47.0604" lon="-1.63295">
        <ele>4.51</ele>
        <time>2020-05-11T16:36:34Z</time>
      </trkpt>
      <trkpt lat="47.06041" lon="-1.63313">
        <ele>3.47</ele>
        <time>2020-05-11T16:36:36Z</time>
      </trkpt>
      <trkpt lat="47.0605" lon="-1.63324">
        <ele>3.95</ele>
        <time>2020-05-11T16:36:37Z</time>
      </trkpt>
      <trkpt lat="47.06063" lon="-1.63329">
        <ele>4.27</ele>
        <time>2020-05-11T16:36:39Z</time>
      </trkpt>
      <trkpt lat="47.06075" lon="-1.63334">
        <ele>3.81</ele>
        <time>2020-05-11T16:36:41Z</time>
      </trkpt>
      <trkpt lat="47.06087" lon="-1.63337">
        <ele>2.99</ele>
        <time>2020-05-11T16:36:43Z</time>
      </trkpt>
      <trkpt lat="47.061" lon="-1.63342">
        <ele>1.82</ele>
        <time>2020-05-11T16:36:45Z</time>
      </trkpt>
      <trkpt lat="47.06112" lon="-1.63345">
        <ele>0.99</ele>
        <time>2020-05-11T16:36:47Z</time>
      </trkpt>
      <trkpt lat="47.06121" lon="-1.63349">
        <ele>0.76</ele>
        <time>2020-05-11T16:36:49Z</time>
      </trkpt>
      <trkpt lat="47.06131" lon="-1.63353">
        <ele>1.16</ele>
        <time>2020-05-11T16:36:51Z</time>
      </trkpt>
      <trkpt lat="47.06144" lon="-1.63359">
        <ele>1.92</ele>
        <time>2020-05-11T16:36:53Z</time>
      </trkpt>
      <trkpt lat="47.06155" lon="-1.63364">
        <ele>2.5</ele>
        <time>2020-05-11T16:36:55Z</time>
      </trkpt>
      <trkpt lat="47.06167" lon="-1.63368">
        <ele>2.56</ele>
        <time>2020-05-11T16:36:57Z</time>
      </trkpt>
      <trkpt lat="47.06176" lon="-1.63372">
        <ele>3.3</ele>
        <time>2020-05-11T16:36:59Z</time>
      </trkpt>
      <trkpt lat="47.06188" lon="-1.63377">
        <ele>3.82</ele>
        <time>2020-05-11T16:37:01Z</time>
      </trkpt>
      <trkpt lat="47.062" lon="-1.63382">
        <ele>4.03</ele>
        <time>2020-05-11T16:37:03Z</time>
      </trkpt>
      <trkpt lat="47.06212" lon="-1.63387">
        <ele>4.61</ele>
        <time>2020-05-11T16:37:05Z</time>
      </trkpt>
      <trkpt lat="47.06225" lon="-1.63393">
        <ele>4.9</ele>
        <time>2020-05-11T16:37:07Z</time>
      </trkpt>
      <trkpt lat="47.06236" lon="-1.63395">
        <ele>4.88</ele>
        <time>2020-05-11T16:37:09Z</time>
      </trkpt>
      <trkpt lat="47.06248" lon="-1.634">
        <ele>4.38</ele>
        <time>2020-05-11T16:37:11Z</time>
      </trkpt>
      <trkpt lat="47.06261" lon="-1.63405">
        <ele>4.4</ele>
        <time>2020-05-11T16:37:13Z</time>
      </trkpt>
      <trkpt lat="47.06272" lon="-1.6341">
        <ele>3.93</ele>
        <time>2020-05-11T16:37:15Z</time>
      </trkpt>
      <trkpt lat="47.06285" lon="-1.63415">
        <ele>3.42</ele>
        <time>2020-05-11T16:37:17Z</time>
      </trkpt>
      <trkpt lat="47.06296" lon="-1.63419">
        <ele>3.51</ele>
        <time>2020-05-11T16:37:19Z</time>
      </trkpt>
      <trkpt lat="47.06307" lon="-1.63424">
        <ele>3.03</ele>
        <time>2020-05-11T16:37:21Z</time>
      </trkpt>
      <trkpt lat="47.06319" lon="-1.6343">
        <ele>2.46</ele>
        <time>2020-05-11T16:37:23Z</time>
      </trkpt>
      <trkpt lat="47.06328" lon="-1.63435">
        <ele>1.87</ele>
        <time>2020-05-11T16:37:25Z</time>
      </trkpt>
      <trkpt lat="47.06338" lon="-1.63446">
        <ele>2.91</ele>
        <time>2020-05-11T16:37:27Z</time>
      </trkpt>
      <trkpt lat="47.06346" lon="-1.63457">
        <ele>4.47</ele>
        <time>2020-05-11T16:37:29Z</time>
      </trkpt>
      <trkpt lat="47.06356" lon="-1.6347">
        <ele>5.77</ele>
        <time>2020-05-11T16:37:31Z</time>
      </trkpt>
      <trkpt lat="47.06364" lon="-1.63482">
        <ele>6.77</ele>
        <time>2020-05-11T16:37:33Z</time>
      </trkpt>
      <trkpt lat="47.06371" lon="-1.63497">
        <ele>7.26</ele>
        <time>2020-05-11T16:37:35Z</time>
      </trkpt>
      <trkpt lat="47.0638" lon="-1.63513">
        <ele>7.32</ele>
        <time>2020-05-11T16:37:37Z</time>
      </trkpt>
      <trkpt lat="47.06388" lon="-1.63521">
        <ele>6.81</ele>
        <time>2020-05-11T16:37:38Z</time>
      </trkpt>
      <trkpt lat="47.06399" lon="-1.63533">
        <ele>5.07</ele>
        <time>2020-05-11T16:37:40Z</time>
      </trkpt>
      <trkpt lat="47.0641" lon="-1.63543">
        <ele>4.51</ele>
        <time>2020-05-11T16:37:42Z</time>
      </trkpt>
      <trkpt lat="47.06422" lon="-1.63554">
        <ele>4.43</ele>
        <time>2020-05-11T16:37:44Z</time>
      </trkpt>
      <trkpt lat="47.06434" lon="-1.63566">
        <ele>4.62</ele>
        <time>2020-05-11T16:37:46Z</time>
      </trkpt>
      <trkpt lat="47.06446" lon="-1.63576">
        <ele>4.21</ele>
        <time>2020-05-11T16:37:48Z</time>
      </trkpt>
      <trkpt lat="47.06456" lon="-1.63585">
        <ele>3.57</ele>
        <time>2020-05-11T16:37:50Z</time>
      </trkpt>
      <trkpt lat="47.06466" lon="-1.63594">
        <ele>3.1</ele>
        <time>2020-05-11T16:37:52Z</time>
      </trkpt>
      <trkpt lat="47.06476" lon="-1.63604">
        <ele>1.54</ele>
        <time>2020-05-11T16:37:54Z</time>
      </trkpt>
      <trkpt lat="47.06486" lon="-1.63613">
        <ele>0.35</ele>
        <time>2020-05-11T16:37:56Z</time>
      </trkpt>
      <trkpt lat="47.06497" lon="-1.6362">
        <ele>0.84</ele>
        <time>2020-05-11T16:37:58Z</time>
      </trkpt>
      <trkpt lat="47.06508" lon="-1.63627">
        <ele>0.62</ele>
        <time>2020-05-11T16:38:00Z</time>
      </trkpt>
      <trkpt lat="47.06518" lon="-1.63634">
        <ele>0.43</ele>
        <time>2020-05-11T16:38:02Z</time>
      </trkpt>
      <trkpt lat="47.06529" lon="-1.63641">
        <ele>0.83</ele>
        <time>2020-05-11T16:38:04Z</time>
      </trkpt>
      <trkpt lat="47.06538" lon="-1.63649">
        <ele>1.06</ele>
        <time>2020-05-11T16:38:06Z</time>
      </trkpt>
      <trkpt lat="47.06549" lon="-1.63657">
        <ele>1.17</ele>
        <time>2020-05-11T16:38:08Z</time>
      </trkpt>
      <trkpt lat="47.06559" lon="-1.63664">
        <ele>0.74</ele>
        <time>2020-05-11T16:38:10Z</time>
      </trkpt>
      <trkpt lat="47.06567" lon="-1.6367">
        <ele>1.25</ele>
        <time>2020-05-11T16:38:12Z</time>
      </trkpt>
      <trkpt lat="47.06576" lon="-1.63677">
        <ele>2.23</ele>
        <time>2020-05-11T16:38:14Z</time>
      </trkpt>
      <trkpt lat="47.06585" lon="-1.63684">
        <ele>2.99</ele>
        <time>2020-05-11T16:38:16Z</time>
      </trkpt>
      <trkpt lat="47.06594" lon="-1.63693">
        <ele>4.39</ele>
        <time>2020-05-11T16:38:18Z</time>
      </trkpt>
      <trkpt lat="47.06605" lon="-1.63707">
        <ele>6.11</ele>
        <time>2020-05-11T16:38:20Z</time>
      </trkpt>
      <trkpt lat="47.06613" lon="-1.63719">
        <ele>6.16</ele>
        <time>2020-05-11T16:38:22Z</time>
      </trkpt>
      <trkpt lat="47.06622" lon="-1.63731">
        <ele>5.51</ele>
        <time>2020-05-11T16:38:24Z</time>
      </trkpt>
      <trkpt lat="47.06632" lon="-1.63742">
        <ele>6.05</ele>
        <time>2020-05-11T16:38:26Z</time>
      </trkpt>
      <trkpt lat="47.06641" lon="-1.63753">
        <ele>7.31</ele>
        <time>2020-05-11T16:38:28Z</time>
      </trkpt>
      <trkpt lat="47.0665" lon="-1.63765">
        <ele>7.34</ele>
        <time>2020-05-11T16:38:30Z</time>
      </trkpt>
      <trkpt lat="47.06657" lon="-1.63774">
        <ele>6.81</ele>
        <time>2020-05-11T16:38:32Z</time>
      </trkpt>
      <trkpt lat="47.06665" lon="-1.63784">
        <ele>6.67</ele>
        <time>2020-05-11T16:38:34Z</time>
      </trkpt>
      <trkpt lat="47.06674" lon="-1.63796">
        <ele>4.55</ele>
        <time>2020-05-11T16:38:36Z</time>
      </trkpt>
      <trkpt lat="47.06684" lon="-1.63809">
        <ele>4.51</ele>
        <time>2020-05-11T16:38:38Z</time>
      </trkpt>
      <trkpt lat="47.06693" lon="-1.63819">
        <ele>4.14</ele>
        <time>2020-05-11T16:38:40Z</time>
      </trkpt>
      <trkpt lat="47.06702" lon="-1.63831">
        <ele>3.26</ele>
        <time>2020-05-11T16:38:42Z</time>
      </trkpt>
      <trkpt lat="47.06712" lon="-1.63839">
        <ele>3.02</ele>
        <time>2020-05-11T16:38:44Z</time>
      </trkpt>
      <trkpt lat="47.06727" lon="-1.63837">
        <ele>2.98</ele>
        <time>2020-05-11T16:38:46Z</time>
      </trkpt>
      <trkpt lat="47.06739" lon="-1.63828">
        <ele>3.13</ele>
        <time>2020-05-11T16:38:48Z</time>
      </trkpt>
      <trkpt lat="47.06749" lon="-1.63819">
        <ele>2.83</ele>
        <time>2020-05-11T16:38:50Z</time>
      </trkpt>
      <trkpt lat="47.06759" lon="-1.63809">
        <ele>3.04</ele>
        <time>2020-05-11T16:38:52Z</time>
      </trkpt>
      <trkpt lat="47.06767" lon="-1.63801">
        <ele>3.48</ele>
        <time>2020-05-11T16:38:54Z</time>
      </trkpt>
      <trkpt lat="47.06776" lon="-1.63791">
        <ele>4.73</ele>
        <time>2020-05-11T16:38:56Z</time>
      </trkpt>
      <trkpt lat="47.06786" lon="-1.6378">
        <ele>5.68</ele>
        <time>2020-05-11T16:38:58Z</time>
      </trkpt>
      <trkpt lat="47.06795" lon="-1.6377">
        <ele>7.04</ele>
        <time>2020-05-11T16:39:00Z</time>
      </trkpt>
      <trkpt lat="47.06805" lon="-1.6376">
        <ele>8.11</ele>
        <time>2020-05-11T16:39:02Z</time>
      </trkpt>
      <trkpt lat="47.06816" lon="-1.6375">
        <ele>7.66</ele>
        <time>2020-05-11T16:39:04Z</time>
      </trkpt>
      <trkpt lat="47.06826" lon="-1.6374">
        <ele>6.86</ele>
        <time>2020-05-11T16:39:06Z</time>
      </trkpt>
      <trkpt lat="47.06835" lon="-1.63728">
        <ele>5.53</ele>
        <time>2020-05-11T16:39:08Z</time>
      </trkpt>
      <trkpt lat="47.06844" lon="-1.63712">
        <ele>4.95</ele>
        <time>2020-05-11T16:39:10Z</time>
      </trkpt>
      <trkpt lat="47.06849" lon="-1.6369">
        <ele>4.26</ele>
        <time>2020-05-11T16:39:12Z</time>
      </trkpt>
      <trkpt lat="47.06854" lon="-1.63671">
        <ele>3.44</ele>
        <time>2020-05-11T16:39:14Z</time>
      </trkpt>
      <trkpt lat="47.06857" lon="-1.63652">
        <ele>2.72</ele>
        <time>2020-05-11T16:39:16Z</time>
      </trkpt>
      <trkpt lat="47.06858" lon="-1.63636">
        <ele>2.4</ele>
        <time>2020-05-11T16:39:18Z</time>
      </trkpt>
      <trkpt lat="47.06859" lon="-1.63618">
        <ele>1.77</ele>
        <time>2020-05-11T16:39:20Z</time>
      </trkpt>
      <trkpt lat="47.0686" lon="-1.63602">
        <ele>1.53</ele>
        <time>2020-05-11T16:39:22Z</time>
      </trkpt>
      <trkpt lat="47.0686" lon="-1.63584">
        <ele>2.08</ele>
        <time>2020-05-11T16:39:24Z</time>
      </trkpt>
      <trkpt lat="47.06861" lon="-1.63566">
        <ele>2.78</ele>
        <time>2020-05-11T16:39:26Z</time>
      </trkpt>
      <trkpt lat="47.06863" lon="-1.63546">
        <ele>2.32</ele>
        <time>2020-05-11T16:39:28Z</time>
      </trkpt>
      <trkpt lat="47.06865" lon="-1.6353">
        <ele>1.78</ele>
        <time>2020-05-11T16:39:30Z</time>
      </trkpt>
      <trkpt lat="47.06869" lon="-1.63512">
        <ele>1.5</ele>
        <time>2020-05-11T16:39:32Z</time>
      </trkpt>
      <trkpt lat="47.06874" lon="-1.63496">
        <ele>0.92</ele>
        <time>2020-05-11T16:39:34Z</time>
      </trkpt>
      <trkpt lat="47.0688" lon="-1.63484">
        <ele>0.28</ele>
        <time>2020-05-11T16:39:36Z</time>
      </trkpt>
      <trkpt lat="47.06888" lon="-1.63471">
        <ele>0.24</ele>
        <time>2020-05-11T16:39:38Z</time>
      </trkpt>
      <trkpt lat="47.06898" lon="-1.63461">
        <ele>0.33</ele>
        <time>2020-05-11T16:39:40Z</time>
      </trkpt>
      <trkpt lat="47.06909" lon="-1.63453">
        <ele>0.42</ele>
        <time>2020-05-11T16:39:42Z</time>
      </trkpt>
      <trkpt lat="47.06918" lon="-1.6345">
        <ele>-0.95</ele>
        <time>2020-05-11T16:39:44Z</time>
      </trkpt>
      <trkpt lat="47.06928" lon="-1.63445">
        <ele>-0.9</ele>
        <time>2020-05-11T16:39:46Z</time>
      </trkpt>
      <trkpt lat="47.06937" lon="-1.6344">
        <ele>-1.28</ele>
        <time>2020-05-11T16:39:48Z</time>
      </trkpt>
      <trkpt lat="47.06947" lon="-1.63434">
        <ele>-0.94</ele>
        <time>2020-05-11T16:39:50Z</time>
      </trkpt>
      <trkpt lat="47.06957" lon="-1.63428">
        <ele>-1.03</ele>
        <time>2020-05-11T16:39:52Z</time>
      </trkpt>
      <trkpt lat="47.06967" lon="-1.63417">
        <ele>-0.3</ele>
        <time>2020-05-11T16:39:54Z</time>
      </trkpt>
      <trkpt lat="47.06976" lon="-1.63409">
        <ele>1.66</ele>
        <time>2020-05-11T16:39:56Z</time>
      </trkpt>
      <trkpt lat="47.06985" lon="-1.63399">
        <ele>3.22</ele>
        <time>2020-05-11T16:39:58Z</time>
      </trkpt>
      <trkpt lat="47.06994" lon="-1.6339">
        <ele>4.39</ele>
        <time>2020-05-11T16:40:00Z</time>
      </trkpt>
      <trkpt lat="47.07003" lon="-1.63381">
        <ele>6.31</ele>
        <time>2020-05-11T16:40:02Z</time>
      </trkpt>
      <trkpt lat="47.07014" lon="-1.6337">
        <ele>7.68</ele>
        <time>2020-05-11T16:40:04Z</time>
      </trkpt>
      <trkpt lat="47.07023" lon="-1.6336">
        <ele>8.38</ele>
        <time>2020-05-11T16:40:06Z</time>
      </trkpt>
      <trkpt lat="47.07033" lon="-1.63352">
        <ele>9.51</ele>
        <time>2020-05-11T16:40:08Z</time>
      </trkpt>
      <trkpt lat="47.07041" lon="-1.63344">
        <ele>9.49</ele>
        <time>2020-05-11T16:40:10Z</time>
      </trkpt>
      <trkpt lat="47.07051" lon="-1.63333">
        <ele>9.99</ele>
        <time>2020-05-11T16:40:12Z</time>
      </trkpt>
      <trkpt lat="47.0706" lon="-1.63319">
        <ele>9.65</ele>
        <time>2020-05-11T16:40:14Z</time>
      </trkpt>
      <trkpt lat="47.07067" lon="-1.63303">
        <ele>8.98</ele>
        <time>2020-05-11T16:40:16Z</time>
      </trkpt>
      <trkpt lat="47.07074" lon="-1.63284">
        <ele>9.31</ele>
        <time>2020-05-11T16:40:18Z</time>
      </trkpt>
      <trkpt lat="47.0708" lon="-1.63265">
        <ele>9.74</ele>
        <time>2020-05-11T16:40:20Z</time>
      </trkpt>
      <trkpt lat="47.07086" lon="-1.63247">
        <ele>9.28</ele>
        <time>2020-05-11T16:40:22Z</time>
      </trkpt>
      <trkpt lat="47.07088" lon="-1.63231">
        <ele>9.81</ele>
        <time>2020-05-11T16:40:24Z</time>
      </trkpt>
      <trkpt lat="47.07089" lon="-1.63215">
        <ele>10.15</ele>
        <time>2020-05-11T16:40:26Z</time>
      </trkpt>
      <trkpt lat="47.0709" lon="-1.63198">
        <ele>10.89</ele>
        <time>2020-05-11T16:40:28Z</time>
      </trkpt>
      <trkpt lat="47.07093" lon="-1.63184">
        <ele>10.25</ele>
        <time>2020-05-11T16:40:30Z</time>
      </trkpt>
      <trkpt lat="47.07096" lon="-1.63172">
        <ele>9.89</ele>
        <time>2020-05-11T16:40:33Z</time>
      </trkpt>
      <trkpt lat="47.07104" lon="-1.63161">
        <ele>9.93</ele>
        <time>2020-05-11T16:40:35Z</time>
      </trkpt>
      <trkpt lat="47.07115" lon="-1.63155">
        <ele>10.31</ele>
        <time>2020-05-11T16:40:37Z</time>
      </trkpt>
      <trkpt lat="47.07127" lon="-1.63149">
        <ele>10.68</ele>
        <time>2020-05-11T16:40:39Z</time>
      </trkpt>
      <trkpt lat="47.07137" lon="-1.63145">
        <ele>11.2</ele>
        <time>2020-05-11T16:40:41Z</time>
      </trkpt>
      <trkpt lat="47.07148" lon="-1.63142">
        <ele>12.77</ele>
        <time>2020-05-11T16:40:43Z</time>
      </trkpt>
      <trkpt lat="47.07158" lon="-1.63142">
        <ele>14.57</ele>
        <time>2020-05-11T16:40:45Z</time>
      </trkpt>
      <trkpt lat="47.0717" lon="-1.63143">
        <ele>16.98</ele>
        <time>2020-05-11T16:40:47Z</time>
      </trkpt>
      <trkpt lat="47.07182" lon="-1.63142">
        <ele>18.69</ele>
        <time>2020-05-11T16:40:49Z</time>
      </trkpt>
      <trkpt lat="47.07198" lon="-1.63141">
        <ele>17.17</ele>
        <time>2020-05-11T16:40:51Z</time>
      </trkpt>
      <trkpt lat="47.07208" lon="-1.63143">
        <ele>13.04</ele>
        <time>2020-05-11T16:40:53Z</time>
      </trkpt>
      <trkpt lat="47.07218" lon="-1.63148">
        <ele>9.96</ele>
        <time>2020-05-11T16:40:55Z</time>
      </trkpt>
      <trkpt lat="47.07228" lon="-1.63152">
        <ele>8.06</ele>
        <time>2020-05-11T16:40:57Z</time>
      </trkpt>
      <trkpt lat="47.07238" lon="-1.63159">
        <ele>7.27</ele>
        <time>2020-05-11T16:40:59Z</time>
      </trkpt>
      <trkpt lat="47.07247" lon="-1.63166">
        <ele>7.9</ele>
        <time>2020-05-11T16:41:01Z</time>
      </trkpt>
      <trkpt lat="47.07255" lon="-1.63175">
        <ele>7.59</ele>
        <time>2020-05-11T16:41:03Z</time>
      </trkpt>
      <trkpt lat="47.07264" lon="-1.63182">
        <ele>7.4</ele>
        <time>2020-05-11T16:41:05Z</time>
      </trkpt>
      <trkpt lat="47.07272" lon="-1.63192">
        <ele>7.57</ele>
        <time>2020-05-11T16:41:07Z</time>
      </trkpt>
      <trkpt lat="47.0728" lon="-1.63201">
        <ele>8.69</ele>
        <time>2020-05-11T16:41:09Z</time>
      </trkpt>
      <trkpt lat="47.07288" lon="-1.63211">
        <ele>9.16</ele>
        <time>2020-05-11T16:41:11Z</time>
      </trkpt>
      <trkpt lat="47.07295" lon="-1.63221">
        <ele>8.46</ele>
        <time>2020-05-11T16:41:13Z</time>
      </trkpt>
      <trkpt lat="47.07304" lon="-1.63232">
        <ele>6.71</ele>
        <time>2020-05-11T16:41:15Z</time>
      </trkpt>
      <trkpt lat="47.07311" lon="-1.63243">
        <ele>6.34</ele>
        <time>2020-05-11T16:41:17Z</time>
      </trkpt>
      <trkpt lat="47.0732" lon="-1.63254">
        <ele>7.24</ele>
        <time>2020-05-11T16:41:19Z</time>
      </trkpt>
      <trkpt lat="47.07328" lon="-1.63263">
        <ele>7.11</ele>
        <time>2020-05-11T16:41:21Z</time>
      </trkpt>
      <trkpt lat="47.07339" lon="-1.63276">
        <ele>6.41</ele>
        <time>2020-05-11T16:41:23Z</time>
      </trkpt>
      <trkpt lat="47.07349" lon="-1.63284">
        <ele>5.44</ele>
        <time>2020-05-11T16:41:25Z</time>
      </trkpt>
      <trkpt lat="47.07358" lon="-1.63292">
        <ele>5.3</ele>
        <time>2020-05-11T16:41:27Z</time>
      </trkpt>
      <trkpt lat="47.07367" lon="-1.63299">
        <ele>5.34</ele>
        <time>2020-05-11T16:41:29Z</time>
      </trkpt>
      <trkpt lat="47.07376" lon="-1.63306">
        <ele>6.2</ele>
        <time>2020-05-11T16:41:31Z</time>
      </trkpt>
      <trkpt lat="47.07385" lon="-1.63312">
        <ele>5.25</ele>
        <time>2020-05-11T16:41:33Z</time>
      </trkpt>
      <trkpt lat="47.07395" lon="-1.63319">
        <ele>3.45</ele>
        <time>2020-05-11T16:41:35Z</time>
      </trkpt>
      <trkpt lat="47.07406" lon="-1.63327">
        <ele>2.77</ele>
        <time>2020-05-11T16:41:37Z</time>
      </trkpt>
      <trkpt lat="47.07414" lon="-1.63333">
        <ele>2.84</ele>
        <time>2020-05-11T16:41:39Z</time>
      </trkpt>
      <trkpt lat="47.07424" lon="-1.63339">
        <ele>2.92</ele>
        <time>2020-05-11T16:41:41Z</time>
      </trkpt>
      <trkpt lat="47.07435" lon="-1.63345">
        <ele>4.09</ele>
        <time>2020-05-11T16:41:43Z</time>
      </trkpt>
      <trkpt lat="47.07444" lon="-1.63351">
        <ele>5.63</ele>
        <time>2020-05-11T16:41:45Z</time>
      </trkpt>
      <trkpt lat="47.07454" lon="-1.63357">
        <ele>6.37</ele>
        <time>2020-05-11T16:41:47Z</time>
      </trkpt>
      <trkpt lat="47.07464" lon="-1.63363">
        <ele>6.94</ele>
        <time>2020-05-11T16:41:49Z</time>
      </trkpt>
      <trkpt lat="47.07475" lon="-1.63368">
        <ele>7.33</ele>
        <time>2020-05-11T16:41:51Z</time>
      </trkpt>
      <trkpt lat="47.07487" lon="-1.63376">
        <ele>6.47</ele>
        <time>2020-05-11T16:41:53Z</time>
      </trkpt>
      <trkpt lat="47.07496" lon="-1.63381">
        <ele>6.25</ele>
        <time>2020-05-11T16:41:55Z</time>
      </trkpt>
      <trkpt lat="47.07507" lon="-1.63389">
        <ele>6</ele>
        <time>2020-05-11T16:41:57Z</time>
      </trkpt>
      <trkpt lat="47.07521" lon="-1.63397">
        <ele>6.12</ele>
        <time>2020-05-11T16:42:00Z</time>
      </trkpt>
      <trkpt lat="47.0753" lon="-1.63402">
        <ele>6.02</ele>
        <time>2020-05-11T16:42:02Z</time>
      </trkpt>
      <trkpt lat="47.07539" lon="-1.63409">
        <ele>6.68</ele>
        <time>2020-05-11T16:42:04Z</time>
      </trkpt>
      <trkpt lat="47.07553" lon="-1.63417">
        <ele>7.04</ele>
        <time>2020-05-11T16:42:06Z</time>
      </trkpt>
      <trkpt lat="47.07564" lon="-1.63423">
        <ele>6.89</ele>
        <time>2020-05-11T16:42:08Z</time>
      </trkpt>
      <trkpt lat="47.07573" lon="-1.63428">
        <ele>6</ele>
        <time>2020-05-11T16:42:10Z</time>
      </trkpt>
      <trkpt lat="47.07586" lon="-1.63431">
        <ele>5.34</ele>
        <time>2020-05-11T16:42:12Z</time>
      </trkpt>
      <trkpt lat="47.07595" lon="-1.63433">
        <ele>6.84</ele>
        <time>2020-05-11T16:42:14Z</time>
      </trkpt>
      <trkpt lat="47.07605" lon="-1.63433">
        <ele>8.4</ele>
        <time>2020-05-11T16:42:16Z</time>
      </trkpt>
      <trkpt lat="47.07618" lon="-1.6343">
        <ele>9.55</ele>
        <time>2020-05-11T16:42:19Z</time>
      </trkpt>
      <trkpt lat="47.07629" lon="-1.63429">
        <ele>9.38</ele>
        <time>2020-05-11T16:42:21Z</time>
      </trkpt>
      <trkpt lat="47.07641" lon="-1.63425">
        <ele>10.12</ele>
        <time>2020-05-11T16:42:23Z</time>
      </trkpt>
      <trkpt lat="47.07651" lon="-1.63422">
        <ele>10.22</ele>
        <time>2020-05-11T16:42:25Z</time>
      </trkpt>
      <trkpt lat="47.07661" lon="-1.63419">
        <ele>9.75</ele>
        <time>2020-05-11T16:42:27Z</time>
      </trkpt>
      <trkpt lat="47.07675" lon="-1.63417">
        <ele>9.43</ele>
        <time>2020-05-11T16:42:29Z</time>
      </trkpt>
      <trkpt lat="47.07686" lon="-1.63413">
        <ele>9.26</ele>
        <time>2020-05-11T16:42:32Z</time>
      </trkpt>
      <trkpt lat="47.07698" lon="-1.63406">
        <ele>11.48</ele>
        <time>2020-05-11T16:42:35Z</time>
      </trkpt>
      <trkpt lat="47.07706" lon="-1.63398">
        <ele>12.65</ele>
        <time>2020-05-11T16:42:37Z</time>
      </trkpt>
      <trkpt lat="47.07716" lon="-1.63388">
        <ele>13.24</ele>
        <time>2020-05-11T16:42:39Z</time>
      </trkpt>
      <trkpt lat="47.07726" lon="-1.63377">
        <ele>13.26</ele>
        <time>2020-05-11T16:42:41Z</time>
      </trkpt>
      <trkpt lat="47.07736" lon="-1.63367">
        <ele>12.95</ele>
        <time>2020-05-11T16:42:44Z</time>
      </trkpt>
      <trkpt lat="47.07746" lon="-1.63356">
        <ele>12.49</ele>
        <time>2020-05-11T16:42:46Z</time>
      </trkpt>
      <trkpt lat="47.07756" lon="-1.63344">
        <ele>12.4</ele>
        <time>2020-05-11T16:42:48Z</time>
      </trkpt>
      <trkpt lat="47.07765" lon="-1.63332">
        <ele>12.38</ele>
        <time>2020-05-11T16:42:50Z</time>
      </trkpt>
      <trkpt lat="47.07772" lon="-1.63324">
        <ele>13.51</ele>
        <time>2020-05-11T16:42:52Z</time>
      </trkpt>
      <trkpt lat="47.07782" lon="-1.63314">
        <ele>13.44</ele>
        <time>2020-05-11T16:42:54Z</time>
      </trkpt>
      <trkpt lat="47.07791" lon="-1.63303">
        <ele>13.04</ele>
        <time>2020-05-11T16:42:56Z</time>
      </trkpt>
      <trkpt lat="47.078" lon="-1.63291">
        <ele>12.9</ele>
        <time>2020-05-11T16:42:58Z</time>
      </trkpt>
      <trkpt lat="47.0781" lon="-1.63278">
        <ele>12.52</ele>
        <time>2020-05-11T16:43:00Z</time>
      </trkpt>
      <trkpt lat="47.07817" lon="-1.63264">
        <ele>13.61</ele>
        <time>2020-05-11T16:43:02Z</time>
      </trkpt>
      <trkpt lat="47.07822" lon="-1.63242">
        <ele>15.32</ele>
        <time>2020-05-11T16:43:04Z</time>
      </trkpt>
      <trkpt lat="47.07823" lon="-1.63219">
        <ele>16.31</ele>
        <time>2020-05-11T16:43:06Z</time>
      </trkpt>
      <trkpt lat="47.07818" lon="-1.63203">
        <ele>16.5</ele>
        <time>2020-05-11T16:43:08Z</time>
      </trkpt>
      <trkpt lat="47.07812" lon="-1.63188">
        <ele>16.05</ele>
        <time>2020-05-11T16:43:10Z</time>
      </trkpt>
      <trkpt lat="47.07806" lon="-1.63174">
        <ele>15.69</ele>
        <time>2020-05-11T16:43:12Z</time>
      </trkpt>
      <trkpt lat="47.078" lon="-1.6316">
        <ele>14.88</ele>
        <time>2020-05-11T16:43:14Z</time>
      </trkpt>
      <trkpt lat="47.07795" lon="-1.63147">
        <ele>14.16</ele>
        <time>2020-05-11T16:43:16Z</time>
      </trkpt>
      <trkpt lat="47.07795" lon="-1.63134">
        <ele>12.88</ele>
        <time>2020-05-11T16:43:18Z</time>
      </trkpt>
      <trkpt lat="47.07807" lon="-1.63127">
        <ele>10.78</ele>
        <time>2020-05-11T16:43:21Z</time>
      </trkpt>
      <trkpt lat="47.07817" lon="-1.63125">
        <ele>10.32</ele>
        <time>2020-05-11T16:43:23Z</time>
      </trkpt>
      <trkpt lat="47.07829" lon="-1.63124">
        <ele>9.53</ele>
        <time>2020-05-11T16:43:25Z</time>
      </trkpt>
      <trkpt lat="47.0784" lon="-1.63123">
        <ele>8.86</ele>
        <time>2020-05-11T16:43:27Z</time>
      </trkpt>
      <trkpt lat="47.07852" lon="-1.63124">
        <ele>9.1</ele>
        <time>2020-05-11T16:43:29Z</time>
      </trkpt>
      <trkpt lat="47.07863" lon="-1.63125">
        <ele>9.51</ele>
        <time>2020-05-11T16:43:31Z</time>
      </trkpt>
      <trkpt lat="47.07875" lon="-1.63125">
        <ele>10.06</ele>
        <time>2020-05-11T16:43:33Z</time>
      </trkpt>
      <trkpt lat="47.07887" lon="-1.63123">
        <ele>10.38</ele>
        <time>2020-05-11T16:43:35Z</time>
      </trkpt>
      <trkpt lat="47.07898" lon="-1.63122">
        <ele>9.89</ele>
        <time>2020-05-11T16:43:37Z</time>
      </trkpt>
      <trkpt lat="47.07908" lon="-1.63121">
        <ele>10.78</ele>
        <time>2020-05-11T16:43:39Z</time>
      </trkpt>
      <trkpt lat="47.07917" lon="-1.6312">
        <ele>9.45</ele>
        <time>2020-05-11T16:43:41Z</time>
      </trkpt>
      <trkpt lat="47.07931" lon="-1.6312">
        <ele>7.16</ele>
        <time>2020-05-11T16:43:43Z</time>
      </trkpt>
      <trkpt lat="47.07941" lon="-1.63119">
        <ele>6.11</ele>
        <time>2020-05-11T16:43:45Z</time>
      </trkpt>
      <trkpt lat="47.07951" lon="-1.63119">
        <ele>5.11</ele>
        <time>2020-05-11T16:43:47Z</time>
      </trkpt>
      <trkpt lat="47.07963" lon="-1.63117">
        <ele>5.8</ele>
        <time>2020-05-11T16:43:50Z</time>
      </trkpt>
      <trkpt lat="47.07974" lon="-1.63117">
        <ele>5.46</ele>
        <time>2020-05-11T16:43:52Z</time>
      </trkpt>
      <trkpt lat="47.07986" lon="-1.63117">
        <ele>6.82</ele>
        <time>2020-05-11T16:43:54Z</time>
      </trkpt>
      <trkpt lat="47.07996" lon="-1.63116">
        <ele>8.55</ele>
        <time>2020-05-11T16:43:56Z</time>
      </trkpt>
      <trkpt lat="47.08008" lon="-1.63113">
        <ele>10.07</ele>
        <time>2020-05-11T16:43:59Z</time>
      </trkpt>
      <trkpt lat="47.08018" lon="-1.63112">
        <ele>9.42</ele>
        <time>2020-05-11T16:44:01Z</time>
      </trkpt>
      <trkpt lat="47.08029" lon="-1.63109">
        <ele>9.05</ele>
        <time>2020-05-11T16:44:03Z</time>
      </trkpt>
      <trkpt lat="47.0804" lon="-1.63106">
        <ele>8.33</ele>
        <time>2020-05-11T16:44:05Z</time>
      </trkpt>
      <trkpt lat="47.08053" lon="-1.63105">
        <ele>7.62</ele>
        <time>2020-05-11T16:44:08Z</time>
      </trkpt>
      <trkpt lat="47.08063" lon="-1.63105">
        <ele>8.38</ele>
        <time>2020-05-11T16:44:10Z</time>
      </trkpt>
      <trkpt lat="47.08074" lon="-1.63105">
        <ele>8.1</ele>
        <time>2020-05-11T16:44:12Z</time>
      </trkpt>
      <trkpt lat="47.08085" lon="-1.63103">
        <ele>9.91</ele>
        <time>2020-05-11T16:44:14Z</time>
      </trkpt>
      <trkpt lat="47.08096" lon="-1.63103">
        <ele>9.88</ele>
        <time>2020-05-11T16:44:16Z</time>
      </trkpt>
      <trkpt lat="47.08108" lon="-1.63101">
        <ele>10.33</ele>
        <time>2020-05-11T16:44:18Z</time>
      </trkpt>
      <trkpt lat="47.08119" lon="-1.631">
        <ele>10.69</ele>
        <time>2020-05-11T16:44:20Z</time>
      </trkpt>
      <trkpt lat="47.08132" lon="-1.63099">
        <ele>9.42</ele>
        <time>2020-05-11T16:44:22Z</time>
      </trkpt>
      <trkpt lat="47.08146" lon="-1.63097">
        <ele>7.63</ele>
        <time>2020-05-11T16:44:24Z</time>
      </trkpt>
      <trkpt lat="47.08156" lon="-1.63096">
        <ele>7.05</ele>
        <time>2020-05-11T16:44:26Z</time>
      </trkpt>
      <trkpt lat="47.08166" lon="-1.63096">
        <ele>7.14</ele>
        <time>2020-05-11T16:44:28Z</time>
      </trkpt>
      <trkpt lat="47.08176" lon="-1.63097">
        <ele>8.28</ele>
        <time>2020-05-11T16:44:30Z</time>
      </trkpt>
      <trkpt lat="47.08186" lon="-1.63098">
        <ele>10.32</ele>
        <time>2020-05-11T16:44:32Z</time>
      </trkpt>
      <trkpt lat="47.08198" lon="-1.63095">
        <ele>11.59</ele>
        <time>2020-05-11T16:44:34Z</time>
      </trkpt>
      <trkpt lat="47.0821" lon="-1.63093">
        <ele>12.58</ele>
        <time>2020-05-11T16:44:36Z</time>
      </trkpt>
      <trkpt lat="47.08221" lon="-1.63092">
        <ele>13.8</ele>
        <time>2020-05-11T16:44:38Z</time>
      </trkpt>
      <trkpt lat="47.08231" lon="-1.63093">
        <ele>13.94</ele>
        <time>2020-05-11T16:44:40Z</time>
      </trkpt>
      <trkpt lat="47.08242" lon="-1.63092">
        <ele>13.17</ele>
        <time>2020-05-11T16:44:42Z</time>
      </trkpt>
      <trkpt lat="47.08255" lon="-1.63092">
        <ele>12.45</ele>
        <time>2020-05-11T16:44:44Z</time>
      </trkpt>
      <trkpt lat="47.08265" lon="-1.63093">
        <ele>12.25</ele>
        <time>2020-05-11T16:44:46Z</time>
      </trkpt>
      <trkpt lat="47.08279" lon="-1.63097">
        <ele>11.15</ele>
        <time>2020-05-11T16:44:48Z</time>
      </trkpt>
      <trkpt lat="47.08289" lon="-1.63097">
        <ele>10.24</ele>
        <time>2020-05-11T16:44:50Z</time>
      </trkpt>
      <trkpt lat="47.08304" lon="-1.631">
        <ele>10.99</ele>
        <time>2020-05-11T16:44:53Z</time>
      </trkpt>
      <trkpt lat="47.08318" lon="-1.63099">
        <ele>11.02</ele>
        <time>2020-05-11T16:44:55Z</time>
      </trkpt>
      <trkpt lat="47.08332" lon="-1.63098">
        <ele>10.97</ele>
        <time>2020-05-11T16:44:57Z</time>
      </trkpt>
      <trkpt lat="47.08343" lon="-1.63098">
        <ele>10.68</ele>
        <time>2020-05-11T16:44:59Z</time>
      </trkpt>
      <trkpt lat="47.08355" lon="-1.63097">
        <ele>10.9</ele>
        <time>2020-05-11T16:45:01Z</time>
      </trkpt>
      <trkpt lat="47.08367" lon="-1.63095">
        <ele>11.27</ele>
        <time>2020-05-11T16:45:03Z</time>
      </trkpt>
      <trkpt lat="47.0838" lon="-1.63095">
        <ele>11.57</ele>
        <time>2020-05-11T16:45:05Z</time>
      </trkpt>
      <trkpt lat="47.08392" lon="-1.63091">
        <ele>13.19</ele>
        <time>2020-05-11T16:45:08Z</time>
      </trkpt>
      <trkpt lat="47.08403" lon="-1.63088">
        <ele>14.37</ele>
        <time>2020-05-11T16:45:10Z</time>
      </trkpt>
      <trkpt lat="47.08413" lon="-1.63079">
        <ele>13.84</ele>
        <time>2020-05-11T16:45:12Z</time>
      </trkpt>
      <trkpt lat="47.08421" lon="-1.6307">
        <ele>13.33</ele>
        <time>2020-05-11T16:45:13Z</time>
      </trkpt>
      <trkpt lat="47.08433" lon="-1.63056">
        <ele>13.07</ele>
        <time>2020-05-11T16:45:15Z</time>
      </trkpt>
      <trkpt lat="47.0844" lon="-1.63041">
        <ele>12.64</ele>
        <time>2020-05-11T16:45:17Z</time>
      </trkpt>
      <trkpt lat="47.08447" lon="-1.63025">
        <ele>10.25</ele>
        <time>2020-05-11T16:45:19Z</time>
      </trkpt>
      <trkpt lat="47.08456" lon="-1.63007">
        <ele>7.79</ele>
        <time>2020-05-11T16:45:21Z</time>
      </trkpt>
      <trkpt lat="47.08463" lon="-1.62994">
        <ele>5.24</ele>
        <time>2020-05-11T16:45:23Z</time>
      </trkpt>
      <trkpt lat="47.0847" lon="-1.62981">
        <ele>4.57</ele>
        <time>2020-05-11T16:45:25Z</time>
      </trkpt>
      <trkpt lat="47.08478" lon="-1.62969">
        <ele>4.7</ele>
        <time>2020-05-11T16:45:27Z</time>
      </trkpt>
      <trkpt lat="47.08485" lon="-1.62958">
        <ele>4.76</ele>
        <time>2020-05-11T16:45:29Z</time>
      </trkpt>
      <trkpt lat="47.08494" lon="-1.62942">
        <ele>4.56</ele>
        <time>2020-05-11T16:45:32Z</time>
      </trkpt>
      <trkpt lat="47.08502" lon="-1.62928">
        <ele>4.28</ele>
        <time>2020-05-11T16:45:34Z</time>
      </trkpt>
      <trkpt lat="47.08507" lon="-1.62917">
        <ele>4.34</ele>
        <time>2020-05-11T16:45:36Z</time>
      </trkpt>
      <trkpt lat="47.08515" lon="-1.62902">
        <ele>5.38</ele>
        <time>2020-05-11T16:45:38Z</time>
      </trkpt>
      <trkpt lat="47.08524" lon="-1.62886">
        <ele>5.85</ele>
        <time>2020-05-11T16:45:40Z</time>
      </trkpt>
      <trkpt lat="47.08533" lon="-1.62872">
        <ele>7.33</ele>
        <time>2020-05-11T16:45:43Z</time>
      </trkpt>
      <trkpt lat="47.08539" lon="-1.6286">
        <ele>7.55</ele>
        <time>2020-05-11T16:45:45Z</time>
      </trkpt>
      <trkpt lat="47.0855" lon="-1.62845">
        <ele>7.92</ele>
        <time>2020-05-11T16:45:48Z</time>
      </trkpt>
      <trkpt lat="47.0856" lon="-1.62833">
        <ele>9.21</ele>
        <time>2020-05-11T16:45:51Z</time>
      </trkpt>
      <trkpt lat="47.08566" lon="-1.62815">
        <ele>8.78</ele>
        <time>2020-05-11T16:45:54Z</time>
      </trkpt>
      <trkpt lat="47.08568" lon="-1.62794">
        <ele>7.05</ele>
        <time>2020-05-11T16:45:56Z</time>
      </trkpt>
      <trkpt lat="47.08573" lon="-1.62774">
        <ele>5.78</ele>
        <time>2020-05-11T16:45:58Z</time>
      </trkpt>
      <trkpt lat="47.08575" lon="-1.62757">
        <ele>5.58</ele>
        <time>2020-05-11T16:46:00Z</time>
      </trkpt>
      <trkpt lat="47.08577" lon="-1.62743">
        <ele>6.23</ele>
        <time>2020-05-11T16:46:02Z</time>
      </trkpt>
      <trkpt lat="47.08579" lon="-1.62721">
        <ele>5.94</ele>
        <time>2020-05-11T16:46:05Z</time>
      </trkpt>
      <trkpt lat="47.08579" lon="-1.62705">
        <ele>3.54</ele>
        <time>2020-05-11T16:46:07Z</time>
      </trkpt>
      <trkpt lat="47.0858" lon="-1.62687">
        <ele>3.3</ele>
        <time>2020-05-11T16:46:09Z</time>
      </trkpt>
      <trkpt lat="47.08582" lon="-1.62671">
        <ele>3.45</ele>
        <time>2020-05-11T16:46:11Z</time>
      </trkpt>
      <trkpt lat="47.08583" lon="-1.62656">
        <ele>2.62</ele>
        <time>2020-05-11T16:46:13Z</time>
      </trkpt>
      <trkpt lat="47.08582" lon="-1.62638">
        <ele>0.68</ele>
        <time>2020-05-11T16:46:15Z</time>
      </trkpt>
      <trkpt lat="47.08583" lon="-1.62622">
        <ele>-0.61</ele>
        <time>2020-05-11T16:46:17Z</time>
      </trkpt>
      <trkpt lat="47.08584" lon="-1.62606">
        <ele>0.65</ele>
        <time>2020-05-11T16:46:19Z</time>
      </trkpt>
      <trkpt lat="47.08584" lon="-1.62592">
        <ele>2.3</ele>
        <time>2020-05-11T16:46:21Z</time>
      </trkpt>
      <trkpt lat="47.08585" lon="-1.62577">
        <ele>2.77</ele>
        <time>2020-05-11T16:46:23Z</time>
      </trkpt>
      <trkpt lat="47.08586" lon="-1.62563">
        <ele>3.1</ele>
        <time>2020-05-11T16:46:25Z</time>
      </trkpt>
      <trkpt lat="47.08587" lon="-1.62548">
        <ele>3.01</ele>
        <time>2020-05-11T16:46:27Z</time>
      </trkpt>
      <trkpt lat="47.08587" lon="-1.62531">
        <ele>3.74</ele>
        <time>2020-05-11T16:46:29Z</time>
      </trkpt>
      <trkpt lat="47.08589" lon="-1.62507">
        <ele>2.92</ele>
        <time>2020-05-11T16:46:32Z</time>
      </trkpt>
      <trkpt lat="47.08589" lon="-1.62488">
        <ele>2.39</ele>
        <time>2020-05-11T16:46:34Z</time>
      </trkpt>
      <trkpt lat="47.08591" lon="-1.62471">
        <ele>3.15</ele>
        <time>2020-05-11T16:46:36Z</time>
      </trkpt>
      <trkpt lat="47.08591" lon="-1.62455">
        <ele>2.52</ele>
        <time>2020-05-11T16:46:38Z</time>
      </trkpt>
      <trkpt lat="47.08592" lon="-1.62434">
        <ele>2.46</ele>
        <time>2020-05-11T16:46:41Z</time>
      </trkpt>
      <trkpt lat="47.08593" lon="-1.62417">
        <ele>1.7</ele>
        <time>2020-05-11T16:46:43Z</time>
      </trkpt>
      <trkpt lat="47.08593" lon="-1.62401">
        <ele>2.53</ele>
        <time>2020-05-11T16:46:45Z</time>
      </trkpt>
      <trkpt lat="47.08594" lon="-1.62382">
        <ele>4.74</ele>
        <time>2020-05-11T16:46:47Z</time>
      </trkpt>
      <trkpt lat="47.08595" lon="-1.62367">
        <ele>5.21</ele>
        <time>2020-05-11T16:46:49Z</time>
      </trkpt>
      <trkpt lat="47.08604" lon="-1.62358">
        <ele>4.18</ele>
        <time>2020-05-11T16:46:52Z</time>
      </trkpt>
      <trkpt lat="47.08615" lon="-1.62353">
        <ele>3.41</ele>
        <time>2020-05-11T16:46:54Z</time>
      </trkpt>
      <trkpt lat="47.08626" lon="-1.62348">
        <ele>2.45</ele>
        <time>2020-05-11T16:46:56Z</time>
      </trkpt>
      <trkpt lat="47.08637" lon="-1.62343">
        <ele>0.66</ele>
        <time>2020-05-11T16:46:58Z</time>
      </trkpt>
      <trkpt lat="47.08648" lon="-1.62337">
        <ele>-0.65</ele>
        <time>2020-05-11T16:47:00Z</time>
      </trkpt>
      <trkpt lat="47.0866" lon="-1.62333">
        <ele>-0.93</ele>
        <time>2020-05-11T16:47:02Z</time>
      </trkpt>
      <trkpt lat="47.08671" lon="-1.62329">
        <ele>-0.79</ele>
        <time>2020-05-11T16:47:04Z</time>
      </trkpt>
      <trkpt lat="47.08681" lon="-1.62324">
        <ele>-1.72</ele>
        <time>2020-05-11T16:47:06Z</time>
      </trkpt>
      <trkpt lat="47.08691" lon="-1.6232">
        <ele>-3.51</ele>
        <time>2020-05-11T16:47:08Z</time>
      </trkpt>
      <trkpt lat="47.08702" lon="-1.62315">
        <ele>-4.85</ele>
        <time>2020-05-11T16:47:10Z</time>
      </trkpt>
      <trkpt lat="47.08715" lon="-1.62311">
        <ele>-4</ele>
        <time>2020-05-11T16:47:13Z</time>
      </trkpt>
      <trkpt lat="47.08724" lon="-1.62308">
        <ele>-2.8</ele>
        <time>2020-05-11T16:47:15Z</time>
      </trkpt>
      <trkpt lat="47.08735" lon="-1.62303">
        <ele>-0.96</ele>
        <time>2020-05-11T16:47:17Z</time>
      </trkpt>
      <trkpt lat="47.08745" lon="-1.62299">
        <ele>1.93</ele>
        <time>2020-05-11T16:47:19Z</time>
      </trkpt>
      <trkpt lat="47.08754" lon="-1.62296">
        <ele>1.81</ele>
        <time>2020-05-11T16:47:21Z</time>
      </trkpt>
      <trkpt lat="47.08763" lon="-1.62293">
        <ele>1.85</ele>
        <time>2020-05-11T16:47:23Z</time>
      </trkpt>
      <trkpt lat="47.08778" lon="-1.62288">
        <ele>2.42</ele>
        <time>2020-05-11T16:47:26Z</time>
      </trkpt>
      <trkpt lat="47.08788" lon="-1.62284">
        <ele>1.91</ele>
        <time>2020-05-11T16:47:28Z</time>
      </trkpt>
      <trkpt lat="47.08797" lon="-1.6228">
        <ele>1.69</ele>
        <time>2020-05-11T16:47:30Z</time>
      </trkpt>
      <trkpt lat="47.08806" lon="-1.62277">
        <ele>2.03</ele>
        <time>2020-05-11T16:47:32Z</time>
      </trkpt>
      <trkpt lat="47.08816" lon="-1.62273">
        <ele>1.99</ele>
        <time>2020-05-11T16:47:34Z</time>
      </trkpt>
      <trkpt lat="47.08827" lon="-1.62267">
        <ele>1.66</ele>
        <time>2020-05-11T16:47:36Z</time>
      </trkpt>
      <trkpt lat="47.08836" lon="-1.62263">
        <ele>1.49</ele>
        <time>2020-05-11T16:47:38Z</time>
      </trkpt>
      <trkpt lat="47.08846" lon="-1.62259">
        <ele>1.01</ele>
        <time>2020-05-11T16:47:40Z</time>
      </trkpt>
      <trkpt lat="47.08855" lon="-1.62255">
        <ele>0.4</ele>
        <time>2020-05-11T16:47:42Z</time>
      </trkpt>
      <trkpt lat="47.08865" lon="-1.62251">
        <ele>0.45</ele>
        <time>2020-05-11T16:47:44Z</time>
      </trkpt>
      <trkpt lat="47.08879" lon="-1.62246">
        <ele>0.67</ele>
        <time>2020-05-11T16:47:47Z</time>
      </trkpt>
      <trkpt lat="47.08891" lon="-1.6224">
        <ele>0.55</ele>
        <time>2020-05-11T16:47:50Z</time>
      </trkpt>
      <trkpt lat="47.08901" lon="-1.62236">
        <ele>1.41</ele>
        <time>2020-05-11T16:47:52Z</time>
      </trkpt>
      <trkpt lat="47.0891" lon="-1.62232">
        <ele>1.57</ele>
        <time>2020-05-11T16:47:54Z</time>
      </trkpt>
      <trkpt lat="47.0892" lon="-1.62227">
        <ele>2.26</ele>
        <time>2020-05-11T16:47:56Z</time>
      </trkpt>
      <trkpt lat="47.0893" lon="-1.62223">
        <ele>3.16</ele>
        <time>2020-05-11T16:47:58Z</time>
      </trkpt>
      <trkpt lat="47.0894" lon="-1.62219">
        <ele>3.69</ele>
        <time>2020-05-11T16:48:00Z</time>
      </trkpt>
      <trkpt lat="47.08952" lon="-1.62214">
        <ele>4.04</ele>
        <time>2020-05-11T16:48:03Z</time>
      </trkpt>
      <trkpt lat="47.08962" lon="-1.6221">
        <ele>3.82</ele>
        <time>2020-05-11T16:48:05Z</time>
      </trkpt>
      <trkpt lat="47.08973" lon="-1.62205">
        <ele>3.48</ele>
        <time>2020-05-11T16:48:07Z</time>
      </trkpt>
      <trkpt lat="47.08982" lon="-1.622">
        <ele>2.5</ele>
        <time>2020-05-11T16:48:09Z</time>
      </trkpt>
      <trkpt lat="47.08993" lon="-1.62195">
        <ele>0.42</ele>
        <time>2020-05-11T16:48:12Z</time>
      </trkpt>
      <trkpt lat="47.09003" lon="-1.62193">
        <ele>0.22</ele>
        <time>2020-05-11T16:48:14Z</time>
      </trkpt>
      <trkpt lat="47.09013" lon="-1.62189">
        <ele>0.49</ele>
        <time>2020-05-11T16:48:16Z</time>
      </trkpt>
      <trkpt lat="47.09023" lon="-1.62184">
        <ele>0.05</ele>
        <time>2020-05-11T16:48:18Z</time>
      </trkpt>
      <trkpt lat="47.09033" lon="-1.6218">
        <ele>-0.1</ele>
        <time>2020-05-11T16:48:20Z</time>
      </trkpt>
      <trkpt lat="47.09043" lon="-1.62177">
        <ele>0.06</ele>
        <time>2020-05-11T16:48:22Z</time>
      </trkpt>
      <trkpt lat="47.09054" lon="-1.62172">
        <ele>0.69</ele>
        <time>2020-05-11T16:48:25Z</time>
      </trkpt>
      <trkpt lat="47.09067" lon="-1.62167">
        <ele>2.24</ele>
        <time>2020-05-11T16:48:28Z</time>
      </trkpt>
      <trkpt lat="47.09076" lon="-1.62164">
        <ele>2.56</ele>
        <time>2020-05-11T16:48:30Z</time>
      </trkpt>
      <trkpt lat="47.09085" lon="-1.6216">
        <ele>2.13</ele>
        <time>2020-05-11T16:48:32Z</time>
      </trkpt>
      <trkpt lat="47.09094" lon="-1.62156">
        <ele>1.59</ele>
        <time>2020-05-11T16:48:34Z</time>
      </trkpt>
      <trkpt lat="47.09105" lon="-1.62151">
        <ele>1.37</ele>
        <time>2020-05-11T16:48:37Z</time>
      </trkpt>
      <trkpt lat="47.09118" lon="-1.62145">
        <ele>2.47</ele>
        <time>2020-05-11T16:48:40Z</time>
      </trkpt>
      <trkpt lat="47.0913" lon="-1.6214">
        <ele>3.24</ele>
        <time>2020-05-11T16:48:43Z</time>
      </trkpt>
      <trkpt lat="47.09143" lon="-1.62135">
        <ele>5.18</ele>
        <time>2020-05-11T16:48:46Z</time>
      </trkpt>
      <trkpt lat="47.09155" lon="-1.62131">
        <ele>6.37</ele>
        <time>2020-05-11T16:48:49Z</time>
      </trkpt>
      <trkpt lat="47.09165" lon="-1.62127">
        <ele>6.05</ele>
        <time>2020-05-11T16:48:51Z</time>
      </trkpt>
      <trkpt lat="47.09174" lon="-1.62123">
        <ele>4.9</ele>
        <time>2020-05-11T16:48:53Z</time>
      </trkpt>
      <trkpt lat="47.09181" lon="-1.62111">
        <ele>4.04</ele>
        <time>2020-05-11T16:48:55Z</time>
      </trkpt>
      <trkpt lat="47.09181" lon="-1.62091">
        <ele>2.97</ele>
        <time>2020-05-11T16:48:57Z</time>
      </trkpt>
      <trkpt lat="47.09176" lon="-1.62078">
        <ele>3.15</ele>
        <time>2020-05-11T16:48:59Z</time>
      </trkpt>
      <trkpt lat="47.0917" lon="-1.62065">
        <ele>3.58</ele>
        <time>2020-05-11T16:49:01Z</time>
      </trkpt>
      <trkpt lat="47.09165" lon="-1.6205">
        <ele>4.22</ele>
        <time>2020-05-11T16:49:03Z</time>
      </trkpt>
      <trkpt lat="47.0916" lon="-1.62034">
        <ele>4.82</ele>
        <time>2020-05-11T16:49:05Z</time>
      </trkpt>
      <trkpt lat="47.09154" lon="-1.62017">
        <ele>5.34</ele>
        <time>2020-05-11T16:49:07Z</time>
      </trkpt>
      <trkpt lat="47.09149" lon="-1.62002">
        <ele>5.86</ele>
        <time>2020-05-11T16:49:09Z</time>
      </trkpt>
      <trkpt lat="47.09143" lon="-1.61985">
        <ele>5.68</ele>
        <time>2020-05-11T16:49:11Z</time>
      </trkpt>
      <trkpt lat="47.09139" lon="-1.61972">
        <ele>5.12</ele>
        <time>2020-05-11T16:49:13Z</time>
      </trkpt>
      <trkpt lat="47.09134" lon="-1.61959">
        <ele>4.98</ele>
        <time>2020-05-11T16:49:15Z</time>
      </trkpt>
      <trkpt lat="47.09128" lon="-1.61944">
        <ele>5.23</ele>
        <time>2020-05-11T16:49:17Z</time>
      </trkpt>
      <trkpt lat="47.09122" lon="-1.61929">
        <ele>6.62</ele>
        <time>2020-05-11T16:49:19Z</time>
      </trkpt>
      <trkpt lat="47.09117" lon="-1.61914">
        <ele>6.95</ele>
        <time>2020-05-11T16:49:21Z</time>
      </trkpt>
      <trkpt lat="47.09112" lon="-1.619">
        <ele>8.05</ele>
        <time>2020-05-11T16:49:23Z</time>
      </trkpt>
      <trkpt lat="47.09107" lon="-1.61887">
        <ele>9.6</ele>
        <time>2020-05-11T16:49:25Z</time>
      </trkpt>
      <trkpt lat="47.09102" lon="-1.61872">
        <ele>10.03</ele>
        <time>2020-05-11T16:49:27Z</time>
      </trkpt>
      <trkpt lat="47.09096" lon="-1.61858">
        <ele>10.33</ele>
        <time>2020-05-11T16:49:29Z</time>
      </trkpt>
      <trkpt lat="47.09091" lon="-1.61846">
        <ele>9.94</ele>
        <time>2020-05-11T16:49:31Z</time>
      </trkpt>
      <trkpt lat="47.09085" lon="-1.61829">
        <ele>11.44</ele>
        <time>2020-05-11T16:49:33Z</time>
      </trkpt>
      <trkpt lat="47.09081" lon="-1.61817">
        <ele>11.56</ele>
        <time>2020-05-11T16:49:35Z</time>
      </trkpt>
      <trkpt lat="47.09075" lon="-1.618">
        <ele>9.44</ele>
        <time>2020-05-11T16:49:37Z</time>
      </trkpt>
      <trkpt lat="47.09069" lon="-1.61785">
        <ele>9.04</ele>
        <time>2020-05-11T16:49:39Z</time>
      </trkpt>
      <trkpt lat="47.09064" lon="-1.61771">
        <ele>9.54</ele>
        <time>2020-05-11T16:49:41Z</time>
      </trkpt>
      <trkpt lat="47.09059" lon="-1.61756">
        <ele>10.26</ele>
        <time>2020-05-11T16:49:43Z</time>
      </trkpt>
      <trkpt lat="47.09054" lon="-1.61741">
        <ele>11.09</ele>
        <time>2020-05-11T16:49:45Z</time>
      </trkpt>
      <trkpt lat="47.09048" lon="-1.61725">
        <ele>11.68</ele>
        <time>2020-05-11T16:49:47Z</time>
      </trkpt>
      <trkpt lat="47.09044" lon="-1.61711">
        <ele>12.41</ele>
        <time>2020-05-11T16:49:49Z</time>
      </trkpt>
      <trkpt lat="47.09039" lon="-1.61696">
        <ele>12.33</ele>
        <time>2020-05-11T16:49:51Z</time>
      </trkpt>
      <trkpt lat="47.09034" lon="-1.61683">
        <ele>12.3</ele>
        <time>2020-05-11T16:49:53Z</time>
      </trkpt>
      <trkpt lat="47.09029" lon="-1.61668">
        <ele>13.04</ele>
        <time>2020-05-11T16:49:55Z</time>
      </trkpt>
      <trkpt lat="47.09024" lon="-1.61653">
        <ele>13.78</ele>
        <time>2020-05-11T16:49:57Z</time>
      </trkpt>
      <trkpt lat="47.0902" lon="-1.61639">
        <ele>14.53</ele>
        <time>2020-05-11T16:49:59Z</time>
      </trkpt>
      <trkpt lat="47.09015" lon="-1.61624">
        <ele>14.35</ele>
        <time>2020-05-11T16:50:01Z</time>
      </trkpt>
      <trkpt lat="47.0901" lon="-1.61611">
        <ele>13.67</ele>
        <time>2020-05-11T16:50:03Z</time>
      </trkpt>
      <trkpt lat="47.09002" lon="-1.61596">
        <ele>10.83</ele>
        <time>2020-05-11T16:50:06Z</time>
      </trkpt>
      <trkpt lat="47.09" lon="-1.61583">
        <ele>9.03</ele>
        <time>2020-05-11T16:50:08Z</time>
      </trkpt>
      <trkpt lat="47.0901" lon="-1.6158">
        <ele>7.83</ele>
        <time>2020-05-11T16:50:10Z</time>
      </trkpt>
      <trkpt lat="47.0902" lon="-1.61577">
        <ele>7.27</ele>
        <time>2020-05-11T16:50:12Z</time>
      </trkpt>
      <trkpt lat="47.09032" lon="-1.61571">
        <ele>6.84</ele>
        <time>2020-05-11T16:50:14Z</time>
      </trkpt>
      <trkpt lat="47.09042" lon="-1.61566">
        <ele>6.14</ele>
        <time>2020-05-11T16:50:16Z</time>
      </trkpt>
      <trkpt lat="47.09052" lon="-1.61558">
        <ele>5.29</ele>
        <time>2020-05-11T16:50:18Z</time>
      </trkpt>
      <trkpt lat="47.09062" lon="-1.61553">
        <ele>5.29</ele>
        <time>2020-05-11T16:50:20Z</time>
      </trkpt>
      <trkpt lat="47.09071" lon="-1.61547">
        <ele>4.97</ele>
        <time>2020-05-11T16:50:22Z</time>
      </trkpt>
      <trkpt lat="47.09082" lon="-1.61541">
        <ele>4.6</ele>
        <time>2020-05-11T16:50:24Z</time>
      </trkpt>
      <trkpt lat="47.09093" lon="-1.61535">
        <ele>4.28</ele>
        <time>2020-05-11T16:50:26Z</time>
      </trkpt>
      <trkpt lat="47.09104" lon="-1.61529">
        <ele>2.11</ele>
        <time>2020-05-11T16:50:28Z</time>
      </trkpt>
      <trkpt lat="47.09114" lon="-1.61523">
        <ele>0.54</ele>
        <time>2020-05-11T16:50:30Z</time>
      </trkpt>
      <trkpt lat="47.09124" lon="-1.61516">
        <ele>-0.75</ele>
        <time>2020-05-11T16:50:32Z</time>
      </trkpt>
      <trkpt lat="47.09133" lon="-1.6151">
        <ele>-2.09</ele>
        <time>2020-05-11T16:50:34Z</time>
      </trkpt>
      <trkpt lat="47.09143" lon="-1.61506">
        <ele>-2.33</ele>
        <time>2020-05-11T16:50:36Z</time>
      </trkpt>
      <trkpt lat="47.09153" lon="-1.61502">
        <ele>-1.84</ele>
        <time>2020-05-11T16:50:38Z</time>
      </trkpt>
      <trkpt lat="47.09165" lon="-1.61495">
        <ele>-0.31</ele>
        <time>2020-05-11T16:50:41Z</time>
      </trkpt>
      <trkpt lat="47.09175" lon="-1.61489">
        <ele>0.17</ele>
        <time>2020-05-11T16:50:43Z</time>
      </trkpt>
      <trkpt lat="47.09185" lon="-1.61484">
        <ele>-0.1</ele>
        <time>2020-05-11T16:50:45Z</time>
      </trkpt>
      <trkpt lat="47.09195" lon="-1.61479">
        <ele>0.2</ele>
        <time>2020-05-11T16:50:47Z</time>
      </trkpt>
      <trkpt lat="47.09204" lon="-1.61474">
        <ele>1.16</ele>
        <time>2020-05-11T16:50:49Z</time>
      </trkpt>
      <trkpt lat="47.09213" lon="-1.61469">
        <ele>2.02</ele>
        <time>2020-05-11T16:50:51Z</time>
      </trkpt>
      <trkpt lat="47.09223" lon="-1.61464">
        <ele>2.86</ele>
        <time>2020-05-11T16:50:53Z</time>
      </trkpt>
      <trkpt lat="47.09232" lon="-1.61457">
        <ele>3.8</ele>
        <time>2020-05-11T16:50:55Z</time>
      </trkpt>
      <trkpt lat="47.09241" lon="-1.61452">
        <ele>3.58</ele>
        <time>2020-05-11T16:50:57Z</time>
      </trkpt>
      <trkpt lat="47.09251" lon="-1.61445">
        <ele>3.27</ele>
        <time>2020-05-11T16:50:59Z</time>
      </trkpt>
      <trkpt lat="47.09263" lon="-1.61437">
        <ele>1.78</ele>
        <time>2020-05-11T16:51:02Z</time>
      </trkpt>
      <trkpt lat="47.09273" lon="-1.61432">
        <ele>1.27</ele>
        <time>2020-05-11T16:51:04Z</time>
      </trkpt>
      <trkpt lat="47.09282" lon="-1.61424">
        <ele>1.78</ele>
        <time>2020-05-11T16:51:07Z</time>
      </trkpt>
      <trkpt lat="47.09283" lon="-1.61409">
        <ele>4.02</ele>
        <time>2020-05-11T16:51:09Z</time>
      </trkpt>
      <trkpt lat="47.09281" lon="-1.61391">
        <ele>5.79</ele>
        <time>2020-05-11T16:51:11Z</time>
      </trkpt>
      <trkpt lat="47.09279" lon="-1.61374">
        <ele>6.59</ele>
        <time>2020-05-11T16:51:13Z</time>
      </trkpt>
      <trkpt lat="47.09277" lon="-1.61358">
        <ele>6.39</ele>
        <time>2020-05-11T16:51:15Z</time>
      </trkpt>
      <trkpt lat="47.09274" lon="-1.61341">
        <ele>6.51</ele>
        <time>2020-05-11T16:51:17Z</time>
      </trkpt>
      <trkpt lat="47.09271" lon="-1.61324">
        <ele>6.94</ele>
        <time>2020-05-11T16:51:19Z</time>
      </trkpt>
      <trkpt lat="47.09268" lon="-1.61309">
        <ele>7.55</ele>
        <time>2020-05-11T16:51:21Z</time>
      </trkpt>
      <trkpt lat="47.09264" lon="-1.61294">
        <ele>7.8</ele>
        <time>2020-05-11T16:51:23Z</time>
      </trkpt>
      <trkpt lat="47.0926" lon="-1.61278">
        <ele>7.68</ele>
        <time>2020-05-11T16:51:25Z</time>
      </trkpt>
      <trkpt lat="47.09255" lon="-1.61261">
        <ele>7.72</ele>
        <time>2020-05-11T16:51:27Z</time>
      </trkpt>
      <trkpt lat="47.09251" lon="-1.61246">
        <ele>7.98</ele>
        <time>2020-05-11T16:51:29Z</time>
      </trkpt>
      <trkpt lat="47.09249" lon="-1.61233">
        <ele>7.13</ele>
        <time>2020-05-11T16:51:31Z</time>
      </trkpt>
      <trkpt lat="47.09245" lon="-1.61219">
        <ele>8.18</ele>
        <time>2020-05-11T16:51:33Z</time>
      </trkpt>
      <trkpt lat="47.0924" lon="-1.61204">
        <ele>10.52</ele>
        <time>2020-05-11T16:51:35Z</time>
      </trkpt>
      <trkpt lat="47.09236" lon="-1.61189">
        <ele>11.59</ele>
        <time>2020-05-11T16:51:42Z</time>
      </trkpt>
      <trkpt lat="47.09248" lon="-1.61184">
        <ele>9.31</ele>
        <time>2020-05-11T16:51:47Z</time>
      </trkpt>
      <trkpt lat="47.09257" lon="-1.61186">
        <ele>8.79</ele>
        <time>2020-05-11T16:51:49Z</time>
      </trkpt>
      <trkpt lat="47.0927" lon="-1.61192">
        <ele>11.17</ele>
        <time>2020-05-11T16:51:52Z</time>
      </trkpt>
      <trkpt lat="47.0928" lon="-1.61198">
        <ele>14.74</ele>
        <time>2020-05-11T16:51:54Z</time>
      </trkpt>
      <trkpt lat="47.09292" lon="-1.61203">
        <ele>16.25</ele>
        <time>2020-05-11T16:51:56Z</time>
      </trkpt>
      <trkpt lat="47.09302" lon="-1.61206">
        <ele>18.29</ele>
        <time>2020-05-11T16:51:58Z</time>
      </trkpt>
      <trkpt lat="47.09312" lon="-1.61211">
        <ele>19.01</ele>
        <time>2020-05-11T16:52:00Z</time>
      </trkpt>
      <trkpt lat="47.09322" lon="-1.61216">
        <ele>20.08</ele>
        <time>2020-05-11T16:52:02Z</time>
      </trkpt>
      <trkpt lat="47.09334" lon="-1.6122">
        <ele>21.23</ele>
        <time>2020-05-11T16:52:04Z</time>
      </trkpt>
      <trkpt lat="47.09345" lon="-1.61223">
        <ele>22.04</ele>
        <time>2020-05-11T16:52:06Z</time>
      </trkpt>
      <trkpt lat="47.09355" lon="-1.61225">
        <ele>20.89</ele>
        <time>2020-05-11T16:52:07Z</time>
      </trkpt>
      <trkpt lat="47.09369" lon="-1.6123">
        <ele>18.5</ele>
        <time>2020-05-11T16:52:09Z</time>
      </trkpt>
      <trkpt lat="47.09382" lon="-1.61231">
        <ele>16.06</ele>
        <time>2020-05-11T16:52:11Z</time>
      </trkpt>
      <trkpt lat="47.09394" lon="-1.61234">
        <ele>13.52</ele>
        <time>2020-05-11T16:52:13Z</time>
      </trkpt>
      <trkpt lat="47.09406" lon="-1.61239">
        <ele>11.92</ele>
        <time>2020-05-11T16:52:15Z</time>
      </trkpt>
      <trkpt lat="47.09418" lon="-1.61235">
        <ele>11.69</ele>
        <time>2020-05-11T16:52:17Z</time>
      </trkpt>
      <trkpt lat="47.09428" lon="-1.61225">
        <ele>11.97</ele>
        <time>2020-05-11T16:52:19Z</time>
      </trkpt>
      <trkpt lat="47.0944" lon="-1.61215">
        <ele>10.26</ele>
        <time>2020-05-11T16:52:21Z</time>
      </trkpt>
      <trkpt lat="47.09452" lon="-1.61204">
        <ele>7.93</ele>
        <time>2020-05-11T16:52:23Z</time>
      </trkpt>
      <trkpt lat="47.09465" lon="-1.61193">
        <ele>5.11</ele>
        <time>2020-05-11T16:52:25Z</time>
      </trkpt>
      <trkpt lat="47.09475" lon="-1.61182">
        <ele>3.27</ele>
        <time>2020-05-11T16:52:27Z</time>
      </trkpt>
      <trkpt lat="47.09486" lon="-1.61171">
        <ele>2.13</ele>
        <time>2020-05-11T16:52:29Z</time>
      </trkpt>
      <trkpt lat="47.09493" lon="-1.61162">
        <ele>2.59</ele>
        <time>2020-05-11T16:52:31Z</time>
      </trkpt>
      <trkpt lat="47.09504" lon="-1.61151">
        <ele>6.42</ele>
        <time>2020-05-11T16:52:34Z</time>
      </trkpt>
      <trkpt lat="47.09515" lon="-1.61147">
        <ele>6.78</ele>
        <time>2020-05-11T16:52:36Z</time>
      </trkpt>
      <trkpt lat="47.09528" lon="-1.61143">
        <ele>5.46</ele>
        <time>2020-05-11T16:52:38Z</time>
      </trkpt>
      <trkpt lat="47.0954" lon="-1.61142">
        <ele>4.99</ele>
        <time>2020-05-11T16:52:40Z</time>
      </trkpt>
      <trkpt lat="47.09553" lon="-1.61139">
        <ele>4.34</ele>
        <time>2020-05-11T16:52:42Z</time>
      </trkpt>
      <trkpt lat="47.09565" lon="-1.61138">
        <ele>4.34</ele>
        <time>2020-05-11T16:52:44Z</time>
      </trkpt>
      <trkpt lat="47.09578" lon="-1.61137">
        <ele>4.25</ele>
        <time>2020-05-11T16:52:46Z</time>
      </trkpt>
      <trkpt lat="47.09591" lon="-1.61137">
        <ele>3.47</ele>
        <time>2020-05-11T16:52:48Z</time>
      </trkpt>
      <trkpt lat="47.09604" lon="-1.61136">
        <ele>2.17</ele>
        <time>2020-05-11T16:52:50Z</time>
      </trkpt>
      <trkpt lat="47.09617" lon="-1.61134">
        <ele>0.94</ele>
        <time>2020-05-11T16:52:52Z</time>
      </trkpt>
      <trkpt lat="47.09628" lon="-1.61133">
        <ele>0.51</ele>
        <time>2020-05-11T16:52:54Z</time>
      </trkpt>
      <trkpt lat="47.0964" lon="-1.61132">
        <ele>-0.2</ele>
        <time>2020-05-11T16:52:56Z</time>
      </trkpt>
      <trkpt lat="47.09653" lon="-1.61131">
        <ele>-0.32</ele>
        <time>2020-05-11T16:52:58Z</time>
      </trkpt>
      <trkpt lat="47.09664" lon="-1.6113">
        <ele>-0.33</ele>
        <time>2020-05-11T16:53:00Z</time>
      </trkpt>
      <trkpt lat="47.09677" lon="-1.61128">
        <ele>0.09</ele>
        <time>2020-05-11T16:53:02Z</time>
      </trkpt>
      <trkpt lat="47.09688" lon="-1.61128">
        <ele>0.56</ele>
        <time>2020-05-11T16:53:04Z</time>
      </trkpt>
      <trkpt lat="47.09701" lon="-1.61127">
        <ele>1.32</ele>
        <time>2020-05-11T16:53:06Z</time>
      </trkpt>
      <trkpt lat="47.09714" lon="-1.61125">
        <ele>2.07</ele>
        <time>2020-05-11T16:53:08Z</time>
      </trkpt>
      <trkpt lat="47.09726" lon="-1.61125">
        <ele>2.98</ele>
        <time>2020-05-11T16:53:10Z</time>
      </trkpt>
      <trkpt lat="47.09738" lon="-1.61124">
        <ele>6.09</ele>
        <time>2020-05-11T16:53:12Z</time>
      </trkpt>
      <trkpt lat="47.0975" lon="-1.61124">
        <ele>7.44</ele>
        <time>2020-05-11T16:53:14Z</time>
      </trkpt>
      <trkpt lat="47.09763" lon="-1.61123">
        <ele>8.77</ele>
        <time>2020-05-11T16:53:16Z</time>
      </trkpt>
      <trkpt lat="47.09775" lon="-1.61123">
        <ele>9.39</ele>
        <time>2020-05-11T16:53:18Z</time>
      </trkpt>
      <trkpt lat="47.09785" lon="-1.6112">
        <ele>9.18</ele>
        <time>2020-05-11T16:53:20Z</time>
      </trkpt>
      <trkpt lat="47.09797" lon="-1.61115">
        <ele>9.44</ele>
        <time>2020-05-11T16:53:22Z</time>
      </trkpt>
      <trkpt lat="47.0981" lon="-1.61107">
        <ele>7.55</ele>
        <time>2020-05-11T16:53:24Z</time>
      </trkpt>
      <trkpt lat="47.09824" lon="-1.61099">
        <ele>6.18</ele>
        <time>2020-05-11T16:53:26Z</time>
      </trkpt>
      <trkpt lat="47.09833" lon="-1.6109">
        <ele>3.84</ele>
        <time>2020-05-11T16:53:28Z</time>
      </trkpt>
      <trkpt lat="47.09842" lon="-1.61081">
        <ele>2.1</ele>
        <time>2020-05-11T16:53:30Z</time>
      </trkpt>
      <trkpt lat="47.0985" lon="-1.6107">
        <ele>1.37</ele>
        <time>2020-05-11T16:53:32Z</time>
      </trkpt>
      <trkpt lat="47.09858" lon="-1.61059">
        <ele>1.44</ele>
        <time>2020-05-11T16:53:34Z</time>
      </trkpt>
      <trkpt lat="47.09864" lon="-1.61049">
        <ele>0.54</ele>
        <time>2020-05-11T16:53:36Z</time>
      </trkpt>
      <trkpt lat="47.0987" lon="-1.61038">
        <ele>0.38</ele>
        <time>2020-05-11T16:53:38Z</time>
      </trkpt>
      <trkpt lat="47.09876" lon="-1.61025">
        <ele>1.31</ele>
        <time>2020-05-11T16:53:40Z</time>
      </trkpt>
      <trkpt lat="47.09884" lon="-1.61008">
        <ele>3.22</ele>
        <time>2020-05-11T16:53:43Z</time>
      </trkpt>
      <trkpt lat="47.09889" lon="-1.60996">
        <ele>4.07</ele>
        <time>2020-05-11T16:53:45Z</time>
      </trkpt>
      <trkpt lat="47.09894" lon="-1.60981">
        <ele>3.75</ele>
        <time>2020-05-11T16:53:48Z</time>
      </trkpt>
      <trkpt lat="47.09899" lon="-1.60966">
        <ele>4.46</ele>
        <time>2020-05-11T16:53:50Z</time>
      </trkpt>
      <trkpt lat="47.09903" lon="-1.60951">
        <ele>6.49</ele>
        <time>2020-05-11T16:53:53Z</time>
      </trkpt>
      <trkpt lat="47.09907" lon="-1.60938">
        <ele>4.11</ele>
        <time>2020-05-11T16:53:55Z</time>
      </trkpt>
      <trkpt lat="47.09914" lon="-1.60921">
        <ele>3.04</ele>
        <time>2020-05-11T16:53:58Z</time>
      </trkpt>
      <trkpt lat="47.09919" lon="-1.6091">
        <ele>1.98</ele>
        <time>2020-05-11T16:54:00Z</time>
      </trkpt>
      <trkpt lat="47.09924" lon="-1.60897">
        <ele>2.7</ele>
        <time>2020-05-11T16:54:02Z</time>
      </trkpt>
      <trkpt lat="47.0993" lon="-1.60886">
        <ele>2.93</ele>
        <time>2020-05-11T16:54:04Z</time>
      </trkpt>
      <trkpt lat="47.09937" lon="-1.60868">
        <ele>2.35</ele>
        <time>2020-05-11T16:54:07Z</time>
      </trkpt>
      <trkpt lat="47.09944" lon="-1.60851">
        <ele>2.7</ele>
        <time>2020-05-11T16:54:10Z</time>
      </trkpt>
      <trkpt lat="47.09948" lon="-1.60838">
        <ele>3.06</ele>
        <time>2020-05-11T16:54:12Z</time>
      </trkpt>
      <trkpt lat="47.09952" lon="-1.60824">
        <ele>4.5</ele>
        <time>2020-05-11T16:54:14Z</time>
      </trkpt>
      <trkpt lat="47.09955" lon="-1.60805">
        <ele>5.44</ele>
        <time>2020-05-11T16:54:17Z</time>
      </trkpt>
      <trkpt lat="47.09959" lon="-1.60793">
        <ele>4.95</ele>
        <time>2020-05-11T16:54:19Z</time>
      </trkpt>
      <trkpt lat="47.09965" lon="-1.60775">
        <ele>3.92</ele>
        <time>2020-05-11T16:54:22Z</time>
      </trkpt>
      <trkpt lat="47.0997" lon="-1.60762">
        <ele>4.26</ele>
        <time>2020-05-11T16:54:24Z</time>
      </trkpt>
      <trkpt lat="47.09975" lon="-1.60749">
        <ele>3.71</ele>
        <time>2020-05-11T16:54:26Z</time>
      </trkpt>
      <trkpt lat="47.09979" lon="-1.60736">
        <ele>3.06</ele>
        <time>2020-05-11T16:54:28Z</time>
      </trkpt>
      <trkpt lat="47.09984" lon="-1.60723">
        <ele>2.53</ele>
        <time>2020-05-11T16:54:30Z</time>
      </trkpt>
      <trkpt lat="47.09988" lon="-1.60707">
        <ele>2.96</ele>
        <time>2020-05-11T16:54:33Z</time>
      </trkpt>
      <trkpt lat="47.09992" lon="-1.60694">
        <ele>3.33</ele>
        <time>2020-05-11T16:54:35Z</time>
      </trkpt>
      <trkpt lat="47.09996" lon="-1.6068">
        <ele>4.24</ele>
        <time>2020-05-11T16:54:37Z</time>
      </trkpt>
      <trkpt lat="47.1" lon="-1.60666">
        <ele>3.47</ele>
        <time>2020-05-11T16:54:39Z</time>
      </trkpt>
      <trkpt lat="47.10004" lon="-1.60653">
        <ele>3.1</ele>
        <time>2020-05-11T16:54:41Z</time>
      </trkpt>
      <trkpt lat="47.10009" lon="-1.60636">
        <ele>4.44</ele>
        <time>2020-05-11T16:54:44Z</time>
      </trkpt>
      <trkpt lat="47.10014" lon="-1.60621">
        <ele>4.51</ele>
        <time>2020-05-11T16:54:46Z</time>
      </trkpt>
      <trkpt lat="47.10018" lon="-1.60608">
        <ele>4.22</ele>
        <time>2020-05-11T16:54:48Z</time>
      </trkpt>
      <trkpt lat="47.10024" lon="-1.6059">
        <ele>4.4</ele>
        <time>2020-05-11T16:54:51Z</time>
      </trkpt>
      <trkpt lat="47.10028" lon="-1.60573">
        <ele>3.3</ele>
        <time>2020-05-11T16:54:54Z</time>
      </trkpt>
      <trkpt lat="47.10032" lon="-1.60558">
        <ele>3.55</ele>
        <time>2020-05-11T16:54:56Z</time>
      </trkpt>
      <trkpt lat="47.10036" lon="-1.60545">
        <ele>3.77</ele>
        <time>2020-05-11T16:54:58Z</time>
      </trkpt>
      <trkpt lat="47.10041" lon="-1.60527">
        <ele>1.72</ele>
        <time>2020-05-11T16:55:01Z</time>
      </trkpt>
      <trkpt lat="47.10045" lon="-1.60514">
        <ele>1.73</ele>
        <time>2020-05-11T16:55:02Z</time>
      </trkpt>
      <trkpt lat="47.1005" lon="-1.60498">
        <ele>2.98</ele>
        <time>2020-05-11T16:55:04Z</time>
      </trkpt>
      <trkpt lat="47.10054" lon="-1.60481">
        <ele>4.29</ele>
        <time>2020-05-11T16:55:07Z</time>
      </trkpt>
      <trkpt lat="47.10055" lon="-1.60465">
        <ele>3.95</ele>
        <time>2020-05-11T16:55:09Z</time>
      </trkpt>
      <trkpt lat="47.10057" lon="-1.60448">
        <ele>3.8</ele>
        <time>2020-05-11T16:55:11Z</time>
      </trkpt>
      <trkpt lat="47.10059" lon="-1.60432">
        <ele>3.48</ele>
        <time>2020-05-11T16:55:13Z</time>
      </trkpt>
      <trkpt lat="47.10061" lon="-1.60417">
        <ele>3.88</ele>
        <time>2020-05-11T16:55:15Z</time>
      </trkpt>
      <trkpt lat="47.10063" lon="-1.60402">
        <ele>3.18</ele>
        <time>2020-05-11T16:55:17Z</time>
      </trkpt>
      <trkpt lat="47.10065" lon="-1.60385">
        <ele>3.86</ele>
        <time>2020-05-11T16:55:19Z</time>
      </trkpt>
      <trkpt lat="47.10066" lon="-1.60371">
        <ele>4.58</ele>
        <time>2020-05-11T16:55:21Z</time>
      </trkpt>
      <trkpt lat="47.10067" lon="-1.60354">
        <ele>5.75</ele>
        <time>2020-05-11T16:55:23Z</time>
      </trkpt>
      <trkpt lat="47.10067" lon="-1.60338">
        <ele>5.91</ele>
        <time>2020-05-11T16:55:25Z</time>
      </trkpt>
      <trkpt lat="47.10069" lon="-1.60318">
        <ele>4.26</ele>
        <time>2020-05-11T16:55:28Z</time>
      </trkpt>
      <trkpt lat="47.10071" lon="-1.60305">
        <ele>3.46</ele>
        <time>2020-05-11T16:55:30Z</time>
      </trkpt>
      <trkpt lat="47.10075" lon="-1.60285">
        <ele>2.61</ele>
        <time>2020-05-11T16:55:33Z</time>
      </trkpt>
      <trkpt lat="47.10077" lon="-1.6027">
        <ele>2.17</ele>
        <time>2020-05-11T16:55:35Z</time>
      </trkpt>
      <trkpt lat="47.10079" lon="-1.60255">
        <ele>1.43</ele>
        <time>2020-05-11T16:55:37Z</time>
      </trkpt>
      <trkpt lat="47.1008" lon="-1.60238">
        <ele>0.26</ele>
        <time>2020-05-11T16:55:39Z</time>
      </trkpt>
      <trkpt lat="47.10082" lon="-1.60219">
        <ele>-0.76</ele>
        <time>2020-05-11T16:55:42Z</time>
      </trkpt>
      <trkpt lat="47.10083" lon="-1.60205">
        <ele>-0.7</ele>
        <time>2020-05-11T16:55:44Z</time>
      </trkpt>
      <trkpt lat="47.10083" lon="-1.60188">
        <ele>0.75</ele>
        <time>2020-05-11T16:55:46Z</time>
      </trkpt>
      <trkpt lat="47.1008" lon="-1.60174">
        <ele>1.37</ele>
        <time>2020-05-11T16:55:48Z</time>
      </trkpt>
      <trkpt lat="47.10075" lon="-1.60156">
        <ele>2.11</ele>
        <time>2020-05-11T16:55:50Z</time>
      </trkpt>
      <trkpt lat="47.10069" lon="-1.60143">
        <ele>2.98</ele>
        <time>2020-05-11T16:55:52Z</time>
      </trkpt>
      <trkpt lat="47.10071" lon="-1.60129">
        <ele>2.34</ele>
        <time>2020-05-11T16:55:55Z</time>
      </trkpt>
      <trkpt lat="47.10078" lon="-1.60117">
        <ele>0.89</ele>
        <time>2020-05-11T16:55:57Z</time>
      </trkpt>
      <trkpt lat="47.1009" lon="-1.60112">
        <ele>-0.3</ele>
        <time>2020-05-11T16:55:59Z</time>
      </trkpt>
      <trkpt lat="47.10103" lon="-1.60107">
        <ele>1.05</ele>
        <time>2020-05-11T16:56:02Z</time>
      </trkpt>
      <trkpt lat="47.10109" lon="-1.60097">
        <ele>2.89</ele>
        <time>2020-05-11T16:56:04Z</time>
      </trkpt>
      <trkpt lat="47.10116" lon="-1.60087">
        <ele>4.45</ele>
        <time>2020-05-11T16:56:06Z</time>
      </trkpt>
      <trkpt lat="47.10123" lon="-1.60076">
        <ele>6.09</ele>
        <time>2020-05-11T16:56:08Z</time>
      </trkpt>
      <trkpt lat="47.1013" lon="-1.60065">
        <ele>7.71</ele>
        <time>2020-05-11T16:56:10Z</time>
      </trkpt>
      <trkpt lat="47.10137" lon="-1.60054">
        <ele>8.66</ele>
        <time>2020-05-11T16:56:12Z</time>
      </trkpt>
      <trkpt lat="47.10143" lon="-1.60043">
        <ele>9.14</ele>
        <time>2020-05-11T16:56:14Z</time>
      </trkpt>
      <trkpt lat="47.1015" lon="-1.60033">
        <ele>9.23</ele>
        <time>2020-05-11T16:56:16Z</time>
      </trkpt>
      <trkpt lat="47.10157" lon="-1.60022">
        <ele>9.76</ele>
        <time>2020-05-11T16:56:18Z</time>
      </trkpt>
      <trkpt lat="47.10164" lon="-1.60008">
        <ele>9.52</ele>
        <time>2020-05-11T16:56:20Z</time>
      </trkpt>
      <trkpt lat="47.10173" lon="-1.59995">
        <ele>9.13</ele>
        <time>2020-05-11T16:56:22Z</time>
      </trkpt>
      <trkpt lat="47.10181" lon="-1.59984">
        <ele>8.3</ele>
        <time>2020-05-11T16:56:25Z</time>
      </trkpt>
      <trkpt lat="47.10188" lon="-1.59972">
        <ele>8.72</ele>
        <time>2020-05-11T16:56:27Z</time>
      </trkpt>
      <trkpt lat="47.10199" lon="-1.59956">
        <ele>9.03</ele>
        <time>2020-05-11T16:56:29Z</time>
      </trkpt>
      <trkpt lat="47.10208" lon="-1.59941">
        <ele>9.43</ele>
        <time>2020-05-11T16:56:31Z</time>
      </trkpt>
      <trkpt lat="47.10216" lon="-1.59924">
        <ele>9.83</ele>
        <time>2020-05-11T16:56:34Z</time>
      </trkpt>
      <trkpt lat="47.10224" lon="-1.5991">
        <ele>10.92</ele>
        <time>2020-05-11T16:56:36Z</time>
      </trkpt>
      <trkpt lat="47.10232" lon="-1.59896">
        <ele>11.78</ele>
        <time>2020-05-11T16:56:38Z</time>
      </trkpt>
      <trkpt lat="47.10239" lon="-1.59885">
        <ele>11.29</ele>
        <time>2020-05-11T16:56:40Z</time>
      </trkpt>
      <trkpt lat="47.10245" lon="-1.59873">
        <ele>11.21</ele>
        <time>2020-05-11T16:56:42Z</time>
      </trkpt>
      <trkpt lat="47.10254" lon="-1.59859">
        <ele>9.6</ele>
        <time>2020-05-11T16:56:44Z</time>
      </trkpt>
      <trkpt lat="47.10262" lon="-1.59848">
        <ele>8.14</ele>
        <time>2020-05-11T16:56:46Z</time>
      </trkpt>
      <trkpt lat="47.1027" lon="-1.59835">
        <ele>7.32</ele>
        <time>2020-05-11T16:56:48Z</time>
      </trkpt>
      <trkpt lat="47.10277" lon="-1.59824">
        <ele>6.23</ele>
        <time>2020-05-11T16:56:50Z</time>
      </trkpt>
      <trkpt lat="47.10286" lon="-1.59809">
        <ele>5.61</ele>
        <time>2020-05-11T16:56:52Z</time>
      </trkpt>
      <trkpt lat="47.10293" lon="-1.59799">
        <ele>4.69</ele>
        <time>2020-05-11T16:56:54Z</time>
      </trkpt>
      <trkpt lat="47.10303" lon="-1.59782">
        <ele>3.97</ele>
        <time>2020-05-11T16:56:57Z</time>
      </trkpt>
      <trkpt lat="47.10311" lon="-1.59769">
        <ele>4.11</ele>
        <time>2020-05-11T16:56:59Z</time>
      </trkpt>
      <trkpt lat="47.10318" lon="-1.59757">
        <ele>3.55</ele>
        <time>2020-05-11T16:57:01Z</time>
      </trkpt>
      <trkpt lat="47.10324" lon="-1.59745">
        <ele>3.83</ele>
        <time>2020-05-11T16:57:03Z</time>
      </trkpt>
      <trkpt lat="47.10332" lon="-1.59733">
        <ele>3.58</ele>
        <time>2020-05-11T16:57:05Z</time>
      </trkpt>
      <trkpt lat="47.10339" lon="-1.5972">
        <ele>2.48</ele>
        <time>2020-05-11T16:57:07Z</time>
      </trkpt>
      <trkpt lat="47.10345" lon="-1.5971">
        <ele>2.3</ele>
        <time>2020-05-11T16:57:09Z</time>
      </trkpt>
      <trkpt lat="47.10353" lon="-1.59699">
        <ele>1.06</ele>
        <time>2020-05-11T16:57:11Z</time>
      </trkpt>
      <trkpt lat="47.1036" lon="-1.59685">
        <ele>1.09</ele>
        <time>2020-05-11T16:57:14Z</time>
      </trkpt>
      <trkpt lat="47.10367" lon="-1.59673">
        <ele>1.97</ele>
        <time>2020-05-11T16:57:16Z</time>
      </trkpt>
      <trkpt lat="47.10373" lon="-1.59662">
        <ele>2.01</ele>
        <time>2020-05-11T16:57:18Z</time>
      </trkpt>
      <trkpt lat="47.1038" lon="-1.59649">
        <ele>1.84</ele>
        <time>2020-05-11T16:57:20Z</time>
      </trkpt>
      <trkpt lat="47.10388" lon="-1.59636">
        <ele>1.33</ele>
        <time>2020-05-11T16:57:22Z</time>
      </trkpt>
      <trkpt lat="47.10394" lon="-1.59626">
        <ele>1.6</ele>
        <time>2020-05-11T16:57:24Z</time>
      </trkpt>
      <trkpt lat="47.10402" lon="-1.59613">
        <ele>2.02</ele>
        <time>2020-05-11T16:57:27Z</time>
      </trkpt>
      <trkpt lat="47.1041" lon="-1.596">
        <ele>4.35</ele>
        <time>2020-05-11T16:57:30Z</time>
      </trkpt>
      <trkpt lat="47.10417" lon="-1.59589">
        <ele>4.55</ele>
        <time>2020-05-11T16:57:32Z</time>
      </trkpt>
      <trkpt lat="47.10423" lon="-1.59578">
        <ele>3.96</ele>
        <time>2020-05-11T16:57:34Z</time>
      </trkpt>
      <trkpt lat="47.10431" lon="-1.59567">
        <ele>3.97</ele>
        <time>2020-05-11T16:57:36Z</time>
      </trkpt>
      <trkpt lat="47.10437" lon="-1.59557">
        <ele>4.51</ele>
        <time>2020-05-11T16:57:38Z</time>
      </trkpt>
      <trkpt lat="47.10444" lon="-1.59545">
        <ele>4.61</ele>
        <time>2020-05-11T16:57:40Z</time>
      </trkpt>
      <trkpt lat="47.1045" lon="-1.59534">
        <ele>4.75</ele>
        <time>2020-05-11T16:57:42Z</time>
      </trkpt>
      <trkpt lat="47.10458" lon="-1.59524">
        <ele>5.98</ele>
        <time>2020-05-11T16:57:44Z</time>
      </trkpt>
      <trkpt lat="47.10465" lon="-1.59513">
        <ele>6.25</ele>
        <time>2020-05-11T16:57:46Z</time>
      </trkpt>
      <trkpt lat="47.10471" lon="-1.59501">
        <ele>5.59</ele>
        <time>2020-05-11T16:57:48Z</time>
      </trkpt>
      <trkpt lat="47.10477" lon="-1.5949">
        <ele>4.01</ele>
        <time>2020-05-11T16:57:50Z</time>
      </trkpt>
      <trkpt lat="47.10486" lon="-1.59477">
        <ele>3.74</ele>
        <time>2020-05-11T16:57:52Z</time>
      </trkpt>
      <trkpt lat="47.10491" lon="-1.59466">
        <ele>4.69</ele>
        <time>2020-05-11T16:57:54Z</time>
      </trkpt>
      <trkpt lat="47.10497" lon="-1.59455">
        <ele>5.65</ele>
        <time>2020-05-11T16:57:56Z</time>
      </trkpt>
      <trkpt lat="47.10503" lon="-1.59445">
        <ele>5.9</ele>
        <time>2020-05-11T16:57:58Z</time>
      </trkpt>
      <trkpt lat="47.1051" lon="-1.59433">
        <ele>5.27</ele>
        <time>2020-05-11T16:58:00Z</time>
      </trkpt>
      <trkpt lat="47.10518" lon="-1.59419">
        <ele>4.62</ele>
        <time>2020-05-11T16:58:03Z</time>
      </trkpt>
      <trkpt lat="47.10525" lon="-1.59409">
        <ele>5.51</ele>
        <time>2020-05-11T16:58:05Z</time>
      </trkpt>
      <trkpt lat="47.10532" lon="-1.59397">
        <ele>6.14</ele>
        <time>2020-05-11T16:58:07Z</time>
      </trkpt>
      <trkpt lat="47.1054" lon="-1.59385">
        <ele>6.57</ele>
        <time>2020-05-11T16:58:09Z</time>
      </trkpt>
      <trkpt lat="47.10546" lon="-1.59373">
        <ele>6.35</ele>
        <time>2020-05-11T16:58:11Z</time>
      </trkpt>
      <trkpt lat="47.10552" lon="-1.59362">
        <ele>6.34</ele>
        <time>2020-05-11T16:58:13Z</time>
      </trkpt>
      <trkpt lat="47.10562" lon="-1.59346">
        <ele>6.49</ele>
        <time>2020-05-11T16:58:16Z</time>
      </trkpt>
      <trkpt lat="47.10568" lon="-1.59336">
        <ele>6.7</ele>
        <time>2020-05-11T16:58:18Z</time>
      </trkpt>
      <trkpt lat="47.10575" lon="-1.59324">
        <ele>7.26</ele>
        <time>2020-05-11T16:58:20Z</time>
      </trkpt>
      <trkpt lat="47.10581" lon="-1.59313">
        <ele>7.09</ele>
        <time>2020-05-11T16:58:22Z</time>
      </trkpt>
      <trkpt lat="47.10588" lon="-1.59299">
        <ele>6.32</ele>
        <time>2020-05-11T16:58:24Z</time>
      </trkpt>
      <trkpt lat="47.10595" lon="-1.5929">
        <ele>5.76</ele>
        <time>2020-05-11T16:58:26Z</time>
      </trkpt>
      <trkpt lat="47.10604" lon="-1.59275">
        <ele>6.94</ele>
        <time>2020-05-11T16:58:29Z</time>
      </trkpt>
      <trkpt lat="47.1061" lon="-1.59264">
        <ele>6.9</ele>
        <time>2020-05-11T16:58:31Z</time>
      </trkpt>
      <trkpt lat="47.10619" lon="-1.59247">
        <ele>6.61</ele>
        <time>2020-05-11T16:58:34Z</time>
      </trkpt>
      <trkpt lat="47.10626" lon="-1.59233">
        <ele>8.26</ele>
        <time>2020-05-11T16:58:37Z</time>
      </trkpt>
      <trkpt lat="47.10633" lon="-1.59218">
        <ele>9.29</ele>
        <time>2020-05-11T16:58:40Z</time>
      </trkpt>
      <trkpt lat="47.10639" lon="-1.59207">
        <ele>8.9</ele>
        <time>2020-05-11T16:58:42Z</time>
      </trkpt>
      <trkpt lat="47.10646" lon="-1.59192">
        <ele>10.26</ele>
        <time>2020-05-11T16:58:45Z</time>
      </trkpt>
      <trkpt lat="47.10654" lon="-1.59177">
        <ele>10.05</ele>
        <time>2020-05-11T16:58:48Z</time>
      </trkpt>
      <trkpt lat="47.10659" lon="-1.59164">
        <ele>9.51</ele>
        <time>2020-05-11T16:58:50Z</time>
      </trkpt>
      <trkpt lat="47.10665" lon="-1.59148">
        <ele>9.2</ele>
        <time>2020-05-11T16:58:53Z</time>
      </trkpt>
      <trkpt lat="47.1067" lon="-1.59132">
        <ele>9.13</ele>
        <time>2020-05-11T16:58:56Z</time>
      </trkpt>
      <trkpt lat="47.10674" lon="-1.5912">
        <ele>8.93</ele>
        <time>2020-05-11T16:58:58Z</time>
      </trkpt>
      <trkpt lat="47.10681" lon="-1.59103">
        <ele>8.88</ele>
        <time>2020-05-11T16:59:01Z</time>
      </trkpt>
      <trkpt lat="47.10685" lon="-1.59091">
        <ele>8.98</ele>
        <time>2020-05-11T16:59:03Z</time>
      </trkpt>
      <trkpt lat="47.1069" lon="-1.59077">
        <ele>9.16</ele>
        <time>2020-05-11T16:59:05Z</time>
      </trkpt>
      <trkpt lat="47.10695" lon="-1.5906">
        <ele>9.17</ele>
        <time>2020-05-11T16:59:08Z</time>
      </trkpt>
      <trkpt lat="47.107" lon="-1.59048">
        <ele>9.22</ele>
        <time>2020-05-11T16:59:10Z</time>
      </trkpt>
      <trkpt lat="47.10706" lon="-1.59034">
        <ele>9.37</ele>
        <time>2020-05-11T16:59:13Z</time>
      </trkpt>
      <trkpt lat="47.10712" lon="-1.5902">
        <ele>9.68</ele>
        <time>2020-05-11T16:59:15Z</time>
      </trkpt>
      <trkpt lat="47.10718" lon="-1.59005">
        <ele>9.84</ele>
        <time>2020-05-11T16:59:18Z</time>
      </trkpt>
      <trkpt lat="47.10724" lon="-1.58991">
        <ele>9.95</ele>
        <time>2020-05-11T16:59:20Z</time>
      </trkpt>
      <trkpt lat="47.10731" lon="-1.58973">
        <ele>11.66</ele>
        <time>2020-05-11T16:59:23Z</time>
      </trkpt>
      <trkpt lat="47.10734" lon="-1.5896">
        <ele>12.58</ele>
        <time>2020-05-11T16:59:25Z</time>
      </trkpt>
      <trkpt lat="47.10739" lon="-1.58947">
        <ele>12.25</ele>
        <time>2020-05-11T16:59:27Z</time>
      </trkpt>
      <trkpt lat="47.10744" lon="-1.58934">
        <ele>11.57</ele>
        <time>2020-05-11T16:59:29Z</time>
      </trkpt>
      <trkpt lat="47.10749" lon="-1.58923">
        <ele>10.08</ele>
        <time>2020-05-11T16:59:31Z</time>
      </trkpt>
      <trkpt lat="47.10756" lon="-1.58911">
        <ele>9.18</ele>
        <time>2020-05-11T16:59:33Z</time>
      </trkpt>
      <trkpt lat="47.10762" lon="-1.58899">
        <ele>9.22</ele>
        <time>2020-05-11T16:59:35Z</time>
      </trkpt>
      <trkpt lat="47.10769" lon="-1.58889">
        <ele>9.69</ele>
        <time>2020-05-11T16:59:37Z</time>
      </trkpt>
      <trkpt lat="47.10776" lon="-1.58879">
        <ele>9.32</ele>
        <time>2020-05-11T16:59:39Z</time>
      </trkpt>
      <trkpt lat="47.10783" lon="-1.58869">
        <ele>8.6</ele>
        <time>2020-05-11T16:59:41Z</time>
      </trkpt>
      <trkpt lat="47.10789" lon="-1.58855">
        <ele>8.44</ele>
        <time>2020-05-11T16:59:43Z</time>
      </trkpt>
      <trkpt lat="47.10796" lon="-1.58845">
        <ele>7.3</ele>
        <time>2020-05-11T16:59:45Z</time>
      </trkpt>
      <trkpt lat="47.10803" lon="-1.58834">
        <ele>7.47</ele>
        <time>2020-05-11T16:59:47Z</time>
      </trkpt>
      <trkpt lat="47.10811" lon="-1.58822">
        <ele>6.8</ele>
        <time>2020-05-11T16:59:49Z</time>
      </trkpt>
      <trkpt lat="47.10818" lon="-1.58812">
        <ele>5.81</ele>
        <time>2020-05-11T16:59:51Z</time>
      </trkpt>
      <trkpt lat="47.10826" lon="-1.58801">
        <ele>5.21</ele>
        <time>2020-05-11T16:59:53Z</time>
      </trkpt>
      <trkpt lat="47.10834" lon="-1.5879">
        <ele>3.76</ele>
        <time>2020-05-11T16:59:55Z</time>
      </trkpt>
      <trkpt lat="47.10842" lon="-1.58777">
        <ele>3.55</ele>
        <time>2020-05-11T16:59:57Z</time>
      </trkpt>
      <trkpt lat="47.10849" lon="-1.58766">
        <ele>3.86</ele>
        <time>2020-05-11T16:59:59Z</time>
      </trkpt>
      <trkpt lat="47.10856" lon="-1.58756">
        <ele>4.45</ele>
        <time>2020-05-11T17:00:01Z</time>
      </trkpt>
      <trkpt lat="47.10865" lon="-1.58743">
        <ele>4</ele>
        <time>2020-05-11T17:00:03Z</time>
      </trkpt>
      <trkpt lat="47.10873" lon="-1.58733">
        <ele>4.04</ele>
        <time>2020-05-11T17:00:05Z</time>
      </trkpt>
      <trkpt lat="47.10881" lon="-1.58721">
        <ele>4.97</ele>
        <time>2020-05-11T17:00:07Z</time>
      </trkpt>
      <trkpt lat="47.10888" lon="-1.58708">
        <ele>5.82</ele>
        <time>2020-05-11T17:00:09Z</time>
      </trkpt>
      <trkpt lat="47.10896" lon="-1.58696">
        <ele>6.18</ele>
        <time>2020-05-11T17:00:11Z</time>
      </trkpt>
      <trkpt lat="47.10904" lon="-1.58681">
        <ele>6.45</ele>
        <time>2020-05-11T17:00:13Z</time>
      </trkpt>
      <trkpt lat="47.10915" lon="-1.58666">
        <ele>4.96</ele>
        <time>2020-05-11T17:00:15Z</time>
      </trkpt>
      <trkpt lat="47.10926" lon="-1.58651">
        <ele>4.61</ele>
        <time>2020-05-11T17:00:17Z</time>
      </trkpt>
      <trkpt lat="47.10933" lon="-1.58639">
        <ele>5.09</ele>
        <time>2020-05-11T17:00:19Z</time>
      </trkpt>
      <trkpt lat="47.10944" lon="-1.58624">
        <ele>5.53</ele>
        <time>2020-05-11T17:00:21Z</time>
      </trkpt>
      <trkpt lat="47.10954" lon="-1.58611">
        <ele>5.13</ele>
        <time>2020-05-11T17:00:23Z</time>
      </trkpt>
      <trkpt lat="47.10963" lon="-1.58597">
        <ele>5.54</ele>
        <time>2020-05-11T17:00:25Z</time>
      </trkpt>
      <trkpt lat="47.10971" lon="-1.58587">
        <ele>4.96</ele>
        <time>2020-05-11T17:00:27Z</time>
      </trkpt>
      <trkpt lat="47.1098" lon="-1.58574">
        <ele>5.19</ele>
        <time>2020-05-11T17:00:29Z</time>
      </trkpt>
      <trkpt lat="47.10986" lon="-1.58563">
        <ele>4.97</ele>
        <time>2020-05-11T17:00:31Z</time>
      </trkpt>
      <trkpt lat="47.10993" lon="-1.58553">
        <ele>4.47</ele>
        <time>2020-05-11T17:00:33Z</time>
      </trkpt>
      <trkpt lat="47.11003" lon="-1.5854">
        <ele>3.23</ele>
        <time>2020-05-11T17:00:35Z</time>
      </trkpt>
      <trkpt lat="47.11011" lon="-1.58527">
        <ele>3.08</ele>
        <time>2020-05-11T17:00:37Z</time>
      </trkpt>
      <trkpt lat="47.11019" lon="-1.58513">
        <ele>3.5</ele>
        <time>2020-05-11T17:00:39Z</time>
      </trkpt>
      <trkpt lat="47.11029" lon="-1.58498">
        <ele>4.26</ele>
        <time>2020-05-11T17:00:41Z</time>
      </trkpt>
      <trkpt lat="47.11035" lon="-1.58487">
        <ele>3.89</ele>
        <time>2020-05-11T17:00:43Z</time>
      </trkpt>
      <trkpt lat="47.11042" lon="-1.58475">
        <ele>3.79</ele>
        <time>2020-05-11T17:00:45Z</time>
      </trkpt>
      <trkpt lat="47.1105" lon="-1.58463">
        <ele>4.03</ele>
        <time>2020-05-11T17:00:47Z</time>
      </trkpt>
      <trkpt lat="47.11058" lon="-1.5845">
        <ele>4.28</ele>
        <time>2020-05-11T17:00:49Z</time>
      </trkpt>
      <trkpt lat="47.11067" lon="-1.58437">
        <ele>4.02</ele>
        <time>2020-05-11T17:00:51Z</time>
      </trkpt>
      <trkpt lat="47.11075" lon="-1.58426">
        <ele>3.14</ele>
        <time>2020-05-11T17:00:53Z</time>
      </trkpt>
      <trkpt lat="47.11083" lon="-1.58415">
        <ele>2.09</ele>
        <time>2020-05-11T17:00:55Z</time>
      </trkpt>
      <trkpt lat="47.1109" lon="-1.58403">
        <ele>1.73</ele>
        <time>2020-05-11T17:00:57Z</time>
      </trkpt>
      <trkpt lat="47.11098" lon="-1.58391">
        <ele>1.69</ele>
        <time>2020-05-11T17:00:59Z</time>
      </trkpt>
      <trkpt lat="47.11105" lon="-1.58381">
        <ele>1.81</ele>
        <time>2020-05-11T17:01:01Z</time>
      </trkpt>
      <trkpt lat="47.11112" lon="-1.58369">
        <ele>2.15</ele>
        <time>2020-05-11T17:01:03Z</time>
      </trkpt>
      <trkpt lat="47.1112" lon="-1.58358">
        <ele>2.15</ele>
        <time>2020-05-11T17:01:05Z</time>
      </trkpt>
      <trkpt lat="47.11127" lon="-1.58347">
        <ele>1.16</ele>
        <time>2020-05-11T17:01:07Z</time>
      </trkpt>
      <trkpt lat="47.11134" lon="-1.58336">
        <ele>0.09</ele>
        <time>2020-05-11T17:01:09Z</time>
      </trkpt>
      <trkpt lat="47.11141" lon="-1.58325">
        <ele>-0.49</ele>
        <time>2020-05-11T17:01:11Z</time>
      </trkpt>
      <trkpt lat="47.11148" lon="-1.58314">
        <ele>0.27</ele>
        <time>2020-05-11T17:01:13Z</time>
      </trkpt>
      <trkpt lat="47.11155" lon="-1.58301">
        <ele>0.12</ele>
        <time>2020-05-11T17:01:15Z</time>
      </trkpt>
      <trkpt lat="47.11165" lon="-1.58286">
        <ele>-0.17</ele>
        <time>2020-05-11T17:01:18Z</time>
      </trkpt>
      <trkpt lat="47.11174" lon="-1.58273">
        <ele>0.04</ele>
        <time>2020-05-11T17:01:21Z</time>
      </trkpt>
      <trkpt lat="47.1118" lon="-1.58263">
        <ele>0.46</ele>
        <time>2020-05-11T17:01:23Z</time>
      </trkpt>
      <trkpt lat="47.11187" lon="-1.58253">
        <ele>1.68</ele>
        <time>2020-05-11T17:01:25Z</time>
      </trkpt>
      <trkpt lat="47.11194" lon="-1.58241">
        <ele>2.1</ele>
        <time>2020-05-11T17:01:27Z</time>
      </trkpt>
      <trkpt lat="47.11202" lon="-1.58231">
        <ele>2.47</ele>
        <time>2020-05-11T17:01:29Z</time>
      </trkpt>
      <trkpt lat="47.11209" lon="-1.58221">
        <ele>3.2</ele>
        <time>2020-05-11T17:01:31Z</time>
      </trkpt>
      <trkpt lat="47.11216" lon="-1.58212">
        <ele>2.38</ele>
        <time>2020-05-11T17:01:33Z</time>
      </trkpt>
      <trkpt lat="47.11224" lon="-1.58203">
        <ele>2.1</ele>
        <time>2020-05-11T17:01:35Z</time>
      </trkpt>
      <trkpt lat="47.11231" lon="-1.58194">
        <ele>1.81</ele>
        <time>2020-05-11T17:01:37Z</time>
      </trkpt>
      <trkpt lat="47.11238" lon="-1.58185">
        <ele>1.81</ele>
        <time>2020-05-11T17:01:39Z</time>
      </trkpt>
      <trkpt lat="47.11249" lon="-1.58174">
        <ele>1.74</ele>
        <time>2020-05-11T17:01:42Z</time>
      </trkpt>
      <trkpt lat="47.11258" lon="-1.58166">
        <ele>1.4</ele>
        <time>2020-05-11T17:01:44Z</time>
      </trkpt>
      <trkpt lat="47.11268" lon="-1.58157">
        <ele>0.82</ele>
        <time>2020-05-11T17:01:46Z</time>
      </trkpt>
      <trkpt lat="47.11277" lon="-1.5815">
        <ele>1.14</ele>
        <time>2020-05-11T17:01:48Z</time>
      </trkpt>
      <trkpt lat="47.11286" lon="-1.58144">
        <ele>1.4</ele>
        <time>2020-05-11T17:01:50Z</time>
      </trkpt>
      <trkpt lat="47.11295" lon="-1.58137">
        <ele>1.04</ele>
        <time>2020-05-11T17:01:52Z</time>
      </trkpt>
      <trkpt lat="47.11304" lon="-1.5813">
        <ele>1.27</ele>
        <time>2020-05-11T17:01:54Z</time>
      </trkpt>
      <trkpt lat="47.11313" lon="-1.58123">
        <ele>1.51</ele>
        <time>2020-05-11T17:01:56Z</time>
      </trkpt>
      <trkpt lat="47.11324" lon="-1.58114">
        <ele>0.5</ele>
        <time>2020-05-11T17:01:58Z</time>
      </trkpt>
      <trkpt lat="47.11333" lon="-1.58108">
        <ele>-0.16</ele>
        <time>2020-05-11T17:02:00Z</time>
      </trkpt>
      <trkpt lat="47.11344" lon="-1.58102">
        <ele>-0.91</ele>
        <time>2020-05-11T17:02:02Z</time>
      </trkpt>
      <trkpt lat="47.11353" lon="-1.58094">
        <ele>-1.34</ele>
        <time>2020-05-11T17:02:04Z</time>
      </trkpt>
      <trkpt lat="47.11363" lon="-1.58087">
        <ele>-2.23</ele>
        <time>2020-05-11T17:02:06Z</time>
      </trkpt>
      <trkpt lat="47.11372" lon="-1.58082">
        <ele>-2.45</ele>
        <time>2020-05-11T17:02:08Z</time>
      </trkpt>
      <trkpt lat="47.11382" lon="-1.58076">
        <ele>-2.33</ele>
        <time>2020-05-11T17:02:10Z</time>
      </trkpt>
      <trkpt lat="47.11392" lon="-1.5807">
        <ele>-1.97</ele>
        <time>2020-05-11T17:02:12Z</time>
      </trkpt>
      <trkpt lat="47.11403" lon="-1.58064">
        <ele>-2.02</ele>
        <time>2020-05-11T17:02:14Z</time>
      </trkpt>
      <trkpt lat="47.11412" lon="-1.58058">
        <ele>-1.64</ele>
        <time>2020-05-11T17:02:16Z</time>
      </trkpt>
      <trkpt lat="47.11422" lon="-1.58052">
        <ele>-1.86</ele>
        <time>2020-05-11T17:02:18Z</time>
      </trkpt>
      <trkpt lat="47.11432" lon="-1.58046">
        <ele>-1.88</ele>
        <time>2020-05-11T17:02:20Z</time>
      </trkpt>
      <trkpt lat="47.11445" lon="-1.58041">
        <ele>0.46</ele>
        <time>2020-05-11T17:02:23Z</time>
      </trkpt>
      <trkpt lat="47.11456" lon="-1.58037">
        <ele>1.1</ele>
        <time>2020-05-11T17:02:25Z</time>
      </trkpt>
      <trkpt lat="47.11466" lon="-1.58034">
        <ele>0.8</ele>
        <time>2020-05-11T17:02:27Z</time>
      </trkpt>
      <trkpt lat="47.11477" lon="-1.58033">
        <ele>0.43</ele>
        <time>2020-05-11T17:02:29Z</time>
      </trkpt>
      <trkpt lat="47.11487" lon="-1.58031">
        <ele>0.54</ele>
        <time>2020-05-11T17:02:31Z</time>
      </trkpt>
      <trkpt lat="47.11498" lon="-1.58032">
        <ele>1.89</ele>
        <time>2020-05-11T17:02:33Z</time>
      </trkpt>
      <trkpt lat="47.11508" lon="-1.58032">
        <ele>3.23</ele>
        <time>2020-05-11T17:02:35Z</time>
      </trkpt>
      <trkpt lat="47.11518" lon="-1.58033">
        <ele>3.76</ele>
        <time>2020-05-11T17:02:37Z</time>
      </trkpt>
      <trkpt lat="47.11528" lon="-1.58033">
        <ele>3.64</ele>
        <time>2020-05-11T17:02:39Z</time>
      </trkpt>
      <trkpt lat="47.1154" lon="-1.58035">
        <ele>5.53</ele>
        <time>2020-05-11T17:02:42Z</time>
      </trkpt>
      <trkpt lat="47.11552" lon="-1.58036">
        <ele>5.76</ele>
        <time>2020-05-11T17:02:44Z</time>
      </trkpt>
      <trkpt lat="47.11563" lon="-1.58035">
        <ele>5.72</ele>
        <time>2020-05-11T17:02:46Z</time>
      </trkpt>
      <trkpt lat="47.11573" lon="-1.58036">
        <ele>4.28</ele>
        <time>2020-05-11T17:02:48Z</time>
      </trkpt>
      <trkpt lat="47.11582" lon="-1.58037">
        <ele>3.82</ele>
        <time>2020-05-11T17:02:50Z</time>
      </trkpt>
      <trkpt lat="47.11592" lon="-1.58035">
        <ele>3.82</ele>
        <time>2020-05-11T17:02:52Z</time>
      </trkpt>
      <trkpt lat="47.11603" lon="-1.58035">
        <ele>4.09</ele>
        <time>2020-05-11T17:02:54Z</time>
      </trkpt>
      <trkpt lat="47.11615" lon="-1.58038">
        <ele>3.99</ele>
        <time>2020-05-11T17:02:57Z</time>
      </trkpt>
      <trkpt lat="47.11625" lon="-1.58039">
        <ele>4.41</ele>
        <time>2020-05-11T17:02:59Z</time>
      </trkpt>
      <trkpt lat="47.11636" lon="-1.58035">
        <ele>3.87</ele>
        <time>2020-05-11T17:03:01Z</time>
      </trkpt>
      <trkpt lat="47.11646" lon="-1.58033">
        <ele>2.86</ele>
        <time>2020-05-11T17:03:03Z</time>
      </trkpt>
      <trkpt lat="47.11655" lon="-1.58035">
        <ele>2.42</ele>
        <time>2020-05-11T17:03:05Z</time>
      </trkpt>
      <trkpt lat="47.11669" lon="-1.58037">
        <ele>2.29</ele>
        <time>2020-05-11T17:03:08Z</time>
      </trkpt>
      <trkpt lat="47.11681" lon="-1.58038">
        <ele>3.21</ele>
        <time>2020-05-11T17:03:11Z</time>
      </trkpt>
      <trkpt lat="47.11695" lon="-1.58038">
        <ele>4.22</ele>
        <time>2020-05-11T17:03:14Z</time>
      </trkpt>
      <trkpt lat="47.11705" lon="-1.58039">
        <ele>4.39</ele>
        <time>2020-05-11T17:03:16Z</time>
      </trkpt>
      <trkpt lat="47.11718" lon="-1.5804">
        <ele>2.9</ele>
        <time>2020-05-11T17:03:19Z</time>
      </trkpt>
      <trkpt lat="47.11727" lon="-1.58042">
        <ele>3.66</ele>
        <time>2020-05-11T17:03:21Z</time>
      </trkpt>
      <trkpt lat="47.11737" lon="-1.58043">
        <ele>3.25</ele>
        <time>2020-05-11T17:03:23Z</time>
      </trkpt>
      <trkpt lat="47.11746" lon="-1.58045">
        <ele>2.72</ele>
        <time>2020-05-11T17:03:25Z</time>
      </trkpt>
      <trkpt lat="47.11756" lon="-1.58046">
        <ele>3.01</ele>
        <time>2020-05-11T17:03:27Z</time>
      </trkpt>
      <trkpt lat="47.11765" lon="-1.58049">
        <ele>3.29</ele>
        <time>2020-05-11T17:03:29Z</time>
      </trkpt>
      <trkpt lat="47.11774" lon="-1.58051">
        <ele>2.01</ele>
        <time>2020-05-11T17:03:31Z</time>
      </trkpt>
      <trkpt lat="47.11784" lon="-1.58053">
        <ele>1.65</ele>
        <time>2020-05-11T17:03:33Z</time>
      </trkpt>
      <trkpt lat="47.11793" lon="-1.58055">
        <ele>1.67</ele>
        <time>2020-05-11T17:03:35Z</time>
      </trkpt>
      <trkpt lat="47.11803" lon="-1.58058">
        <ele>2.42</ele>
        <time>2020-05-11T17:03:37Z</time>
      </trkpt>
      <trkpt lat="47.11812" lon="-1.58059">
        <ele>2.21</ele>
        <time>2020-05-11T17:03:39Z</time>
      </trkpt>
      <trkpt lat="47.11821" lon="-1.58061">
        <ele>2.67</ele>
        <time>2020-05-11T17:03:41Z</time>
      </trkpt>
      <trkpt lat="47.11831" lon="-1.58063">
        <ele>2.31</ele>
        <time>2020-05-11T17:03:43Z</time>
      </trkpt>
      <trkpt lat="47.11843" lon="-1.58065">
        <ele>3.42</ele>
        <time>2020-05-11T17:03:46Z</time>
      </trkpt>
      <trkpt lat="47.11855" lon="-1.58067">
        <ele>4.95</ele>
        <time>2020-05-11T17:03:49Z</time>
      </trkpt>
      <trkpt lat="47.11865" lon="-1.58069">
        <ele>4.32</ele>
        <time>2020-05-11T17:03:51Z</time>
      </trkpt>
      <trkpt lat="47.11874" lon="-1.58072">
        <ele>4.59</ele>
        <time>2020-05-11T17:03:53Z</time>
      </trkpt>
      <trkpt lat="47.11883" lon="-1.58074">
        <ele>5.14</ele>
        <time>2020-05-11T17:03:55Z</time>
      </trkpt>
      <trkpt lat="47.11893" lon="-1.58076">
        <ele>5.45</ele>
        <time>2020-05-11T17:03:57Z</time>
      </trkpt>
      <trkpt lat="47.11903" lon="-1.58079">
        <ele>5.37</ele>
        <time>2020-05-11T17:03:59Z</time>
      </trkpt>
      <trkpt lat="47.11915" lon="-1.58084">
        <ele>4.93</ele>
        <time>2020-05-11T17:04:02Z</time>
      </trkpt>
      <trkpt lat="47.11928" lon="-1.58087">
        <ele>5.65</ele>
        <time>2020-05-11T17:04:05Z</time>
      </trkpt>
      <trkpt lat="47.11941" lon="-1.58091">
        <ele>5.2</ele>
        <time>2020-05-11T17:04:08Z</time>
      </trkpt>
      <trkpt lat="47.11951" lon="-1.58093">
        <ele>6.36</ele>
        <time>2020-05-11T17:04:10Z</time>
      </trkpt>
      <trkpt lat="47.11965" lon="-1.58097">
        <ele>6.11</ele>
        <time>2020-05-11T17:04:13Z</time>
      </trkpt>
      <trkpt lat="47.11974" lon="-1.58099">
        <ele>4.76</ele>
        <time>2020-05-11T17:04:16Z</time>
      </trkpt>
      <trkpt lat="47.11984" lon="-1.58101">
        <ele>3.91</ele>
        <time>2020-05-11T17:04:18Z</time>
      </trkpt>
      <trkpt lat="47.11993" lon="-1.58105">
        <ele>3.56</ele>
        <time>2020-05-11T17:04:21Z</time>
      </trkpt>
      <trkpt lat="47.12005" lon="-1.58109">
        <ele>4.54</ele>
        <time>2020-05-11T17:04:24Z</time>
      </trkpt>
      <trkpt lat="47.12015" lon="-1.58106">
        <ele>6.14</ele>
        <time>2020-05-11T17:04:26Z</time>
      </trkpt>
      <trkpt lat="47.12024" lon="-1.5811">
        <ele>7.53</ele>
        <time>2020-05-11T17:04:28Z</time>
      </trkpt>
      <trkpt lat="47.12036" lon="-1.58122">
        <ele>6.66</ele>
        <time>2020-05-11T17:04:31Z</time>
      </trkpt>
      <trkpt lat="47.12044" lon="-1.58129">
        <ele>5.77</ele>
        <time>2020-05-11T17:04:33Z</time>
      </trkpt>
      <trkpt lat="47.12054" lon="-1.58135">
        <ele>5.49</ele>
        <time>2020-05-11T17:04:35Z</time>
      </trkpt>
      <trkpt lat="47.12063" lon="-1.58141">
        <ele>6.68</ele>
        <time>2020-05-11T17:04:37Z</time>
      </trkpt>
      <trkpt lat="47.12073" lon="-1.58147">
        <ele>9.34</ele>
        <time>2020-05-11T17:04:39Z</time>
      </trkpt>
      <trkpt lat="47.12085" lon="-1.58152">
        <ele>9.42</ele>
        <time>2020-05-11T17:04:41Z</time>
      </trkpt>
      <trkpt lat="47.12096" lon="-1.58159">
        <ele>7.98</ele>
        <time>2020-05-11T17:04:43Z</time>
      </trkpt>
      <trkpt lat="47.12107" lon="-1.58164">
        <ele>7.28</ele>
        <time>2020-05-11T17:04:45Z</time>
      </trkpt>
      <trkpt lat="47.12116" lon="-1.58169">
        <ele>6.65</ele>
        <time>2020-05-11T17:04:47Z</time>
      </trkpt>
      <trkpt lat="47.12127" lon="-1.58178">
        <ele>7.03</ele>
        <time>2020-05-11T17:04:49Z</time>
      </trkpt>
      <trkpt lat="47.12141" lon="-1.58192">
        <ele>7.43</ele>
        <time>2020-05-11T17:04:51Z</time>
      </trkpt>
      <trkpt lat="47.1215" lon="-1.58201">
        <ele>9.17</ele>
        <time>2020-05-11T17:04:53Z</time>
      </trkpt>
      <trkpt lat="47.12162" lon="-1.58213">
        <ele>9.73</ele>
        <time>2020-05-11T17:04:55Z</time>
      </trkpt>
      <trkpt lat="47.12174" lon="-1.58228">
        <ele>9.73</ele>
        <time>2020-05-11T17:04:57Z</time>
      </trkpt>
      <trkpt lat="47.12184" lon="-1.58239">
        <ele>9.72</ele>
        <time>2020-05-11T17:04:59Z</time>
      </trkpt>
      <trkpt lat="47.12196" lon="-1.58249">
        <ele>9.62</ele>
        <time>2020-05-11T17:05:01Z</time>
      </trkpt>
      <trkpt lat="47.12207" lon="-1.58259">
        <ele>10.75</ele>
        <time>2020-05-11T17:05:03Z</time>
      </trkpt>
      <trkpt lat="47.1222" lon="-1.58272">
        <ele>10.16</ele>
        <time>2020-05-11T17:05:05Z</time>
      </trkpt>
      <trkpt lat="47.12233" lon="-1.58286">
        <ele>7.95</ele>
        <time>2020-05-11T17:05:07Z</time>
      </trkpt>
      <trkpt lat="47.12244" lon="-1.58298">
        <ele>6.99</ele>
        <time>2020-05-11T17:05:09Z</time>
      </trkpt>
      <trkpt lat="47.12252" lon="-1.58306">
        <ele>7.09</ele>
        <time>2020-05-11T17:05:11Z</time>
      </trkpt>
      <trkpt lat="47.12263" lon="-1.58318">
        <ele>6.94</ele>
        <time>2020-05-11T17:05:13Z</time>
      </trkpt>
      <trkpt lat="47.12273" lon="-1.58328">
        <ele>6.33</ele>
        <time>2020-05-11T17:05:15Z</time>
      </trkpt>
      <trkpt lat="47.12284" lon="-1.58337">
        <ele>5.6</ele>
        <time>2020-05-11T17:05:17Z</time>
      </trkpt>
      <trkpt lat="47.12293" lon="-1.58346">
        <ele>4.86</ele>
        <time>2020-05-11T17:05:19Z</time>
      </trkpt>
      <trkpt lat="47.123" lon="-1.58364">
        <ele>5.18</ele>
        <time>2020-05-11T17:05:22Z</time>
      </trkpt>
      <trkpt lat="47.123" lon="-1.58383">
        <ele>6.13</ele>
        <time>2020-05-11T17:05:24Z</time>
      </trkpt>
      <trkpt lat="47.12301" lon="-1.58399">
        <ele>7.22</ele>
        <time>2020-05-11T17:05:26Z</time>
      </trkpt>
      <trkpt lat="47.12305" lon="-1.58412">
        <ele>8.48</ele>
        <time>2020-05-11T17:05:28Z</time>
      </trkpt>
      <trkpt lat="47.1231" lon="-1.58426">
        <ele>8.92</ele>
        <time>2020-05-11T17:05:30Z</time>
      </trkpt>
      <trkpt lat="47.12316" lon="-1.58438">
        <ele>9.34</ele>
        <time>2020-05-11T17:05:32Z</time>
      </trkpt>
      <trkpt lat="47.12326" lon="-1.58446">
        <ele>9.44</ele>
        <time>2020-05-11T17:05:35Z</time>
      </trkpt>
      <trkpt lat="47.12331" lon="-1.58459">
        <ele>8.96</ele>
        <time>2020-05-11T17:05:37Z</time>
      </trkpt>
      <trkpt lat="47.12338" lon="-1.58478">
        <ele>8.41</ele>
        <time>2020-05-11T17:05:39Z</time>
      </trkpt>
      <trkpt lat="47.12341" lon="-1.58494">
        <ele>7.78</ele>
        <time>2020-05-11T17:05:41Z</time>
      </trkpt>
      <trkpt lat="47.12345" lon="-1.58511">
        <ele>7.91</ele>
        <time>2020-05-11T17:05:43Z</time>
      </trkpt>
      <trkpt lat="47.12349" lon="-1.58527">
        <ele>7.65</ele>
        <time>2020-05-11T17:05:45Z</time>
      </trkpt>
      <trkpt lat="47.12352" lon="-1.58542">
        <ele>7.6</ele>
        <time>2020-05-11T17:05:47Z</time>
      </trkpt>
      <trkpt lat="47.12356" lon="-1.58558">
        <ele>10.23</ele>
        <time>2020-05-11T17:05:49Z</time>
      </trkpt>
      <trkpt lat="47.12358" lon="-1.58572">
        <ele>11.88</ele>
        <time>2020-05-11T17:05:51Z</time>
      </trkpt>
      <trkpt lat="47.12362" lon="-1.58591">
        <ele>12.41</ele>
        <time>2020-05-11T17:05:54Z</time>
      </trkpt>
      <trkpt lat="47.12368" lon="-1.58609">
        <ele>12.87</ele>
        <time>2020-05-11T17:05:56Z</time>
      </trkpt>
      <trkpt lat="47.12371" lon="-1.58625">
        <ele>11.99</ele>
        <time>2020-05-11T17:05:58Z</time>
      </trkpt>
      <trkpt lat="47.12375" lon="-1.58641">
        <ele>10.1</ele>
        <time>2020-05-11T17:06:00Z</time>
      </trkpt>
      <trkpt lat="47.12379" lon="-1.58657">
        <ele>8.5</ele>
        <time>2020-05-11T17:06:02Z</time>
      </trkpt>
      <trkpt lat="47.12381" lon="-1.58671">
        <ele>6.79</ele>
        <time>2020-05-11T17:06:04Z</time>
      </trkpt>
      <trkpt lat="47.12385" lon="-1.58686">
        <ele>5.37</ele>
        <time>2020-05-11T17:06:06Z</time>
      </trkpt>
      <trkpt lat="47.12388" lon="-1.58701">
        <ele>7.2</ele>
        <time>2020-05-11T17:06:08Z</time>
      </trkpt>
      <trkpt lat="47.1239" lon="-1.58714">
        <ele>10.26</ele>
        <time>2020-05-11T17:06:10Z</time>
      </trkpt>
      <trkpt lat="47.12393" lon="-1.58731">
        <ele>15.26</ele>
        <time>2020-05-11T17:06:13Z</time>
      </trkpt>
      <trkpt lat="47.12395" lon="-1.58746">
        <ele>15.7</ele>
        <time>2020-05-11T17:06:15Z</time>
      </trkpt>
      <trkpt lat="47.12398" lon="-1.58763">
        <ele>15.37</ele>
        <time>2020-05-11T17:06:17Z</time>
      </trkpt>
      <trkpt lat="47.12401" lon="-1.58779">
        <ele>15.27</ele>
        <time>2020-05-11T17:06:19Z</time>
      </trkpt>
      <trkpt lat="47.12405" lon="-1.58797">
        <ele>13.54</ele>
        <time>2020-05-11T17:06:22Z</time>
      </trkpt>
      <trkpt lat="47.12409" lon="-1.58815">
        <ele>10.99</ele>
        <time>2020-05-11T17:06:25Z</time>
      </trkpt>
      <trkpt lat="47.12412" lon="-1.58829">
        <ele>10.97</ele>
        <time>2020-05-11T17:06:27Z</time>
      </trkpt>
      <trkpt lat="47.12414" lon="-1.58846">
        <ele>11.16</ele>
        <time>2020-05-11T17:06:29Z</time>
      </trkpt>
      <trkpt lat="47.12416" lon="-1.58862">
        <ele>8.58</ele>
        <time>2020-05-11T17:06:32Z</time>
      </trkpt>
      <trkpt lat="47.12418" lon="-1.5888">
        <ele>6.66</ele>
        <time>2020-05-11T17:06:34Z</time>
      </trkpt>
      <trkpt lat="47.12422" lon="-1.589">
        <ele>6.77</ele>
        <time>2020-05-11T17:06:37Z</time>
      </trkpt>
      <trkpt lat="47.12424" lon="-1.58914">
        <ele>5.09</ele>
        <time>2020-05-11T17:06:39Z</time>
      </trkpt>
      <trkpt lat="47.12425" lon="-1.58929">
        <ele>4.03</ele>
        <time>2020-05-11T17:06:41Z</time>
      </trkpt>
      <trkpt lat="47.12427" lon="-1.58949">
        <ele>3.4</ele>
        <time>2020-05-11T17:06:43Z</time>
      </trkpt>
      <trkpt lat="47.12428" lon="-1.58969">
        <ele>3.79</ele>
        <time>2020-05-11T17:06:45Z</time>
      </trkpt>
      <trkpt lat="47.12429" lon="-1.58991">
        <ele>3.97</ele>
        <time>2020-05-11T17:06:47Z</time>
      </trkpt>
      <trkpt lat="47.12429" lon="-1.59013">
        <ele>4.33</ele>
        <time>2020-05-11T17:06:49Z</time>
      </trkpt>
      <trkpt lat="47.1243" lon="-1.59027">
        <ele>4.66</ele>
        <time>2020-05-11T17:06:50Z</time>
      </trkpt>
      <trkpt lat="47.1243" lon="-1.59049">
        <ele>4.14</ele>
        <time>2020-05-11T17:06:52Z</time>
      </trkpt>
      <trkpt lat="47.12431" lon="-1.5907">
        <ele>3.38</ele>
        <time>2020-05-11T17:06:54Z</time>
      </trkpt>
      <trkpt lat="47.12432" lon="-1.5909">
        <ele>2.19</ele>
        <time>2020-05-11T17:06:56Z</time>
      </trkpt>
      <trkpt lat="47.12433" lon="-1.59112">
        <ele>1.48</ele>
        <time>2020-05-11T17:06:58Z</time>
      </trkpt>
      <trkpt lat="47.12434" lon="-1.59133">
        <ele>1.49</ele>
        <time>2020-05-11T17:07:00Z</time>
      </trkpt>
      <trkpt lat="47.12435" lon="-1.59153">
        <ele>1.18</ele>
        <time>2020-05-11T17:07:02Z</time>
      </trkpt>
      <trkpt lat="47.12436" lon="-1.59172">
        <ele>0.77</ele>
        <time>2020-05-11T17:07:04Z</time>
      </trkpt>
      <trkpt lat="47.12438" lon="-1.59189">
        <ele>-0.04</ele>
        <time>2020-05-11T17:07:06Z</time>
      </trkpt>
      <trkpt lat="47.12441" lon="-1.59204">
        <ele>0.48</ele>
        <time>2020-05-11T17:07:08Z</time>
      </trkpt>
      <trkpt lat="47.12441" lon="-1.59224">
        <ele>1.35</ele>
        <time>2020-05-11T17:07:10Z</time>
      </trkpt>
      <trkpt lat="47.12439" lon="-1.5924">
        <ele>2.99</ele>
        <time>2020-05-11T17:07:12Z</time>
      </trkpt>
      <trkpt lat="47.12438" lon="-1.59258">
        <ele>4.25</ele>
        <time>2020-05-11T17:07:14Z</time>
      </trkpt>
      <trkpt lat="47.12439" lon="-1.59278">
        <ele>4.83</ele>
        <time>2020-05-11T17:07:16Z</time>
      </trkpt>
      <trkpt lat="47.1244" lon="-1.59296">
        <ele>5.41</ele>
        <time>2020-05-11T17:07:18Z</time>
      </trkpt>
      <trkpt lat="47.1244" lon="-1.59316">
        <ele>5.82</ele>
        <time>2020-05-11T17:07:20Z</time>
      </trkpt>
      <trkpt lat="47.12441" lon="-1.59331">
        <ele>6.38</ele>
        <time>2020-05-11T17:07:22Z</time>
      </trkpt>
      <trkpt lat="47.12441" lon="-1.59345">
        <ele>5.08</ele>
        <time>2020-05-11T17:07:24Z</time>
      </trkpt>
      <trkpt lat="47.12443" lon="-1.59361">
        <ele>3.29</ele>
        <time>2020-05-11T17:07:26Z</time>
      </trkpt>
      <trkpt lat="47.12444" lon="-1.59378">
        <ele>4.17</ele>
        <time>2020-05-11T17:07:28Z</time>
      </trkpt>
      <trkpt lat="47.12445" lon="-1.59397">
        <ele>4.4</ele>
        <time>2020-05-11T17:07:30Z</time>
      </trkpt>
      <trkpt lat="47.12446" lon="-1.59414">
        <ele>4.11</ele>
        <time>2020-05-11T17:07:32Z</time>
      </trkpt>
      <trkpt lat="47.12447" lon="-1.59429">
        <ele>4.83</ele>
        <time>2020-05-11T17:07:34Z</time>
      </trkpt>
      <trkpt lat="47.12448" lon="-1.59448">
        <ele>4.65</ele>
        <time>2020-05-11T17:07:36Z</time>
      </trkpt>
      <trkpt lat="47.12449" lon="-1.59462">
        <ele>4.48</ele>
        <time>2020-05-11T17:07:38Z</time>
      </trkpt>
      <trkpt lat="47.1245" lon="-1.59479">
        <ele>4.97</ele>
        <time>2020-05-11T17:07:40Z</time>
      </trkpt>
      <trkpt lat="47.12451" lon="-1.59494">
        <ele>4.24</ele>
        <time>2020-05-11T17:07:42Z</time>
      </trkpt>
      <trkpt lat="47.12452" lon="-1.59507">
        <ele>5.34</ele>
        <time>2020-05-11T17:07:44Z</time>
      </trkpt>
      <trkpt lat="47.12452" lon="-1.59523">
        <ele>6.53</ele>
        <time>2020-05-11T17:07:46Z</time>
      </trkpt>
      <trkpt lat="47.12452" lon="-1.59538">
        <ele>6.43</ele>
        <time>2020-05-11T17:07:48Z</time>
      </trkpt>
      <trkpt lat="47.12453" lon="-1.59559">
        <ele>5.83</ele>
        <time>2020-05-11T17:07:51Z</time>
      </trkpt>
      <trkpt lat="47.12454" lon="-1.59576">
        <ele>5.55</ele>
        <time>2020-05-11T17:07:53Z</time>
      </trkpt>
      <trkpt lat="47.12455" lon="-1.5959">
        <ele>6.65</ele>
        <time>2020-05-11T17:07:55Z</time>
      </trkpt>
      <trkpt lat="47.12456" lon="-1.59605">
        <ele>7</ele>
        <time>2020-05-11T17:07:57Z</time>
      </trkpt>
      <trkpt lat="47.12457" lon="-1.59624">
        <ele>6.23</ele>
        <time>2020-05-11T17:08:00Z</time>
      </trkpt>
      <trkpt lat="47.12458" lon="-1.59641">
        <ele>5.59</ele>
        <time>2020-05-11T17:08:02Z</time>
      </trkpt>
      <trkpt lat="47.12459" lon="-1.59655">
        <ele>5.28</ele>
        <time>2020-05-11T17:08:04Z</time>
      </trkpt>
      <trkpt lat="47.1246" lon="-1.59675">
        <ele>4.19</ele>
        <time>2020-05-11T17:08:06Z</time>
      </trkpt>
      <trkpt lat="47.1246" lon="-1.5969">
        <ele>3.84</ele>
        <time>2020-05-11T17:08:08Z</time>
      </trkpt>
      <trkpt lat="47.12461" lon="-1.59704">
        <ele>4.2</ele>
        <time>2020-05-11T17:08:10Z</time>
      </trkpt>
      <trkpt lat="47.12461" lon="-1.5972">
        <ele>6.28</ele>
        <time>2020-05-11T17:08:12Z</time>
      </trkpt>
      <trkpt lat="47.12462" lon="-1.59738">
        <ele>7.32</ele>
        <time>2020-05-11T17:08:14Z</time>
      </trkpt>
      <trkpt lat="47.12463" lon="-1.59756">
        <ele>7.53</ele>
        <time>2020-05-11T17:08:16Z</time>
      </trkpt>
      <trkpt lat="47.12464" lon="-1.59773">
        <ele>7.31</ele>
        <time>2020-05-11T17:08:18Z</time>
      </trkpt>
      <trkpt lat="47.12465" lon="-1.59796">
        <ele>7.61</ele>
        <time>2020-05-11T17:08:21Z</time>
      </trkpt>
      <trkpt lat="47.12467" lon="-1.59813">
        <ele>5.99</ele>
        <time>2020-05-11T17:08:23Z</time>
      </trkpt>
      <trkpt lat="47.12469" lon="-1.59829">
        <ele>4.27</ele>
        <time>2020-05-11T17:08:25Z</time>
      </trkpt>
      <trkpt lat="47.12471" lon="-1.59846">
        <ele>3.06</ele>
        <time>2020-05-11T17:08:28Z</time>
      </trkpt>
      <trkpt lat="47.12472" lon="-1.59863">
        <ele>3.83</ele>
        <time>2020-05-11T17:08:30Z</time>
      </trkpt>
      <trkpt lat="47.12473" lon="-1.59882">
        <ele>3.75</ele>
        <time>2020-05-11T17:08:32Z</time>
      </trkpt>
      <trkpt lat="47.12474" lon="-1.59904">
        <ele>3.46</ele>
        <time>2020-05-11T17:08:34Z</time>
      </trkpt>
      <trkpt lat="47.12476" lon="-1.59922">
        <ele>3.52</ele>
        <time>2020-05-11T17:08:36Z</time>
      </trkpt>
      <trkpt lat="47.12478" lon="-1.59939">
        <ele>2.96</ele>
        <time>2020-05-11T17:08:38Z</time>
      </trkpt>
      <trkpt lat="47.12478" lon="-1.59958">
        <ele>3.12</ele>
        <time>2020-05-11T17:08:40Z</time>
      </trkpt>
      <trkpt lat="47.12477" lon="-1.59973">
        <ele>3.24</ele>
        <time>2020-05-11T17:08:42Z</time>
      </trkpt>
      <trkpt lat="47.12477" lon="-1.5999">
        <ele>3.76</ele>
        <time>2020-05-11T17:08:44Z</time>
      </trkpt>
      <trkpt lat="47.12477" lon="-1.60007">
        <ele>3.04</ele>
        <time>2020-05-11T17:08:46Z</time>
      </trkpt>
      <trkpt lat="47.12477" lon="-1.60023">
        <ele>2.81</ele>
        <time>2020-05-11T17:08:48Z</time>
      </trkpt>
      <trkpt lat="47.12477" lon="-1.6004">
        <ele>2.6</ele>
        <time>2020-05-11T17:08:50Z</time>
      </trkpt>
      <trkpt lat="47.12479" lon="-1.60053">
        <ele>1.18</ele>
        <time>2020-05-11T17:08:52Z</time>
      </trkpt>
      <trkpt lat="47.1248" lon="-1.60075">
        <ele>-0.57</ele>
        <time>2020-05-11T17:08:54Z</time>
      </trkpt>
      <trkpt lat="47.12481" lon="-1.60094">
        <ele>-1.42</ele>
        <time>2020-05-11T17:08:56Z</time>
      </trkpt>
      <trkpt lat="47.12482" lon="-1.60112">
        <ele>-0.03</ele>
        <time>2020-05-11T17:08:58Z</time>
      </trkpt>
      <trkpt lat="47.12484" lon="-1.60131">
        <ele>0.01</ele>
        <time>2020-05-11T17:09:00Z</time>
      </trkpt>
      <trkpt lat="47.12485" lon="-1.6015">
        <ele>0.19</ele>
        <time>2020-05-11T17:09:02Z</time>
      </trkpt>
      <trkpt lat="47.12486" lon="-1.60166">
        <ele>0.69</ele>
        <time>2020-05-11T17:09:04Z</time>
      </trkpt>
      <trkpt lat="47.12487" lon="-1.60183">
        <ele>1.26</ele>
        <time>2020-05-11T17:09:06Z</time>
      </trkpt>
      <trkpt lat="47.12488" lon="-1.60206">
        <ele>2.43</ele>
        <time>2020-05-11T17:09:08Z</time>
      </trkpt>
      <trkpt lat="47.1249" lon="-1.60224">
        <ele>3.27</ele>
        <time>2020-05-11T17:09:10Z</time>
      </trkpt>
      <trkpt lat="47.12492" lon="-1.60241">
        <ele>3.11</ele>
        <time>2020-05-11T17:09:12Z</time>
      </trkpt>
      <trkpt lat="47.12494" lon="-1.6026">
        <ele>4.2</ele>
        <time>2020-05-11T17:09:14Z</time>
      </trkpt>
      <trkpt lat="47.12498" lon="-1.60275">
        <ele>4.53</ele>
        <time>2020-05-11T17:09:16Z</time>
      </trkpt>
      <trkpt lat="47.12502" lon="-1.60291">
        <ele>6.07</ele>
        <time>2020-05-11T17:09:18Z</time>
      </trkpt>
      <trkpt lat="47.12505" lon="-1.60309">
        <ele>6.21</ele>
        <time>2020-05-11T17:09:20Z</time>
      </trkpt>
      <trkpt lat="47.12507" lon="-1.60323">
        <ele>6.74</ele>
        <time>2020-05-11T17:09:22Z</time>
      </trkpt>
      <trkpt lat="47.1251" lon="-1.6034">
        <ele>5.41</ele>
        <time>2020-05-11T17:09:24Z</time>
      </trkpt>
      <trkpt lat="47.12514" lon="-1.60356">
        <ele>3.38</ele>
        <time>2020-05-11T17:09:26Z</time>
      </trkpt>
      <trkpt lat="47.12517" lon="-1.60373">
        <ele>1.79</ele>
        <time>2020-05-11T17:09:28Z</time>
      </trkpt>
      <trkpt lat="47.12519" lon="-1.60388">
        <ele>2.28</ele>
        <time>2020-05-11T17:09:30Z</time>
      </trkpt>
      <trkpt lat="47.12523" lon="-1.60403">
        <ele>2.41</ele>
        <time>2020-05-11T17:09:32Z</time>
      </trkpt>
      <trkpt lat="47.12526" lon="-1.60418">
        <ele>1.89</ele>
        <time>2020-05-11T17:09:34Z</time>
      </trkpt>
      <trkpt lat="47.12529" lon="-1.60432">
        <ele>2.99</ele>
        <time>2020-05-11T17:09:36Z</time>
      </trkpt>
      <trkpt lat="47.12532" lon="-1.60447">
        <ele>3.96</ele>
        <time>2020-05-11T17:09:38Z</time>
      </trkpt>
      <trkpt lat="47.12534" lon="-1.60464">
        <ele>5.03</ele>
        <time>2020-05-11T17:09:40Z</time>
      </trkpt>
      <trkpt lat="47.12536" lon="-1.6048">
        <ele>5.39</ele>
        <time>2020-05-11T17:09:42Z</time>
      </trkpt>
      <trkpt lat="47.12538" lon="-1.60498">
        <ele>4.5</ele>
        <time>2020-05-11T17:09:44Z</time>
      </trkpt>
      <trkpt lat="47.1254" lon="-1.60512">
        <ele>4.66</ele>
        <time>2020-05-11T17:09:46Z</time>
      </trkpt>
      <trkpt lat="47.12541" lon="-1.60529">
        <ele>5.52</ele>
        <time>2020-05-11T17:09:48Z</time>
      </trkpt>
      <trkpt lat="47.12542" lon="-1.60544">
        <ele>6.63</ele>
        <time>2020-05-11T17:09:50Z</time>
      </trkpt>
      <trkpt lat="47.12542" lon="-1.60558">
        <ele>7.76</ele>
        <time>2020-05-11T17:09:52Z</time>
      </trkpt>
      <trkpt lat="47.12543" lon="-1.60572">
        <ele>8</ele>
        <time>2020-05-11T17:09:54Z</time>
      </trkpt>
      <trkpt lat="47.12544" lon="-1.60588">
        <ele>8.36</ele>
        <time>2020-05-11T17:09:56Z</time>
      </trkpt>
      <trkpt lat="47.12544" lon="-1.60603">
        <ele>8.84</ele>
        <time>2020-05-11T17:09:58Z</time>
      </trkpt>
      <trkpt lat="47.12544" lon="-1.60619">
        <ele>8.94</ele>
        <time>2020-05-11T17:10:00Z</time>
      </trkpt>
      <trkpt lat="47.12545" lon="-1.60635">
        <ele>9.56</ele>
        <time>2020-05-11T17:10:02Z</time>
      </trkpt>
      <trkpt lat="47.12546" lon="-1.6065">
        <ele>8.72</ele>
        <time>2020-05-11T17:10:04Z</time>
      </trkpt>
      <trkpt lat="47.12546" lon="-1.60668">
        <ele>8.65</ele>
        <time>2020-05-11T17:10:06Z</time>
      </trkpt>
      <trkpt lat="47.12546" lon="-1.60684">
        <ele>9.16</ele>
        <time>2020-05-11T17:10:08Z</time>
      </trkpt>
      <trkpt lat="47.12546" lon="-1.60698">
        <ele>9.09</ele>
        <time>2020-05-11T17:10:10Z</time>
      </trkpt>
      <trkpt lat="47.12546" lon="-1.60714">
        <ele>8.92</ele>
        <time>2020-05-11T17:10:12Z</time>
      </trkpt>
      <trkpt lat="47.12546" lon="-1.6073">
        <ele>9.07</ele>
        <time>2020-05-11T17:10:14Z</time>
      </trkpt>
      <trkpt lat="47.12545" lon="-1.60746">
        <ele>9.64</ele>
        <time>2020-05-11T17:10:16Z</time>
      </trkpt>
      <trkpt lat="47.12543" lon="-1.60766">
        <ele>9.96</ele>
        <time>2020-05-11T17:10:19Z</time>
      </trkpt>
      <trkpt lat="47.12542" lon="-1.6078">
        <ele>9.82</ele>
        <time>2020-05-11T17:10:21Z</time>
      </trkpt>
      <trkpt lat="47.1254" lon="-1.60795">
        <ele>9.98</ele>
        <time>2020-05-11T17:10:23Z</time>
      </trkpt>
      <trkpt lat="47.12538" lon="-1.6081">
        <ele>11.61</ele>
        <time>2020-05-11T17:10:25Z</time>
      </trkpt>
      <trkpt lat="47.12537" lon="-1.60825">
        <ele>12.12</ele>
        <time>2020-05-11T17:10:27Z</time>
      </trkpt>
      <trkpt lat="47.12536" lon="-1.60842">
        <ele>11.46</ele>
        <time>2020-05-11T17:10:29Z</time>
      </trkpt>
      <trkpt lat="47.12545" lon="-1.60854">
        <ele>10.92</ele>
        <time>2020-05-11T17:10:31Z</time>
      </trkpt>
      <trkpt lat="47.12555" lon="-1.60852">
        <ele>9.31</ele>
        <time>2020-05-11T17:10:33Z</time>
      </trkpt>
      <trkpt lat="47.12566" lon="-1.6085">
        <ele>8.2</ele>
        <time>2020-05-11T17:10:35Z</time>
      </trkpt>
      <trkpt lat="47.12578" lon="-1.60846">
        <ele>6.66</ele>
        <time>2020-05-11T17:10:38Z</time>
      </trkpt>
      <trkpt lat="47.12588" lon="-1.60843">
        <ele>5.34</ele>
        <time>2020-05-11T17:10:40Z</time>
      </trkpt>
      <trkpt lat="47.12597" lon="-1.60839">
        <ele>4.6</ele>
        <time>2020-05-11T17:10:42Z</time>
      </trkpt>
      <trkpt lat="47.12608" lon="-1.60835">
        <ele>3.97</ele>
        <time>2020-05-11T17:10:44Z</time>
      </trkpt>
      <trkpt lat="47.1262" lon="-1.6083">
        <ele>4.1</ele>
        <time>2020-05-11T17:10:47Z</time>
      </trkpt>
      <trkpt lat="47.12634" lon="-1.60827">
        <ele>5.57</ele>
        <time>2020-05-11T17:10:50Z</time>
      </trkpt>
      <trkpt lat="47.12642" lon="-1.60824">
        <ele>6.76</ele>
        <time>2020-05-11T17:10:52Z</time>
      </trkpt>
      <trkpt lat="47.12653" lon="-1.60821">
        <ele>7</ele>
        <time>2020-05-11T17:10:54Z</time>
      </trkpt>
      <trkpt lat="47.12662" lon="-1.60818">
        <ele>6.81</ele>
        <time>2020-05-11T17:10:56Z</time>
      </trkpt>
      <trkpt lat="47.12673" lon="-1.60814">
        <ele>6.58</ele>
        <time>2020-05-11T17:10:59Z</time>
      </trkpt>
      <trkpt lat="47.12684" lon="-1.60808">
        <ele>6.89</ele>
        <time>2020-05-11T17:11:01Z</time>
      </trkpt>
      <trkpt lat="47.12694" lon="-1.60804">
        <ele>5.83</ele>
        <time>2020-05-11T17:11:03Z</time>
      </trkpt>
      <trkpt lat="47.12705" lon="-1.60799">
        <ele>4.59</ele>
        <time>2020-05-11T17:11:05Z</time>
      </trkpt>
      <trkpt lat="47.12715" lon="-1.60794">
        <ele>4.4</ele>
        <time>2020-05-11T17:11:07Z</time>
      </trkpt>
      <trkpt lat="47.12724" lon="-1.60796">
        <ele>4.62</ele>
        <time>2020-05-11T17:11:09Z</time>
      </trkpt>
      <trkpt lat="47.12726" lon="-1.60812">
        <ele>4.75</ele>
        <time>2020-05-11T17:11:11Z</time>
      </trkpt>
      <trkpt lat="47.12724" lon="-1.6083">
        <ele>6.05</ele>
        <time>2020-05-11T17:11:14Z</time>
      </trkpt>
      <trkpt lat="47.12716" lon="-1.60849">
        <ele>7.52</ele>
        <time>2020-05-11T17:11:17Z</time>
      </trkpt>
      <trkpt lat="47.12712" lon="-1.60865">
        <ele>9.09</ele>
        <time>2020-05-11T17:11:19Z</time>
      </trkpt>
      <trkpt lat="47.12707" lon="-1.60879">
        <ele>9.97</ele>
        <time>2020-05-11T17:11:21Z</time>
      </trkpt>
      <trkpt lat="47.12702" lon="-1.60894">
        <ele>10.51</ele>
        <time>2020-05-11T17:11:24Z</time>
      </trkpt>
      <trkpt lat="47.12698" lon="-1.60913">
        <ele>11.4</ele>
        <time>2020-05-11T17:11:26Z</time>
      </trkpt>
      <trkpt lat="47.12696" lon="-1.60929">
        <ele>11.77</ele>
        <time>2020-05-11T17:11:28Z</time>
      </trkpt>
      <trkpt lat="47.12696" lon="-1.60945">
        <ele>11.85</ele>
        <time>2020-05-11T17:11:30Z</time>
      </trkpt>
      <trkpt lat="47.12694" lon="-1.60965">
        <ele>11.03</ele>
        <time>2020-05-11T17:11:32Z</time>
      </trkpt>
      <trkpt lat="47.12694" lon="-1.60982">
        <ele>10.69</ele>
        <time>2020-05-11T17:11:34Z</time>
      </trkpt>
      <trkpt lat="47.12693" lon="-1.61003">
        <ele>9.5</ele>
        <time>2020-05-11T17:11:37Z</time>
      </trkpt>
      <trkpt lat="47.12691" lon="-1.6102">
        <ele>10.71</ele>
        <time>2020-05-11T17:11:39Z</time>
      </trkpt>
      <trkpt lat="47.1269" lon="-1.61035">
        <ele>12.2</ele>
        <time>2020-05-11T17:11:41Z</time>
      </trkpt>
      <trkpt lat="47.12689" lon="-1.6105">
        <ele>13.06</ele>
        <time>2020-05-11T17:11:43Z</time>
      </trkpt>
      <trkpt lat="47.12687" lon="-1.61068">
        <ele>13.17</ele>
        <time>2020-05-11T17:11:46Z</time>
      </trkpt>
      <trkpt lat="47.12686" lon="-1.61082">
        <ele>13.54</ele>
        <time>2020-05-11T17:11:49Z</time>
      </trkpt>
      <trkpt lat="47.12685" lon="-1.61103">
        <ele>14.88</ele>
        <time>2020-05-11T17:11:51Z</time>
      </trkpt>
      <trkpt lat="47.12684" lon="-1.61118">
        <ele>14.6</ele>
        <time>2020-05-11T17:11:53Z</time>
      </trkpt>
      <trkpt lat="47.12681" lon="-1.61136">
        <ele>13.16</ele>
        <time>2020-05-11T17:11:55Z</time>
      </trkpt>
      <trkpt lat="47.12679" lon="-1.61157">
        <ele>11.85</ele>
        <time>2020-05-11T17:11:57Z</time>
      </trkpt>
      <trkpt lat="47.12677" lon="-1.61176">
        <ele>10.91</ele>
        <time>2020-05-11T17:11:59Z</time>
      </trkpt>
      <trkpt lat="47.12674" lon="-1.61194">
        <ele>11.8</ele>
        <time>2020-05-11T17:12:01Z</time>
      </trkpt>
      <trkpt lat="47.12672" lon="-1.61214">
        <ele>11.91</ele>
        <time>2020-05-11T17:12:03Z</time>
      </trkpt>
      <trkpt lat="47.12669" lon="-1.61234">
        <ele>10.94</ele>
        <time>2020-05-11T17:12:05Z</time>
      </trkpt>
      <trkpt lat="47.12669" lon="-1.61256">
        <ele>11.11</ele>
        <time>2020-05-11T17:12:07Z</time>
      </trkpt>
      <trkpt lat="47.12672" lon="-1.61275">
        <ele>11.51</ele>
        <time>2020-05-11T17:12:09Z</time>
      </trkpt>
      <trkpt lat="47.12676" lon="-1.61295">
        <ele>12.13</ele>
        <time>2020-05-11T17:12:11Z</time>
      </trkpt>
      <trkpt lat="47.12681" lon="-1.61312">
        <ele>11.96</ele>
        <time>2020-05-11T17:12:13Z</time>
      </trkpt>
      <trkpt lat="47.12686" lon="-1.61328">
        <ele>11.51</ele>
        <time>2020-05-11T17:12:15Z</time>
      </trkpt>
      <trkpt lat="47.12691" lon="-1.61343">
        <ele>10.9</ele>
        <time>2020-05-11T17:12:17Z</time>
      </trkpt>
      <trkpt lat="47.12696" lon="-1.61358">
        <ele>11.01</ele>
        <time>2020-05-11T17:12:19Z</time>
      </trkpt>
      <trkpt lat="47.12699" lon="-1.6137">
        <ele>11.32</ele>
        <time>2020-05-11T17:12:21Z</time>
      </trkpt>
      <trkpt lat="47.12704" lon="-1.61383">
        <ele>11.7</ele>
        <time>2020-05-11T17:12:23Z</time>
      </trkpt>
      <trkpt lat="47.1271" lon="-1.61401">
        <ele>12.98</ele>
        <time>2020-05-11T17:12:25Z</time>
      </trkpt>
      <trkpt lat="47.12716" lon="-1.61417">
        <ele>12.22</ele>
        <time>2020-05-11T17:12:27Z</time>
      </trkpt>
      <trkpt lat="47.12723" lon="-1.61432">
        <ele>10.91</ele>
        <time>2020-05-11T17:12:29Z</time>
      </trkpt>
      <trkpt lat="47.1273" lon="-1.61446">
        <ele>9.28</ele>
        <time>2020-05-11T17:12:31Z</time>
      </trkpt>
      <trkpt lat="47.12736" lon="-1.6146">
        <ele>7.64</ele>
        <time>2020-05-11T17:12:33Z</time>
      </trkpt>
      <trkpt lat="47.12744" lon="-1.61477">
        <ele>7.31</ele>
        <time>2020-05-11T17:12:35Z</time>
      </trkpt>
      <trkpt lat="47.1275" lon="-1.61488">
        <ele>5.77</ele>
        <time>2020-05-11T17:12:37Z</time>
      </trkpt>
      <trkpt lat="47.12756" lon="-1.61501">
        <ele>5.5</ele>
        <time>2020-05-11T17:12:39Z</time>
      </trkpt>
      <trkpt lat="47.12762" lon="-1.61513">
        <ele>6.29</ele>
        <time>2020-05-11T17:12:41Z</time>
      </trkpt>
      <trkpt lat="47.1277" lon="-1.61531">
        <ele>6.29</ele>
        <time>2020-05-11T17:12:43Z</time>
      </trkpt>
      <trkpt lat="47.12778" lon="-1.61552">
        <ele>5.44</ele>
        <time>2020-05-11T17:12:45Z</time>
      </trkpt>
      <trkpt lat="47.12784" lon="-1.61566">
        <ele>6.57</ele>
        <time>2020-05-11T17:12:47Z</time>
      </trkpt>
      <trkpt lat="47.12788" lon="-1.61578">
        <ele>7.67</ele>
        <time>2020-05-11T17:12:49Z</time>
      </trkpt>
      <trkpt lat="47.12794" lon="-1.61594">
        <ele>7.15</ele>
        <time>2020-05-11T17:12:51Z</time>
      </trkpt>
      <trkpt lat="47.12799" lon="-1.6161">
        <ele>7.27</ele>
        <time>2020-05-11T17:12:53Z</time>
      </trkpt>
      <trkpt lat="47.12804" lon="-1.61623">
        <ele>7.57</ele>
        <time>2020-05-11T17:12:55Z</time>
      </trkpt>
      <trkpt lat="47.12809" lon="-1.61637">
        <ele>8.66</ele>
        <time>2020-05-11T17:12:57Z</time>
      </trkpt>
      <trkpt lat="47.12814" lon="-1.61652">
        <ele>9.61</ele>
        <time>2020-05-11T17:13:00Z</time>
      </trkpt>
      <trkpt lat="47.12821" lon="-1.61666">
        <ele>8.67</ele>
        <time>2020-05-11T17:13:04Z</time>
      </trkpt>
      <trkpt lat="47.12826" lon="-1.61679">
        <ele>7.83</ele>
        <time>2020-05-11T17:13:06Z</time>
      </trkpt>
      <trkpt lat="47.12833" lon="-1.61695">
        <ele>5.7</ele>
        <time>2020-05-11T17:13:08Z</time>
      </trkpt>
      <trkpt lat="47.12839" lon="-1.61708">
        <ele>4.18</ele>
        <time>2020-05-11T17:13:10Z</time>
      </trkpt>
      <trkpt lat="47.12847" lon="-1.61727">
        <ele>1</ele>
        <time>2020-05-11T17:13:13Z</time>
      </trkpt>
      <trkpt lat="47.12855" lon="-1.61744">
        <ele>-0.25</ele>
        <time>2020-05-11T17:13:15Z</time>
      </trkpt>
      <trkpt lat="47.12861" lon="-1.61759">
        <ele>-0.79</ele>
        <time>2020-05-11T17:13:17Z</time>
      </trkpt>
      <trkpt lat="47.12868" lon="-1.61775">
        <ele>-0.36</ele>
        <time>2020-05-11T17:13:19Z</time>
      </trkpt>
      <trkpt lat="47.12874" lon="-1.61789">
        <ele>-0.11</ele>
        <time>2020-05-11T17:13:21Z</time>
      </trkpt>
      <trkpt lat="47.12881" lon="-1.61803">
        <ele>-0.09</ele>
        <time>2020-05-11T17:13:23Z</time>
      </trkpt>
      <trkpt lat="47.12886" lon="-1.61815">
        <ele>0.62</ele>
        <time>2020-05-11T17:13:25Z</time>
      </trkpt>
      <trkpt lat="47.12891" lon="-1.61829">
        <ele>1.03</ele>
        <time>2020-05-11T17:13:27Z</time>
      </trkpt>
      <trkpt lat="47.12899" lon="-1.61853">
        <ele>0.98</ele>
        <time>2020-05-11T17:13:28Z</time>
      </trkpt>
      <trkpt lat="47.12904" lon="-1.61871">
        <ele>1.61</ele>
        <time>2020-05-11T17:13:30Z</time>
      </trkpt>
      <trkpt lat="47.12907" lon="-1.61887">
        <ele>2.5</ele>
        <time>2020-05-11T17:13:32Z</time>
      </trkpt>
      <trkpt lat="47.12909" lon="-1.61905">
        <ele>3.63</ele>
        <time>2020-05-11T17:13:34Z</time>
      </trkpt>
      <trkpt lat="47.12912" lon="-1.61921">
        <ele>4.71</ele>
        <time>2020-05-11T17:13:36Z</time>
      </trkpt>
      <trkpt lat="47.12914" lon="-1.61939">
        <ele>4.37</ele>
        <time>2020-05-11T17:13:38Z</time>
      </trkpt>
      <trkpt lat="47.12916" lon="-1.61958">
        <ele>4.97</ele>
        <time>2020-05-11T17:13:40Z</time>
      </trkpt>
      <trkpt lat="47.12919" lon="-1.61974">
        <ele>5.91</ele>
        <time>2020-05-11T17:13:42Z</time>
      </trkpt>
      <trkpt lat="47.12922" lon="-1.6199">
        <ele>6.09</ele>
        <time>2020-05-11T17:13:44Z</time>
      </trkpt>
      <trkpt lat="47.12925" lon="-1.62008">
        <ele>5.93</ele>
        <time>2020-05-11T17:13:46Z</time>
      </trkpt>
      <trkpt lat="47.12929" lon="-1.62023">
        <ele>7.55</ele>
        <time>2020-05-11T17:13:48Z</time>
      </trkpt>
      <trkpt lat="47.12935" lon="-1.62039">
        <ele>7.61</ele>
        <time>2020-05-11T17:13:50Z</time>
      </trkpt>
      <trkpt lat="47.12942" lon="-1.62054">
        <ele>7</ele>
        <time>2020-05-11T17:13:52Z</time>
      </trkpt>
      <trkpt lat="47.12947" lon="-1.62066">
        <ele>7.84</ele>
        <time>2020-05-11T17:13:54Z</time>
      </trkpt>
      <trkpt lat="47.12953" lon="-1.6208">
        <ele>6.99</ele>
        <time>2020-05-11T17:13:56Z</time>
      </trkpt>
      <trkpt lat="47.12959" lon="-1.6209">
        <ele>5.55</ele>
        <time>2020-05-11T17:13:58Z</time>
      </trkpt>
      <trkpt lat="47.12966" lon="-1.62106">
        <ele>5.17</ele>
        <time>2020-05-11T17:14:01Z</time>
      </trkpt>
      <trkpt lat="47.12973" lon="-1.62121">
        <ele>5</ele>
        <time>2020-05-11T17:14:04Z</time>
      </trkpt>
      <trkpt lat="47.12979" lon="-1.62133">
        <ele>4.94</ele>
        <time>2020-05-11T17:14:06Z</time>
      </trkpt>
      <trkpt lat="47.12985" lon="-1.62144">
        <ele>4.88</ele>
        <time>2020-05-11T17:14:08Z</time>
      </trkpt>
      <trkpt lat="47.12991" lon="-1.62156">
        <ele>4.77</ele>
        <time>2020-05-11T17:14:10Z</time>
      </trkpt>
      <trkpt lat="47.12999" lon="-1.62167">
        <ele>4.65</ele>
        <time>2020-05-11T17:14:12Z</time>
      </trkpt>
      <trkpt lat="47.13005" lon="-1.62177">
        <ele>4.72</ele>
        <time>2020-05-11T17:14:14Z</time>
      </trkpt>
      <trkpt lat="47.13013" lon="-1.62186">
        <ele>3.93</ele>
        <time>2020-05-11T17:14:16Z</time>
      </trkpt>
      <trkpt lat="47.13023" lon="-1.622">
        <ele>3.94</ele>
        <time>2020-05-11T17:14:19Z</time>
      </trkpt>
      <trkpt lat="47.13034" lon="-1.62213">
        <ele>4.15</ele>
        <time>2020-05-11T17:14:22Z</time>
      </trkpt>
      <trkpt lat="47.13043" lon="-1.62227">
        <ele>4.08</ele>
        <time>2020-05-11T17:14:24Z</time>
      </trkpt>
      <trkpt lat="47.13051" lon="-1.62237">
        <ele>4.2</ele>
        <time>2020-05-11T17:14:26Z</time>
      </trkpt>
      <trkpt lat="47.13059" lon="-1.62248">
        <ele>4.34</ele>
        <time>2020-05-11T17:14:28Z</time>
      </trkpt>
      <trkpt lat="47.13066" lon="-1.62257">
        <ele>4.65</ele>
        <time>2020-05-11T17:14:30Z</time>
      </trkpt>
      <trkpt lat="47.13074" lon="-1.62269">
        <ele>4.9</ele>
        <time>2020-05-11T17:14:32Z</time>
      </trkpt>
      <trkpt lat="47.13081" lon="-1.62279">
        <ele>5.67</ele>
        <time>2020-05-11T17:14:34Z</time>
      </trkpt>
      <trkpt lat="47.13087" lon="-1.62292">
        <ele>6.06</ele>
        <time>2020-05-11T17:14:37Z</time>
      </trkpt>
      <trkpt lat="47.13094" lon="-1.62304">
        <ele>6.35</ele>
        <time>2020-05-11T17:14:40Z</time>
      </trkpt>
      <trkpt lat="47.13103" lon="-1.62309">
        <ele>7.23</ele>
        <time>2020-05-11T17:14:43Z</time>
      </trkpt>
      <trkpt lat="47.13112" lon="-1.62301">
        <ele>8.51</ele>
        <time>2020-05-11T17:14:45Z</time>
      </trkpt>
      <trkpt lat="47.1312" lon="-1.62286">
        <ele>9.2</ele>
        <time>2020-05-11T17:14:47Z</time>
      </trkpt>
      <trkpt lat="47.13127" lon="-1.62273">
        <ele>8.98</ele>
        <time>2020-05-11T17:14:49Z</time>
      </trkpt>
      <trkpt lat="47.13133" lon="-1.62263">
        <ele>8.52</ele>
        <time>2020-05-11T17:14:51Z</time>
      </trkpt>
      <trkpt lat="47.13139" lon="-1.6225">
        <ele>7.65</ele>
        <time>2020-05-11T17:14:53Z</time>
      </trkpt>
      <trkpt lat="47.13144" lon="-1.62239">
        <ele>6.66</ele>
        <time>2020-05-11T17:14:55Z</time>
      </trkpt>
      <trkpt lat="47.13151" lon="-1.62225">
        <ele>6.32</ele>
        <time>2020-05-11T17:14:57Z</time>
      </trkpt>
      <trkpt lat="47.13156" lon="-1.62215">
        <ele>5.51</ele>
        <time>2020-05-11T17:14:59Z</time>
      </trkpt>
      <trkpt lat="47.13164" lon="-1.62201">
        <ele>5.93</ele>
        <time>2020-05-11T17:15:02Z</time>
      </trkpt>
      <trkpt lat="47.13169" lon="-1.62188">
        <ele>7.37</ele>
        <time>2020-05-11T17:15:04Z</time>
      </trkpt>
      <trkpt lat="47.13177" lon="-1.62172">
        <ele>7.78</ele>
        <time>2020-05-11T17:15:07Z</time>
      </trkpt>
      <trkpt lat="47.13183" lon="-1.62159">
        <ele>8.8</ele>
        <time>2020-05-11T17:15:09Z</time>
      </trkpt>
      <trkpt lat="47.1319" lon="-1.62144">
        <ele>9.77</ele>
        <time>2020-05-11T17:15:12Z</time>
      </trkpt>
      <trkpt lat="47.13198" lon="-1.62131">
        <ele>9.79</ele>
        <time>2020-05-11T17:15:15Z</time>
      </trkpt>
      <trkpt lat="47.13207" lon="-1.62115">
        <ele>11.37</ele>
        <time>2020-05-11T17:15:18Z</time>
      </trkpt>
      <trkpt lat="47.13213" lon="-1.62103">
        <ele>10.79</ele>
        <time>2020-05-11T17:15:20Z</time>
      </trkpt>
      <trkpt lat="47.13222" lon="-1.62089">
        <ele>9.54</ele>
        <time>2020-05-11T17:15:23Z</time>
      </trkpt>
      <trkpt lat="47.13229" lon="-1.62079">
        <ele>9.18</ele>
        <time>2020-05-11T17:15:25Z</time>
      </trkpt>
      <trkpt lat="47.13238" lon="-1.62064">
        <ele>9.07</ele>
        <time>2020-05-11T17:15:28Z</time>
      </trkpt>
      <trkpt lat="47.13246" lon="-1.62054">
        <ele>9.27</ele>
        <time>2020-05-11T17:15:31Z</time>
      </trkpt>
      <trkpt lat="47.13256" lon="-1.62041">
        <ele>10.07</ele>
        <time>2020-05-11T17:15:34Z</time>
      </trkpt>
      <trkpt lat="47.13263" lon="-1.62032">
        <ele>10</ele>
        <time>2020-05-11T17:15:36Z</time>
      </trkpt>
      <trkpt lat="47.13275" lon="-1.62023">
        <ele>10.55</ele>
        <time>2020-05-11T17:15:39Z</time>
      </trkpt>
      <trkpt lat="47.13286" lon="-1.62015">
        <ele>9.99</ele>
        <time>2020-05-11T17:15:41Z</time>
      </trkpt>
      <trkpt lat="47.13295" lon="-1.62008">
        <ele>9.67</ele>
        <time>2020-05-11T17:15:43Z</time>
      </trkpt>
      <trkpt lat="47.13303" lon="-1.62001">
        <ele>8.96</ele>
        <time>2020-05-11T17:15:45Z</time>
      </trkpt>
      <trkpt lat="47.13313" lon="-1.61992">
        <ele>8.76</ele>
        <time>2020-05-11T17:15:48Z</time>
      </trkpt>
      <trkpt lat="47.13324" lon="-1.61985">
        <ele>7.85</ele>
        <time>2020-05-11T17:15:51Z</time>
      </trkpt>
      <trkpt lat="47.13333" lon="-1.61979">
        <ele>8.08</ele>
        <time>2020-05-11T17:15:54Z</time>
      </trkpt>
      <trkpt lat="47.13344" lon="-1.61969">
        <ele>8.53</ele>
        <time>2020-05-11T17:15:57Z</time>
      </trkpt>
      <trkpt lat="47.13354" lon="-1.61962">
        <ele>9.84</ele>
        <time>2020-05-11T17:15:59Z</time>
      </trkpt>
      <trkpt lat="47.13362" lon="-1.61956">
        <ele>11.41</ele>
        <time>2020-05-11T17:16:01Z</time>
      </trkpt>
      <trkpt lat="47.13371" lon="-1.61951">
        <ele>11.79</ele>
        <time>2020-05-11T17:16:03Z</time>
      </trkpt>
      <trkpt lat="47.13381" lon="-1.61943">
        <ele>12.12</ele>
        <time>2020-05-11T17:16:06Z</time>
      </trkpt>
      <trkpt lat="47.13393" lon="-1.61934">
        <ele>12.4</ele>
        <time>2020-05-11T17:16:09Z</time>
      </trkpt>
      <trkpt lat="47.13404" lon="-1.61927">
        <ele>12.37</ele>
        <time>2020-05-11T17:16:11Z</time>
      </trkpt>
      <trkpt lat="47.13413" lon="-1.61919">
        <ele>12.84</ele>
        <time>2020-05-11T17:16:13Z</time>
      </trkpt>
      <trkpt lat="47.13423" lon="-1.61911">
        <ele>13.68</ele>
        <time>2020-05-11T17:16:16Z</time>
      </trkpt>
      <trkpt lat="47.13432" lon="-1.61901">
        <ele>13.7</ele>
        <time>2020-05-11T17:16:19Z</time>
      </trkpt>
      <trkpt lat="47.13445" lon="-1.61891">
        <ele>13.6</ele>
        <time>2020-05-11T17:16:22Z</time>
      </trkpt>
      <trkpt lat="47.13454" lon="-1.61884">
        <ele>13.35</ele>
        <time>2020-05-11T17:16:24Z</time>
      </trkpt>
      <trkpt lat="47.13463" lon="-1.61877">
        <ele>13.11</ele>
        <time>2020-05-11T17:16:26Z</time>
      </trkpt>
      <trkpt lat="47.13476" lon="-1.61869">
        <ele>12.37</ele>
        <time>2020-05-11T17:16:29Z</time>
      </trkpt>
      <trkpt lat="47.13486" lon="-1.61864">
        <ele>12.24</ele>
        <time>2020-05-11T17:16:31Z</time>
      </trkpt>
      <trkpt lat="47.13496" lon="-1.61858">
        <ele>11.99</ele>
        <time>2020-05-11T17:16:33Z</time>
      </trkpt>
      <trkpt lat="47.13507" lon="-1.61852">
        <ele>11.94</ele>
        <time>2020-05-11T17:16:35Z</time>
      </trkpt>
      <trkpt lat="47.13519" lon="-1.61844">
        <ele>10.95</ele>
        <time>2020-05-11T17:16:38Z</time>
      </trkpt>
      <trkpt lat="47.13532" lon="-1.61839">
        <ele>8.83</ele>
        <time>2020-05-11T17:16:41Z</time>
      </trkpt>
      <trkpt lat="47.13542" lon="-1.61834">
        <ele>8.33</ele>
        <time>2020-05-11T17:16:43Z</time>
      </trkpt>
      <trkpt lat="47.13552" lon="-1.6183">
        <ele>9</ele>
        <time>2020-05-11T17:16:45Z</time>
      </trkpt>
      <trkpt lat="47.13561" lon="-1.61827">
        <ele>8.53</ele>
        <time>2020-05-11T17:16:47Z</time>
      </trkpt>
      <trkpt lat="47.13575" lon="-1.6182">
        <ele>8.71</ele>
        <time>2020-05-11T17:16:50Z</time>
      </trkpt>
      <trkpt lat="47.13587" lon="-1.61816">
        <ele>8.2</ele>
        <time>2020-05-11T17:16:52Z</time>
      </trkpt>
      <trkpt lat="47.13598" lon="-1.61812">
        <ele>7.38</ele>
        <time>2020-05-11T17:16:54Z</time>
      </trkpt>
      <trkpt lat="47.13608" lon="-1.61809">
        <ele>7.25</ele>
        <time>2020-05-11T17:16:56Z</time>
      </trkpt>
      <trkpt lat="47.13618" lon="-1.61806">
        <ele>7.57</ele>
        <time>2020-05-11T17:16:58Z</time>
      </trkpt>
      <trkpt lat="47.1363" lon="-1.618">
        <ele>8.17</ele>
        <time>2020-05-11T17:17:01Z</time>
      </trkpt>
      <trkpt lat="47.1364" lon="-1.61796">
        <ele>9.23</ele>
        <time>2020-05-11T17:17:03Z</time>
      </trkpt>
      <trkpt lat="47.13648" lon="-1.6179">
        <ele>9.76</ele>
        <time>2020-05-11T17:17:05Z</time>
      </trkpt>
      <trkpt lat="47.1366" lon="-1.61783">
        <ele>9.03</ele>
        <time>2020-05-11T17:17:08Z</time>
      </trkpt>
      <trkpt lat="47.13673" lon="-1.61778">
        <ele>9</ele>
        <time>2020-05-11T17:17:11Z</time>
      </trkpt>
      <trkpt lat="47.13685" lon="-1.61773">
        <ele>9.28</ele>
        <time>2020-05-11T17:17:14Z</time>
      </trkpt>
      <trkpt lat="47.13695" lon="-1.61765">
        <ele>11.37</ele>
        <time>2020-05-11T17:17:17Z</time>
      </trkpt>
      <trkpt lat="47.13703" lon="-1.61757">
        <ele>13.08</ele>
        <time>2020-05-11T17:17:19Z</time>
      </trkpt>
      <trkpt lat="47.13714" lon="-1.61749">
        <ele>14.53</ele>
        <time>2020-05-11T17:17:22Z</time>
      </trkpt>
      <trkpt lat="47.13723" lon="-1.61741">
        <ele>14.7</ele>
        <time>2020-05-11T17:17:25Z</time>
      </trkpt>
      <trkpt lat="47.13732" lon="-1.61737">
        <ele>14.42</ele>
        <time>2020-05-11T17:17:27Z</time>
      </trkpt>
      <trkpt lat="47.1374" lon="-1.61745">
        <ele>13.43</ele>
        <time>2020-05-11T17:17:30Z</time>
      </trkpt>
      <trkpt lat="47.13738" lon="-1.61761">
        <ele>13.21</ele>
        <time>2020-05-11T17:17:33Z</time>
      </trkpt>
      <trkpt lat="47.13736" lon="-1.61774">
        <ele>14.1</ele>
        <time>2020-05-11T17:17:35Z</time>
      </trkpt>
      <trkpt lat="47.13732" lon="-1.6179">
        <ele>16.85</ele>
        <time>2020-05-11T17:17:38Z</time>
      </trkpt>
      <trkpt lat="47.13729" lon="-1.61803">
        <ele>17.1</ele>
        <time>2020-05-11T17:17:40Z</time>
      </trkpt>
      <trkpt lat="47.13726" lon="-1.61817">
        <ele>16.02</ele>
        <time>2020-05-11T17:17:42Z</time>
      </trkpt>
      <trkpt lat="47.13724" lon="-1.61831">
        <ele>16.66</ele>
        <time>2020-05-11T17:17:44Z</time>
      </trkpt>
      <trkpt lat="47.13723" lon="-1.61845">
        <ele>18.09</ele>
        <time>2020-05-11T17:17:46Z</time>
      </trkpt>
      <trkpt lat="47.13723" lon="-1.61864">
        <ele>19.05</ele>
        <time>2020-05-11T17:17:49Z</time>
      </trkpt>
      <trkpt lat="47.13722" lon="-1.61879">
        <ele>19.26</ele>
        <time>2020-05-11T17:17:51Z</time>
      </trkpt>
      <trkpt lat="47.13722" lon="-1.61896">
        <ele>19.66</ele>
        <time>2020-05-11T17:17:54Z</time>
      </trkpt>
      <trkpt lat="47.13721" lon="-1.6191">
        <ele>19.13</ele>
        <time>2020-05-11T17:17:56Z</time>
      </trkpt>
      <trkpt lat="47.1372" lon="-1.61927">
        <ele>19.16</ele>
        <time>2020-05-11T17:17:58Z</time>
      </trkpt>
      <trkpt lat="47.13721" lon="-1.61944">
        <ele>19.86</ele>
        <time>2020-05-11T17:18:00Z</time>
      </trkpt>
      <trkpt lat="47.13724" lon="-1.61957">
        <ele>20.44</ele>
        <time>2020-05-11T17:18:02Z</time>
      </trkpt>
      <trkpt lat="47.13727" lon="-1.61972">
        <ele>20.07</ele>
        <time>2020-05-11T17:18:04Z</time>
      </trkpt>
      <trkpt lat="47.13729" lon="-1.61989">
        <ele>19.49</ele>
        <time>2020-05-11T17:18:06Z</time>
      </trkpt>
      <trkpt lat="47.13732" lon="-1.62003">
        <ele>18.63</ele>
        <time>2020-05-11T17:18:08Z</time>
      </trkpt>
      <trkpt lat="47.13733" lon="-1.62016">
        <ele>18.11</ele>
        <time>2020-05-11T17:18:10Z</time>
      </trkpt>
      <trkpt lat="47.13735" lon="-1.6203">
        <ele>18.15</ele>
        <time>2020-05-11T17:18:12Z</time>
      </trkpt>
      <trkpt lat="47.13735" lon="-1.62043">
        <ele>18.22</ele>
        <time>2020-05-11T17:18:14Z</time>
      </trkpt>
      <trkpt lat="47.13735" lon="-1.62058">
        <ele>18.46</ele>
        <time>2020-05-11T17:18:16Z</time>
      </trkpt>
      <trkpt lat="47.13737" lon="-1.62073">
        <ele>19.08</ele>
        <time>2020-05-11T17:18:18Z</time>
      </trkpt>
      <trkpt lat="47.13739" lon="-1.62089">
        <ele>20.84</ele>
        <time>2020-05-11T17:18:21Z</time>
      </trkpt>
      <trkpt lat="47.13741" lon="-1.62104">
        <ele>20.84</ele>
        <time>2020-05-11T17:18:23Z</time>
      </trkpt>
      <trkpt lat="47.13742" lon="-1.62117">
        <ele>20.53</ele>
        <time>2020-05-11T17:18:25Z</time>
      </trkpt>
      <trkpt lat="47.13745" lon="-1.62134">
        <ele>18.83</ele>
        <time>2020-05-11T17:18:27Z</time>
      </trkpt>
      <trkpt lat="47.13746" lon="-1.62149">
        <ele>17.5</ele>
        <time>2020-05-11T17:18:29Z</time>
      </trkpt>
      <trkpt lat="47.13749" lon="-1.62167">
        <ele>17.51</ele>
        <time>2020-05-11T17:18:32Z</time>
      </trkpt>
      <trkpt lat="47.13751" lon="-1.62187">
        <ele>18.92</ele>
        <time>2020-05-11T17:18:35Z</time>
      </trkpt>
      <trkpt lat="47.13754" lon="-1.622">
        <ele>18.04</ele>
        <time>2020-05-11T17:18:37Z</time>
      </trkpt>
      <trkpt lat="47.13756" lon="-1.62219">
        <ele>16.24</ele>
        <time>2020-05-11T17:18:39Z</time>
      </trkpt>
      <trkpt lat="47.13759" lon="-1.62235">
        <ele>16.48</ele>
        <time>2020-05-11T17:18:41Z</time>
      </trkpt>
      <trkpt lat="47.1376" lon="-1.62249">
        <ele>15.69</ele>
        <time>2020-05-11T17:18:43Z</time>
      </trkpt>
      <trkpt lat="47.13761" lon="-1.62266">
        <ele>16.04</ele>
        <time>2020-05-11T17:18:45Z</time>
      </trkpt>
      <trkpt lat="47.13762" lon="-1.62281">
        <ele>16.92</ele>
        <time>2020-05-11T17:18:47Z</time>
      </trkpt>
      <trkpt lat="47.13764" lon="-1.62299">
        <ele>17.39</ele>
        <time>2020-05-11T17:18:50Z</time>
      </trkpt>
      <trkpt lat="47.13764" lon="-1.62313">
        <ele>19.49</ele>
        <time>2020-05-11T17:18:52Z</time>
      </trkpt>
      <trkpt lat="47.13764" lon="-1.62329">
        <ele>21.03</ele>
        <time>2020-05-11T17:18:54Z</time>
      </trkpt>
      <trkpt lat="47.13763" lon="-1.62344">
        <ele>21.19</ele>
        <time>2020-05-11T17:18:56Z</time>
      </trkpt>
      <trkpt lat="47.13764" lon="-1.62358">
        <ele>19.89</ele>
        <time>2020-05-11T17:18:58Z</time>
      </trkpt>
      <trkpt lat="47.13766" lon="-1.62373">
        <ele>18.05</ele>
        <time>2020-05-11T17:19:00Z</time>
      </trkpt>
      <trkpt lat="47.13768" lon="-1.62392">
        <ele>14.84</ele>
        <time>2020-05-11T17:19:02Z</time>
      </trkpt>
      <trkpt lat="47.1377" lon="-1.62412">
        <ele>11.86</ele>
        <time>2020-05-11T17:19:04Z</time>
      </trkpt>
      <trkpt lat="47.13769" lon="-1.62432">
        <ele>9.38</ele>
        <time>2020-05-11T17:19:06Z</time>
      </trkpt>
      <trkpt lat="47.13772" lon="-1.62454">
        <ele>8.51</ele>
        <time>2020-05-11T17:19:08Z</time>
      </trkpt>
      <trkpt lat="47.13774" lon="-1.62476">
        <ele>9.38</ele>
        <time>2020-05-11T17:19:10Z</time>
      </trkpt>
      <trkpt lat="47.13775" lon="-1.62499">
        <ele>9.49</ele>
        <time>2020-05-11T17:19:12Z</time>
      </trkpt>
      <trkpt lat="47.13775" lon="-1.62515">
        <ele>10.11</ele>
        <time>2020-05-11T17:19:14Z</time>
      </trkpt>
      <trkpt lat="47.13777" lon="-1.62529">
        <ele>10.56</ele>
        <time>2020-05-11T17:19:16Z</time>
      </trkpt>
      <trkpt lat="47.13778" lon="-1.62547">
        <ele>10.71</ele>
        <time>2020-05-11T17:19:18Z</time>
      </trkpt>
      <trkpt lat="47.13778" lon="-1.62565">
        <ele>11.57</ele>
        <time>2020-05-11T17:19:20Z</time>
      </trkpt>
      <trkpt lat="47.13779" lon="-1.62579">
        <ele>11.95</ele>
        <time>2020-05-11T17:19:22Z</time>
      </trkpt>
      <trkpt lat="47.13779" lon="-1.62597">
        <ele>12.55</ele>
        <time>2020-05-11T17:19:24Z</time>
      </trkpt>
      <trkpt lat="47.1378" lon="-1.62612">
        <ele>12.49</ele>
        <time>2020-05-11T17:19:26Z</time>
      </trkpt>
      <trkpt lat="47.1378" lon="-1.62628">
        <ele>14.19</ele>
        <time>2020-05-11T17:19:28Z</time>
      </trkpt>
      <trkpt lat="47.13781" lon="-1.62643">
        <ele>14.97</ele>
        <time>2020-05-11T17:19:30Z</time>
      </trkpt>
      <trkpt lat="47.13781" lon="-1.6266">
        <ele>15.65</ele>
        <time>2020-05-11T17:19:32Z</time>
      </trkpt>
      <trkpt lat="47.13782" lon="-1.62676">
        <ele>16.06</ele>
        <time>2020-05-11T17:19:34Z</time>
      </trkpt>
      <trkpt lat="47.13782" lon="-1.6269">
        <ele>17.06</ele>
        <time>2020-05-11T17:19:36Z</time>
      </trkpt>
      <trkpt lat="47.13781" lon="-1.6271">
        <ele>16.95</ele>
        <time>2020-05-11T17:19:39Z</time>
      </trkpt>
      <trkpt lat="47.1378" lon="-1.62728">
        <ele>17.35</ele>
        <time>2020-05-11T17:19:42Z</time>
      </trkpt>
      <trkpt lat="47.13782" lon="-1.62743">
        <ele>17</ele>
        <time>2020-05-11T17:19:44Z</time>
      </trkpt>
      <trkpt lat="47.13783" lon="-1.62762">
        <ele>15.52</ele>
        <time>2020-05-11T17:19:46Z</time>
      </trkpt>
      <trkpt lat="47.13783" lon="-1.62779">
        <ele>13.48</ele>
        <time>2020-05-11T17:19:48Z</time>
      </trkpt>
      <trkpt lat="47.13785" lon="-1.62796">
        <ele>12.3</ele>
        <time>2020-05-11T17:19:51Z</time>
      </trkpt>
      <trkpt lat="47.13789" lon="-1.62814">
        <ele>11.94</ele>
        <time>2020-05-11T17:19:54Z</time>
      </trkpt>
      <trkpt lat="47.13793" lon="-1.62828">
        <ele>11.6</ele>
        <time>2020-05-11T17:19:56Z</time>
      </trkpt>
      <trkpt lat="47.138" lon="-1.62846">
        <ele>14.28</ele>
        <time>2020-05-11T17:19:59Z</time>
      </trkpt>
      <trkpt lat="47.13808" lon="-1.62862">
        <ele>15.46</ele>
        <time>2020-05-11T17:20:02Z</time>
      </trkpt>
      <trkpt lat="47.13815" lon="-1.62879">
        <ele>15.92</ele>
        <time>2020-05-11T17:20:05Z</time>
      </trkpt>
      <trkpt lat="47.13822" lon="-1.62894">
        <ele>17.35</ele>
        <time>2020-05-11T17:20:08Z</time>
      </trkpt>
      <trkpt lat="47.13831" lon="-1.62899">
        <ele>16.98</ele>
        <time>2020-05-11T17:20:10Z</time>
      </trkpt>
      <trkpt lat="47.13841" lon="-1.62888">
        <ele>17.1</ele>
        <time>2020-05-11T17:20:13Z</time>
      </trkpt>
      <trkpt lat="47.13849" lon="-1.62879">
        <ele>16.58</ele>
        <time>2020-05-11T17:20:15Z</time>
      </trkpt>
      <trkpt lat="47.13856" lon="-1.62871">
        <ele>15.51</ele>
        <time>2020-05-11T17:20:17Z</time>
      </trkpt>
      <trkpt lat="47.13863" lon="-1.62862">
        <ele>15</ele>
        <time>2020-05-11T17:20:19Z</time>
      </trkpt>
      <trkpt lat="47.13871" lon="-1.62853">
        <ele>15.1</ele>
        <time>2020-05-11T17:20:21Z</time>
      </trkpt>
      <trkpt lat="47.13879" lon="-1.62842">
        <ele>15.22</ele>
        <time>2020-05-11T17:20:23Z</time>
      </trkpt>
      <trkpt lat="47.13887" lon="-1.62834">
        <ele>15.49</ele>
        <time>2020-05-11T17:20:25Z</time>
      </trkpt>
      <trkpt lat="47.13894" lon="-1.62826">
        <ele>14.59</ele>
        <time>2020-05-11T17:20:27Z</time>
      </trkpt>
      <trkpt lat="47.13902" lon="-1.62817">
        <ele>14.09</ele>
        <time>2020-05-11T17:20:29Z</time>
      </trkpt>
      <trkpt lat="47.13913" lon="-1.62807">
        <ele>13.17</ele>
        <time>2020-05-11T17:20:32Z</time>
      </trkpt>
      <trkpt lat="47.13921" lon="-1.62799">
        <ele>13.05</ele>
        <time>2020-05-11T17:20:34Z</time>
      </trkpt>
      <trkpt lat="47.1393" lon="-1.62793">
        <ele>12.78</ele>
        <time>2020-05-11T17:20:36Z</time>
      </trkpt>
      <trkpt lat="47.13939" lon="-1.62786">
        <ele>13.21</ele>
        <time>2020-05-11T17:20:38Z</time>
      </trkpt>
      <trkpt lat="47.13947" lon="-1.62779">
        <ele>13.42</ele>
        <time>2020-05-11T17:20:40Z</time>
      </trkpt>
      <trkpt lat="47.13955" lon="-1.62772">
        <ele>13.77</ele>
        <time>2020-05-11T17:20:42Z</time>
      </trkpt>
      <trkpt lat="47.13964" lon="-1.62765">
        <ele>14.12</ele>
        <time>2020-05-11T17:20:44Z</time>
      </trkpt>
      <trkpt lat="47.13974" lon="-1.6276">
        <ele>12.99</ele>
        <time>2020-05-11T17:20:46Z</time>
      </trkpt>
      <trkpt lat="47.13983" lon="-1.62755">
        <ele>12.66</ele>
        <time>2020-05-11T17:20:48Z</time>
      </trkpt>
      <trkpt lat="47.13992" lon="-1.6275">
        <ele>13.17</ele>
        <time>2020-05-11T17:20:50Z</time>
      </trkpt>
      <trkpt lat="47.14004" lon="-1.62742">
        <ele>13.22</ele>
        <time>2020-05-11T17:20:53Z</time>
      </trkpt>
      <trkpt lat="47.14016" lon="-1.62734">
        <ele>13.47</ele>
        <time>2020-05-11T17:20:56Z</time>
      </trkpt>
      <trkpt lat="47.14029" lon="-1.62731">
        <ele>13.86</ele>
        <time>2020-05-11T17:20:59Z</time>
      </trkpt>
      <trkpt lat="47.14039" lon="-1.62732">
        <ele>13.75</ele>
        <time>2020-05-11T17:21:01Z</time>
      </trkpt>
      <trkpt lat="47.14049" lon="-1.62734">
        <ele>14.04</ele>
        <time>2020-05-11T17:21:03Z</time>
      </trkpt>
      <trkpt lat="47.14062" lon="-1.62737">
        <ele>16.61</ele>
        <time>2020-05-11T17:21:06Z</time>
      </trkpt>
      <trkpt lat="47.14072" lon="-1.62736">
        <ele>16.08</ele>
        <time>2020-05-11T17:21:08Z</time>
      </trkpt>
      <trkpt lat="47.14082" lon="-1.62738">
        <ele>15.87</ele>
        <time>2020-05-11T17:21:10Z</time>
      </trkpt>
      <trkpt lat="47.14091" lon="-1.62739">
        <ele>16.14</ele>
        <time>2020-05-11T17:21:12Z</time>
      </trkpt>
      <trkpt lat="47.14104" lon="-1.62739">
        <ele>16.6</ele>
        <time>2020-05-11T17:21:15Z</time>
      </trkpt>
      <trkpt lat="47.14118" lon="-1.62743">
        <ele>17.73</ele>
        <time>2020-05-11T17:21:18Z</time>
      </trkpt>
      <trkpt lat="47.14129" lon="-1.62743">
        <ele>18.89</ele>
        <time>2020-05-11T17:21:20Z</time>
      </trkpt>
      <trkpt lat="47.1414" lon="-1.62741">
        <ele>20.27</ele>
        <time>2020-05-11T17:21:22Z</time>
      </trkpt>
      <trkpt lat="47.14151" lon="-1.62737">
        <ele>20.62</ele>
        <time>2020-05-11T17:21:25Z</time>
      </trkpt>
      <trkpt lat="47.14162" lon="-1.62733">
        <ele>21.44</ele>
        <time>2020-05-11T17:21:27Z</time>
      </trkpt>
      <trkpt lat="47.14174" lon="-1.62727">
        <ele>20.24</ele>
        <time>2020-05-11T17:21:29Z</time>
      </trkpt>
      <trkpt lat="47.14186" lon="-1.62722">
        <ele>19.01</ele>
        <time>2020-05-11T17:21:31Z</time>
      </trkpt>
      <trkpt lat="47.14197" lon="-1.62716">
        <ele>17.4</ele>
        <time>2020-05-11T17:21:33Z</time>
      </trkpt>
      <trkpt lat="47.14206" lon="-1.62712">
        <ele>16.81</ele>
        <time>2020-05-11T17:21:35Z</time>
      </trkpt>
      <trkpt lat="47.14214" lon="-1.62698">
        <ele>17.53</ele>
        <time>2020-05-11T17:21:38Z</time>
      </trkpt>
      <trkpt lat="47.14217" lon="-1.62677">
        <ele>17.6</ele>
        <time>2020-05-11T17:21:40Z</time>
      </trkpt>
      <trkpt lat="47.14218" lon="-1.62655">
        <ele>16.4</ele>
        <time>2020-05-11T17:21:42Z</time>
      </trkpt>
      <trkpt lat="47.14218" lon="-1.62637">
        <ele>14.51</ele>
        <time>2020-05-11T17:21:44Z</time>
      </trkpt>
      <trkpt lat="47.14219" lon="-1.62619">
        <ele>13.6</ele>
        <time>2020-05-11T17:21:46Z</time>
      </trkpt>
      <trkpt lat="47.14217" lon="-1.62602">
        <ele>13.28</ele>
        <time>2020-05-11T17:21:48Z</time>
      </trkpt>
      <trkpt lat="47.14218" lon="-1.62585">
        <ele>14.03</ele>
        <time>2020-05-11T17:21:50Z</time>
      </trkpt>
      <trkpt lat="47.14219" lon="-1.6257">
        <ele>14.58</ele>
        <time>2020-05-11T17:21:52Z</time>
      </trkpt>
      <trkpt lat="47.1422" lon="-1.62554">
        <ele>14.61</ele>
        <time>2020-05-11T17:21:54Z</time>
      </trkpt>
      <trkpt lat="47.14222" lon="-1.62535">
        <ele>12.91</ele>
        <time>2020-05-11T17:21:57Z</time>
      </trkpt>
      <trkpt lat="47.14225" lon="-1.62518">
        <ele>11.29</ele>
        <time>2020-05-11T17:21:59Z</time>
      </trkpt>
      <trkpt lat="47.14231" lon="-1.625">
        <ele>9.06</ele>
        <time>2020-05-11T17:22:02Z</time>
      </trkpt>
      <trkpt lat="47.14233" lon="-1.62487">
        <ele>8.02</ele>
        <time>2020-05-11T17:22:04Z</time>
      </trkpt>
      <trkpt lat="47.14238" lon="-1.62474">
        <ele>7.57</ele>
        <time>2020-05-11T17:22:06Z</time>
      </trkpt>
      <trkpt lat="47.14241" lon="-1.6246">
        <ele>6.37</ele>
        <time>2020-05-11T17:22:08Z</time>
      </trkpt>
      <trkpt lat="47.14245" lon="-1.62447">
        <ele>5.78</ele>
        <time>2020-05-11T17:22:10Z</time>
      </trkpt>
      <trkpt lat="47.14248" lon="-1.62433">
        <ele>7.13</ele>
        <time>2020-05-11T17:22:12Z</time>
      </trkpt>
      <trkpt lat="47.14251" lon="-1.62415">
        <ele>8.94</ele>
        <time>2020-05-11T17:22:15Z</time>
      </trkpt>
      <trkpt lat="47.14253" lon="-1.624">
        <ele>9.12</ele>
        <time>2020-05-11T17:22:17Z</time>
      </trkpt>
      <trkpt lat="47.14256" lon="-1.62386">
        <ele>7.97</ele>
        <time>2020-05-11T17:22:19Z</time>
      </trkpt>
      <trkpt lat="47.14259" lon="-1.62369">
        <ele>7.3</ele>
        <time>2020-05-11T17:22:22Z</time>
      </trkpt>
      <trkpt lat="47.1426" lon="-1.62355">
        <ele>6.32</ele>
        <time>2020-05-11T17:22:24Z</time>
      </trkpt>
      <trkpt lat="47.14262" lon="-1.62337">
        <ele>6.18</ele>
        <time>2020-05-11T17:22:27Z</time>
      </trkpt>
      <trkpt lat="47.14263" lon="-1.62324">
        <ele>6.07</ele>
        <time>2020-05-11T17:22:29Z</time>
      </trkpt>
      <trkpt lat="47.14264" lon="-1.6231">
        <ele>6.57</ele>
        <time>2020-05-11T17:22:31Z</time>
      </trkpt>
      <trkpt lat="47.14266" lon="-1.62292">
        <ele>6.95</ele>
        <time>2020-05-11T17:22:34Z</time>
      </trkpt>
      <trkpt lat="47.14266" lon="-1.62278">
        <ele>7.71</ele>
        <time>2020-05-11T17:22:36Z</time>
      </trkpt>
      <trkpt lat="47.1427" lon="-1.62261">
        <ele>8.42</ele>
        <time>2020-05-11T17:22:39Z</time>
      </trkpt>
      <trkpt lat="47.14273" lon="-1.62246">
        <ele>8.35</ele>
        <time>2020-05-11T17:22:42Z</time>
      </trkpt>
      <trkpt lat="47.14275" lon="-1.62228">
        <ele>8.32</ele>
        <time>2020-05-11T17:22:46Z</time>
      </trkpt>
      <trkpt lat="47.14278" lon="-1.62213">
        <ele>8.44</ele>
        <time>2020-05-11T17:22:49Z</time>
      </trkpt>
      <trkpt lat="47.14288" lon="-1.62206">
        <ele>10.74</ele>
        <time>2020-05-11T17:22:53Z</time>
      </trkpt>
      <trkpt lat="47.14297" lon="-1.62198">
        <ele>14.6</ele>
        <time>2020-05-11T17:22:56Z</time>
      </trkpt>
      <trkpt lat="47.14308" lon="-1.6219">
        <ele>16.2</ele>
        <time>2020-05-11T17:22:59Z</time>
      </trkpt>
      <trkpt lat="47.14319" lon="-1.6218">
        <ele>17.3</ele>
        <time>2020-05-11T17:23:02Z</time>
      </trkpt>
      <trkpt lat="47.1433" lon="-1.62171">
        <ele>17.75</ele>
        <time>2020-05-11T17:23:05Z</time>
      </trkpt>
      <trkpt lat="47.1434" lon="-1.62164">
        <ele>19.28</ele>
        <time>2020-05-11T17:23:08Z</time>
      </trkpt>
      <trkpt lat="47.14348" lon="-1.62157">
        <ele>18.87</ele>
        <time>2020-05-11T17:23:10Z</time>
      </trkpt>
      <trkpt lat="47.14359" lon="-1.62148">
        <ele>17.28</ele>
        <time>2020-05-11T17:23:13Z</time>
      </trkpt>
      <trkpt lat="47.14369" lon="-1.62139">
        <ele>16.82</ele>
        <time>2020-05-11T17:23:16Z</time>
      </trkpt>
      <trkpt lat="47.1438" lon="-1.62131">
        <ele>17.19</ele>
        <time>2020-05-11T17:23:19Z</time>
      </trkpt>
      <trkpt lat="47.1439" lon="-1.62123">
        <ele>17.47</ele>
        <time>2020-05-11T17:23:22Z</time>
      </trkpt>
      <trkpt lat="47.14399" lon="-1.62113">
        <ele>16.73</ele>
        <time>2020-05-11T17:23:25Z</time>
      </trkpt>
      <trkpt lat="47.1441" lon="-1.62105">
        <ele>17.07</ele>
        <time>2020-05-11T17:23:28Z</time>
      </trkpt>
      <trkpt lat="47.14421" lon="-1.62097">
        <ele>17.14</ele>
        <time>2020-05-11T17:23:31Z</time>
      </trkpt>
      <trkpt lat="47.14433" lon="-1.62089">
        <ele>16.74</ele>
        <time>2020-05-11T17:23:34Z</time>
      </trkpt>
      <trkpt lat="47.14444" lon="-1.6208">
        <ele>16.34</ele>
        <time>2020-05-11T17:23:37Z</time>
      </trkpt>
      <trkpt lat="47.14455" lon="-1.62071">
        <ele>17.45</ele>
        <time>2020-05-11T17:23:40Z</time>
      </trkpt>
      <trkpt lat="47.14466" lon="-1.62061">
        <ele>18.06</ele>
        <time>2020-05-11T17:23:43Z</time>
      </trkpt>
      <trkpt lat="47.14474" lon="-1.62055">
        <ele>17.93</ele>
        <time>2020-05-11T17:23:45Z</time>
      </trkpt>
      <trkpt lat="47.14483" lon="-1.62049">
        <ele>17.75</ele>
        <time>2020-05-11T17:23:47Z</time>
      </trkpt>
      <trkpt lat="47.14492" lon="-1.62042">
        <ele>17.84</ele>
        <time>2020-05-11T17:23:49Z</time>
      </trkpt>
      <trkpt lat="47.145" lon="-1.62036">
        <ele>18.04</ele>
        <time>2020-05-11T17:23:51Z</time>
      </trkpt>
      <trkpt lat="47.14512" lon="-1.62031">
        <ele>17.84</ele>
        <time>2020-05-11T17:23:54Z</time>
      </trkpt>
      <trkpt lat="47.14524" lon="-1.62032">
        <ele>18.99</ele>
        <time>2020-05-11T17:23:57Z</time>
      </trkpt>
      <trkpt lat="47.14536" lon="-1.62039">
        <ele>20.47</ele>
        <time>2020-05-11T17:24:00Z</time>
      </trkpt>
      <trkpt lat="47.14544" lon="-1.62045">
        <ele>20.6</ele>
        <time>2020-05-11T17:24:02Z</time>
      </trkpt>
      <trkpt lat="47.14556" lon="-1.6205">
        <ele>21.04</ele>
        <time>2020-05-11T17:24:05Z</time>
      </trkpt>
      <trkpt lat="47.14569" lon="-1.62052">
        <ele>19.17</ele>
        <time>2020-05-11T17:24:08Z</time>
      </trkpt>
      <trkpt lat="47.14578" lon="-1.62049">
        <ele>18.17</ele>
        <time>2020-05-11T17:24:10Z</time>
      </trkpt>
      <trkpt lat="47.14588" lon="-1.62046">
        <ele>18</ele>
        <time>2020-05-11T17:24:13Z</time>
      </trkpt>
      <trkpt lat="47.146" lon="-1.62044">
        <ele>18</ele>
        <time>2020-05-11T17:24:16Z</time>
      </trkpt>
      <trkpt lat="47.14611" lon="-1.62044">
        <ele>18.1</ele>
        <time>2020-05-11T17:24:19Z</time>
      </trkpt>
      <trkpt lat="47.14621" lon="-1.62044">
        <ele>17.85</ele>
        <time>2020-05-11T17:24:21Z</time>
      </trkpt>
      <trkpt lat="47.14634" lon="-1.62042">
        <ele>17.01</ele>
        <time>2020-05-11T17:24:24Z</time>
      </trkpt>
      <trkpt lat="47.14645" lon="-1.6204">
        <ele>17.88</ele>
        <time>2020-05-11T17:24:27Z</time>
      </trkpt>
      <trkpt lat="47.14657" lon="-1.62041">
        <ele>19.96</ele>
        <time>2020-05-11T17:24:30Z</time>
      </trkpt>
      <trkpt lat="47.14668" lon="-1.6204">
        <ele>18.89</ele>
        <time>2020-05-11T17:24:32Z</time>
      </trkpt>
      <trkpt lat="47.1468" lon="-1.6204">
        <ele>16.98</ele>
        <time>2020-05-11T17:24:35Z</time>
      </trkpt>
      <trkpt lat="47.14693" lon="-1.62039">
        <ele>16.42</ele>
        <time>2020-05-11T17:24:38Z</time>
      </trkpt>
      <trkpt lat="47.14706" lon="-1.62037">
        <ele>15.77</ele>
        <time>2020-05-11T17:24:41Z</time>
      </trkpt>
      <trkpt lat="47.14716" lon="-1.62034">
        <ele>15.07</ele>
        <time>2020-05-11T17:24:43Z</time>
      </trkpt>
      <trkpt lat="47.14729" lon="-1.62031">
        <ele>15.36</ele>
        <time>2020-05-11T17:24:46Z</time>
      </trkpt>
      <trkpt lat="47.14738" lon="-1.62028">
        <ele>15.98</ele>
        <time>2020-05-11T17:24:48Z</time>
      </trkpt>
      <trkpt lat="47.1475" lon="-1.62023">
        <ele>16.21</ele>
        <time>2020-05-11T17:24:51Z</time>
      </trkpt>
      <trkpt lat="47.14763" lon="-1.6202">
        <ele>16.45</ele>
        <time>2020-05-11T17:24:54Z</time>
      </trkpt>
      <trkpt lat="47.14774" lon="-1.62019">
        <ele>16.44</ele>
        <time>2020-05-11T17:24:56Z</time>
      </trkpt>
      <trkpt lat="47.14786" lon="-1.62019">
        <ele>17.5</ele>
        <time>2020-05-11T17:24:59Z</time>
      </trkpt>
      <trkpt lat="47.14796" lon="-1.62019">
        <ele>17.64</ele>
        <time>2020-05-11T17:25:01Z</time>
      </trkpt>
      <trkpt lat="47.14809" lon="-1.62019">
        <ele>17.08</ele>
        <time>2020-05-11T17:25:04Z</time>
      </trkpt>
      <trkpt lat="47.14819" lon="-1.62019">
        <ele>17.04</ele>
        <time>2020-05-11T17:25:06Z</time>
      </trkpt>
      <trkpt lat="47.14828" lon="-1.62019">
        <ele>16.27</ele>
        <time>2020-05-11T17:25:08Z</time>
      </trkpt>
      <trkpt lat="47.14838" lon="-1.62019">
        <ele>16.03</ele>
        <time>2020-05-11T17:25:10Z</time>
      </trkpt>
      <trkpt lat="47.1485" lon="-1.62022">
        <ele>15.28</ele>
        <time>2020-05-11T17:25:13Z</time>
      </trkpt>
      <trkpt lat="47.14863" lon="-1.62025">
        <ele>16.62</ele>
        <time>2020-05-11T17:25:16Z</time>
      </trkpt>
      <trkpt lat="47.14874" lon="-1.62026">
        <ele>16.79</ele>
        <time>2020-05-11T17:25:19Z</time>
      </trkpt>
      <trkpt lat="47.14884" lon="-1.62028">
        <ele>17.13</ele>
        <time>2020-05-11T17:25:21Z</time>
      </trkpt>
      <trkpt lat="47.14894" lon="-1.62031">
        <ele>17.63</ele>
        <time>2020-05-11T17:25:23Z</time>
      </trkpt>
      <trkpt lat="47.14904" lon="-1.62033">
        <ele>16.98</ele>
        <time>2020-05-11T17:25:25Z</time>
      </trkpt>
      <trkpt lat="47.14914" lon="-1.62036">
        <ele>15.88</ele>
        <time>2020-05-11T17:25:27Z</time>
      </trkpt>
      <trkpt lat="47.14923" lon="-1.6204">
        <ele>15.85</ele>
        <time>2020-05-11T17:25:29Z</time>
      </trkpt>
      <trkpt lat="47.14936" lon="-1.62043">
        <ele>16.69</ele>
        <time>2020-05-11T17:25:32Z</time>
      </trkpt>
      <trkpt lat="47.14945" lon="-1.62046">
        <ele>17.1</ele>
        <time>2020-05-11T17:25:34Z</time>
      </trkpt>
      <trkpt lat="47.14955" lon="-1.6205">
        <ele>17.56</ele>
        <time>2020-05-11T17:25:36Z</time>
      </trkpt>
      <trkpt lat="47.14968" lon="-1.62054">
        <ele>17.35</ele>
        <time>2020-05-11T17:25:39Z</time>
      </trkpt>
      <trkpt lat="47.14979" lon="-1.62056">
        <ele>17.24</ele>
        <time>2020-05-11T17:25:41Z</time>
      </trkpt>
      <trkpt lat="47.14989" lon="-1.62058">
        <ele>15.4</ele>
        <time>2020-05-11T17:25:43Z</time>
      </trkpt>
      <trkpt lat="47.14998" lon="-1.62061">
        <ele>14.14</ele>
        <time>2020-05-11T17:25:45Z</time>
      </trkpt>
      <trkpt lat="47.15007" lon="-1.62064">
        <ele>13.15</ele>
        <time>2020-05-11T17:25:47Z</time>
      </trkpt>
      <trkpt lat="47.15019" lon="-1.62072">
        <ele>13.88</ele>
        <time>2020-05-11T17:25:50Z</time>
      </trkpt>
      <trkpt lat="47.15025" lon="-1.62087">
        <ele>14.04</ele>
        <time>2020-05-11T17:25:53Z</time>
      </trkpt>
      <trkpt lat="47.15021" lon="-1.62104">
        <ele>13.95</ele>
        <time>2020-05-11T17:25:56Z</time>
      </trkpt>
      <trkpt lat="47.15019" lon="-1.62118">
        <ele>15.26</ele>
        <time>2020-05-11T17:25:58Z</time>
      </trkpt>
      <trkpt lat="47.15016" lon="-1.62132">
        <ele>18.01</ele>
        <time>2020-05-11T17:26:00Z</time>
      </trkpt>
      <trkpt lat="47.15013" lon="-1.6215">
        <ele>20.39</ele>
        <time>2020-05-11T17:26:02Z</time>
      </trkpt>
      <trkpt lat="47.1501" lon="-1.62168">
        <ele>20.59</ele>
        <time>2020-05-11T17:26:04Z</time>
      </trkpt>
      <trkpt lat="47.15007" lon="-1.62182">
        <ele>20.37</ele>
        <time>2020-05-11T17:26:06Z</time>
      </trkpt>
      <trkpt lat="47.15005" lon="-1.62201">
        <ele>19.25</ele>
        <time>2020-05-11T17:26:09Z</time>
      </trkpt>
      <trkpt lat="47.15002" lon="-1.62216">
        <ele>18.27</ele>
        <time>2020-05-11T17:26:11Z</time>
      </trkpt>
      <trkpt lat="47.15001" lon="-1.62231">
        <ele>18.86</ele>
        <time>2020-05-11T17:26:13Z</time>
      </trkpt>
      <trkpt lat="47.15" lon="-1.62245">
        <ele>20.23</ele>
        <time>2020-05-11T17:26:15Z</time>
      </trkpt>
      <trkpt lat="47.15001" lon="-1.62264">
        <ele>21.35</ele>
        <time>2020-05-11T17:26:18Z</time>
      </trkpt>
      <trkpt lat="47.15001" lon="-1.6228">
        <ele>21.25</ele>
        <time>2020-05-11T17:26:20Z</time>
      </trkpt>
      <trkpt lat="47.15001" lon="-1.62295">
        <ele>20.55</ele>
        <time>2020-05-11T17:26:22Z</time>
      </trkpt>
      <trkpt lat="47.14999" lon="-1.62311">
        <ele>20.69</ele>
        <time>2020-05-11T17:26:24Z</time>
      </trkpt>
      <trkpt lat="47.14997" lon="-1.62329">
        <ele>20.86</ele>
        <time>2020-05-11T17:26:26Z</time>
      </trkpt>
      <trkpt lat="47.14993" lon="-1.62346">
        <ele>21.38</ele>
        <time>2020-05-11T17:26:28Z</time>
      </trkpt>
      <trkpt lat="47.14988" lon="-1.62363">
        <ele>22.13</ele>
        <time>2020-05-11T17:26:30Z</time>
      </trkpt>
      <trkpt lat="47.14982" lon="-1.62382">
        <ele>23.45</ele>
        <time>2020-05-11T17:26:32Z</time>
      </trkpt>
      <trkpt lat="47.14979" lon="-1.624">
        <ele>25.09</ele>
        <time>2020-05-11T17:26:34Z</time>
      </trkpt>
      <trkpt lat="47.14975" lon="-1.62415">
        <ele>25.98</ele>
        <time>2020-05-11T17:26:36Z</time>
      </trkpt>
      <trkpt lat="47.14972" lon="-1.62428">
        <ele>25.48</ele>
        <time>2020-05-11T17:26:38Z</time>
      </trkpt>
      <trkpt lat="47.1497" lon="-1.62443">
        <ele>24.53</ele>
        <time>2020-05-11T17:26:40Z</time>
      </trkpt>
      <trkpt lat="47.14969" lon="-1.62461">
        <ele>23.47</ele>
        <time>2020-05-11T17:26:42Z</time>
      </trkpt>
      <trkpt lat="47.14969" lon="-1.62477">
        <ele>23.65</ele>
        <time>2020-05-11T17:26:44Z</time>
      </trkpt>
      <trkpt lat="47.14967" lon="-1.62491">
        <ele>24.25</ele>
        <time>2020-05-11T17:26:46Z</time>
      </trkpt>
      <trkpt lat="47.14964" lon="-1.62509">
        <ele>24.2</ele>
        <time>2020-05-11T17:26:48Z</time>
      </trkpt>
      <trkpt lat="47.14961" lon="-1.62527">
        <ele>23.29</ele>
        <time>2020-05-11T17:26:50Z</time>
      </trkpt>
      <trkpt lat="47.14957" lon="-1.62546">
        <ele>22.98</ele>
        <time>2020-05-11T17:26:52Z</time>
      </trkpt>
      <trkpt lat="47.14954" lon="-1.62562">
        <ele>22.37</ele>
        <time>2020-05-11T17:26:54Z</time>
      </trkpt>
      <trkpt lat="47.14951" lon="-1.6258">
        <ele>22.57</ele>
        <time>2020-05-11T17:26:56Z</time>
      </trkpt>
      <trkpt lat="47.14948" lon="-1.62597">
        <ele>21.94</ele>
        <time>2020-05-11T17:26:58Z</time>
      </trkpt>
      <trkpt lat="47.14946" lon="-1.62612">
        <ele>21.14</ele>
        <time>2020-05-11T17:27:00Z</time>
      </trkpt>
      <trkpt lat="47.14944" lon="-1.62626">
        <ele>20.31</ele>
        <time>2020-05-11T17:27:02Z</time>
      </trkpt>
      <trkpt lat="47.14941" lon="-1.62642">
        <ele>19.93</ele>
        <time>2020-05-11T17:27:04Z</time>
      </trkpt>
      <trkpt lat="47.14939" lon="-1.62662">
        <ele>20.96</ele>
        <time>2020-05-11T17:27:07Z</time>
      </trkpt>
      <trkpt lat="47.14937" lon="-1.62676">
        <ele>22.06</ele>
        <time>2020-05-11T17:27:09Z</time>
      </trkpt>
      <trkpt lat="47.14935" lon="-1.62689">
        <ele>22.27</ele>
        <time>2020-05-11T17:27:11Z</time>
      </trkpt>
      <trkpt lat="47.14933" lon="-1.62705">
        <ele>23.18</ele>
        <time>2020-05-11T17:27:13Z</time>
      </trkpt>
      <trkpt lat="47.14931" lon="-1.62721">
        <ele>22.88</ele>
        <time>2020-05-11T17:27:15Z</time>
      </trkpt>
      <trkpt lat="47.14929" lon="-1.62736">
        <ele>23.41</ele>
        <time>2020-05-11T17:27:17Z</time>
      </trkpt>
      <trkpt lat="47.14927" lon="-1.62751">
        <ele>25.13</ele>
        <time>2020-05-11T17:27:20Z</time>
      </trkpt>
      <trkpt lat="47.14925" lon="-1.62771">
        <ele>24.89</ele>
        <time>2020-05-11T17:27:23Z</time>
      </trkpt>
      <trkpt lat="47.14923" lon="-1.62785">
        <ele>24.2</ele>
        <time>2020-05-11T17:27:25Z</time>
      </trkpt>
      <trkpt lat="47.14921" lon="-1.628">
        <ele>24.78</ele>
        <time>2020-05-11T17:27:27Z</time>
      </trkpt>
      <trkpt lat="47.14918" lon="-1.62817">
        <ele>24.47</ele>
        <time>2020-05-11T17:27:29Z</time>
      </trkpt>
      <trkpt lat="47.14917" lon="-1.62835">
        <ele>23.43</ele>
        <time>2020-05-11T17:27:32Z</time>
      </trkpt>
      <trkpt lat="47.14915" lon="-1.62854">
        <ele>22.4</ele>
        <time>2020-05-11T17:27:35Z</time>
      </trkpt>
      <trkpt lat="47.14913" lon="-1.62873">
        <ele>21.75</ele>
        <time>2020-05-11T17:27:37Z</time>
      </trkpt>
      <trkpt lat="47.1491" lon="-1.62888">
        <ele>22.24</ele>
        <time>2020-05-11T17:27:39Z</time>
      </trkpt>
      <trkpt lat="47.14907" lon="-1.62906">
        <ele>22.41</ele>
        <time>2020-05-11T17:27:42Z</time>
      </trkpt>
      <trkpt lat="47.14904" lon="-1.62921">
        <ele>24.02</ele>
        <time>2020-05-11T17:27:44Z</time>
      </trkpt>
      <trkpt lat="47.14901" lon="-1.62934">
        <ele>24.94</ele>
        <time>2020-05-11T17:27:46Z</time>
      </trkpt>
      <trkpt lat="47.14899" lon="-1.62947">
        <ele>25.17</ele>
        <time>2020-05-11T17:27:48Z</time>
      </trkpt>
      <trkpt lat="47.14897" lon="-1.6296">
        <ele>24.73</ele>
        <time>2020-05-11T17:27:50Z</time>
      </trkpt>
      <trkpt lat="47.14895" lon="-1.62973">
        <ele>24.75</ele>
        <time>2020-05-11T17:27:52Z</time>
      </trkpt>
      <trkpt lat="47.14893" lon="-1.62987">
        <ele>24.11</ele>
        <time>2020-05-11T17:27:54Z</time>
      </trkpt>
      <trkpt lat="47.14892" lon="-1.63001">
        <ele>24.3</ele>
        <time>2020-05-11T17:27:56Z</time>
      </trkpt>
      <trkpt lat="47.1489" lon="-1.63016">
        <ele>25.19</ele>
        <time>2020-05-11T17:27:58Z</time>
      </trkpt>
      <trkpt lat="47.14888" lon="-1.63033">
        <ele>24.87</ele>
        <time>2020-05-11T17:28:00Z</time>
      </trkpt>
      <trkpt lat="47.14885" lon="-1.63047">
        <ele>25.53</ele>
        <time>2020-05-11T17:28:02Z</time>
      </trkpt>
      <trkpt lat="47.14883" lon="-1.6306">
        <ele>25.11</ele>
        <time>2020-05-11T17:28:04Z</time>
      </trkpt>
      <trkpt lat="47.1488" lon="-1.63078">
        <ele>24.94</ele>
        <time>2020-05-11T17:28:06Z</time>
      </trkpt>
      <trkpt lat="47.14877" lon="-1.63099">
        <ele>27.01</ele>
        <time>2020-05-11T17:28:09Z</time>
      </trkpt>
      <trkpt lat="47.14876" lon="-1.63116">
        <ele>29.17</ele>
        <time>2020-05-11T17:28:12Z</time>
      </trkpt>
      <trkpt lat="47.14874" lon="-1.63131">
        <ele>29.35</ele>
        <time>2020-05-11T17:28:14Z</time>
      </trkpt>
      <trkpt lat="47.14873" lon="-1.63145">
        <ele>31.39</ele>
        <time>2020-05-11T17:28:16Z</time>
      </trkpt>
      <trkpt lat="47.14872" lon="-1.63161">
        <ele>31.82</ele>
        <time>2020-05-11T17:28:18Z</time>
      </trkpt>
      <trkpt lat="47.14871" lon="-1.63176">
        <ele>30.48</ele>
        <time>2020-05-11T17:28:20Z</time>
      </trkpt>
      <trkpt lat="47.1487" lon="-1.63191">
        <ele>27.12</ele>
        <time>2020-05-11T17:28:22Z</time>
      </trkpt>
      <trkpt lat="47.1487" lon="-1.63204">
        <ele>24.04</ele>
        <time>2020-05-11T17:28:24Z</time>
      </trkpt>
      <trkpt lat="47.1487" lon="-1.63218">
        <ele>21.55</ele>
        <time>2020-05-11T17:28:26Z</time>
      </trkpt>
      <trkpt lat="47.1487" lon="-1.63237">
        <ele>19.66</ele>
        <time>2020-05-11T17:28:28Z</time>
      </trkpt>
      <trkpt lat="47.1487" lon="-1.63252">
        <ele>19.57</ele>
        <time>2020-05-11T17:28:30Z</time>
      </trkpt>
      <trkpt lat="47.1487" lon="-1.63267">
        <ele>18.8</ele>
        <time>2020-05-11T17:28:32Z</time>
      </trkpt>
      <trkpt lat="47.1487" lon="-1.63284">
        <ele>18.69</ele>
        <time>2020-05-11T17:28:34Z</time>
      </trkpt>
      <trkpt lat="47.14871" lon="-1.63304">
        <ele>19.21</ele>
        <time>2020-05-11T17:28:37Z</time>
      </trkpt>
      <trkpt lat="47.14871" lon="-1.63319">
        <ele>19.2</ele>
        <time>2020-05-11T17:28:39Z</time>
      </trkpt>
      <trkpt lat="47.14871" lon="-1.63335">
        <ele>19.87</ele>
        <time>2020-05-11T17:28:41Z</time>
      </trkpt>
      <trkpt lat="47.14871" lon="-1.6335">
        <ele>20.52</ele>
        <time>2020-05-11T17:28:43Z</time>
      </trkpt>
      <trkpt lat="47.1487" lon="-1.63363">
        <ele>19.29</ele>
        <time>2020-05-11T17:28:45Z</time>
      </trkpt>
      <trkpt lat="47.14872" lon="-1.63378">
        <ele>18.34</ele>
        <time>2020-05-11T17:28:47Z</time>
      </trkpt>
      <trkpt lat="47.1487" lon="-1.63397">
        <ele>17.97</ele>
        <time>2020-05-11T17:28:49Z</time>
      </trkpt>
      <trkpt lat="47.14869" lon="-1.63415">
        <ele>18.27</ele>
        <time>2020-05-11T17:28:51Z</time>
      </trkpt>
      <trkpt lat="47.14869" lon="-1.6343">
        <ele>18.29</ele>
        <time>2020-05-11T17:28:53Z</time>
      </trkpt>
      <trkpt lat="47.14869" lon="-1.63447">
        <ele>17.05</ele>
        <time>2020-05-11T17:28:55Z</time>
      </trkpt>
      <trkpt lat="47.14869" lon="-1.63463">
        <ele>16.46</ele>
        <time>2020-05-11T17:28:57Z</time>
      </trkpt>
      <trkpt lat="47.14868" lon="-1.63482">
        <ele>16.67</ele>
        <time>2020-05-11T17:28:59Z</time>
      </trkpt>
      <trkpt lat="47.14868" lon="-1.63496">
        <ele>16.89</ele>
        <time>2020-05-11T17:29:01Z</time>
      </trkpt>
      <trkpt lat="47.14867" lon="-1.63511">
        <ele>15.99</ele>
        <time>2020-05-11T17:29:03Z</time>
      </trkpt>
      <trkpt lat="47.14868" lon="-1.63526">
        <ele>16.45</ele>
        <time>2020-05-11T17:29:05Z</time>
      </trkpt>
      <trkpt lat="47.14868" lon="-1.63541">
        <ele>17.23</ele>
        <time>2020-05-11T17:29:07Z</time>
      </trkpt>
      <trkpt lat="47.14868" lon="-1.63555">
        <ele>16.77</ele>
        <time>2020-05-11T17:29:09Z</time>
      </trkpt>
      <trkpt lat="47.14867" lon="-1.63571">
        <ele>15.36</ele>
        <time>2020-05-11T17:29:11Z</time>
      </trkpt>
      <trkpt lat="47.14867" lon="-1.63588">
        <ele>13.91</ele>
        <time>2020-05-11T17:29:13Z</time>
      </trkpt>
      <trkpt lat="47.14867" lon="-1.63604">
        <ele>13.5</ele>
        <time>2020-05-11T17:29:15Z</time>
      </trkpt>
      <trkpt lat="47.14867" lon="-1.6362">
        <ele>13.8</ele>
        <time>2020-05-11T17:29:17Z</time>
      </trkpt>
      <trkpt lat="47.14867" lon="-1.63635">
        <ele>13.94</ele>
        <time>2020-05-11T17:29:19Z</time>
      </trkpt>
      <trkpt lat="47.14868" lon="-1.63656">
        <ele>14.09</ele>
        <time>2020-05-11T17:29:21Z</time>
      </trkpt>
      <trkpt lat="47.14868" lon="-1.63672">
        <ele>14.41</ele>
        <time>2020-05-11T17:29:23Z</time>
      </trkpt>
      <trkpt lat="47.14867" lon="-1.63687">
        <ele>15.38</ele>
        <time>2020-05-11T17:29:25Z</time>
      </trkpt>
      <trkpt lat="47.14866" lon="-1.63705">
        <ele>16.34</ele>
        <time>2020-05-11T17:29:27Z</time>
      </trkpt>
      <trkpt lat="47.14866" lon="-1.63724">
        <ele>17.8</ele>
        <time>2020-05-11T17:29:29Z</time>
      </trkpt>
      <trkpt lat="47.14867" lon="-1.6374">
        <ele>17.39</ele>
        <time>2020-05-11T17:29:31Z</time>
      </trkpt>
      <trkpt lat="47.14867" lon="-1.63756">
        <ele>18.34</ele>
        <time>2020-05-11T17:29:33Z</time>
      </trkpt>
      <trkpt lat="47.14866" lon="-1.63772">
        <ele>17.83</ele>
        <time>2020-05-11T17:29:35Z</time>
      </trkpt>
      <trkpt lat="47.14866" lon="-1.63785">
        <ele>17.86</ele>
        <time>2020-05-11T17:29:37Z</time>
      </trkpt>
      <trkpt lat="47.14866" lon="-1.63806">
        <ele>18.48</ele>
        <time>2020-05-11T17:29:39Z</time>
      </trkpt>
      <trkpt lat="47.14867" lon="-1.63823">
        <ele>18.6</ele>
        <time>2020-05-11T17:29:41Z</time>
      </trkpt>
      <trkpt lat="47.14866" lon="-1.63839">
        <ele>18.59</ele>
        <time>2020-05-11T17:29:43Z</time>
      </trkpt>
      <trkpt lat="47.14866" lon="-1.63853">
        <ele>18.25</ele>
        <time>2020-05-11T17:29:45Z</time>
      </trkpt>
      <trkpt lat="47.14865" lon="-1.63867">
        <ele>17.3</ele>
        <time>2020-05-11T17:29:47Z</time>
      </trkpt>
      <trkpt lat="47.14864" lon="-1.63886">
        <ele>17.2</ele>
        <time>2020-05-11T17:29:49Z</time>
      </trkpt>
      <trkpt lat="47.14862" lon="-1.63901">
        <ele>17.68</ele>
        <time>2020-05-11T17:29:51Z</time>
      </trkpt>
      <trkpt lat="47.14859" lon="-1.63916">
        <ele>18.81</ele>
        <time>2020-05-11T17:29:53Z</time>
      </trkpt>
      <trkpt lat="47.14857" lon="-1.6393">
        <ele>19.53</ele>
        <time>2020-05-11T17:29:55Z</time>
      </trkpt>
      <trkpt lat="47.14854" lon="-1.63944">
        <ele>20.02</ele>
        <time>2020-05-11T17:29:57Z</time>
      </trkpt>
      <trkpt lat="47.14852" lon="-1.63963">
        <ele>19.75</ele>
        <time>2020-05-11T17:29:59Z</time>
      </trkpt>
      <trkpt lat="47.14854" lon="-1.63979">
        <ele>18.4</ele>
        <time>2020-05-11T17:30:01Z</time>
      </trkpt>
      <trkpt lat="47.1486" lon="-1.63994">
        <ele>18.64</ele>
        <time>2020-05-11T17:30:03Z</time>
      </trkpt>
      <trkpt lat="47.14868" lon="-1.64007">
        <ele>19.94</ele>
        <time>2020-05-11T17:30:05Z</time>
      </trkpt>
      <trkpt lat="47.14877" lon="-1.64022">
        <ele>22.39</ele>
        <time>2020-05-11T17:30:07Z</time>
      </trkpt>
      <trkpt lat="47.14885" lon="-1.6403">
        <ele>23.57</ele>
        <time>2020-05-11T17:30:09Z</time>
      </trkpt>
      <trkpt lat="47.14895" lon="-1.64031">
        <ele>22.97</ele>
        <time>2020-05-11T17:30:11Z</time>
      </trkpt>
      <trkpt lat="47.14905" lon="-1.64026">
        <ele>22.11</ele>
        <time>2020-05-11T17:30:13Z</time>
      </trkpt>
      <trkpt lat="47.14913" lon="-1.64014">
        <ele>21.09</ele>
        <time>2020-05-11T17:30:15Z</time>
      </trkpt>
      <trkpt lat="47.14922" lon="-1.64">
        <ele>20.38</ele>
        <time>2020-05-11T17:30:17Z</time>
      </trkpt>
      <trkpt lat="47.1493" lon="-1.63988">
        <ele>20.14</ele>
        <time>2020-05-11T17:30:19Z</time>
      </trkpt>
      <trkpt lat="47.14938" lon="-1.63975">
        <ele>20.22</ele>
        <time>2020-05-11T17:30:21Z</time>
      </trkpt>
      <trkpt lat="47.14945" lon="-1.63964">
        <ele>20.52</ele>
        <time>2020-05-11T17:30:23Z</time>
      </trkpt>
      <trkpt lat="47.14953" lon="-1.63951">
        <ele>20.75</ele>
        <time>2020-05-11T17:30:25Z</time>
      </trkpt>
      <trkpt lat="47.1496" lon="-1.6394">
        <ele>20.83</ele>
        <time>2020-05-11T17:30:27Z</time>
      </trkpt>
      <trkpt lat="47.14969" lon="-1.63926">
        <ele>20.02</ele>
        <time>2020-05-11T17:30:29Z</time>
      </trkpt>
      <trkpt lat="47.14976" lon="-1.63916">
        <ele>20.2</ele>
        <time>2020-05-11T17:30:31Z</time>
      </trkpt>
      <trkpt lat="47.14984" lon="-1.63904">
        <ele>20.25</ele>
        <time>2020-05-11T17:30:33Z</time>
      </trkpt>
      <trkpt lat="47.14992" lon="-1.63892">
        <ele>20.26</ele>
        <time>2020-05-11T17:30:35Z</time>
      </trkpt>
      <trkpt lat="47.15001" lon="-1.6388">
        <ele>19.22</ele>
        <time>2020-05-11T17:30:37Z</time>
      </trkpt>
      <trkpt lat="47.15009" lon="-1.63868">
        <ele>19.48</ele>
        <time>2020-05-11T17:30:39Z</time>
      </trkpt>
      <trkpt lat="47.15016" lon="-1.63857">
        <ele>18.56</ele>
        <time>2020-05-11T17:30:41Z</time>
      </trkpt>
      <trkpt lat="47.15024" lon="-1.63848">
        <ele>17.82</ele>
        <time>2020-05-11T17:30:43Z</time>
      </trkpt>
      <trkpt lat="47.15032" lon="-1.63837">
        <ele>17.35</ele>
        <time>2020-05-11T17:30:45Z</time>
      </trkpt>
      <trkpt lat="47.15039" lon="-1.63827">
        <ele>17.38</ele>
        <time>2020-05-11T17:30:47Z</time>
      </trkpt>
      <trkpt lat="47.15049" lon="-1.63815">
        <ele>17.83</ele>
        <time>2020-05-11T17:30:49Z</time>
      </trkpt>
      <trkpt lat="47.15059" lon="-1.638">
        <ele>18.39</ele>
        <time>2020-05-11T17:30:52Z</time>
      </trkpt>
      <trkpt lat="47.15067" lon="-1.63789">
        <ele>19.22</ele>
        <time>2020-05-11T17:30:54Z</time>
      </trkpt>
      <trkpt lat="47.15076" lon="-1.63777">
        <ele>20.8</ele>
        <time>2020-05-11T17:30:56Z</time>
      </trkpt>
      <trkpt lat="47.15084" lon="-1.63767">
        <ele>21.56</ele>
        <time>2020-05-11T17:30:59Z</time>
      </trkpt>
      <trkpt lat="47.15095" lon="-1.63755">
        <ele>22.56</ele>
        <time>2020-05-11T17:31:02Z</time>
      </trkpt>
      <trkpt lat="47.15104" lon="-1.63744">
        <ele>23.66</ele>
        <time>2020-05-11T17:31:05Z</time>
      </trkpt>
      <trkpt lat="47.15112" lon="-1.63736">
        <ele>24.6</ele>
        <time>2020-05-11T17:31:07Z</time>
      </trkpt>
      <trkpt lat="47.15122" lon="-1.63728">
        <ele>24.87</ele>
        <time>2020-05-11T17:31:09Z</time>
      </trkpt>
      <trkpt lat="47.15131" lon="-1.63718">
        <ele>24.38</ele>
        <time>2020-05-11T17:31:11Z</time>
      </trkpt>
      <trkpt lat="47.15141" lon="-1.63707">
        <ele>24.61</ele>
        <time>2020-05-11T17:31:14Z</time>
      </trkpt>
      <trkpt lat="47.15151" lon="-1.63697">
        <ele>25.36</ele>
        <time>2020-05-11T17:31:17Z</time>
      </trkpt>
      <trkpt lat="47.15159" lon="-1.63688">
        <ele>25.59</ele>
        <time>2020-05-11T17:31:19Z</time>
      </trkpt>
      <trkpt lat="47.15167" lon="-1.6368">
        <ele>24.7</ele>
        <time>2020-05-11T17:31:21Z</time>
      </trkpt>
      <trkpt lat="47.15177" lon="-1.63672">
        <ele>23.24</ele>
        <time>2020-05-11T17:31:23Z</time>
      </trkpt>
      <trkpt lat="47.15185" lon="-1.63664">
        <ele>21.76</ele>
        <time>2020-05-11T17:31:25Z</time>
      </trkpt>
      <trkpt lat="47.15193" lon="-1.63657">
        <ele>21.47</ele>
        <time>2020-05-11T17:31:27Z</time>
      </trkpt>
      <trkpt lat="47.15202" lon="-1.63651">
        <ele>21.72</ele>
        <time>2020-05-11T17:31:29Z</time>
      </trkpt>
      <trkpt lat="47.15213" lon="-1.63641">
        <ele>22.6</ele>
        <time>2020-05-11T17:31:32Z</time>
      </trkpt>
      <trkpt lat="47.15222" lon="-1.63634">
        <ele>23.03</ele>
        <time>2020-05-11T17:31:34Z</time>
      </trkpt>
      <trkpt lat="47.15229" lon="-1.63626">
        <ele>23.89</ele>
        <time>2020-05-11T17:31:36Z</time>
      </trkpt>
      <trkpt lat="47.1524" lon="-1.63616">
        <ele>23.88</ele>
        <time>2020-05-11T17:31:39Z</time>
      </trkpt>
      <trkpt lat="47.15251" lon="-1.63606">
        <ele>24.31</ele>
        <time>2020-05-11T17:31:42Z</time>
      </trkpt>
      <trkpt lat="47.15263" lon="-1.63597">
        <ele>24.71</ele>
        <time>2020-05-11T17:31:45Z</time>
      </trkpt>
      <trkpt lat="47.15273" lon="-1.63588">
        <ele>24.73</ele>
        <time>2020-05-11T17:31:48Z</time>
      </trkpt>
      <trkpt lat="47.15282" lon="-1.63581">
        <ele>26.61</ele>
        <time>2020-05-11T17:31:50Z</time>
      </trkpt>
      <trkpt lat="47.1529" lon="-1.63574">
        <ele>27.78</ele>
        <time>2020-05-11T17:31:52Z</time>
      </trkpt>
      <trkpt lat="47.15298" lon="-1.63567">
        <ele>27.58</ele>
        <time>2020-05-11T17:31:54Z</time>
      </trkpt>
      <trkpt lat="47.15309" lon="-1.63558">
        <ele>27.64</ele>
        <time>2020-05-11T17:31:57Z</time>
      </trkpt>
      <trkpt lat="47.15316" lon="-1.63551">
        <ele>27.74</ele>
        <time>2020-05-11T17:31:58Z</time>
      </trkpt>
      <trkpt lat="47.15325" lon="-1.63543">
        <ele>27.82</ele>
        <time>2020-05-11T17:32:00Z</time>
      </trkpt>
      <trkpt lat="47.15335" lon="-1.63533">
        <ele>27.56</ele>
        <time>2020-05-11T17:32:03Z</time>
      </trkpt>
      <trkpt lat="47.15347" lon="-1.63524">
        <ele>27.01</ele>
        <time>2020-05-11T17:32:06Z</time>
      </trkpt>
      <trkpt lat="47.15354" lon="-1.63516">
        <ele>26.64</ele>
        <time>2020-05-11T17:32:08Z</time>
      </trkpt>
      <trkpt lat="47.15362" lon="-1.63509">
        <ele>26.61</ele>
        <time>2020-05-11T17:32:10Z</time>
      </trkpt>
      <trkpt lat="47.1537" lon="-1.635">
        <ele>26.33</ele>
        <time>2020-05-11T17:32:12Z</time>
      </trkpt>
      <trkpt lat="47.15378" lon="-1.63493">
        <ele>24.67</ele>
        <time>2020-05-11T17:32:14Z</time>
      </trkpt>
      <trkpt lat="47.15386" lon="-1.63485">
        <ele>24.33</ele>
        <time>2020-05-11T17:32:16Z</time>
      </trkpt>
      <trkpt lat="47.15394" lon="-1.63479">
        <ele>22.78</ele>
        <time>2020-05-11T17:32:18Z</time>
      </trkpt>
      <trkpt lat="47.15401" lon="-1.63471">
        <ele>22.41</ele>
        <time>2020-05-11T17:32:20Z</time>
      </trkpt>
      <trkpt lat="47.15409" lon="-1.63464">
        <ele>21.76</ele>
        <time>2020-05-11T17:32:22Z</time>
      </trkpt>
      <trkpt lat="47.15417" lon="-1.63456">
        <ele>21.73</ele>
        <time>2020-05-11T17:32:24Z</time>
      </trkpt>
      <trkpt lat="47.15426" lon="-1.63449">
        <ele>21.56</ele>
        <time>2020-05-11T17:32:26Z</time>
      </trkpt>
      <trkpt lat="47.15433" lon="-1.6344">
        <ele>21.2</ele>
        <time>2020-05-11T17:32:28Z</time>
      </trkpt>
      <trkpt lat="47.1544" lon="-1.63432">
        <ele>20.52</ele>
        <time>2020-05-11T17:32:30Z</time>
      </trkpt>
      <trkpt lat="47.15448" lon="-1.63424">
        <ele>20.09</ele>
        <time>2020-05-11T17:32:32Z</time>
      </trkpt>
      <trkpt lat="47.15457" lon="-1.63415">
        <ele>20.06</ele>
        <time>2020-05-11T17:32:34Z</time>
      </trkpt>
      <trkpt lat="47.15466" lon="-1.63407">
        <ele>20.75</ele>
        <time>2020-05-11T17:32:36Z</time>
      </trkpt>
      <trkpt lat="47.15476" lon="-1.63401">
        <ele>20.65</ele>
        <time>2020-05-11T17:32:38Z</time>
      </trkpt>
      <trkpt lat="47.15486" lon="-1.63396">
        <ele>19.38</ele>
        <time>2020-05-11T17:32:40Z</time>
      </trkpt>
      <trkpt lat="47.15495" lon="-1.63389">
        <ele>18.96</ele>
        <time>2020-05-11T17:32:42Z</time>
      </trkpt>
      <trkpt lat="47.15505" lon="-1.6338">
        <ele>19.58</ele>
        <time>2020-05-11T17:32:44Z</time>
      </trkpt>
      <trkpt lat="47.15513" lon="-1.63373">
        <ele>19.43</ele>
        <time>2020-05-11T17:32:46Z</time>
      </trkpt>
      <trkpt lat="47.15521" lon="-1.63365">
        <ele>19.02</ele>
        <time>2020-05-11T17:32:48Z</time>
      </trkpt>
      <trkpt lat="47.1553" lon="-1.63356">
        <ele>18.96</ele>
        <time>2020-05-11T17:32:50Z</time>
      </trkpt>
      <trkpt lat="47.15539" lon="-1.63349">
        <ele>18.83</ele>
        <time>2020-05-11T17:32:52Z</time>
      </trkpt>
      <trkpt lat="47.15548" lon="-1.6334">
        <ele>19.19</ele>
        <time>2020-05-11T17:32:54Z</time>
      </trkpt>
      <trkpt lat="47.15557" lon="-1.63333">
        <ele>18.82</ele>
        <time>2020-05-11T17:32:56Z</time>
      </trkpt>
      <trkpt lat="47.15567" lon="-1.63324">
        <ele>19.22</ele>
        <time>2020-05-11T17:32:58Z</time>
      </trkpt>
      <trkpt lat="47.15575" lon="-1.63317">
        <ele>19.33</ele>
        <time>2020-05-11T17:33:00Z</time>
      </trkpt>
      <trkpt lat="47.15587" lon="-1.63305">
        <ele>19.19</ele>
        <time>2020-05-11T17:33:03Z</time>
      </trkpt>
      <trkpt lat="47.15595" lon="-1.63296">
        <ele>19.13</ele>
        <time>2020-05-11T17:33:05Z</time>
      </trkpt>
      <trkpt lat="47.15603" lon="-1.63288">
        <ele>17.83</ele>
        <time>2020-05-11T17:33:07Z</time>
      </trkpt>
      <trkpt lat="47.15611" lon="-1.6328">
        <ele>17.88</ele>
        <time>2020-05-11T17:33:09Z</time>
      </trkpt>
      <trkpt lat="47.15619" lon="-1.63272">
        <ele>18.39</ele>
        <time>2020-05-11T17:33:11Z</time>
      </trkpt>
      <trkpt lat="47.15627" lon="-1.63265">
        <ele>19.87</ele>
        <time>2020-05-11T17:33:13Z</time>
      </trkpt>
      <trkpt lat="47.15639" lon="-1.63256">
        <ele>22.7</ele>
        <time>2020-05-11T17:33:16Z</time>
      </trkpt>
      <trkpt lat="47.15648" lon="-1.63249">
        <ele>23.18</ele>
        <time>2020-05-11T17:33:18Z</time>
      </trkpt>
      <trkpt lat="47.15658" lon="-1.63238">
        <ele>23.65</ele>
        <time>2020-05-11T17:33:21Z</time>
      </trkpt>
      <trkpt lat="47.15666" lon="-1.6323">
        <ele>23.79</ele>
        <time>2020-05-11T17:33:24Z</time>
      </trkpt>
      <trkpt lat="47.15674" lon="-1.6322">
        <ele>24.2</ele>
        <time>2020-05-11T17:33:26Z</time>
      </trkpt>
      <trkpt lat="47.15684" lon="-1.63212">
        <ele>24.58</ele>
        <time>2020-05-11T17:33:28Z</time>
      </trkpt>
      <trkpt lat="47.15695" lon="-1.63204">
        <ele>24.91</ele>
        <time>2020-05-11T17:33:30Z</time>
      </trkpt>
      <trkpt lat="47.15706" lon="-1.63196">
        <ele>24.28</ele>
        <time>2020-05-11T17:33:32Z</time>
      </trkpt>
      <trkpt lat="47.15718" lon="-1.63189">
        <ele>22.32</ele>
        <time>2020-05-11T17:33:34Z</time>
      </trkpt>
      <trkpt lat="47.15728" lon="-1.63181">
        <ele>20.7</ele>
        <time>2020-05-11T17:33:36Z</time>
      </trkpt>
      <trkpt lat="47.15737" lon="-1.63173">
        <ele>19.52</ele>
        <time>2020-05-11T17:33:38Z</time>
      </trkpt>
      <trkpt lat="47.15747" lon="-1.63163">
        <ele>18.23</ele>
        <time>2020-05-11T17:33:40Z</time>
      </trkpt>
      <trkpt lat="47.1576" lon="-1.63158">
        <ele>16.36</ele>
        <time>2020-05-11T17:33:42Z</time>
      </trkpt>
      <trkpt lat="47.15768" lon="-1.63153">
        <ele>14.84</ele>
        <time>2020-05-11T17:33:44Z</time>
      </trkpt>
      <trkpt lat="47.15777" lon="-1.63146">
        <ele>14.94</ele>
        <time>2020-05-11T17:33:46Z</time>
      </trkpt>
      <trkpt lat="47.15786" lon="-1.63139">
        <ele>15.82</ele>
        <time>2020-05-11T17:33:48Z</time>
      </trkpt>
      <trkpt lat="47.15795" lon="-1.63132">
        <ele>17.15</ele>
        <time>2020-05-11T17:33:50Z</time>
      </trkpt>
      <trkpt lat="47.15805" lon="-1.63125">
        <ele>18.19</ele>
        <time>2020-05-11T17:33:52Z</time>
      </trkpt>
      <trkpt lat="47.15814" lon="-1.63116">
        <ele>18.56</ele>
        <time>2020-05-11T17:33:54Z</time>
      </trkpt>
      <trkpt lat="47.15823" lon="-1.63108">
        <ele>18.55</ele>
        <time>2020-05-11T17:33:56Z</time>
      </trkpt>
      <trkpt lat="47.15832" lon="-1.63099">
        <ele>18.63</ele>
        <time>2020-05-11T17:33:58Z</time>
      </trkpt>
      <trkpt lat="47.1584" lon="-1.63091">
        <ele>18.85</ele>
        <time>2020-05-11T17:34:00Z</time>
      </trkpt>
      <trkpt lat="47.15848" lon="-1.63081">
        <ele>18.13</ele>
        <time>2020-05-11T17:34:02Z</time>
      </trkpt>
      <trkpt lat="47.15859" lon="-1.63071">
        <ele>15.35</ele>
        <time>2020-05-11T17:34:04Z</time>
      </trkpt>
      <trkpt lat="47.15868" lon="-1.6306">
        <ele>12.97</ele>
        <time>2020-05-11T17:34:06Z</time>
      </trkpt>
      <trkpt lat="47.15878" lon="-1.63052">
        <ele>10.96</ele>
        <time>2020-05-11T17:34:08Z</time>
      </trkpt>
      <trkpt lat="47.15887" lon="-1.63043">
        <ele>10.7</ele>
        <time>2020-05-11T17:34:10Z</time>
      </trkpt>
      <trkpt lat="47.15896" lon="-1.63036">
        <ele>11.44</ele>
        <time>2020-05-11T17:34:12Z</time>
      </trkpt>
      <trkpt lat="47.15905" lon="-1.63027">
        <ele>12.31</ele>
        <time>2020-05-11T17:34:14Z</time>
      </trkpt>
      <trkpt lat="47.15914" lon="-1.63019">
        <ele>13.02</ele>
        <time>2020-05-11T17:34:16Z</time>
      </trkpt>
      <trkpt lat="47.15922" lon="-1.63013">
        <ele>12.73</ele>
        <time>2020-05-11T17:34:18Z</time>
      </trkpt>
      <trkpt lat="47.15932" lon="-1.63004">
        <ele>14.54</ele>
        <time>2020-05-11T17:34:21Z</time>
      </trkpt>
      <trkpt lat="47.15941" lon="-1.62996">
        <ele>15.98</ele>
        <time>2020-05-11T17:34:24Z</time>
      </trkpt>
      <trkpt lat="47.1595" lon="-1.62989">
        <ele>19.52</ele>
        <time>2020-05-11T17:34:27Z</time>
      </trkpt>
      <trkpt lat="47.15959" lon="-1.62982">
        <ele>20.19</ele>
        <time>2020-05-11T17:34:29Z</time>
      </trkpt>
      <trkpt lat="47.15968" lon="-1.62976">
        <ele>20.67</ele>
        <time>2020-05-11T17:34:32Z</time>
      </trkpt>
      <trkpt lat="47.15979" lon="-1.62967">
        <ele>21.93</ele>
        <time>2020-05-11T17:34:35Z</time>
      </trkpt>
      <trkpt lat="47.15988" lon="-1.6296">
        <ele>22.35</ele>
        <time>2020-05-11T17:34:37Z</time>
      </trkpt>
      <trkpt lat="47.15996" lon="-1.62952">
        <ele>22.42</ele>
        <time>2020-05-11T17:34:39Z</time>
      </trkpt>
      <trkpt lat="47.16004" lon="-1.62944">
        <ele>21.62</ele>
        <time>2020-05-11T17:34:41Z</time>
      </trkpt>
      <trkpt lat="47.16011" lon="-1.62935">
        <ele>20.95</ele>
        <time>2020-05-11T17:34:44Z</time>
      </trkpt>
      <trkpt lat="47.16021" lon="-1.62925">
        <ele>20.73</ele>
        <time>2020-05-11T17:34:47Z</time>
      </trkpt>
      <trkpt lat="47.1603" lon="-1.62919">
        <ele>20.6</ele>
        <time>2020-05-11T17:34:50Z</time>
      </trkpt>
      <trkpt lat="47.16038" lon="-1.62912">
        <ele>20.81</ele>
        <time>2020-05-11T17:34:53Z</time>
      </trkpt>
      <trkpt lat="47.16048" lon="-1.62904">
        <ele>21.26</ele>
        <time>2020-05-11T17:34:57Z</time>
      </trkpt>
      <trkpt lat="47.16057" lon="-1.62896">
        <ele>21.73</ele>
        <time>2020-05-11T17:35:01Z</time>
      </trkpt>
      <trkpt lat="47.16068" lon="-1.62888">
        <ele>22.61</ele>
        <time>2020-05-11T17:35:05Z</time>
      </trkpt>
      <trkpt lat="47.16078" lon="-1.62879">
        <ele>23.21</ele>
        <time>2020-05-11T17:35:08Z</time>
      </trkpt>
      <trkpt lat="47.16086" lon="-1.62871">
        <ele>23.66</ele>
        <time>2020-05-11T17:35:11Z</time>
      </trkpt>
      <trkpt lat="47.16096" lon="-1.62862">
        <ele>24.3</ele>
        <time>2020-05-11T17:35:14Z</time>
      </trkpt>
      <trkpt lat="47.16104" lon="-1.62855">
        <ele>24.7</ele>
        <time>2020-05-11T17:35:16Z</time>
      </trkpt>
      <trkpt lat="47.16114" lon="-1.62847">
        <ele>25.01</ele>
        <time>2020-05-11T17:35:19Z</time>
      </trkpt>
      <trkpt lat="47.16123" lon="-1.6284">
        <ele>25.47</ele>
        <time>2020-05-11T17:35:22Z</time>
      </trkpt>
      <trkpt lat="47.16134" lon="-1.62831">
        <ele>26.34</ele>
        <time>2020-05-11T17:35:26Z</time>
      </trkpt>
      <trkpt lat="47.16142" lon="-1.62823">
        <ele>26.95</ele>
        <time>2020-05-11T17:35:29Z</time>
      </trkpt>
      <trkpt lat="47.16151" lon="-1.62816">
        <ele>27.16</ele>
        <time>2020-05-11T17:35:31Z</time>
      </trkpt>
      <trkpt lat="47.16161" lon="-1.62807">
        <ele>27.5</ele>
        <time>2020-05-11T17:35:34Z</time>
      </trkpt>
      <trkpt lat="47.1617" lon="-1.62798">
        <ele>27.92</ele>
        <time>2020-05-11T17:35:37Z</time>
      </trkpt>
      <trkpt lat="47.16179" lon="-1.62789">
        <ele>28.2</ele>
        <time>2020-05-11T17:35:40Z</time>
      </trkpt>
      <trkpt lat="47.16188" lon="-1.6278">
        <ele>28.52</ele>
        <time>2020-05-11T17:35:43Z</time>
      </trkpt>
      <trkpt lat="47.16198" lon="-1.6277">
        <ele>28.3</ele>
        <time>2020-05-11T17:35:46Z</time>
      </trkpt>
      <trkpt lat="47.16205" lon="-1.62762">
        <ele>28.15</ele>
        <time>2020-05-11T17:35:48Z</time>
      </trkpt>
      <trkpt lat="47.16214" lon="-1.62753">
        <ele>27.51</ele>
        <time>2020-05-11T17:35:52Z</time>
      </trkpt>
      <trkpt lat="47.16224" lon="-1.62744">
        <ele>27.03</ele>
        <time>2020-05-11T17:35:56Z</time>
      </trkpt>
      <trkpt lat="47.16232" lon="-1.62737">
        <ele>26.93</ele>
        <time>2020-05-11T17:35:59Z</time>
      </trkpt>
      <trkpt lat="47.16241" lon="-1.6273">
        <ele>26.7</ele>
        <time>2020-05-11T17:36:02Z</time>
      </trkpt>
      <trkpt lat="47.16251" lon="-1.62722">
        <ele>26.61</ele>
        <time>2020-05-11T17:36:05Z</time>
      </trkpt>
      <trkpt lat="47.16261" lon="-1.62713">
        <ele>26.34</ele>
        <time>2020-05-11T17:36:08Z</time>
      </trkpt>
      <trkpt lat="47.16271" lon="-1.62705">
        <ele>25.92</ele>
        <time>2020-05-11T17:36:11Z</time>
      </trkpt>
      <trkpt lat="47.16277" lon="-1.62692">
        <ele>25.39</ele>
        <time>2020-05-11T17:36:14Z</time>
      </trkpt>
      <trkpt lat="47.16277" lon="-1.62678">
        <ele>23.34</ele>
        <time>2020-05-11T17:36:16Z</time>
      </trkpt>
      <trkpt lat="47.16278" lon="-1.62659">
        <ele>20.09</ele>
        <time>2020-05-11T17:36:19Z</time>
      </trkpt>
      <trkpt lat="47.1628" lon="-1.62641">
        <ele>17.99</ele>
        <time>2020-05-11T17:36:22Z</time>
      </trkpt>
      <trkpt lat="47.16284" lon="-1.62624">
        <ele>18.78</ele>
        <time>2020-05-11T17:36:25Z</time>
      </trkpt>
      <trkpt lat="47.16288" lon="-1.6261">
        <ele>18.38</ele>
        <time>2020-05-11T17:36:28Z</time>
      </trkpt>
      <trkpt lat="47.16293" lon="-1.62593">
        <ele>18.2</ele>
        <time>2020-05-11T17:36:31Z</time>
      </trkpt>
      <trkpt lat="47.16302" lon="-1.62582">
        <ele>17.98</ele>
        <time>2020-05-11T17:36:35Z</time>
      </trkpt>
      <trkpt lat="47.16313" lon="-1.62577">
        <ele>17.95</ele>
        <time>2020-05-11T17:36:38Z</time>
      </trkpt>
      <trkpt lat="47.16323" lon="-1.62576">
        <ele>17.77</ele>
        <time>2020-05-11T17:36:40Z</time>
      </trkpt>
      <trkpt lat="47.16334" lon="-1.62581">
        <ele>15.81</ele>
        <time>2020-05-11T17:36:43Z</time>
      </trkpt>
      <trkpt lat="47.16347" lon="-1.62586">
        <ele>14.76</ele>
        <time>2020-05-11T17:36:46Z</time>
      </trkpt>
      <trkpt lat="47.16359" lon="-1.62591">
        <ele>14.58</ele>
        <time>2020-05-11T17:36:49Z</time>
      </trkpt>
      <trkpt lat="47.16369" lon="-1.62592">
        <ele>14.51</ele>
        <time>2020-05-11T17:36:52Z</time>
      </trkpt>
      <trkpt lat="47.16381" lon="-1.6259">
        <ele>14.61</ele>
        <time>2020-05-11T17:36:56Z</time>
      </trkpt>
      <trkpt lat="47.16392" lon="-1.62585">
        <ele>14.74</ele>
        <time>2020-05-11T17:36:59Z</time>
      </trkpt>
      <trkpt lat="47.16402" lon="-1.62577">
        <ele>14.91</ele>
        <time>2020-05-11T17:37:02Z</time>
      </trkpt>
      <trkpt lat="47.16412" lon="-1.62567">
        <ele>15.74</ele>
        <time>2020-05-11T17:37:05Z</time>
      </trkpt>
      <trkpt lat="47.16422" lon="-1.62558">
        <ele>16.08</ele>
        <time>2020-05-11T17:37:08Z</time>
      </trkpt>
      <trkpt lat="47.16432" lon="-1.62551">
        <ele>16.24</ele>
        <time>2020-05-11T17:37:11Z</time>
      </trkpt>
      <trkpt lat="47.16441" lon="-1.6255">
        <ele>16.44</ele>
        <time>2020-05-11T17:37:14Z</time>
      </trkpt>
      <trkpt lat="47.16453" lon="-1.6255">
        <ele>16.48</ele>
        <time>2020-05-11T17:37:17Z</time>
      </trkpt>
      <trkpt lat="47.16464" lon="-1.62553">
        <ele>16.79</ele>
        <time>2020-05-11T17:37:20Z</time>
      </trkpt>
      <trkpt lat="47.16473" lon="-1.62555">
        <ele>16.91</ele>
        <time>2020-05-11T17:37:23Z</time>
      </trkpt>
      <trkpt lat="47.16486" lon="-1.62557">
        <ele>17.18</ele>
        <time>2020-05-11T17:37:26Z</time>
      </trkpt>
      <trkpt lat="47.16497" lon="-1.62561">
        <ele>18.4</ele>
        <time>2020-05-11T17:37:29Z</time>
      </trkpt>
      <trkpt lat="47.16508" lon="-1.62566">
        <ele>18.29</ele>
        <time>2020-05-11T17:37:31Z</time>
      </trkpt>
      <trkpt lat="47.16518" lon="-1.62568">
        <ele>17.14</ele>
        <time>2020-05-11T17:37:33Z</time>
      </trkpt>
      <trkpt lat="47.16528" lon="-1.6257">
        <ele>16.83</ele>
        <time>2020-05-11T17:37:35Z</time>
      </trkpt>
      <trkpt lat="47.16539" lon="-1.62566">
        <ele>17.22</ele>
        <time>2020-05-11T17:37:38Z</time>
      </trkpt>
      <trkpt lat="47.16547" lon="-1.62557">
        <ele>19.65</ele>
        <time>2020-05-11T17:37:41Z</time>
      </trkpt>
      <trkpt lat="47.16556" lon="-1.62546">
        <ele>20.37</ele>
        <time>2020-05-11T17:37:43Z</time>
      </trkpt>
      <trkpt lat="47.16564" lon="-1.62532">
        <ele>21.45</ele>
        <time>2020-05-11T17:37:45Z</time>
      </trkpt>
      <trkpt lat="47.16572" lon="-1.62517">
        <ele>21.48</ele>
        <time>2020-05-11T17:37:47Z</time>
      </trkpt>
      <trkpt lat="47.16577" lon="-1.62501">
        <ele>20.83</ele>
        <time>2020-05-11T17:37:49Z</time>
      </trkpt>
      <trkpt lat="47.16583" lon="-1.62485">
        <ele>19.33</ele>
        <time>2020-05-11T17:37:51Z</time>
      </trkpt>
      <trkpt lat="47.16589" lon="-1.62469">
        <ele>17.75</ele>
        <time>2020-05-11T17:37:53Z</time>
      </trkpt>
      <trkpt lat="47.16595" lon="-1.62456">
        <ele>17.25</ele>
        <time>2020-05-11T17:37:55Z</time>
      </trkpt>
      <trkpt lat="47.16601" lon="-1.62442">
        <ele>16.64</ele>
        <time>2020-05-11T17:37:57Z</time>
      </trkpt>
      <trkpt lat="47.16608" lon="-1.62429">
        <ele>16.93</ele>
        <time>2020-05-11T17:37:59Z</time>
      </trkpt>
      <trkpt lat="47.16616" lon="-1.62416">
        <ele>16.57</ele>
        <time>2020-05-11T17:38:01Z</time>
      </trkpt>
      <trkpt lat="47.16624" lon="-1.62401">
        <ele>15.67</ele>
        <time>2020-05-11T17:38:03Z</time>
      </trkpt>
      <trkpt lat="47.16632" lon="-1.62389">
        <ele>15.31</ele>
        <time>2020-05-11T17:38:05Z</time>
      </trkpt>
      <trkpt lat="47.16642" lon="-1.62382">
        <ele>14.92</ele>
        <time>2020-05-11T17:38:07Z</time>
      </trkpt>
      <trkpt lat="47.16653" lon="-1.62376">
        <ele>16.08</ele>
        <time>2020-05-11T17:38:09Z</time>
      </trkpt>
      <trkpt lat="47.16665" lon="-1.62371">
        <ele>17.18</ele>
        <time>2020-05-11T17:38:11Z</time>
      </trkpt>
      <trkpt lat="47.16676" lon="-1.62371">
        <ele>16.77</ele>
        <time>2020-05-11T17:38:13Z</time>
      </trkpt>
      <trkpt lat="47.16691" lon="-1.62376">
        <ele>16.22</ele>
        <time>2020-05-11T17:38:15Z</time>
      </trkpt>
      <trkpt lat="47.16701" lon="-1.62384">
        <ele>15.14</ele>
        <time>2020-05-11T17:38:17Z</time>
      </trkpt>
      <trkpt lat="47.16708" lon="-1.62395">
        <ele>13.99</ele>
        <time>2020-05-11T17:38:19Z</time>
      </trkpt>
      <trkpt lat="47.16715" lon="-1.62409">
        <ele>12.83</ele>
        <time>2020-05-11T17:38:21Z</time>
      </trkpt>
      <trkpt lat="47.16723" lon="-1.6242">
        <ele>12.58</ele>
        <time>2020-05-11T17:38:23Z</time>
      </trkpt>
      <trkpt lat="47.16726" lon="-1.62437">
        <ele>11.74</ele>
        <time>2020-05-11T17:38:26Z</time>
      </trkpt>
      <trkpt lat="47.16722" lon="-1.62451">
        <ele>11.88</ele>
        <time>2020-05-11T17:38:28Z</time>
      </trkpt>
      <trkpt lat="47.16717" lon="-1.62471">
        <ele>13.09</ele>
        <time>2020-05-11T17:38:30Z</time>
      </trkpt>
      <trkpt lat="47.16714" lon="-1.62486">
        <ele>14.5</ele>
        <time>2020-05-11T17:38:32Z</time>
      </trkpt>
      <trkpt lat="47.16714" lon="-1.62501">
        <ele>15.36</ele>
        <time>2020-05-11T17:38:34Z</time>
      </trkpt>
      <trkpt lat="47.16723" lon="-1.62508">
        <ele>14.27</ele>
        <time>2020-05-11T17:38:36Z</time>
      </trkpt>
      <trkpt lat="47.16734" lon="-1.62513">
        <ele>11.97</ele>
        <time>2020-05-11T17:38:38Z</time>
      </trkpt>
      <trkpt lat="47.16746" lon="-1.62519">
        <ele>9.67</ele>
        <time>2020-05-11T17:38:40Z</time>
      </trkpt>
      <trkpt lat="47.16757" lon="-1.62522">
        <ele>8.38</ele>
        <time>2020-05-11T17:38:42Z</time>
      </trkpt>
      <trkpt lat="47.16767" lon="-1.62528">
        <ele>8.53</ele>
        <time>2020-05-11T17:38:44Z</time>
      </trkpt>
      <trkpt lat="47.16778" lon="-1.62533">
        <ele>9.82</ele>
        <time>2020-05-11T17:38:46Z</time>
      </trkpt>
      <trkpt lat="47.16787" lon="-1.62539">
        <ele>10.63</ele>
        <time>2020-05-11T17:38:48Z</time>
      </trkpt>
      <trkpt lat="47.16796" lon="-1.62546">
        <ele>11.56</ele>
        <time>2020-05-11T17:38:50Z</time>
      </trkpt>
      <trkpt lat="47.16806" lon="-1.62553">
        <ele>12.64</ele>
        <time>2020-05-11T17:38:52Z</time>
      </trkpt>
      <trkpt lat="47.16814" lon="-1.6256">
        <ele>12.99</ele>
        <time>2020-05-11T17:38:54Z</time>
      </trkpt>
      <trkpt lat="47.16823" lon="-1.6257">
        <ele>12.16</ele>
        <time>2020-05-11T17:38:56Z</time>
      </trkpt>
      <trkpt lat="47.1683" lon="-1.62581">
        <ele>11.58</ele>
        <time>2020-05-11T17:38:58Z</time>
      </trkpt>
      <trkpt lat="47.16829" lon="-1.62597">
        <ele>10.96</ele>
        <time>2020-05-11T17:39:00Z</time>
      </trkpt>
      <trkpt lat="47.1682" lon="-1.62607">
        <ele>10.88</ele>
        <time>2020-05-11T17:39:02Z</time>
      </trkpt>
      <trkpt lat="47.16808" lon="-1.62621">
        <ele>12.1</ele>
        <time>2020-05-11T17:39:05Z</time>
      </trkpt>
      <trkpt lat="47.16801" lon="-1.62632">
        <ele>12.28</ele>
        <time>2020-05-11T17:39:07Z</time>
      </trkpt>
      <trkpt lat="47.16794" lon="-1.62643">
        <ele>12.31</ele>
        <time>2020-05-11T17:39:09Z</time>
      </trkpt>
      <trkpt lat="47.16786" lon="-1.62658">
        <ele>12.85</ele>
        <time>2020-05-11T17:39:12Z</time>
      </trkpt>
      <trkpt lat="47.16777" lon="-1.62662">
        <ele>14.08</ele>
        <time>2020-05-11T17:39:22Z</time>
      </trkpt>
    </trkseg>
  </trk>
</gpx>